<?xml version='1.0' encoding='UTF-8'?><gpx version="1.1" creator="JPX - https://github.com/jenetics/jpx" xmlns="http://www.topografix.com/GPX/1/1"><trk><trkseg><trkpt lat="33.45586672722159" lon="9.024404815569955"><ele>70.0</ele><time>2026-03-23T15:12:39Z</time></trkpt><trkpt lat="33.455872433017745" lon="9.024328986702441"><ele>70.0</ele><time>2026-03-23T15:13:00Z</time></trkpt><trkpt lat="33.455827541795756" lon="9.024233778910288"><ele>70.0</ele><time>2026-03-23T15:13:07.001Z</time></trkpt><trkpt lat="33.45580376001573" lon="9.024149691147567"><ele>70.0</ele><time>2026-03-23T15:13:09.001Z</time></trkpt><trkpt lat="33.455788773635014" lon="9.02399195406559"><ele>70.0</ele><time>2026-03-23T15:13:15.001Z</time></trkpt><trkpt lat="33.455766895696264" lon="9.023909842814456"><ele>70.0</ele><time>2026-03-23T15:13:16.001Z</time></trkpt><trkpt lat="33.455745196967825" lon="9.023801339620482"><ele>70.0</ele><time>2026-03-23T15:13:18.001Z</time></trkpt><trkpt lat="33.45572522815822" lon="9.023686738869191"><ele>70.0</ele><time>2026-03-23T15:13:20.001Z</time></trkpt><trkpt lat="33.455710346587125" lon="9.023610836662465"><ele>70.0</ele><time>2026-03-23T15:13:21.001Z</time></trkpt><trkpt lat="33.45568312008129" lon="9.023498497736368"><ele>70.0</ele><time>2026-03-23T15:13:23.001Z</time></trkpt><trkpt lat="33.455645568060845" lon="9.023406072920011"><ele>70.0</ele><time>2026-03-23T15:13:27.001Z</time></trkpt><trkpt lat="33.45550888206678" lon="9.023355191802185"><ele>70.16666666666666</ele><time>2026-03-23T15:13:29.001Z</time></trkpt><trkpt lat="33.45542623451429" lon="9.023340978334575"><ele>70.33333333333333</ele><time>2026-03-23T15:13:30.001Z</time></trkpt><trkpt lat="33.4553424558718" lon="9.023319289638417"><ele>70.5</ele><time>2026-03-23T15:13:31.001Z</time></trkpt><trkpt lat="33.455257413732554" lon="9.023292092697414"><ele>70.66666666666667</ele><time>2026-03-23T15:13:32.001Z</time></trkpt><trkpt lat="33.45516854449705" lon="9.023259192644595"><ele>70.83333333333334</ele><time>2026-03-23T15:13:33.001Z</time></trkpt><trkpt lat="33.45507922276951" lon="9.023210439957893"><ele>71.0</ele><time>2026-03-23T15:13:34.001Z</time></trkpt><trkpt lat="33.454988606214194" lon="9.023148441406025"><ele>71.0</ele><time>2026-03-23T15:13:35.001Z</time></trkpt><trkpt lat="33.454898915704256" lon="9.023088414418018"><ele>71.0</ele><time>2026-03-23T15:13:36.001Z</time></trkpt><trkpt lat="33.45480369512867" lon="9.023028468891322"><ele>71.0</ele><time>2026-03-23T15:13:37.001Z</time></trkpt><trkpt lat="33.454713451462105" lon="9.02297267768059"><ele>71.0</ele><time>2026-03-23T15:13:38.001Z</time></trkpt><trkpt lat="33.45464219994609" lon="9.022926932611396"><ele>71.0</ele><time>2026-03-23T15:13:39.001Z</time></trkpt><trkpt lat="33.45453440886817" lon="9.02285923022642"><ele>71.0</ele><time>2026-03-23T15:13:41Z</time></trkpt><trkpt lat="33.454459067071745" lon="9.022825023771862"><ele>71.0</ele><time>2026-03-23T15:13:42Z</time></trkpt><trkpt lat="33.454377510680864" lon="9.022774432364852"><ele>71.0</ele><time>2026-03-23T15:13:43Z</time></trkpt><trkpt lat="33.454294345904245" lon="9.022716590978892"><ele>71.0</ele><time>2026-03-23T15:13:44Z</time></trkpt><trkpt lat="33.45420605826664" lon="9.022647427332016"><ele>71.0</ele><time>2026-03-23T15:13:45Z</time></trkpt><trkpt lat="33.454118293390984" lon="9.022564061498041"><ele>71.0</ele><time>2026-03-23T15:13:46Z</time></trkpt><trkpt lat="33.45404138838263" lon="9.022471542031584"><ele>71.0</ele><time>2026-03-23T15:13:47Z</time></trkpt><trkpt lat="33.453977119778166" lon="9.022386633031015"><ele>71.0</ele><time>2026-03-23T15:13:48Z</time></trkpt><trkpt lat="33.453916084184414" lon="9.022299517513318"><ele>71.0</ele><time>2026-03-23T15:13:49Z</time></trkpt><trkpt lat="33.45385773869106" lon="9.022200373091195"><ele>71.0</ele><time>2026-03-23T15:13:50Z</time></trkpt><trkpt lat="33.45378610096821" lon="9.02208873451815"><ele>71.2</ele><time>2026-03-23T15:13:51Z</time></trkpt><trkpt lat="33.453713043162644" lon="9.021984024056389"><ele>71.39999999999999</ele><time>2026-03-23T15:13:52Z</time></trkpt><trkpt lat="33.45365506038932" lon="9.021893025233853"><ele>71.6</ele><time>2026-03-23T15:13:53Z</time></trkpt><trkpt lat="33.45360321196395" lon="9.021818061270213"><ele>71.8</ele><time>2026-03-23T15:13:54Z</time></trkpt><trkpt lat="33.453551132044375" lon="9.021738202203007"><ele>72.0</ele><time>2026-03-23T15:13:55Z</time></trkpt><trkpt lat="33.45349709292624" lon="9.021651728645272"><ele>72.33333333333333</ele><time>2026-03-23T15:13:56Z</time></trkpt><trkpt lat="33.453444736199366" lon="9.021574167319894"><ele>72.66666666666667</ele><time>2026-03-23T15:13:57Z</time></trkpt><trkpt lat="33.453399857792235" lon="9.02150586285354"><ele>73.0</ele><time>2026-03-23T15:13:58Z</time></trkpt><trkpt lat="33.453357789555334" lon="9.021437419606833"><ele>73.33333333333334</ele><time>2026-03-23T15:13:59Z</time></trkpt><trkpt lat="33.45330691858703" lon="9.021350671126056"><ele>73.66666666666667</ele><time>2026-03-23T15:14:00Z</time></trkpt><trkpt lat="33.45325219892626" lon="9.021249067577417"><ele>74.0</ele><time>2026-03-23T15:14:01Z</time></trkpt><trkpt lat="33.45320049732618" lon="9.021140288955932"><ele>74.0</ele><time>2026-03-23T15:14:02Z</time></trkpt><trkpt lat="33.4531445468736" lon="9.021031050540225"><ele>74.0</ele><time>2026-03-23T15:14:03Z</time></trkpt><trkpt lat="33.45309188236917" lon="9.020921586477284"><ele>74.0</ele><time>2026-03-23T15:14:04Z</time></trkpt><trkpt lat="33.45304311548152" lon="9.020819111112647"><ele>74.0</ele><time>2026-03-23T15:14:05Z</time></trkpt><trkpt lat="33.45299276629613" lon="9.020709512370498"><ele>74.0</ele><time>2026-03-23T15:14:06Z</time></trkpt><trkpt lat="33.4529493916892" lon="9.020607004338656"><ele>74.16666666666667</ele><time>2026-03-23T15:14:07Z</time></trkpt><trkpt lat="33.452913179773724" lon="9.020518636853076"><ele>74.33333333333334</ele><time>2026-03-23T15:14:08Z</time></trkpt><trkpt lat="33.452879647948336" lon="9.020435567913683"><ele>74.5</ele><time>2026-03-23T15:14:09Z</time></trkpt><trkpt lat="33.452847120024934" lon="9.02034883673599"><ele>74.66666666666667</ele><time>2026-03-23T15:14:10Z</time></trkpt><trkpt lat="33.45281485629898" lon="9.020259091379298"><ele>74.83333333333333</ele><time>2026-03-23T15:14:11Z</time></trkpt><trkpt lat="33.45277881156852" lon="9.02015864931045"><ele>75.0</ele><time>2026-03-23T15:14:12Z</time></trkpt><trkpt lat="33.45274751950559" lon="9.020053970854047"><ele>74.4</ele><time>2026-03-23T15:14:13Z</time></trkpt><trkpt lat="33.45271681688447" lon="9.019944387789552"><ele>73.8</ele><time>2026-03-23T15:14:14Z</time></trkpt><trkpt lat="33.45268754435391" lon="9.01983255198089"><ele>73.2</ele><time>2026-03-23T15:14:15Z</time></trkpt><trkpt lat="33.45265067430202" lon="9.01971660404773"><ele>72.6</ele><time>2026-03-23T15:14:16Z</time></trkpt><trkpt lat="33.452615974425974" lon="9.019599596353206"><ele>72.0</ele><time>2026-03-23T15:14:17Z</time></trkpt><trkpt lat="33.452584896353784" lon="9.019499193207881"><ele>72.0</ele><time>2026-03-23T15:14:18Z</time></trkpt><trkpt lat="33.45255324174814" lon="9.019405476315725"><ele>72.0</ele><time>2026-03-23T15:14:19Z</time></trkpt><trkpt lat="33.45252211696325" lon="9.019305905850219"><ele>72.0</ele><time>2026-03-23T15:14:20Z</time></trkpt><trkpt lat="33.452500248794735" lon="9.019196270494563"><ele>72.0</ele><time>2026-03-23T15:14:21Z</time></trkpt><trkpt lat="33.45248211473256" lon="9.019077579497036"><ele>72.0</ele><time>2026-03-23T15:14:22Z</time></trkpt><trkpt lat="33.45246170998265" lon="9.018934606101427"><ele>71.4</ele><time>2026-03-23T15:14:23Z</time></trkpt><trkpt lat="33.452443424834875" lon="9.018796361099383"><ele>70.80000000000001</ele><time>2026-03-23T15:14:24Z</time></trkpt><trkpt lat="33.452433131680856" lon="9.018687326105269"><ele>70.2</ele><time>2026-03-23T15:14:25Z</time></trkpt><trkpt lat="33.452428154691745" lon="9.01859085796937"><ele>69.60000000000001</ele><time>2026-03-23T15:14:26Z</time></trkpt><trkpt lat="33.45242074230277" lon="9.01847134320308"><ele>69.0</ele><time>2026-03-23T15:14:27Z</time></trkpt><trkpt lat="33.45240948321736" lon="9.018314234007576"><ele>68.25</ele><time>2026-03-23T15:14:28Z</time></trkpt><trkpt lat="33.45239446541471" lon="9.018140799215661"><ele>67.5</ele><time>2026-03-23T15:14:29Z</time></trkpt><trkpt lat="33.45237707389387" lon="9.017983677629642"><ele>66.75</ele><time>2026-03-23T15:14:30Z</time></trkpt><trkpt lat="33.452363597428715" lon="9.017849853426402"><ele>66.0</ele><time>2026-03-23T15:14:31Z</time></trkpt><trkpt lat="33.45235050504111" lon="9.017740893907208"><ele>66.0</ele><time>2026-03-23T15:14:32Z</time></trkpt><trkpt lat="33.452338155189715" lon="9.01764639443636"><ele>66.0</ele><time>2026-03-23T15:14:33Z</time></trkpt><trkpt lat="33.45232851227587" lon="9.017569711449609"><ele>66.0</ele><time>2026-03-23T15:14:34Z</time></trkpt><trkpt lat="33.45231231832587" lon="9.017459500625332"><ele>66.0</ele><time>2026-03-23T15:14:35Z</time></trkpt><trkpt lat="33.45229551162498" lon="9.017322765104613"><ele>66.0</ele><time>2026-03-23T15:14:36Z</time></trkpt><trkpt lat="33.4522795959573" lon="9.017166915102834"><ele>65.0</ele><time>2026-03-23T15:14:37Z</time></trkpt><trkpt lat="33.45225393265064" lon="9.01699569107022"><ele>64.0</ele><time>2026-03-23T15:14:38Z</time></trkpt><trkpt lat="33.45223116329651" lon="9.016816315657929"><ele>63.0</ele><time>2026-03-23T15:14:39Z</time></trkpt><trkpt lat="33.45220834097267" lon="9.01665449091252"><ele>62.0</ele><time>2026-03-23T15:14:40Z</time></trkpt><trkpt lat="33.45219154448272" lon="9.016515139235684"><ele>61.833333333333336</ele><time>2026-03-23T15:14:41Z</time></trkpt><trkpt lat="33.45217927397035" lon="9.016391589517314"><ele>61.66666666666667</ele><time>2026-03-23T15:14:42Z</time></trkpt><trkpt lat="33.45217109159599" lon="9.016292741457606"><ele>61.5</ele><time>2026-03-23T15:14:43Z</time></trkpt><trkpt lat="33.452163713147804" lon="9.016216733535973"><ele>61.33333333333333</ele><time>2026-03-23T15:14:44Z</time></trkpt><trkpt lat="33.45214508360536" lon="9.01614048969777"><ele>61.166666666666664</ele><time>2026-03-23T15:14:46Z</time></trkpt><trkpt lat="33.45208827283906" lon="9.01609874313126"><ele>61.0</ele><time>2026-03-23T15:14:49Z</time></trkpt><trkpt lat="33.45200161770353" lon="9.016084374550413"><ele>60.599999999999994</ele><time>2026-03-23T15:14:50Z</time></trkpt><trkpt lat="33.45190139203765" lon="9.0161276509339"><ele>60.199999999999996</ele><time>2026-03-23T15:14:51.001Z</time></trkpt><trkpt lat="33.4518112562713" lon="9.01614907315865"><ele>59.800000000000004</ele><time>2026-03-23T15:14:52.001Z</time></trkpt><trkpt lat="33.45171558429944" lon="9.016170432505186"><ele>59.400000000000006</ele><time>2026-03-23T15:14:53.001Z</time></trkpt><trkpt lat="33.451627036621446" lon="9.016189842982318"><ele>59.0</ele><time>2026-03-23T15:14:54.001Z</time></trkpt><trkpt lat="33.451531138363784" lon="9.016209824419992"><ele>59.0</ele><time>2026-03-23T15:14:55.001Z</time></trkpt><trkpt lat="33.451428348810396" lon="9.016237083794124"><ele>59.00000000000001</ele><time>2026-03-23T15:14:56.001Z</time></trkpt><trkpt lat="33.451320739283254" lon="9.016239808005736"><ele>59.00000000000001</ele><time>2026-03-23T15:14:57.001Z</time></trkpt><trkpt lat="33.4512172402865" lon="9.016243309161366"><ele>59.0</ele><time>2026-03-23T15:14:58.001Z</time></trkpt><trkpt lat="33.45111246478125" lon="9.016258942831936"><ele>59.0</ele><time>2026-03-23T15:14:59.001Z</time></trkpt><trkpt lat="33.450992843390964" lon="9.01628517913594"><ele>58.75</ele><time>2026-03-23T15:15:00.001Z</time></trkpt><trkpt lat="33.450870437548986" lon="9.01631355986325"><ele>58.5</ele><time>2026-03-23T15:15:01.001Z</time></trkpt><trkpt lat="33.45074704141123" lon="9.016342370872147"><ele>58.25</ele><time>2026-03-23T15:15:02.001Z</time></trkpt><trkpt lat="33.45061545869351" lon="9.01637497609816"><ele>58.0</ele><time>2026-03-23T15:15:03.001Z</time></trkpt><trkpt lat="33.45047991444808" lon="9.016401047852696"><ele>58.0</ele><time>2026-03-23T15:15:04.001Z</time></trkpt><trkpt lat="33.45034063151006" lon="9.01642419942535"><ele>58.0</ele><time>2026-03-23T15:15:05.001Z</time></trkpt><trkpt lat="33.4501982713269" lon="9.016441843463697"><ele>58.0</ele><time>2026-03-23T15:15:06.001Z</time></trkpt><trkpt lat="33.45005389050696" lon="9.016456344137405"><ele>58.0</ele><time>2026-03-23T15:15:07.001Z</time></trkpt><trkpt lat="33.44990628539131" lon="9.016465858791289"><ele>58.0</ele><time>2026-03-23T15:15:08.001Z</time></trkpt><trkpt lat="33.44975346818522" lon="9.016474282834755"><ele>58.0</ele><time>2026-03-23T15:15:09.001Z</time></trkpt><trkpt lat="33.449602982751614" lon="9.016486265839495"><ele>58.0</ele><time>2026-03-23T15:15:10.001Z</time></trkpt><trkpt lat="33.44944765230519" lon="9.016498703636707"><ele>58.0</ele><time>2026-03-23T15:15:11.001Z</time></trkpt><trkpt lat="33.44929341447237" lon="9.01650770669473"><ele>58.0</ele><time>2026-03-23T15:15:12.001Z</time></trkpt><trkpt lat="33.449137776483525" lon="9.016512797285854"><ele>58.0</ele><time>2026-03-23T15:15:13.001Z</time></trkpt><trkpt lat="33.448982575112595" lon="9.016519826089706"><ele>58.0</ele><time>2026-03-23T15:15:14.001Z</time></trkpt><trkpt lat="33.448823624674276" lon="9.016530843724365"><ele>58.0</ele><time>2026-03-23T15:15:15.001Z</time></trkpt><trkpt lat="33.44866200463806" lon="9.016552339071177"><ele>58.0</ele><time>2026-03-23T15:15:16.001Z</time></trkpt><trkpt lat="33.44849466708539" lon="9.016571923736663"><ele>57.666666666666664</ele><time>2026-03-23T15:15:17.001Z</time></trkpt><trkpt lat="33.44832927218329" lon="9.016590336199172"><ele>57.33333333333333</ele><time>2026-03-23T15:15:18.001Z</time></trkpt><trkpt lat="33.44816507290279" lon="9.016608974843749"><ele>57.0</ele><time>2026-03-23T15:15:19.001Z</time></trkpt><trkpt lat="33.44799617620253" lon="9.016627493779987"><ele>57.0</ele><time>2026-03-23T15:15:20.001Z</time></trkpt><trkpt lat="33.44782820698774" lon="9.016644480800526"><ele>57.0</ele><time>2026-03-23T15:15:21.001Z</time></trkpt><trkpt lat="33.4476753181284" lon="9.016657620169129"><ele>57.0</ele><time>2026-03-23T15:15:22.001Z</time></trkpt><trkpt lat="33.44751751230551" lon="9.016663486976631"><ele>57.0</ele><time>2026-03-23T15:15:23.001Z</time></trkpt><trkpt lat="33.44735207359165" lon="9.01666442490076"><ele>57.0</ele><time>2026-03-23T15:15:24.001Z</time></trkpt><trkpt lat="33.447185414731386" lon="9.016662128423517"><ele>57.0</ele><time>2026-03-23T15:15:25.001Z</time></trkpt><trkpt lat="33.447015946232504" lon="9.016658887743157"><ele>57.0</ele><time>2026-03-23T15:15:26.001Z</time></trkpt><trkpt lat="33.44684981053089" lon="9.016655451944132"><ele>57.0</ele><time>2026-03-23T15:15:27.001Z</time></trkpt><trkpt lat="33.44669149381996" lon="9.016649419146908"><ele>57.0</ele><time>2026-03-23T15:15:28.001Z</time></trkpt><trkpt lat="33.44654639130519" lon="9.016636351792428"><ele>56.75</ele><time>2026-03-23T15:15:29.001Z</time></trkpt><trkpt lat="33.446398603932714" lon="9.01662748553023"><ele>56.5</ele><time>2026-03-23T15:15:30.001Z</time></trkpt><trkpt lat="33.44625387508096" lon="9.01661341588242"><ele>56.25</ele><time>2026-03-23T15:15:31.001Z</time></trkpt><trkpt lat="33.44610390361901" lon="9.016607137545662"><ele>56.0</ele><time>2026-03-23T15:15:32.001Z</time></trkpt><trkpt lat="33.445962990928045" lon="9.016603815943496"><ele>55.75</ele><time>2026-03-23T15:15:33.001Z</time></trkpt><trkpt lat="33.445826273248606" lon="9.016591783368213"><ele>55.5</ele><time>2026-03-23T15:15:34.001Z</time></trkpt><trkpt lat="33.44569555495839" lon="9.016566925886305"><ele>55.25</ele><time>2026-03-23T15:15:35.001Z</time></trkpt><trkpt lat="33.44556350319705" lon="9.016553944264402"><ele>55.0</ele><time>2026-03-23T15:15:36.001Z</time></trkpt><trkpt lat="33.445429253907726" lon="9.016524505089258"><ele>54.75</ele><time>2026-03-23T15:15:37.001Z</time></trkpt><trkpt lat="33.44529202619203" lon="9.01648565884345"><ele>54.5</ele><time>2026-03-23T15:15:38.001Z</time></trkpt><trkpt lat="33.445153953695545" lon="9.016433588090669"><ele>54.25</ele><time>2026-03-23T15:15:39.001Z</time></trkpt><trkpt lat="33.44501411051656" lon="9.01637728560923"><ele>54.0</ele><time>2026-03-23T15:15:40.001Z</time></trkpt><trkpt lat="33.44486773398253" lon="9.016319936950143"><ele>54.0</ele><time>2026-03-23T15:15:41.001Z</time></trkpt><trkpt lat="33.44472242035391" lon="9.016262812646634"><ele>54.0</ele><time>2026-03-23T15:15:42.001Z</time></trkpt><trkpt lat="33.44457213356117" lon="9.016207415903015"><ele>54.0</ele><time>2026-03-23T15:15:43.001Z</time></trkpt><trkpt lat="33.44441475502763" lon="9.016156961742816"><ele>54.33333333333333</ele><time>2026-03-23T15:15:44.001Z</time></trkpt><trkpt lat="33.44426099955572" lon="9.016107966622116"><ele>54.666666666666664</ele><time>2026-03-23T15:15:45.001Z</time></trkpt><trkpt lat="33.44410769833238" lon="9.016058939522145"><ele>55.0</ele><time>2026-03-23T15:15:46Z</time></trkpt><trkpt lat="33.44395205007992" lon="9.01600774842551"><ele>55.0</ele><time>2026-03-23T15:15:47Z</time></trkpt><trkpt lat="33.44379431582111" lon="9.015955516269354"><ele>55.0</ele><time>2026-03-23T15:15:48Z</time></trkpt><trkpt lat="33.443632414352265" lon="9.015909586634463"><ele>55.0</ele><time>2026-03-23T15:15:49Z</time></trkpt><trkpt lat="33.44347365465847" lon="9.015863769574162"><ele>54.666666666666664</ele><time>2026-03-23T15:15:50Z</time></trkpt><trkpt lat="33.443308737284575" lon="9.015817257217135"><ele>54.33333333333333</ele><time>2026-03-23T15:15:51Z</time></trkpt><trkpt lat="33.44314183078107" lon="9.015774121154102"><ele>54.0</ele><time>2026-03-23T15:15:52Z</time></trkpt><trkpt lat="33.44296845799068" lon="9.015736144844238"><ele>54.33333333333333</ele><time>2026-03-23T15:15:53Z</time></trkpt><trkpt lat="33.4427888965596" lon="9.015698535156673"><ele>54.666666666666664</ele><time>2026-03-23T15:15:54Z</time></trkpt><trkpt lat="33.44261933559758" lon="9.015668414842017"><ele>55.0</ele><time>2026-03-23T15:15:55Z</time></trkpt><trkpt lat="33.442453986417554" lon="9.015632429843045"><ele>55.0</ele><time>2026-03-23T15:15:56Z</time></trkpt><trkpt lat="33.44228840623101" lon="9.015597313737384"><ele>55.0</ele><time>2026-03-23T15:15:57Z</time></trkpt><trkpt lat="33.442127681445825" lon="9.015560690450933"><ele>55.0</ele><time>2026-03-23T15:15:58Z</time></trkpt><trkpt lat="33.44197131583934" lon="9.01551900416776"><ele>55.5</ele><time>2026-03-23T15:15:59Z</time></trkpt><trkpt lat="33.441825951533204" lon="9.015481624169137"><ele>56.0</ele><time>2026-03-23T15:16:00Z</time></trkpt><trkpt lat="33.44168224379704" lon="9.015446323678798"><ele>56.5</ele><time>2026-03-23T15:16:01Z</time></trkpt><trkpt lat="33.44154241033869" lon="9.01540768909703"><ele>57.0</ele><time>2026-03-23T15:16:02Z</time></trkpt><trkpt lat="33.44141547587746" lon="9.015377273605012"><ele>57.25</ele><time>2026-03-23T15:16:03Z</time></trkpt><trkpt lat="33.44129753771172" lon="9.015357320079584"><ele>57.5</ele><time>2026-03-23T15:16:04Z</time></trkpt><trkpt lat="33.441178778016685" lon="9.015341050358286"><ele>57.75</ele><time>2026-03-23T15:16:05Z</time></trkpt><trkpt lat="33.44105758548418" lon="9.01532475045493"><ele>58.0</ele><time>2026-03-23T15:16:06Z</time></trkpt><trkpt lat="33.44092977409659" lon="9.015307741461564"><ele>58.0</ele><time>2026-03-23T15:16:07Z</time></trkpt><trkpt lat="33.44079958613626" lon="9.015291068720316"><ele>58.0</ele><time>2026-03-23T15:16:08Z</time></trkpt><trkpt lat="33.440669053073805" lon="9.015277658838249"><ele>58.0</ele><time>2026-03-23T15:16:09Z</time></trkpt><trkpt lat="33.44053856285462" lon="9.015268995808007"><ele>58.0</ele><time>2026-03-23T15:16:10Z</time></trkpt><trkpt lat="33.440409246936404" lon="9.015257743787451"><ele>57.599999999999994</ele><time>2026-03-23T15:16:11Z</time></trkpt><trkpt lat="33.44028432598023" lon="9.015245233904142"><ele>57.199999999999996</ele><time>2026-03-23T15:16:12Z</time></trkpt><trkpt lat="33.44017302435607" lon="9.015230503690049"><ele>56.8</ele><time>2026-03-23T15:16:13Z</time></trkpt><trkpt lat="33.44006923295311" lon="9.01522372388305"><ele>56.4</ele><time>2026-03-23T15:16:14Z</time></trkpt><trkpt lat="33.439971462367964" lon="9.015215476902796"><ele>56.0</ele><time>2026-03-23T15:16:15Z</time></trkpt><trkpt lat="33.43988145457938" lon="9.015200974810625"><ele>56.0</ele><time>2026-03-23T15:16:16Z</time></trkpt><trkpt lat="33.43979805804735" lon="9.015187946281253"><ele>55.99999999999999</ele><time>2026-03-23T15:16:17Z</time></trkpt><trkpt lat="33.4396961262244" lon="9.015174035107972"><ele>55.99999999999999</ele><time>2026-03-23T15:16:18Z</time></trkpt><trkpt lat="33.43957988186413" lon="9.015162698864144"><ele>56.0</ele><time>2026-03-23T15:16:19Z</time></trkpt><trkpt lat="33.439452353760686" lon="9.015144044874113"><ele>56.0</ele><time>2026-03-23T15:16:20Z</time></trkpt><trkpt lat="33.43930951088342" lon="9.015121191579528"><ele>55.66666666666667</ele><time>2026-03-23T15:16:21Z</time></trkpt><trkpt lat="33.439152785439" lon="9.015096277229217"><ele>55.33333333333333</ele><time>2026-03-23T15:16:22Z</time></trkpt><trkpt lat="33.43899331964525" lon="9.01507622644506"><ele>55.0</ele><time>2026-03-23T15:16:23Z</time></trkpt><trkpt lat="33.43882824088432" lon="9.015051629024756"><ele>55.0</ele><time>2026-03-23T15:16:24Z</time></trkpt><trkpt lat="33.43866662976972" lon="9.015021908814028"><ele>55.0</ele><time>2026-03-23T15:16:25Z</time></trkpt><trkpt lat="33.43850468756241" lon="9.014984873991565"><ele>55.0</ele><time>2026-03-23T15:16:26Z</time></trkpt><trkpt lat="33.43835130647265" lon="9.014944033905826"><ele>55.0</ele><time>2026-03-23T15:16:27Z</time></trkpt><trkpt lat="33.438208761271284" lon="9.014905408494911"><ele>55.0</ele><time>2026-03-23T15:16:28Z</time></trkpt><trkpt lat="33.438080852781475" lon="9.014872896697083"><ele>55.0</ele><time>2026-03-23T15:16:29Z</time></trkpt><trkpt lat="33.43796144507128" lon="9.014845617799715"><ele>55.0</ele><time>2026-03-23T15:16:30Z</time></trkpt><trkpt lat="33.43785020858564" lon="9.014819761065139"><ele>55.0</ele><time>2026-03-23T15:16:31Z</time></trkpt><trkpt lat="33.43773792959694" lon="9.014794521520733"><ele>55.0</ele><time>2026-03-23T15:16:32Z</time></trkpt><trkpt lat="33.43762077216208" lon="9.01476775841081"><ele>55.0</ele><time>2026-03-23T15:16:33Z</time></trkpt><trkpt lat="33.43748713308192" lon="9.014736778620263"><ele>55.0</ele><time>2026-03-23T15:16:34Z</time></trkpt><trkpt lat="33.43734481918125" lon="9.014696255311119"><ele>55.0</ele><time>2026-03-23T15:16:35Z</time></trkpt><trkpt lat="33.43719422273353" lon="9.014650663446348"><ele>55.0</ele><time>2026-03-23T15:16:36Z</time></trkpt><trkpt lat="33.437038432058664" lon="9.01461177150337"><ele>55.0</ele><time>2026-03-23T15:16:37Z</time></trkpt><trkpt lat="33.43688178962656" lon="9.014579126996653"><ele>55.0</ele><time>2026-03-23T15:16:38Z</time></trkpt><trkpt lat="33.43671976573882" lon="9.01455063623335"><ele>55.0</ele><time>2026-03-23T15:16:39Z</time></trkpt><trkpt lat="33.43655389900897" lon="9.01452503779501"><ele>55.0</ele><time>2026-03-23T15:16:40Z</time></trkpt><trkpt lat="33.436392505545314" lon="9.014503797504084"><ele>55.75</ele><time>2026-03-23T15:16:41Z</time></trkpt><trkpt lat="33.43624611841563" lon="9.014483180296677"><ele>56.5</ele><time>2026-03-23T15:16:42Z</time></trkpt><trkpt lat="33.436104365874165" lon="9.014466022095734"><ele>57.25</ele><time>2026-03-23T15:16:43Z</time></trkpt><trkpt lat="33.435954819422996" lon="9.014446410308585"><ele>58.0</ele><time>2026-03-23T15:16:44Z</time></trkpt><trkpt lat="33.4357954394929" lon="9.014425613187253"><ele>58.0</ele><time>2026-03-23T15:16:45Z</time></trkpt><trkpt lat="33.43563047827295" lon="9.01440273164081"><ele>58.0</ele><time>2026-03-23T15:16:46Z</time></trkpt><trkpt lat="33.43545486536162" lon="9.01438205897215"><ele>58.0</ele><time>2026-03-23T15:16:47Z</time></trkpt><trkpt lat="33.43527413044872" lon="9.0143605714446"><ele>58.666666666666664</ele><time>2026-03-23T15:16:48Z</time></trkpt><trkpt lat="33.435090087740015" lon="9.014336315473052"><ele>59.33333333333333</ele><time>2026-03-23T15:16:49Z</time></trkpt><trkpt lat="33.43491373724043" lon="9.014313120619747"><ele>60.0</ele><time>2026-03-23T15:16:50Z</time></trkpt><trkpt lat="33.434752037460484" lon="9.014292030841803"><ele>60.0</ele><time>2026-03-23T15:16:51Z</time></trkpt><trkpt lat="33.43461079671906" lon="9.01427586485856"><ele>60.0</ele><time>2026-03-23T15:16:52Z</time></trkpt><trkpt lat="33.43447972014096" lon="9.014261619674247"><ele>60.0</ele><time>2026-03-23T15:16:53Z</time></trkpt><trkpt lat="33.43434457502017" lon="9.014244143603518"><ele>60.0</ele><time>2026-03-23T15:16:54Z</time></trkpt><trkpt lat="33.434202029627585" lon="9.014220837984055"><ele>60.0</ele><time>2026-03-23T15:16:55Z</time></trkpt><trkpt lat="33.434051824562076" lon="9.014198577976229"><ele>60.0</ele><time>2026-03-23T15:16:56Z</time></trkpt><trkpt lat="33.43389574315546" lon="9.014177507841508"><ele>60.0</ele><time>2026-03-23T15:16:57Z</time></trkpt><trkpt lat="33.433730703351635" lon="9.014160287108819"><ele>60.33333333333333</ele><time>2026-03-23T15:16:58Z</time></trkpt><trkpt lat="33.433549622384824" lon="9.014141611739793"><ele>60.666666666666664</ele><time>2026-03-23T15:16:59Z</time></trkpt><trkpt lat="33.43336631136178" lon="9.014126955475758"><ele>61.0</ele><time>2026-03-23T15:17:00Z</time></trkpt><trkpt lat="33.43318302426764" lon="9.014109264565683"><ele>61.0</ele><time>2026-03-23T15:17:01Z</time></trkpt><trkpt lat="33.432995321844224" lon="9.01408970860825"><ele>61.0</ele><time>2026-03-23T15:17:02Z</time></trkpt><trkpt lat="33.43280767551381" lon="9.014069858492043"><ele>61.0</ele><time>2026-03-23T15:17:03Z</time></trkpt><trkpt lat="33.43262674616456" lon="9.014045918470712"><ele>61.0</ele><time>2026-03-23T15:17:04Z</time></trkpt><trkpt lat="33.43244207408245" lon="9.01401982460384"><ele>61.0</ele><time>2026-03-23T15:17:05Z</time></trkpt><trkpt lat="33.432257412579794" lon="9.013995992444222"><ele>61.0</ele><time>2026-03-23T15:17:06Z</time></trkpt><trkpt lat="33.432075156750585" lon="9.01397676069156"><ele>61.0</ele><time>2026-03-23T15:17:07Z</time></trkpt><trkpt lat="33.43190907731832" lon="9.0139557955192"><ele>61.0</ele><time>2026-03-23T15:17:08Z</time></trkpt><trkpt lat="33.431741574429054" lon="9.013935855188631"><ele>61.0</ele><time>2026-03-23T15:17:09Z</time></trkpt><trkpt lat="33.431567369882586" lon="9.013915404454092"><ele>61.0</ele><time>2026-03-23T15:17:10Z</time></trkpt><trkpt lat="33.43139190968664" lon="9.013902880382288"><ele>61.0</ele><time>2026-03-23T15:17:11.001Z</time></trkpt><trkpt lat="33.431228251300695" lon="9.013889325066458"><ele>61.0</ele><time>2026-03-23T15:17:12.001Z</time></trkpt><trkpt lat="33.43108560535801" lon="9.013872956950712"><ele>61.25</ele><time>2026-03-23T15:17:13.001Z</time></trkpt><trkpt lat="33.4309596263122" lon="9.013857355561132"><ele>61.5</ele><time>2026-03-23T15:17:14.001Z</time></trkpt><trkpt lat="33.43084048041179" lon="9.013841608940194"><ele>61.75</ele><time>2026-03-23T15:17:15.001Z</time></trkpt><trkpt lat="33.4307213092261" lon="9.013828273082519"><ele>62.0</ele><time>2026-03-23T15:17:16.001Z</time></trkpt><trkpt lat="33.43060890614233" lon="9.013807067232767"><ele>62.0</ele><time>2026-03-23T15:17:17.001Z</time></trkpt><trkpt lat="33.43049062150777" lon="9.01378480658393"><ele>62.0</ele><time>2026-03-23T15:17:18.001Z</time></trkpt><trkpt lat="33.43036481891669" lon="9.013762456411515"><ele>62.0</ele><time>2026-03-23T15:17:19.001Z</time></trkpt><trkpt lat="33.430225857206125" lon="9.013742641920778"><ele>62.0</ele><time>2026-03-23T15:17:20.001Z</time></trkpt><trkpt lat="33.43008087954435" lon="9.013727945685407"><ele>62.0</ele><time>2026-03-23T15:17:21.001Z</time></trkpt><trkpt lat="33.42993890240934" lon="9.013713025268542"><ele>62.0</ele><time>2026-03-23T15:17:22.001Z</time></trkpt><trkpt lat="33.42979534506623" lon="9.013694563616504"><ele>62.0</ele><time>2026-03-23T15:17:23.001Z</time></trkpt><trkpt lat="33.42965667881799" lon="9.013671384373382"><ele>62.0</ele><time>2026-03-23T15:17:24.001Z</time></trkpt><trkpt lat="33.42952116324645" lon="9.013649917617977"><ele>62.75</ele><time>2026-03-23T15:17:25.001Z</time></trkpt><trkpt lat="33.429387351867234" lon="9.013625750455695"><ele>63.5</ele><time>2026-03-23T15:17:26.001Z</time></trkpt><trkpt lat="33.42925017147701" lon="9.01360006402293"><ele>64.25</ele><time>2026-03-23T15:17:27.001Z</time></trkpt><trkpt lat="33.4291079108369" lon="9.013573485322214"><ele>65.0</ele><time>2026-03-23T15:17:28.001Z</time></trkpt><trkpt lat="33.42896560076391" lon="9.013553006276473"><ele>65.0</ele><time>2026-03-23T15:17:29.001Z</time></trkpt><trkpt lat="33.428814538197685" lon="9.013528143416437"><ele>65.0</ele><time>2026-03-23T15:17:30.001Z</time></trkpt><trkpt lat="33.42866139092652" lon="9.013504594117187"><ele>65.0</ele><time>2026-03-23T15:17:31.001Z</time></trkpt><trkpt lat="33.42850497453367" lon="9.01348009063371"><ele>66.0</ele><time>2026-03-23T15:17:32.001Z</time></trkpt><trkpt lat="33.42834085802568" lon="9.013455949801235"><ele>67.0</ele><time>2026-03-23T15:17:33.001Z</time></trkpt><trkpt lat="33.428174574599915" lon="9.013427421639554"><ele>68.0</ele><time>2026-03-23T15:17:34.001Z</time></trkpt><trkpt lat="33.42800315835291" lon="9.01339750727284"><ele>68.0</ele><time>2026-03-23T15:17:35.001Z</time></trkpt><trkpt lat="33.427829108366005" lon="9.013362914505175"><ele>68.0</ele><time>2026-03-23T15:17:36.001Z</time></trkpt><trkpt lat="33.42765132402599" lon="9.013324074383021"><ele>68.0</ele><time>2026-03-23T15:17:37.001Z</time></trkpt><trkpt lat="33.427472079544216" lon="9.01328670413513"><ele>68.0</ele><time>2026-03-23T15:17:38.001Z</time></trkpt><trkpt lat="33.427283527417686" lon="9.013246126839014"><ele>68.0</ele><time>2026-03-23T15:17:39.001Z</time></trkpt><trkpt lat="33.42709409392164" lon="9.01320753851028"><ele>68.0</ele><time>2026-03-23T15:17:40.001Z</time></trkpt><trkpt lat="33.42690527070136" lon="9.013175779961676"><ele>67.66666666666667</ele><time>2026-03-23T15:17:41.001Z</time></trkpt><trkpt lat="33.42671623822256" lon="9.013152219341405"><ele>67.33333333333333</ele><time>2026-03-23T15:17:42.001Z</time></trkpt><trkpt lat="33.42652240047434" lon="9.013133484595842"><ele>67.0</ele><time>2026-03-23T15:17:43.001Z</time></trkpt><trkpt lat="33.426331063218875" lon="9.013116840417698"><ele>67.0</ele><time>2026-03-23T15:17:44.001Z</time></trkpt><trkpt lat="33.426142345381294" lon="9.013100496599531"><ele>67.0</ele><time>2026-03-23T15:17:45.001Z</time></trkpt><trkpt lat="33.425949443706685" lon="9.01308252757212"><ele>67.0</ele><time>2026-03-23T15:17:46.001Z</time></trkpt><trkpt lat="33.42575295384311" lon="9.013062649685263"><ele>67.0</ele><time>2026-03-23T15:17:47.001Z</time></trkpt><trkpt lat="33.42555772385142" lon="9.01304029839829"><ele>67.0</ele><time>2026-03-23T15:17:48.001Z</time></trkpt><trkpt lat="33.42535758974927" lon="9.013014606918508"><ele>67.0</ele><time>2026-03-23T15:17:49.001Z</time></trkpt><trkpt lat="33.425158298041254" lon="9.012984281212919"><ele>67.0</ele><time>2026-03-23T15:17:50.001Z</time></trkpt><trkpt lat="33.42495634214407" lon="9.012952274601922"><ele>67.0</ele><time>2026-03-23T15:17:51.001Z</time></trkpt><trkpt lat="33.424749541365465" lon="9.012920945511334"><ele>67.0</ele><time>2026-03-23T15:17:52Z</time></trkpt><trkpt lat="33.424541848730456" lon="9.012889492930736"><ele>67.0</ele><time>2026-03-23T15:17:53Z</time></trkpt><trkpt lat="33.4243306118175" lon="9.012855941586913"><ele>67.0</ele><time>2026-03-23T15:17:54Z</time></trkpt><trkpt lat="33.424125479573576" lon="9.012819051027535"><ele>67.0</ele><time>2026-03-23T15:17:55Z</time></trkpt><trkpt lat="33.42392129985293" lon="9.012778465854668"><ele>67.33333333333333</ele><time>2026-03-23T15:17:56Z</time></trkpt><trkpt lat="33.423728995087465" lon="9.01274071076703"><ele>67.66666666666667</ele><time>2026-03-23T15:17:57Z</time></trkpt><trkpt lat="33.42354607117052" lon="9.012697497959719"><ele>68.0</ele><time>2026-03-23T15:17:58Z</time></trkpt><trkpt lat="33.4233844426962" lon="9.012655853112138"><ele>68.0</ele><time>2026-03-23T15:17:59Z</time></trkpt><trkpt lat="33.423230942360135" lon="9.012610522033752"><ele>68.0</ele><time>2026-03-23T15:18:00Z</time></trkpt><trkpt lat="33.423072905592974" lon="9.012567332155879"><ele>68.0</ele><time>2026-03-23T15:18:01Z</time></trkpt><trkpt lat="33.42292885222112" lon="9.012524382945529"><ele>68.0</ele><time>2026-03-23T15:18:02Z</time></trkpt><trkpt lat="33.42279583068364" lon="9.012486595364125"><ele>68.0</ele><time>2026-03-23T15:18:03Z</time></trkpt><trkpt lat="33.42265495987873" lon="9.012455225035486"><ele>68.0</ele><time>2026-03-23T15:18:04Z</time></trkpt><trkpt lat="33.42249605477086" lon="9.012429333049287"><ele>68.0</ele><time>2026-03-23T15:18:05Z</time></trkpt><trkpt lat="33.422330064092556" lon="9.012404044776972"><ele>68.0</ele><time>2026-03-23T15:18:06Z</time></trkpt><trkpt lat="33.42216345787136" lon="9.01237365449321"><ele>68.0</ele><time>2026-03-23T15:18:07Z</time></trkpt><trkpt lat="33.42198895661032" lon="9.012352588206287"><ele>68.0</ele><time>2026-03-23T15:18:08Z</time></trkpt><trkpt lat="33.42180754626195" lon="9.01234130036737"><ele>67.33333333333334</ele><time>2026-03-23T15:18:09Z</time></trkpt><trkpt lat="33.42162161500336" lon="9.012335480210366"><ele>66.66666666666667</ele><time>2026-03-23T15:18:10Z</time></trkpt><trkpt lat="33.42142934558348" lon="9.012335712974085"><ele>66.0</ele><time>2026-03-23T15:18:11Z</time></trkpt><trkpt lat="33.42123583774966" lon="9.01234186551561"><ele>65.33333333333333</ele><time>2026-03-23T15:18:12Z</time></trkpt><trkpt lat="33.42105102631258" lon="9.01235473092959"><ele>64.66666666666666</ele><time>2026-03-23T15:18:13Z</time></trkpt><trkpt lat="33.42086685813065" lon="9.012359690123832"><ele>64.0</ele><time>2026-03-23T15:18:14Z</time></trkpt><trkpt lat="33.420677459631825" lon="9.01234772589732"><ele>64.0</ele><time>2026-03-23T15:18:15Z</time></trkpt><trkpt lat="33.4204863263598" lon="9.012322032415977"><ele>64.0</ele><time>2026-03-23T15:18:16Z</time></trkpt><trkpt lat="33.420286777229904" lon="9.01229705782211"><ele>64.0</ele><time>2026-03-23T15:18:17Z</time></trkpt><trkpt lat="33.420087259453474" lon="9.012269584066717"><ele>64.0</ele><time>2026-03-23T15:18:18Z</time></trkpt><trkpt lat="33.41988294519197" lon="9.012226481488202"><ele>64.0</ele><time>2026-03-23T15:18:19Z</time></trkpt><trkpt lat="33.41967783434108" lon="9.01217860714007"><ele>64.0</ele><time>2026-03-23T15:18:20Z</time></trkpt><trkpt lat="33.4194700262957" lon="9.012126508984254"><ele>64.0</ele><time>2026-03-23T15:18:21Z</time></trkpt><trkpt lat="33.41926275187844" lon="9.012070692177073"><ele>64.0</ele><time>2026-03-23T15:18:22Z</time></trkpt><trkpt lat="33.41905745822578" lon="9.01201764292624"><ele>64.0</ele><time>2026-03-23T15:18:23Z</time></trkpt><trkpt lat="33.41886738291615" lon="9.01195884940252"><ele>64.66666666666666</ele><time>2026-03-23T15:18:24Z</time></trkpt><trkpt lat="33.4186733410806" lon="9.011899218894982"><ele>65.33333333333333</ele><time>2026-03-23T15:18:25Z</time></trkpt><trkpt lat="33.41847413397258" lon="9.011834008705268"><ele>66.0</ele><time>2026-03-23T15:18:26Z</time></trkpt><trkpt lat="33.418267156929936" lon="9.011765730734565"><ele>66.0</ele><time>2026-03-23T15:18:27Z</time></trkpt><trkpt lat="33.41806200677494" lon="9.011694223546895"><ele>66.0</ele><time>2026-03-23T15:18:28Z</time></trkpt><trkpt lat="33.417852503563665" lon="9.011621806087087"><ele>66.0</ele><time>2026-03-23T15:18:29Z</time></trkpt><trkpt lat="33.41764114428209" lon="9.011552932961957"><ele>64.0</ele><time>2026-03-23T15:18:30Z</time></trkpt><trkpt lat="33.41742517425692" lon="9.011482132968753"><ele>62.0</ele><time>2026-03-23T15:18:31Z</time></trkpt><trkpt lat="33.41720863466604" lon="9.011401093469281"><ele>62.5</ele><time>2026-03-23T15:18:32Z</time></trkpt><trkpt lat="33.416992244335454" lon="9.011321323710973"><ele>63.0</ele><time>2026-03-23T15:18:33Z</time></trkpt><trkpt lat="33.416774608523596" lon="9.011237805449058"><ele>63.0</ele><time>2026-03-23T15:18:34Z</time></trkpt><trkpt lat="33.416558871928736" lon="9.011151359466819"><ele>63.0</ele><time>2026-03-23T15:18:35Z</time></trkpt><trkpt lat="33.416344873394394" lon="9.011066767976931"><ele>63.33333333333333</ele><time>2026-03-23T15:18:36Z</time></trkpt><trkpt lat="33.41613576449512" lon="9.010975825513999"><ele>63.666666666666664</ele><time>2026-03-23T15:18:37Z</time></trkpt><trkpt lat="33.41592841133478" lon="9.010882110310735"><ele>64.0</ele><time>2026-03-23T15:18:38Z</time></trkpt><trkpt lat="33.415720490587894" lon="9.010792587695912"><ele>64.0</ele><time>2026-03-23T15:18:39Z</time></trkpt><trkpt lat="33.415513650425744" lon="9.010706994650212"><ele>64.0</ele><time>2026-03-23T15:18:40Z</time></trkpt><trkpt lat="33.41531366084364" lon="9.01062249968865"><ele>64.0</ele><time>2026-03-23T15:18:41Z</time></trkpt><trkpt lat="33.41511459939843" lon="9.010533588505316"><ele>64.66666666666666</ele><time>2026-03-23T15:18:42Z</time></trkpt><trkpt lat="33.414921331830435" lon="9.010443161093043"><ele>65.33333333333333</ele><time>2026-03-23T15:18:43Z</time></trkpt><trkpt lat="33.41472816936243" lon="9.010351282861993"><ele>66.0</ele><time>2026-03-23T15:18:44Z</time></trkpt><trkpt lat="33.41453117745335" lon="9.010258923763848"><ele>66.33333333333333</ele><time>2026-03-23T15:18:45Z</time></trkpt><trkpt lat="33.41433547050083" lon="9.010174151536297"><ele>66.66666666666666</ele><time>2026-03-23T15:18:46Z</time></trkpt><trkpt lat="33.41413628670248" lon="9.010084928415012"><ele>67.0</ele><time>2026-03-23T15:18:47Z</time></trkpt><trkpt lat="33.41393848671769" lon="9.010002099297271"><ele>66.33333333333333</ele><time>2026-03-23T15:18:48Z</time></trkpt><trkpt lat="33.4137344189202" lon="9.009911806928791"><ele>65.66666666666667</ele><time>2026-03-23T15:18:49Z</time></trkpt><trkpt lat="33.41353896121164" lon="9.009810260576158"><ele>65.0</ele><time>2026-03-23T15:18:50Z</time></trkpt><trkpt lat="33.41334199067279" lon="9.009696118387286"><ele>65.0</ele><time>2026-03-23T15:18:51Z</time></trkpt><trkpt lat="33.41314514509226" lon="9.009570637965702"><ele>65.0</ele><time>2026-03-23T15:18:52.001Z</time></trkpt><trkpt lat="33.412951598607535" lon="9.009448390332679"><ele>65.0</ele><time>2026-03-23T15:18:53.001Z</time></trkpt><trkpt lat="33.41275254283453" lon="9.00933280524709"><ele>65.0</ele><time>2026-03-23T15:18:54.001Z</time></trkpt><trkpt lat="33.41255519624384" lon="9.009215591496973"><ele>65.0</ele><time>2026-03-23T15:18:55.001Z</time></trkpt><trkpt lat="33.412352817207584" lon="9.009099032622384"><ele>65.0</ele><time>2026-03-23T15:18:56.001Z</time></trkpt><trkpt lat="33.412154526606315" lon="9.008988085372126"><ele>65.33333333333334</ele><time>2026-03-23T15:18:57.001Z</time></trkpt><trkpt lat="33.41195101159032" lon="9.008879574379899"><ele>65.66666666666667</ele><time>2026-03-23T15:18:58.001Z</time></trkpt><trkpt lat="33.4117477817555" lon="9.008774491574338"><ele>66.0</ele><time>2026-03-23T15:18:59.001Z</time></trkpt><trkpt lat="33.41153583477378" lon="9.008666960529073"><ele>66.0</ele><time>2026-03-23T15:19:00.001Z</time></trkpt><trkpt lat="33.411325936757436" lon="9.008556902341253"><ele>66.0</ele><time>2026-03-23T15:19:01.001Z</time></trkpt><trkpt lat="33.41111162297333" lon="9.008447329824968"><ele>66.0</ele><time>2026-03-23T15:19:02.001Z</time></trkpt><trkpt lat="33.41089475579588" lon="9.00834040967366"><ele>66.0</ele><time>2026-03-23T15:19:03.001Z</time></trkpt><trkpt lat="33.41068788635239" lon="9.008246330608937"><ele>66.0</ele><time>2026-03-23T15:19:04.001Z</time></trkpt><trkpt lat="33.41047298599925" lon="9.008159491618377"><ele>66.0</ele><time>2026-03-23T15:19:05.001Z</time></trkpt><trkpt lat="33.41025894712639" lon="9.00808284708969"><ele>66.0</ele><time>2026-03-23T15:19:06.001Z</time></trkpt><trkpt lat="33.41005252292535" lon="9.00801711634242"><ele>66.0</ele><time>2026-03-23T15:19:07.001Z</time></trkpt><trkpt lat="33.4098536066039" lon="9.007956934437546"><ele>66.0</ele><time>2026-03-23T15:19:08.001Z</time></trkpt><trkpt lat="33.40966970590423" lon="9.007900434869669"><ele>65.66666666666667</ele><time>2026-03-23T15:19:09.001Z</time></trkpt><trkpt lat="33.40948918330933" lon="9.007844240227683"><ele>65.33333333333334</ele><time>2026-03-23T15:19:10.001Z</time></trkpt><trkpt lat="33.40932146722501" lon="9.007786475123467"><ele>65.0</ele><time>2026-03-23T15:19:11.001Z</time></trkpt><trkpt lat="33.409167060884165" lon="9.007731430995808"><ele>65.0</ele><time>2026-03-23T15:19:12.001Z</time></trkpt><trkpt lat="33.40901992088164" lon="9.007681052539876"><ele>65.0</ele><time>2026-03-23T15:19:13.001Z</time></trkpt><trkpt lat="33.408874317107895" lon="9.007624466600664"><ele>65.0</ele><time>2026-03-23T15:19:14.001Z</time></trkpt><trkpt lat="33.40871433042909" lon="9.007553808799416"><ele>65.0</ele><time>2026-03-23T15:19:15.001Z</time></trkpt><trkpt lat="33.40854524505724" lon="9.00748219798961"><ele>65.0</ele><time>2026-03-23T15:19:16.001Z</time></trkpt><trkpt lat="33.40837541797733" lon="9.00740751917579"><ele>65.0</ele><time>2026-03-23T15:19:17.001Z</time></trkpt><trkpt lat="33.40819527426783" lon="9.007337702598255"><ele>65.0</ele><time>2026-03-23T15:19:18.001Z</time></trkpt><trkpt lat="33.408015166914616" lon="9.00726991891352"><ele>65.0</ele><time>2026-03-23T15:19:19.001Z</time></trkpt><trkpt lat="33.40783182246749" lon="9.007199051164225"><ele>65.0</ele><time>2026-03-23T15:19:20.001Z</time></trkpt><trkpt lat="33.4076497243662" lon="9.007131127122012"><ele>65.0</ele><time>2026-03-23T15:19:21.001Z</time></trkpt><trkpt lat="33.40747255031841" lon="9.007063762060858"><ele>65.0</ele><time>2026-03-23T15:19:22.001Z</time></trkpt><trkpt lat="33.40730168488246" lon="9.006999870921033"><ele>65.0</ele><time>2026-03-23T15:19:23.001Z</time></trkpt><trkpt lat="33.40712527653552" lon="9.006933392796213"><ele>64.33333333333334</ele><time>2026-03-23T15:19:24.001Z</time></trkpt><trkpt lat="33.40695748589544" lon="9.006871714287216"><ele>63.66666666666667</ele><time>2026-03-23T15:19:25.001Z</time></trkpt><trkpt lat="33.40678662558513" lon="9.00681392735607"><ele>63.0</ele><time>2026-03-23T15:19:26.001Z</time></trkpt><trkpt lat="33.406617378238984" lon="9.0067565988351"><ele>63.0</ele><time>2026-03-23T15:19:27.001Z</time></trkpt><trkpt lat="33.406462383186906" lon="9.006702135362202"><ele>63.0</ele><time>2026-03-23T15:19:28.001Z</time></trkpt><trkpt lat="33.406316381034685" lon="9.00664645411234"><ele>63.0</ele><time>2026-03-23T15:19:29.001Z</time></trkpt><trkpt lat="33.40617762865183" lon="9.006595263372956"><ele>63.66666666666667</ele><time>2026-03-23T15:19:30.001Z</time></trkpt><trkpt lat="33.40603375800669" lon="9.00654194248194"><ele>64.33333333333334</ele><time>2026-03-23T15:19:31.001Z</time></trkpt><trkpt lat="33.40588414911565" lon="9.006493802824474"><ele>65.0</ele><time>2026-03-23T15:19:32.001Z</time></trkpt><trkpt lat="33.405728315556395" lon="9.006460454925476"><ele>65.0</ele><time>2026-03-23T15:19:33.001Z</time></trkpt><trkpt lat="33.405573705311824" lon="9.006467442839853"><ele>65.0</ele><time>2026-03-23T15:19:34.001Z</time></trkpt><trkpt lat="33.40542851153652" lon="9.006518028715284"><ele>65.0</ele><time>2026-03-23T15:19:35.001Z</time></trkpt><trkpt lat="33.40531545821152" lon="9.006588643495597"><ele>65.0</ele><time>2026-03-23T15:19:36.001Z</time></trkpt><trkpt lat="33.40523591051475" lon="9.006689023514609"><ele>64.5</ele><time>2026-03-23T15:19:37.001Z</time></trkpt><trkpt lat="33.40517522816339" lon="9.006818017639691"><ele>64.0</ele><time>2026-03-23T15:19:38.001Z</time></trkpt><trkpt lat="33.4051316301815" lon="9.006969289590248"><ele>63.5</ele><time>2026-03-23T15:19:39.001Z</time></trkpt><trkpt lat="33.40510188854283" lon="9.007138827803786"><ele>63.0</ele><time>2026-03-23T15:19:40.001Z</time></trkpt><trkpt lat="33.40508629211778" lon="9.007313804638246"><ele>63.0</ele><time>2026-03-23T15:19:41.001Z</time></trkpt><trkpt lat="33.4050771553333" lon="9.007491835120966"><ele>63.0</ele><time>2026-03-23T15:19:42.001Z</time></trkpt><trkpt lat="33.4050678661797" lon="9.007670757195855"><ele>63.0</ele><time>2026-03-23T15:19:43.001Z</time></trkpt><trkpt lat="33.40505618177972" lon="9.007850970782108"><ele>63.0</ele><time>2026-03-23T15:19:44.001Z</time></trkpt><trkpt lat="33.40503941405777" lon="9.008019507326361"><ele>63.25</ele><time>2026-03-23T15:19:45.001Z</time></trkpt><trkpt lat="33.405001447660176" lon="9.008157097299057"><ele>63.5</ele><time>2026-03-23T15:19:46.001Z</time></trkpt><trkpt lat="33.40494119519364" lon="9.008268487485243"><ele>63.75</ele><time>2026-03-23T15:19:47.001Z</time></trkpt><trkpt lat="33.404857021712154" lon="9.00836269673873"><ele>64.0</ele><time>2026-03-23T15:19:48.001Z</time></trkpt><trkpt lat="33.40474904385103" lon="9.008447001984353"><ele>64.25</ele><time>2026-03-23T15:19:49.001Z</time></trkpt><trkpt lat="33.40462160316657" lon="9.00852528282892"><ele>64.5</ele><time>2026-03-23T15:19:50.001Z</time></trkpt><trkpt lat="33.404491375201566" lon="9.008596376625002"><ele>64.75</ele><time>2026-03-23T15:19:51.001Z</time></trkpt><trkpt lat="33.404360818126314" lon="9.008662055588033"><ele>65.0</ele><time>2026-03-23T15:19:52.001Z</time></trkpt><trkpt lat="33.404225977919126" lon="9.008720727695753"><ele>65.0</ele><time>2026-03-23T15:19:53.001Z</time></trkpt><trkpt lat="33.40408729217012" lon="9.008777314396568"><ele>65.0</ele><time>2026-03-23T15:19:54.001Z</time></trkpt><trkpt lat="33.40394047381478" lon="9.008837908674597"><ele>65.0</ele><time>2026-03-23T15:19:55.001Z</time></trkpt><trkpt lat="33.403787298237084" lon="9.008891144085522"><ele>65.0</ele><time>2026-03-23T15:19:56.001Z</time></trkpt><trkpt lat="33.40362266028199" lon="9.008939583261792"><ele>65.0</ele><time>2026-03-23T15:19:57.001Z</time></trkpt><trkpt lat="33.40345251269125" lon="9.008973237159948"><ele>65.0</ele><time>2026-03-23T15:19:58.001Z</time></trkpt><trkpt lat="33.40327216701893" lon="9.008979818993241"><ele>65.0</ele><time>2026-03-23T15:19:59.001Z</time></trkpt><trkpt lat="33.4030939349509" lon="9.008969466323272"><ele>65.0</ele><time>2026-03-23T15:20:00.001Z</time></trkpt><trkpt lat="33.40289833430468" lon="9.00895401992216"><ele>65.0</ele><time>2026-03-23T15:20:01.001Z</time></trkpt><trkpt lat="33.40271218794458" lon="9.00895371119275"><ele>65.0</ele><time>2026-03-23T15:20:02.001Z</time></trkpt><trkpt lat="33.402519367655664" lon="9.008957873732461"><ele>65.0</ele><time>2026-03-23T15:20:03.001Z</time></trkpt><trkpt lat="33.40232506924201" lon="9.008968131737705"><ele>65.0</ele><time>2026-03-23T15:20:04.001Z</time></trkpt><trkpt lat="33.40213153948205" lon="9.008983858189618"><ele>64.33333333333334</ele><time>2026-03-23T15:20:05.001Z</time></trkpt><trkpt lat="33.40193010072186" lon="9.009002973147508"><ele>63.66666666666667</ele><time>2026-03-23T15:20:06.001Z</time></trkpt><trkpt lat="33.40173099692836" lon="9.009018161229234"><ele>63.0</ele><time>2026-03-23T15:20:07.001Z</time></trkpt><trkpt lat="33.4015308668531" lon="9.009033716230919"><ele>63.33333333333333</ele><time>2026-03-23T15:20:08.001Z</time></trkpt><trkpt lat="33.40133068277473" lon="9.009049852023876"><ele>63.666666666666664</ele><time>2026-03-23T15:20:09.001Z</time></trkpt><trkpt lat="33.40112630789701" lon="9.009064056218875"><ele>64.0</ele><time>2026-03-23T15:20:10.001Z</time></trkpt><trkpt lat="33.40092661320386" lon="9.009064954247135"><ele>64.0</ele><time>2026-03-23T15:20:11.001Z</time></trkpt><trkpt lat="33.40072212116493" lon="9.009052550308793"><ele>64.0</ele><time>2026-03-23T15:20:12.001Z</time></trkpt><trkpt lat="33.40052394561431" lon="9.00902674676601"><ele>64.0</ele><time>2026-03-23T15:20:13.001Z</time></trkpt><trkpt lat="33.40032577720279" lon="9.008993038996998"><ele>63.33333333333333</ele><time>2026-03-23T15:20:14.001Z</time></trkpt><trkpt lat="33.40012551688943" lon="9.008956851516652"><ele>62.66666666666667</ele><time>2026-03-23T15:20:15.001Z</time></trkpt><trkpt lat="33.399924594923306" lon="9.008922749635826"><ele>62.0</ele><time>2026-03-23T15:20:16.001Z</time></trkpt><trkpt lat="33.3997250195262" lon="9.008890730152094"><ele>62.66666666666667</ele><time>2026-03-23T15:20:17.001Z</time></trkpt><trkpt lat="33.39951700692804" lon="9.00885740181249"><ele>63.33333333333333</ele><time>2026-03-23T15:20:18.001Z</time></trkpt><trkpt lat="33.3993125348192" lon="9.00883257895165"><ele>64.0</ele><time>2026-03-23T15:20:19.001Z</time></trkpt><trkpt lat="33.39910589105341" lon="9.008817176753075"><ele>64.0</ele><time>2026-03-23T15:20:20.001Z</time></trkpt><trkpt lat="33.39889576624608" lon="9.00880990264014"><ele>64.0</ele><time>2026-03-23T15:20:21.001Z</time></trkpt><trkpt lat="33.39868892933294" lon="9.008808587895986"><ele>64.0</ele><time>2026-03-23T15:20:22.001Z</time></trkpt><trkpt lat="33.39847884818377" lon="9.0088107479365"><ele>64.0</ele><time>2026-03-23T15:20:23.001Z</time></trkpt><trkpt lat="33.398276855020974" lon="9.008810480992993"><ele>64.0</ele><time>2026-03-23T15:20:24.001Z</time></trkpt><trkpt lat="33.39807092853965" lon="9.00880811836955"><ele>64.0</ele><time>2026-03-23T15:20:25.001Z</time></trkpt><trkpt lat="33.39786743028308" lon="9.008807278912235"><ele>64.0</ele><time>2026-03-23T15:20:26.001Z</time></trkpt><trkpt lat="33.39766366331673" lon="9.008805354188045"><ele>64.0</ele><time>2026-03-23T15:20:27.001Z</time></trkpt><trkpt lat="33.39745887156377" lon="9.008802374409731"><ele>64.0</ele><time>2026-03-23T15:20:28.001Z</time></trkpt><trkpt lat="33.397250029943756" lon="9.008799422249389"><ele>64.33333333333333</ele><time>2026-03-23T15:20:29.001Z</time></trkpt><trkpt lat="33.39703551212536" lon="9.00879269373333"><ele>64.66666666666667</ele><time>2026-03-23T15:20:30.001Z</time></trkpt><trkpt lat="33.39683477658797" lon="9.008786363135277"><ele>65.0</ele><time>2026-03-23T15:20:31.001Z</time></trkpt><trkpt lat="33.39662509912841" lon="9.008781244609839"><ele>65.0</ele><time>2026-03-23T15:20:32.001Z</time></trkpt><trkpt lat="33.39642254595248" lon="9.008777255477739"><ele>65.0</ele><time>2026-03-23T15:20:33.001Z</time></trkpt><trkpt lat="33.39621445763698" lon="9.008772343138629"><ele>65.0</ele><time>2026-03-23T15:20:34.001Z</time></trkpt><trkpt lat="33.396008944393564" lon="9.00876840187335"><ele>65.33333333333334</ele><time>2026-03-23T15:20:35.001Z</time></trkpt><trkpt lat="33.39580484480522" lon="9.008765852652996"><ele>65.66666666666667</ele><time>2026-03-23T15:20:36.001Z</time></trkpt><trkpt lat="33.395597865910176" lon="9.008761417983928"><ele>66.0</ele><time>2026-03-23T15:20:37.001Z</time></trkpt><trkpt lat="33.39539434764433" lon="9.008759558905362"><ele>64.66666666666667</ele><time>2026-03-23T15:20:38.001Z</time></trkpt><trkpt lat="33.39519084114036" lon="9.008756584666815"><ele>63.333333333333336</ele><time>2026-03-23T15:20:39.001Z</time></trkpt><trkpt lat="33.39499028238665" lon="9.008755347019024"><ele>62.0</ele><time>2026-03-23T15:20:40.001Z</time></trkpt><trkpt lat="33.39478495815431" lon="9.00875158259888"><ele>61.333333333333336</ele><time>2026-03-23T15:20:41.001Z</time></trkpt><trkpt lat="33.394580387947926" lon="9.008750698142897"><ele>60.66666666666667</ele><time>2026-03-23T15:20:42.001Z</time></trkpt><trkpt lat="33.39437867641453" lon="9.00875791655071"><ele>60.0</ele><time>2026-03-23T15:20:43.001Z</time></trkpt><trkpt lat="33.39417296742388" lon="9.008770316988924"><ele>60.0</ele><time>2026-03-23T15:20:44.001Z</time></trkpt><trkpt lat="33.393969793927376" lon="9.00878513407703"><ele>60.0</ele><time>2026-03-23T15:20:45.001Z</time></trkpt><trkpt lat="33.393769772781596" lon="9.008807510398318"><ele>60.0</ele><time>2026-03-23T15:20:46.001Z</time></trkpt><trkpt lat="33.393568119545286" lon="9.008836377969313"><ele>61.66666666666667</ele><time>2026-03-23T15:20:47.001Z</time></trkpt><trkpt lat="33.39336460513287" lon="9.008869784168576"><ele>63.333333333333336</ele><time>2026-03-23T15:20:48.001Z</time></trkpt><trkpt lat="33.393162580480514" lon="9.008905939127455"><ele>65.0</ele><time>2026-03-23T15:20:49.001Z</time></trkpt><trkpt lat="33.39295459477178" lon="9.008953369753877"><ele>65.0</ele><time>2026-03-23T15:20:50.001Z</time></trkpt><trkpt lat="33.39275541578647" lon="9.009007626314212"><ele>65.0</ele><time>2026-03-23T15:20:51.001Z</time></trkpt><trkpt lat="33.39255407819496" lon="9.009069287204994"><ele>65.0</ele><time>2026-03-23T15:20:52.001Z</time></trkpt><trkpt lat="33.39235596351183" lon="9.009133162408416"><ele>63.0</ele><time>2026-03-23T15:20:53.001Z</time></trkpt><trkpt lat="33.392157537064854" lon="9.009201645345822"><ele>61.0</ele><time>2026-03-23T15:20:54.001Z</time></trkpt><trkpt lat="33.391965591980686" lon="9.00927878492504"><ele>59.0</ele><time>2026-03-23T15:20:55.001Z</time></trkpt><trkpt lat="33.39177618735313" lon="9.009362476528214"><ele>59.0</ele><time>2026-03-23T15:20:56.001Z</time></trkpt><trkpt lat="33.39159387843157" lon="9.009448315301745"><ele>59.0</ele><time>2026-03-23T15:20:57.001Z</time></trkpt><trkpt lat="33.39141087843366" lon="9.009538408280434"><ele>59.0</ele><time>2026-03-23T15:20:58.001Z</time></trkpt><trkpt lat="33.39122936542269" lon="9.00962971256955"><ele>60.0</ele><time>2026-03-23T15:20:59.001Z</time></trkpt><trkpt lat="33.39105515174917" lon="9.00972689625011"><ele>61.0</ele><time>2026-03-23T15:21:00.001Z</time></trkpt><trkpt lat="33.3908769139856" lon="9.009829155758082"><ele>62.0</ele><time>2026-03-23T15:21:01.001Z</time></trkpt><trkpt lat="33.390702823657264" lon="9.009932375535406"><ele>62.333333333333336</ele><time>2026-03-23T15:21:02.001Z</time></trkpt><trkpt lat="33.39053090707066" lon="9.010041077032103"><ele>62.66666666666667</ele><time>2026-03-23T15:21:03.001Z</time></trkpt><trkpt lat="33.39036862366008" lon="9.010158412809705"><ele>63.0</ele><time>2026-03-23T15:21:04.001Z</time></trkpt><trkpt lat="33.39020948769429" lon="9.010278029502961"><ele>63.66666666666667</ele><time>2026-03-23T15:21:05.001Z</time></trkpt><trkpt lat="33.390050079252084" lon="9.010404988179916"><ele>64.33333333333334</ele><time>2026-03-23T15:21:06.001Z</time></trkpt><trkpt lat="33.38989199504811" lon="9.010531237339132"><ele>65.0</ele><time>2026-03-23T15:21:07.001Z</time></trkpt><trkpt lat="33.389733250779784" lon="9.010658918703664"><ele>65.33333333333334</ele><time>2026-03-23T15:21:08.001Z</time></trkpt><trkpt lat="33.38959644886502" lon="9.01078391261609"><ele>65.66666666666667</ele><time>2026-03-23T15:21:09.001Z</time></trkpt><trkpt lat="33.389470891440595" lon="9.010909237169217"><ele>66.0</ele><time>2026-03-23T15:21:10.001Z</time></trkpt><trkpt lat="33.389346560083695" lon="9.011032364013458"><ele>65.33333333333333</ele><time>2026-03-23T15:21:11.001Z</time></trkpt><trkpt lat="33.38921892409997" lon="9.011155591129565"><ele>64.66666666666666</ele><time>2026-03-23T15:21:12.001Z</time></trkpt><trkpt lat="33.38909714272857" lon="9.011282011361724"><ele>64.0</ele><time>2026-03-23T15:21:13.001Z</time></trkpt><trkpt lat="33.38898162859377" lon="9.01140523317428"><ele>64.0</ele><time>2026-03-23T15:21:14.001Z</time></trkpt><trkpt lat="33.38887768742165" lon="9.01151723326905"><ele>64.0</ele><time>2026-03-23T15:21:15.001Z</time></trkpt><trkpt lat="33.38878510806304" lon="9.011627606916717"><ele>64.0</ele><time>2026-03-23T15:21:16.001Z</time></trkpt><trkpt lat="33.38869489324922" lon="9.011735727994179"><ele>64.0</ele><time>2026-03-23T15:21:17.001Z</time></trkpt><trkpt lat="33.38860903419304" lon="9.011841714581497"><ele>63.800000000000004</ele><time>2026-03-23T15:21:18.001Z</time></trkpt><trkpt lat="33.38852883336029" lon="9.011943372776134"><ele>63.60000000000001</ele><time>2026-03-23T15:21:19.001Z</time></trkpt><trkpt lat="33.38845860708013" lon="9.01204002972934"><ele>63.4</ele><time>2026-03-23T15:21:20.001Z</time></trkpt><trkpt lat="33.38839172297323" lon="9.01213303676811"><ele>63.2</ele><time>2026-03-23T15:21:21.001Z</time></trkpt><trkpt lat="33.38831861822795" lon="9.012230986347323"><ele>63.0</ele><time>2026-03-23T15:21:22.001Z</time></trkpt><trkpt lat="33.38824481567304" lon="9.012335264283154"><ele>63.0</ele><time>2026-03-23T15:21:23.001Z</time></trkpt><trkpt lat="33.388169464675556" lon="9.012437530332084"><ele>63.0</ele><time>2026-03-23T15:21:24.001Z</time></trkpt><trkpt lat="33.38810107088934" lon="9.012528897507428"><ele>63.0</ele><time>2026-03-23T15:21:25.001Z</time></trkpt><trkpt lat="33.388047723886075" lon="9.012607306049803"><ele>63.0</ele><time>2026-03-23T15:21:26.001Z</time></trkpt><trkpt lat="33.38799539693955" lon="9.012660815013504"><ele>63.0</ele><time>2026-03-23T15:21:27.001Z</time></trkpt><trkpt lat="33.38791770962706" lon="9.012752068593343"><ele>63.4</ele><time>2026-03-23T15:21:29.001Z</time></trkpt><trkpt lat="33.38784480951144" lon="9.012776246642385"><ele>63.8</ele><time>2026-03-23T15:21:31.001Z</time></trkpt><trkpt lat="33.387751851969114" lon="9.012799850666806"><ele>64.2</ele><time>2026-03-23T15:21:33.001Z</time></trkpt><trkpt lat="33.38764242637795" lon="9.01282954598071"><ele>64.6</ele><time>2026-03-23T15:21:35.001Z</time></trkpt><trkpt lat="33.38756911910095" lon="9.012850033600932"><ele>65.0</ele><time>2026-03-23T15:21:36.001Z</time></trkpt><trkpt lat="33.38747071201137" lon="9.012910353723314"><ele>65.0</ele><time>2026-03-23T15:21:38.001Z</time></trkpt><trkpt lat="33.387375991110076" lon="9.01298651811169"><ele>65.0</ele><time>2026-03-23T15:21:40.001Z</time></trkpt><trkpt lat="33.38731396197232" lon="9.013012630824209"><ele>65.0</ele><time>2026-03-23T15:21:42.001Z</time></trkpt><trkpt lat="33.38723287990698" lon="9.013031198884288"><ele>65.0</ele><time>2026-03-23T15:22:49.001Z</time></trkpt><trkpt lat="33.38711531470086" lon="9.013009946943312"><ele>65.0</ele><time>2026-03-23T15:22:51.001Z</time></trkpt><trkpt lat="33.38704305664333" lon="9.013008033314094"><ele>64.66666666666667</ele><time>2026-03-23T15:22:52.001Z</time></trkpt><trkpt lat="33.38696951312054" lon="9.013027686865714"><ele>64.33333333333334</ele><time>2026-03-23T15:22:53.001Z</time></trkpt><trkpt lat="33.38689133170931" lon="9.013060223219279"><ele>64.0</ele><time>2026-03-23T15:22:54.001Z</time></trkpt><trkpt lat="33.38681885436213" lon="9.013103531766458"><ele>63.66666666666667</ele><time>2026-03-23T15:22:55.001Z</time></trkpt><trkpt lat="33.386750559830425" lon="9.0131385571584"><ele>63.333333333333336</ele><time>2026-03-23T15:22:56.001Z</time></trkpt><trkpt lat="33.38668842198942" lon="9.013162598724339"><ele>63.0</ele><time>2026-03-23T15:22:57.001Z</time></trkpt><trkpt lat="33.386599548248874" lon="9.013158302525362"><ele>63.0</ele><time>2026-03-23T15:22:59.001Z</time></trkpt><trkpt lat="33.38653203888113" lon="9.013140584032842"><ele>63.0</ele><time>2026-03-23T15:23:00.001Z</time></trkpt><trkpt lat="33.38645246682758" lon="9.013107373884536"><ele>63.0</ele><time>2026-03-23T15:23:01.001Z</time></trkpt><trkpt lat="33.386372812205984" lon="9.01307879461162"><ele>63.0</ele><time>2026-03-23T15:23:02.001Z</time></trkpt><trkpt lat="33.38629588684729" lon="9.0130589117668"><ele>63.0</ele><time>2026-03-23T15:23:03.001Z</time></trkpt><trkpt lat="33.38621356588655" lon="9.013052534774081"><ele>63.0</ele><time>2026-03-23T15:23:04.001Z</time></trkpt><trkpt lat="33.386126340175" lon="9.013077638313515"><ele>63.666666666666664</ele><time>2026-03-23T15:23:05.001Z</time></trkpt><trkpt lat="33.38605377752221" lon="9.013122232433311"><ele>64.33333333333333</ele><time>2026-03-23T15:23:06.001Z</time></trkpt><trkpt lat="33.3860006904454" lon="9.013166412621116"><ele>65.0</ele><time>2026-03-23T15:23:07.001Z</time></trkpt><trkpt lat="33.38588036562469" lon="9.013216868080017"><ele>65.66666666666666</ele><time>2026-03-23T15:23:09.001Z</time></trkpt><trkpt lat="33.385807655304376" lon="9.013239104887957"><ele>66.33333333333333</ele><time>2026-03-23T15:23:10.001Z</time></trkpt><trkpt lat="33.385746106077534" lon="9.013266302923451"><ele>67.0</ele><time>2026-03-23T15:23:11.001Z</time></trkpt><trkpt lat="33.385637276542646" lon="9.013353027431096"><ele>67.16666666666666</ele><time>2026-03-23T15:23:13.001Z</time></trkpt><trkpt lat="33.385572366620856" lon="9.013402043163874"><ele>67.33333333333333</ele><time>2026-03-23T15:23:14.001Z</time></trkpt><trkpt lat="33.385451123268105" lon="9.013466717263517"><ele>67.5</ele><time>2026-03-23T15:23:16.001Z</time></trkpt><trkpt lat="33.38539103196518" lon="9.013503233097657"><ele>67.66666666666667</ele><time>2026-03-23T15:23:17.001Z</time></trkpt><trkpt lat="33.38532573405709" lon="9.013549548020846"><ele>67.83333333333334</ele><time>2026-03-23T15:23:18.001Z</time></trkpt><trkpt lat="33.385266834950286" lon="9.013605372376917"><ele>68.0</ele><time>2026-03-23T15:23:19.001Z</time></trkpt><trkpt lat="33.38519549874442" lon="9.013732998586242"><ele>68.16666666666667</ele><time>2026-03-23T15:23:21.001Z</time></trkpt><trkpt lat="33.38515799316881" lon="9.013837066429105"><ele>68.33333333333334</ele><time>2026-03-23T15:23:23.001Z</time></trkpt><trkpt lat="33.385138869102036" lon="9.013912026590194"><ele>68.5</ele><time>2026-03-23T15:23:25.001Z</time></trkpt><trkpt lat="33.38509384077183" lon="9.013976751842865"><ele>68.66666666666667</ele><time>2026-03-23T15:23:27.001Z</time></trkpt><trkpt lat="33.385017912080635" lon="9.01401587651135"><ele>68.83333333333333</ele><time>2026-03-23T15:23:29.001Z</time></trkpt><trkpt lat="33.384915210002696" lon="9.014068603826981"><ele>69.0</ele><time>2026-03-23T15:23:31.001Z</time></trkpt><trkpt lat="33.38485323414571" lon="9.01410701190412"><ele>69.0</ele><time>2026-03-23T15:23:32.001Z</time></trkpt><trkpt lat="33.38479030950796" lon="9.014153711098006"><ele>69.0</ele><time>2026-03-23T15:23:33.001Z</time></trkpt><trkpt lat="33.38473148464931" lon="9.014220577520758"><ele>69.0</ele><time>2026-03-23T15:23:34.001Z</time></trkpt><trkpt lat="33.384668421048794" lon="9.014294230701614"><ele>69.0</ele><time>2026-03-23T15:23:35.001Z</time></trkpt><trkpt lat="33.38459365838898" lon="9.014352815340068"><ele>69.0</ele><time>2026-03-23T15:23:36.001Z</time></trkpt><trkpt lat="33.384510373366304" lon="9.014399785590486"><ele>69.0</ele><time>2026-03-23T15:23:37.001Z</time></trkpt><trkpt lat="33.384423863891854" lon="9.014438013414644"><ele>68.66666666666667</ele><time>2026-03-23T15:23:38.001Z</time></trkpt><trkpt lat="33.38434872209413" lon="9.014465226069039"><ele>68.33333333333333</ele><time>2026-03-23T15:23:39.001Z</time></trkpt><trkpt lat="33.38427457136965" lon="9.014494827486745"><ele>68.0</ele><time>2026-03-23T15:23:40.001Z</time></trkpt><trkpt lat="33.384194841368284" lon="9.014535788731605"><ele>67.66666666666666</ele><time>2026-03-23T15:23:41.001Z</time></trkpt><trkpt lat="33.38412514942945" lon="9.014582661065411"><ele>67.33333333333333</ele><time>2026-03-23T15:23:42.001Z</time></trkpt><trkpt lat="33.384045501974526" lon="9.014639163456915"><ele>67.0</ele><time>2026-03-23T15:23:43.001Z</time></trkpt><trkpt lat="33.38395801885552" lon="9.014708841411117"><ele>67.0</ele><time>2026-03-23T15:23:44.001Z</time></trkpt><trkpt lat="33.38387343265282" lon="9.01479099933105"><ele>67.0</ele><time>2026-03-23T15:23:45.001Z</time></trkpt><trkpt lat="33.38380404957748" lon="9.014869376857302"><ele>67.0</ele><time>2026-03-23T15:23:46.001Z</time></trkpt><trkpt lat="33.383723968996286" lon="9.014953859707937"><ele>67.0</ele><time>2026-03-23T15:23:47.001Z</time></trkpt><trkpt lat="33.38364155789191" lon="9.01503661775448"><ele>67.0</ele><time>2026-03-23T15:23:48.001Z</time></trkpt><trkpt lat="33.38354845006047" lon="9.015122848498471"><ele>66.75</ele><time>2026-03-23T15:23:49.001Z</time></trkpt><trkpt lat="33.38345115564543" lon="9.01519336689506"><ele>66.5</ele><time>2026-03-23T15:23:50.001Z</time></trkpt><trkpt lat="33.38334723121322" lon="9.015244607829388"><ele>66.25</ele><time>2026-03-23T15:23:51.001Z</time></trkpt><trkpt lat="33.383237877295294" lon="9.015279813865483"><ele>66.0</ele><time>2026-03-23T15:23:52.001Z</time></trkpt><trkpt lat="33.38312447786423" lon="9.015299671959086"><ele>66.0</ele><time>2026-03-23T15:23:53.001Z</time></trkpt><trkpt lat="33.38302906754861" lon="9.015306128804346"><ele>66.0</ele><time>2026-03-23T15:23:54.001Z</time></trkpt><trkpt lat="33.38292262147642" lon="9.015302400967297"><ele>66.0</ele><time>2026-03-23T15:23:55.001Z</time></trkpt><trkpt lat="33.38280119757838" lon="9.015279949206855"><ele>66.0</ele><time>2026-03-23T15:23:56.001Z</time></trkpt><trkpt lat="33.38267412287883" lon="9.015242027050945"><ele>65.75</ele><time>2026-03-23T15:23:57.001Z</time></trkpt><trkpt lat="33.382545761776925" lon="9.015206610784764"><ele>65.5</ele><time>2026-03-23T15:23:58.001Z</time></trkpt><trkpt lat="33.38242731281213" lon="9.015183777049133"><ele>65.25</ele><time>2026-03-23T15:23:59.001Z</time></trkpt><trkpt lat="33.38230402990206" lon="9.015168490520605"><ele>65.0</ele><time>2026-03-23T15:24:00.001Z</time></trkpt><trkpt lat="33.382168454791035" lon="9.015171745838707"><ele>65.75</ele><time>2026-03-23T15:24:01.001Z</time></trkpt><trkpt lat="33.382027681539384" lon="9.015194708788668"><ele>66.5</ele><time>2026-03-23T15:24:02.001Z</time></trkpt><trkpt lat="33.381880846131395" lon="9.015224334993722"><ele>67.25</ele><time>2026-03-23T15:24:03.001Z</time></trkpt><trkpt lat="33.38172864619256" lon="9.01524987705738"><ele>68.0</ele><time>2026-03-23T15:24:04.001Z</time></trkpt><trkpt lat="33.38156601372086" lon="9.015265450453184"><ele>68.0</ele><time>2026-03-23T15:24:05.001Z</time></trkpt><trkpt lat="33.38142071863773" lon="9.015275449066474"><ele>68.0</ele><time>2026-03-23T15:24:06.001Z</time></trkpt><trkpt lat="33.38128883599335" lon="9.015284070801533"><ele>68.0</ele><time>2026-03-23T15:24:07.001Z</time></trkpt><trkpt lat="33.38116665597793" lon="9.015293559139408"><ele>68.0</ele><time>2026-03-23T15:24:08.001Z</time></trkpt><trkpt lat="33.381044301179394" lon="9.01530288733014"><ele>67.75</ele><time>2026-03-23T15:24:09.001Z</time></trkpt><trkpt lat="33.380913372279686" lon="9.01530280980547"><ele>67.5</ele><time>2026-03-23T15:24:10.001Z</time></trkpt><trkpt lat="33.38076457790655" lon="9.015293029949243"><ele>67.25</ele><time>2026-03-23T15:24:11.001Z</time></trkpt><trkpt lat="33.380610526645285" lon="9.015279693519764"><ele>67.0</ele><time>2026-03-23T15:24:12.001Z</time></trkpt><trkpt lat="33.38045507605027" lon="9.01526195340638"><ele>67.0</ele><time>2026-03-23T15:24:13.001Z</time></trkpt><trkpt lat="33.38029028966945" lon="9.015236475522862"><ele>67.0</ele><time>2026-03-23T15:24:14.001Z</time></trkpt><trkpt lat="33.380138246065776" lon="9.015202065124956"><ele>67.0</ele><time>2026-03-23T15:24:15.001Z</time></trkpt><trkpt lat="33.379988073223664" lon="9.015162776634327"><ele>67.0</ele><time>2026-03-23T15:24:16.001Z</time></trkpt><trkpt lat="33.379835998733775" lon="9.015115992204858"><ele>67.0</ele><time>2026-03-23T15:24:17.001Z</time></trkpt><trkpt lat="33.37968698316138" lon="9.015059725846587"><ele>67.0</ele><time>2026-03-23T15:24:18.001Z</time></trkpt><trkpt lat="33.37954293076742" lon="9.014996974832433"><ele>66.5</ele><time>2026-03-23T15:24:19.001Z</time></trkpt><trkpt lat="33.37940750215602" lon="9.01492655525514"><ele>66.0</ele><time>2026-03-23T15:24:20.001Z</time></trkpt><trkpt lat="33.37927813128247" lon="9.014851732858109"><ele>65.5</ele><time>2026-03-23T15:24:21.001Z</time></trkpt><trkpt lat="33.379149180283925" lon="9.014773524130277"><ele>65.0</ele><time>2026-03-23T15:24:22.001Z</time></trkpt><trkpt lat="33.379027409246255" lon="9.014695297829702"><ele>65.0</ele><time>2026-03-23T15:24:23.001Z</time></trkpt><trkpt lat="33.378917987541136" lon="9.014623941787818"><ele>65.0</ele><time>2026-03-23T15:24:24.001Z</time></trkpt><trkpt lat="33.37880805265232" lon="9.014553194475953"><ele>65.0</ele><time>2026-03-23T15:24:25.001Z</time></trkpt><trkpt lat="33.378709031611756" lon="9.014490395948366"><ele>65.0</ele><time>2026-03-23T15:24:26.001Z</time></trkpt><trkpt lat="33.37862572346165" lon="9.014438111362248"><ele>65.16666666666667</ele><time>2026-03-23T15:24:27.001Z</time></trkpt><trkpt lat="33.37856684183729" lon="9.014403417752993"><ele>65.33333333333334</ele><time>2026-03-23T15:24:28.001Z</time></trkpt><trkpt lat="33.378483479476905" lon="9.01436142949537"><ele>65.5</ele><time>2026-03-23T15:24:30.001Z</time></trkpt><trkpt lat="33.37839449964978" lon="9.014305757649417"><ele>65.66666666666667</ele><time>2026-03-23T15:24:32.001Z</time></trkpt><trkpt lat="33.3783154263565" lon="9.014260733016789"><ele>65.83333333333333</ele><time>2026-03-23T15:24:33.001Z</time></trkpt><trkpt lat="33.37822511503846" lon="9.014213932639011"><ele>66.0</ele><time>2026-03-23T15:24:34.001Z</time></trkpt><trkpt lat="33.37813693437825" lon="9.014169554972208"><ele>65.25</ele><time>2026-03-23T15:24:35.001Z</time></trkpt><trkpt lat="33.37804057050858" lon="9.014115208658554"><ele>64.5</ele><time>2026-03-23T15:24:36.001Z</time></trkpt><trkpt lat="33.37794116702832" lon="9.014053310033477"><ele>63.75</ele><time>2026-03-23T15:24:37.001Z</time></trkpt><trkpt lat="33.37783651514063" lon="9.013997218133872"><ele>63.0</ele><time>2026-03-23T15:24:38.001Z</time></trkpt><trkpt lat="33.37772361774314" lon="9.013945562179261"><ele>62.5</ele><time>2026-03-23T15:24:39.001Z</time></trkpt><trkpt lat="33.37760175485297" lon="9.013896075219836"><ele>62.0</ele><time>2026-03-23T15:24:40.001Z</time></trkpt><trkpt lat="33.37747538213208" lon="9.013840673626412"><ele>61.5</ele><time>2026-03-23T15:24:41.001Z</time></trkpt><trkpt lat="33.377343845054" lon="9.013780550212564"><ele>61.0</ele><time>2026-03-23T15:24:42.001Z</time></trkpt><trkpt lat="33.37721242505497" lon="9.013722362023492"><ele>61.75</ele><time>2026-03-23T15:24:43.001Z</time></trkpt><trkpt lat="33.377077140445856" lon="9.013674076023962"><ele>62.5</ele><time>2026-03-23T15:24:44.001Z</time></trkpt><trkpt lat="33.376938825818996" lon="9.013624591390364"><ele>63.25</ele><time>2026-03-23T15:24:45.001Z</time></trkpt><trkpt lat="33.37679576728788" lon="9.013572598021213"><ele>64.0</ele><time>2026-03-23T15:24:46.001Z</time></trkpt><trkpt lat="33.37664736255761" lon="9.013523818817848"><ele>64.0</ele><time>2026-03-23T15:24:47.001Z</time></trkpt><trkpt lat="33.37650371242604" lon="9.013474525200065"><ele>64.0</ele><time>2026-03-23T15:24:48.001Z</time></trkpt><trkpt lat="33.37636372774258" lon="9.013426018828248"><ele>64.0</ele><time>2026-03-23T15:24:49.001Z</time></trkpt><trkpt lat="33.376224053236" lon="9.013383239053713"><ele>64.0</ele><time>2026-03-23T15:24:50.001Z</time></trkpt><trkpt lat="33.37608570514955" lon="9.013338899042168"><ele>63.75</ele><time>2026-03-23T15:24:51.001Z</time></trkpt><trkpt lat="33.37594165525694" lon="9.013284790645528"><ele>63.5</ele><time>2026-03-23T15:24:52.001Z</time></trkpt><trkpt lat="33.37582304625667" lon="9.013227348141072"><ele>63.25</ele><time>2026-03-23T15:24:53.001Z</time></trkpt><trkpt lat="33.37571807557805" lon="9.0131693012335"><ele>63.0</ele><time>2026-03-23T15:24:54.001Z</time></trkpt><trkpt lat="33.3756250636815" lon="9.013117901297749"><ele>63.0</ele><time>2026-03-23T15:24:55.001Z</time></trkpt><trkpt lat="33.375532423029114" lon="9.013078620903382"><ele>63.0</ele><time>2026-03-23T15:24:56.001Z</time></trkpt><trkpt lat="33.37544161661051" lon="9.013051738998868"><ele>63.0</ele><time>2026-03-23T15:24:57.001Z</time></trkpt><trkpt lat="33.37535680949364" lon="9.0130325948212"><ele>63.0</ele><time>2026-03-23T15:24:58.001Z</time></trkpt><trkpt lat="33.37526307612271" lon="9.013014378600037"><ele>63.0</ele><time>2026-03-23T15:24:59.001Z</time></trkpt><trkpt lat="33.37517410091781" lon="9.013001826297478"><ele>63.2</ele><time>2026-03-23T15:25:00.001Z</time></trkpt><trkpt lat="33.37506633327765" lon="9.01299905362474"><ele>63.4</ele><time>2026-03-23T15:25:01.001Z</time></trkpt><trkpt lat="33.37496021089297" lon="9.012997757977638"><ele>63.60000000000001</ele><time>2026-03-23T15:25:02.001Z</time></trkpt><trkpt lat="33.37486427733574" lon="9.01299140416263"><ele>63.800000000000004</ele><time>2026-03-23T15:25:03.001Z</time></trkpt><trkpt lat="33.37476386328937" lon="9.012971893727169"><ele>64.0</ele><time>2026-03-23T15:25:04.001Z</time></trkpt><trkpt lat="33.37465968604137" lon="9.012945612340541"><ele>64.0</ele><time>2026-03-23T15:25:05.001Z</time></trkpt><trkpt lat="33.37455465214936" lon="9.012934167235093"><ele>64.0</ele><time>2026-03-23T15:25:06.001Z</time></trkpt><trkpt lat="33.37444910227537" lon="9.012930711722351"><ele>64.0</ele><time>2026-03-23T15:25:07.001Z</time></trkpt><trkpt lat="33.37432888867475" lon="9.012920038796127"><ele>64.0</ele><time>2026-03-23T15:25:08.001Z</time></trkpt><trkpt lat="33.374202485885306" lon="9.012903567837297"><ele>64.0</ele><time>2026-03-23T15:25:09.001Z</time></trkpt><trkpt lat="33.37408423976561" lon="9.012878617862969"><ele>64.0</ele><time>2026-03-23T15:25:10.001Z</time></trkpt><trkpt lat="33.37396254476948" lon="9.012847795225994"><ele>64.0</ele><time>2026-03-23T15:25:11.001Z</time></trkpt><trkpt lat="33.37383929522807" lon="9.012815879292008"><ele>64.0</ele><time>2026-03-23T15:25:12.001Z</time></trkpt><trkpt lat="33.37372894409206" lon="9.012795792766802"><ele>63.800000000000004</ele><time>2026-03-23T15:25:13.001Z</time></trkpt><trkpt lat="33.373625317156296" lon="9.01278904647368"><ele>63.60000000000001</ele><time>2026-03-23T15:25:14.001Z</time></trkpt><trkpt lat="33.37351668844441" lon="9.012792297271163"><ele>63.4</ele><time>2026-03-23T15:25:15.001Z</time></trkpt><trkpt lat="33.373405113886484" lon="9.012811760704489"><ele>63.2</ele><time>2026-03-23T15:25:16.001Z</time></trkpt><trkpt lat="33.373315151505466" lon="9.012837433159714"><ele>63.0</ele><time>2026-03-23T15:25:17.001Z</time></trkpt><trkpt lat="33.37321953492128" lon="9.012863890327528"><ele>63.0</ele><time>2026-03-23T15:25:18.001Z</time></trkpt><trkpt lat="33.37311318374092" lon="9.012882318123156"><ele>63.0</ele><time>2026-03-23T15:25:19.001Z</time></trkpt><trkpt lat="33.373005514378974" lon="9.012895029519056"><ele>63.0</ele><time>2026-03-23T15:25:20.001Z</time></trkpt><trkpt lat="33.372897499622646" lon="9.012919599883467"><ele>63.0</ele><time>2026-03-23T15:25:21.001Z</time></trkpt><trkpt lat="33.37279212045043" lon="9.012960838348151"><ele>63.0</ele><time>2026-03-23T15:25:22.001Z</time></trkpt><trkpt lat="33.37269656525673" lon="9.012999512833598"><ele>63.0</ele><time>2026-03-23T15:25:23.001Z</time></trkpt><trkpt lat="33.37260179836673" lon="9.013024706536541"><ele>63.0</ele><time>2026-03-23T15:25:24.001Z</time></trkpt><trkpt lat="33.37250606700289" lon="9.013038098663687"><ele>63.0</ele><time>2026-03-23T15:25:25.001Z</time></trkpt><trkpt lat="33.37240777151331" lon="9.013047193964345"><ele>63.0</ele><time>2026-03-23T15:25:26.001Z</time></trkpt><trkpt lat="33.372310918589676" lon="9.013054802651771"><ele>63.0</ele><time>2026-03-23T15:25:27.001Z</time></trkpt><trkpt lat="33.37221751317808" lon="9.01306498067444"><ele>62.8</ele><time>2026-03-23T15:25:28.001Z</time></trkpt><trkpt lat="33.37212322220023" lon="9.013077556741957"><ele>62.599999999999994</ele><time>2026-03-23T15:25:29.001Z</time></trkpt><trkpt lat="33.37202044355822" lon="9.013100238870798"><ele>62.400000000000006</ele><time>2026-03-23T15:25:30.001Z</time></trkpt><trkpt lat="33.37191674304289" lon="9.01311580924147"><ele>62.2</ele><time>2026-03-23T15:25:31.001Z</time></trkpt><trkpt lat="33.37181045442957" lon="9.013132848873928"><ele>62.0</ele><time>2026-03-23T15:25:32.001Z</time></trkpt><trkpt lat="33.37169472907688" lon="9.013145577194887"><ele>62.0</ele><time>2026-03-23T15:25:33.001Z</time></trkpt><trkpt lat="33.371573511859374" lon="9.013156516049257"><ele>62.0</ele><time>2026-03-23T15:25:34.001Z</time></trkpt><trkpt lat="33.371450667337186" lon="9.013165544333647"><ele>62.0</ele><time>2026-03-23T15:25:35.001Z</time></trkpt><trkpt lat="33.37133164577214" lon="9.013164632144932"><ele>62.0</ele><time>2026-03-23T15:25:36.001Z</time></trkpt><trkpt lat="33.37120567359047" lon="9.013160364378603"><ele>62.0</ele><time>2026-03-23T15:25:37.001Z</time></trkpt><trkpt lat="33.37108151030756" lon="9.013152900812075"><ele>62.0</ele><time>2026-03-23T15:25:38.001Z</time></trkpt><trkpt lat="33.370970441496226" lon="9.013129659726358"><ele>62.0</ele><time>2026-03-23T15:25:39.001Z</time></trkpt><trkpt lat="33.37086125698862" lon="9.01310185530354"><ele>62.0</ele><time>2026-03-23T15:25:40.001Z</time></trkpt><trkpt lat="33.37074932060672" lon="9.01307173266399"><ele>62.00000000000001</ele><time>2026-03-23T15:25:41.001Z</time></trkpt><trkpt lat="33.37064150410009" lon="9.013052082006487"><ele>62.0</ele><time>2026-03-23T15:25:42.001Z</time></trkpt><trkpt lat="33.37055877062925" lon="9.013041236494567"><ele>62.0</ele><time>2026-03-23T15:25:43.001Z</time></trkpt><trkpt lat="33.37048505656649" lon="9.01303387005718"><ele>62.0</ele><time>2026-03-23T15:25:44.001Z</time></trkpt><trkpt lat="33.370404631365034" lon="9.013021836098142"><ele>62.00000000000001</ele><time>2026-03-23T15:25:45.001Z</time></trkpt><trkpt lat="33.37030573391449" lon="9.012999376630011"><ele>62.0</ele><time>2026-03-23T15:25:46.001Z</time></trkpt><trkpt lat="33.37020334322967" lon="9.012966901644834"><ele>62.0</ele><time>2026-03-23T15:25:47.001Z</time></trkpt><trkpt lat="33.370082189742796" lon="9.012924856853607"><ele>62.0</ele><time>2026-03-23T15:25:48.001Z</time></trkpt><trkpt lat="33.36995769019025" lon="9.012876718642977"><ele>62.0</ele><time>2026-03-23T15:25:49.001Z</time></trkpt><trkpt lat="33.36983200058444" lon="9.012819911810102"><ele>62.0</ele><time>2026-03-23T15:25:50.001Z</time></trkpt><trkpt lat="33.369694903975635" lon="9.012759420693014"><ele>61.5</ele><time>2026-03-23T15:25:51.001Z</time></trkpt><trkpt lat="33.36956606417788" lon="9.012706719431963"><ele>61.0</ele><time>2026-03-23T15:25:52.001Z</time></trkpt><trkpt lat="33.369441879190596" lon="9.012658939153775"><ele>60.5</ele><time>2026-03-23T15:25:53.001Z</time></trkpt><trkpt lat="33.36932470457236" lon="9.012605170395698"><ele>60.0</ele><time>2026-03-23T15:25:54.001Z</time></trkpt><trkpt lat="33.36920731552845" lon="9.012562085280004"><ele>60.0</ele><time>2026-03-23T15:25:55.001Z</time></trkpt><trkpt lat="33.369080327188954" lon="9.012536574642695"><ele>60.0</ele><time>2026-03-23T15:25:56.001Z</time></trkpt><trkpt lat="33.36894778346891" lon="9.012519301972628"><ele>60.0</ele><time>2026-03-23T15:25:57.001Z</time></trkpt><trkpt lat="33.368823885368236" lon="9.012515678281055"><ele>60.0</ele><time>2026-03-23T15:25:58.001Z</time></trkpt><trkpt lat="33.36869011664934" lon="9.012512821185709"><ele>60.5</ele><time>2026-03-23T15:25:59.001Z</time></trkpt><trkpt lat="33.36854639168371" lon="9.012509847178292"><ele>61.0</ele><time>2026-03-23T15:26:00.001Z</time></trkpt><trkpt lat="33.36841882202987" lon="9.012513938152713"><ele>61.5</ele><time>2026-03-23T15:26:01.001Z</time></trkpt><trkpt lat="33.36830480453225" lon="9.01253523546316"><ele>62.0</ele><time>2026-03-23T15:26:02.001Z</time></trkpt><trkpt lat="33.368204829007325" lon="9.01257804159786"><ele>62.0</ele><time>2026-03-23T15:26:03.001Z</time></trkpt><trkpt lat="33.36810062932285" lon="9.012641304217611"><ele>62.0</ele><time>2026-03-23T15:26:04.001Z</time></trkpt><trkpt lat="33.36799993833555" lon="9.012711314620718"><ele>62.0</ele><time>2026-03-23T15:26:05.001Z</time></trkpt><trkpt lat="33.367899921815905" lon="9.012780496914004"><ele>62.0</ele><time>2026-03-23T15:26:06.001Z</time></trkpt><trkpt lat="33.36780803055286" lon="9.012845923332474"><ele>62.0</ele><time>2026-03-23T15:26:07.001Z</time></trkpt><trkpt lat="33.36772766369138" lon="9.012907954619957"><ele>62.0</ele><time>2026-03-23T15:26:08.001Z</time></trkpt><trkpt lat="33.36764957301793" lon="9.012953758250111"><ele>62.0</ele><time>2026-03-23T15:26:09.001Z</time></trkpt><trkpt lat="33.36757105668966" lon="9.012960471591809"><ele>62.0</ele><time>2026-03-23T15:26:10.001Z</time></trkpt><trkpt lat="33.36748161222674" lon="9.01295099463998"><ele>62.0</ele><time>2026-03-23T15:26:11.001Z</time></trkpt><trkpt lat="33.36737631567631" lon="9.012915607924377"><ele>62.0</ele><time>2026-03-23T15:26:12.001Z</time></trkpt><trkpt lat="33.36726260867977" lon="9.01288545678378"><ele>62.0</ele><time>2026-03-23T15:26:13.001Z</time></trkpt><trkpt lat="33.367156713697305" lon="9.01287658641191"><ele>62.0</ele><time>2026-03-23T15:26:14.001Z</time></trkpt><trkpt lat="33.36704653557413" lon="9.01287732781045"><ele>62.0</ele><time>2026-03-23T15:26:15.001Z</time></trkpt><trkpt lat="33.36691696892328" lon="9.012881739331172"><ele>61.75</ele><time>2026-03-23T15:26:16Z</time></trkpt><trkpt lat="33.36678659726871" lon="9.012897802996934"><ele>61.5</ele><time>2026-03-23T15:26:17Z</time></trkpt><trkpt lat="33.366655455657536" lon="9.01290766962596"><ele>61.25</ele><time>2026-03-23T15:26:18Z</time></trkpt><trkpt lat="33.366526790199764" lon="9.012905743284874"><ele>61.0</ele><time>2026-03-23T15:26:19Z</time></trkpt><trkpt lat="33.366417039449246" lon="9.012892291932284"><ele>61.199999999999996</ele><time>2026-03-23T15:26:20Z</time></trkpt><trkpt lat="33.366323054729996" lon="9.01287575913559"><ele>61.39999999999999</ele><time>2026-03-23T15:26:21Z</time></trkpt><trkpt lat="33.36623382174953" lon="9.01285829900711"><ele>61.6</ele><time>2026-03-23T15:26:22Z</time></trkpt><trkpt lat="33.36613630957546" lon="9.012853440410815"><ele>61.8</ele><time>2026-03-23T15:26:23Z</time></trkpt><trkpt lat="33.36603150616536" lon="9.012860659075029"><ele>62.0</ele><time>2026-03-23T15:26:24Z</time></trkpt><trkpt lat="33.365914094665555" lon="9.012866091766941"><ele>62.0</ele><time>2026-03-23T15:26:25Z</time></trkpt><trkpt lat="33.3657966757161" lon="9.01288204209968"><ele>62.0</ele><time>2026-03-23T15:26:26Z</time></trkpt><trkpt lat="33.365678888475614" lon="9.012900111699457"><ele>62.0</ele><time>2026-03-23T15:26:27Z</time></trkpt><trkpt lat="33.36555914103659" lon="9.012905091058483"><ele>62.0</ele><time>2026-03-23T15:26:28Z</time></trkpt><trkpt lat="33.365448303181836" lon="9.012907708944217"><ele>61.6</ele><time>2026-03-23T15:26:29Z</time></trkpt><trkpt lat="33.36534671413622" lon="9.012913531343239"><ele>61.2</ele><time>2026-03-23T15:26:30Z</time></trkpt><trkpt lat="33.36524667252542" lon="9.012939558427172"><ele>60.8</ele><time>2026-03-23T15:26:31Z</time></trkpt><trkpt lat="33.36516028581371" lon="9.012963206328989"><ele>60.4</ele><time>2026-03-23T15:26:32Z</time></trkpt><trkpt lat="33.365073972824234" lon="9.01299473415663"><ele>60.0</ele><time>2026-03-23T15:26:33Z</time></trkpt><trkpt lat="33.36498773795546" lon="9.013009894547835"><ele>60.0</ele><time>2026-03-23T15:26:34Z</time></trkpt><trkpt lat="33.364891293939664" lon="9.013008465437126"><ele>60.0</ele><time>2026-03-23T15:26:35Z</time></trkpt><trkpt lat="33.3647815662143" lon="9.013010409107837"><ele>60.0</ele><time>2026-03-23T15:26:36Z</time></trkpt><trkpt lat="33.36467367439903" lon="9.013035661020291"><ele>60.0</ele><time>2026-03-23T15:26:37Z</time></trkpt><trkpt lat="33.36456822128627" lon="9.013085405149038"><ele>60.0</ele><time>2026-03-23T15:26:38Z</time></trkpt><trkpt lat="33.36446456935028" lon="9.01314575606168"><ele>60.0</ele><time>2026-03-23T15:26:39Z</time></trkpt><trkpt lat="33.36435809297497" lon="9.013207598420419"><ele>60.0</ele><time>2026-03-23T15:26:40Z</time></trkpt><trkpt lat="33.36424692986811" lon="9.01326986759093"><ele>60.0</ele><time>2026-03-23T15:26:41Z</time></trkpt><trkpt lat="33.36413054650732" lon="9.013322863192954"><ele>60.0</ele><time>2026-03-23T15:26:42Z</time></trkpt><trkpt lat="33.364010568674665" lon="9.01336551203561"><ele>60.0</ele><time>2026-03-23T15:26:43Z</time></trkpt><trkpt lat="33.3638827141846" lon="9.013416971798497"><ele>60.0</ele><time>2026-03-23T15:26:44Z</time></trkpt><trkpt lat="33.36376385534202" lon="9.0134797915396"><ele>60.0</ele><time>2026-03-23T15:26:45Z</time></trkpt><trkpt lat="33.363658862373136" lon="9.013554314331682"><ele>60.0</ele><time>2026-03-23T15:26:46Z</time></trkpt><trkpt lat="33.363555514439" lon="9.013628603626648"><ele>60.0</ele><time>2026-03-23T15:26:47Z</time></trkpt><trkpt lat="33.363442240591766" lon="9.013688928436823"><ele>60.0</ele><time>2026-03-23T15:26:48Z</time></trkpt><trkpt lat="33.36332992132991" lon="9.013725953112639"><ele>60.0</ele><time>2026-03-23T15:26:49Z</time></trkpt><trkpt lat="33.36321945785658" lon="9.013744079056208"><ele>60.0</ele><time>2026-03-23T15:26:50Z</time></trkpt><trkpt lat="33.36312217454429" lon="9.013748078951366"><ele>60.0</ele><time>2026-03-23T15:26:51Z</time></trkpt><trkpt lat="33.36304001520174" lon="9.013739153974628"><ele>59.8</ele><time>2026-03-23T15:26:52Z</time></trkpt><trkpt lat="33.36293726252989" lon="9.013654598418514"><ele>59.6</ele><time>2026-03-23T15:26:54Z</time></trkpt><trkpt lat="33.362869745650585" lon="9.013605213261119"><ele>59.400000000000006</ele><time>2026-03-23T15:26:55Z</time></trkpt><trkpt lat="33.36278036434477" lon="9.013573674256536"><ele>59.2</ele><time>2026-03-23T15:26:56Z</time></trkpt><trkpt lat="33.36268663715828" lon="9.013566837759553"><ele>59.0</ele><time>2026-03-23T15:26:57Z</time></trkpt><trkpt lat="33.36260850079559" lon="9.013581538562072"><ele>59.0</ele><time>2026-03-23T15:26:58Z</time></trkpt><trkpt lat="33.36253160843552" lon="9.013614637488091"><ele>59.00000000000001</ele><time>2026-03-23T15:26:59Z</time></trkpt><trkpt lat="33.36245983590797" lon="9.01366842434587"><ele>59.00000000000001</ele><time>2026-03-23T15:27:00Z</time></trkpt><trkpt lat="33.36238163933259" lon="9.013740320391262"><ele>59.0</ele><time>2026-03-23T15:27:01Z</time></trkpt><trkpt lat="33.362283218143084" lon="9.013812761502098"><ele>59.0</ele><time>2026-03-23T15:27:02Z</time></trkpt><trkpt lat="33.36216917758983" lon="9.01386030594751"><ele>59.25</ele><time>2026-03-23T15:27:03Z</time></trkpt><trkpt lat="33.36204453147725" lon="9.013883578591926"><ele>59.5</ele><time>2026-03-23T15:27:04Z</time></trkpt><trkpt lat="33.361910299195394" lon="9.013896469773746"><ele>59.75</ele><time>2026-03-23T15:27:05Z</time></trkpt><trkpt lat="33.36176751708246" lon="9.01390149331426"><ele>60.0</ele><time>2026-03-23T15:27:06Z</time></trkpt><trkpt lat="33.36162208059424" lon="9.013901134210203"><ele>60.0</ele><time>2026-03-23T15:27:07Z</time></trkpt><trkpt lat="33.361480048724474" lon="9.013903961770371"><ele>60.0</ele><time>2026-03-23T15:27:08Z</time></trkpt><trkpt lat="33.36134291449744" lon="9.01391160446241"><ele>60.0</ele><time>2026-03-23T15:27:09Z</time></trkpt><trkpt lat="33.3612000334101" lon="9.01391999186597"><ele>60.0</ele><time>2026-03-23T15:27:10Z</time></trkpt><trkpt lat="33.36105735372069" lon="9.013930878480439"><ele>60.0</ele><time>2026-03-23T15:27:11Z</time></trkpt><trkpt lat="33.36093352238872" lon="9.013947201904662"><ele>60.0</ele><time>2026-03-23T15:27:12Z</time></trkpt><trkpt lat="33.360825350396645" lon="9.013956207107448"><ele>60.0</ele><time>2026-03-23T15:27:13Z</time></trkpt><trkpt lat="33.36072230985379" lon="9.013950198674324"><ele>60.0</ele><time>2026-03-23T15:27:14Z</time></trkpt><trkpt lat="33.3606206893511" lon="9.013938277279511"><ele>60.0</ele><time>2026-03-23T15:27:15Z</time></trkpt><trkpt lat="33.36052136485612" lon="9.013912846157277"><ele>60.0</ele><time>2026-03-23T15:27:16Z</time></trkpt><trkpt lat="33.360421021095505" lon="9.013871803644548"><ele>60.0</ele><time>2026-03-23T15:27:17Z</time></trkpt><trkpt lat="33.36031423496961" lon="9.013838163265358"><ele>60.0</ele><time>2026-03-23T15:27:18Z</time></trkpt><trkpt lat="33.36021108520543" lon="9.013833654413025"><ele>60.0</ele><time>2026-03-23T15:27:19Z</time></trkpt><trkpt lat="33.36010759977394" lon="9.013849397016745"><ele>60.0</ele><time>2026-03-23T15:27:20Z</time></trkpt><trkpt lat="33.360024999500176" lon="9.013871516357638"><ele>60.0</ele><time>2026-03-23T15:27:21Z</time></trkpt><trkpt lat="33.35995030039747" lon="9.013894358707583"><ele>60.0</ele><time>2026-03-23T15:27:22Z</time></trkpt><trkpt lat="33.35988075855186" lon="9.013923664139268"><ele>60.0</ele><time>2026-03-23T15:27:23Z</time></trkpt><trkpt lat="33.359801516960374" lon="9.013954605162299"><ele>60.0</ele><time>2026-03-23T15:27:24Z</time></trkpt><trkpt lat="33.35970261825097" lon="9.013972305668304"><ele>60.0</ele><time>2026-03-23T15:27:25Z</time></trkpt><trkpt lat="33.359597745259464" lon="9.013976310298206"><ele>60.0</ele><time>2026-03-23T15:27:26Z</time></trkpt><trkpt lat="33.359490511319976" lon="9.013963282219386"><ele>59.75</ele><time>2026-03-23T15:27:27Z</time></trkpt><trkpt lat="33.35937789285759" lon="9.013940425329414"><ele>59.5</ele><time>2026-03-23T15:27:28Z</time></trkpt><trkpt lat="33.35926069910736" lon="9.013923856128704"><ele>59.25</ele><time>2026-03-23T15:27:29Z</time></trkpt><trkpt lat="33.359130138943016" lon="9.01390384174511"><ele>59.0</ele><time>2026-03-23T15:27:30Z</time></trkpt><trkpt lat="33.35900985750307" lon="9.013886844767919"><ele>59.00000000000001</ele><time>2026-03-23T15:27:31Z</time></trkpt><trkpt lat="33.35891947654461" lon="9.013873211367146"><ele>59.0</ele><time>2026-03-23T15:27:32Z</time></trkpt><trkpt lat="33.358840152240596" lon="9.013869149200067"><ele>59.0</ele><time>2026-03-23T15:27:33Z</time></trkpt><trkpt lat="33.358763937958805" lon="9.013878067729637"><ele>59.0</ele><time>2026-03-23T15:27:34Z</time></trkpt><trkpt lat="33.358676501223805" lon="9.013897654602701"><ele>59.00000000000001</ele><time>2026-03-23T15:27:35Z</time></trkpt><trkpt lat="33.35858941790461" lon="9.013931625942543"><ele>59.0</ele><time>2026-03-23T15:27:36Z</time></trkpt><trkpt lat="33.35850162342932" lon="9.013980625982562"><ele>58.6</ele><time>2026-03-23T15:27:37Z</time></trkpt><trkpt lat="33.35842460583911" lon="9.014032462268531"><ele>58.2</ele><time>2026-03-23T15:27:38Z</time></trkpt><trkpt lat="33.358351897871586" lon="9.014092748215948"><ele>57.800000000000004</ele><time>2026-03-23T15:27:39Z</time></trkpt><trkpt lat="33.35829686413669" lon="9.014173072139311"><ele>57.400000000000006</ele><time>2026-03-23T15:27:41Z</time></trkpt><trkpt lat="33.358266545472645" lon="9.014240312985574"><ele>57.0</ele><time>2026-03-23T15:27:42Z</time></trkpt><trkpt lat="33.35822027673912" lon="9.014403029233137"><ele>57.0</ele><time>2026-03-23T15:27:44Z</time></trkpt><trkpt lat="33.358203084559165" lon="9.014494285244943"><ele>57.0</ele><time>2026-03-23T15:27:45Z</time></trkpt><trkpt lat="33.358184395730056" lon="9.01457550457737"><ele>57.0</ele><time>2026-03-23T15:27:46Z</time></trkpt><trkpt lat="33.35815708921626" lon="9.014662973378364"><ele>57.0</ele><time>2026-03-23T15:27:47Z</time></trkpt><trkpt lat="33.35812994570503" lon="9.01476372534581"><ele>57.0</ele><time>2026-03-23T15:27:48Z</time></trkpt><trkpt lat="33.358103633858285" lon="9.014889156613238"><ele>57.0</ele><time>2026-03-23T15:27:49Z</time></trkpt><trkpt lat="33.3580772860061" lon="9.015037003979414"><ele>57.5</ele><time>2026-03-23T15:27:50Z</time></trkpt><trkpt lat="33.35805271566304" lon="9.015178483838747"><ele>58.0</ele><time>2026-03-23T15:27:51Z</time></trkpt><trkpt lat="33.35802719088163" lon="9.015326123469245"><ele>58.5</ele><time>2026-03-23T15:27:52Z</time></trkpt><trkpt lat="33.35799509533473" lon="9.01547049350877"><ele>59.0</ele><time>2026-03-23T15:27:53Z</time></trkpt><trkpt lat="33.357959135537754" lon="9.015617182703133"><ele>59.25</ele><time>2026-03-23T15:27:54Z</time></trkpt><trkpt lat="33.35791804985083" lon="9.015761079868986"><ele>59.5</ele><time>2026-03-23T15:27:55Z</time></trkpt><trkpt lat="33.35787177223098" lon="9.01590516453918"><ele>59.75</ele><time>2026-03-23T15:27:56Z</time></trkpt><trkpt lat="33.35781467637533" lon="9.016048054604886"><ele>60.0</ele><time>2026-03-23T15:27:57Z</time></trkpt><trkpt lat="33.357751304616" lon="9.016193351044379"><ele>60.0</ele><time>2026-03-23T15:27:58Z</time></trkpt><trkpt lat="33.35768610261416" lon="9.016337843195952"><ele>60.0</ele><time>2026-03-23T15:27:59Z</time></trkpt><trkpt lat="33.35762490568542" lon="9.016475331853783"><ele>60.0</ele><time>2026-03-23T15:28:00Z</time></trkpt><trkpt lat="33.35756008696368" lon="9.01662353089734"><ele>60.0</ele><time>2026-03-23T15:28:01Z</time></trkpt><trkpt lat="33.35749604932158" lon="9.016768303190453"><ele>59.75</ele><time>2026-03-23T15:28:02Z</time></trkpt><trkpt lat="33.35743388544936" lon="9.016911937212328"><ele>59.5</ele><time>2026-03-23T15:28:03Z</time></trkpt><trkpt lat="33.35737599238013" lon="9.017048863850514"><ele>59.25</ele><time>2026-03-23T15:28:04Z</time></trkpt><trkpt lat="33.3573220429426" lon="9.017187992139256"><ele>59.0</ele><time>2026-03-23T15:28:05Z</time></trkpt><trkpt lat="33.35727459522786" lon="9.017334720844"><ele>59.0</ele><time>2026-03-23T15:28:06Z</time></trkpt><trkpt lat="33.35723493560601" lon="9.01748388804375"><ele>59.0</ele><time>2026-03-23T15:28:07Z</time></trkpt><trkpt lat="33.35719606437955" lon="9.01763310292144"><ele>59.0</ele><time>2026-03-23T15:28:08Z</time></trkpt><trkpt lat="33.35715282057346" lon="9.01779048948455"><ele>59.0</ele><time>2026-03-23T15:28:09Z</time></trkpt><trkpt lat="33.357108324972415" lon="9.017954595458562"><ele>59.333333333333336</ele><time>2026-03-23T15:28:10Z</time></trkpt><trkpt lat="33.35706155114636" lon="9.018124267400859"><ele>59.66666666666667</ele><time>2026-03-23T15:28:11Z</time></trkpt><trkpt lat="33.35701167134951" lon="9.018295262722134"><ele>60.0</ele><time>2026-03-23T15:28:12Z</time></trkpt><trkpt lat="33.35696083789495" lon="9.018468243097939"><ele>60.0</ele><time>2026-03-23T15:28:13Z</time></trkpt><trkpt lat="33.35691496776313" lon="9.018640161119649"><ele>60.0</ele><time>2026-03-23T15:28:14Z</time></trkpt><trkpt lat="33.35686897704178" lon="9.018810314591578"><ele>60.0</ele><time>2026-03-23T15:28:15Z</time></trkpt><trkpt lat="33.356826587467346" lon="9.018990842662772"><ele>59.66666666666667</ele><time>2026-03-23T15:28:16Z</time></trkpt><trkpt lat="33.356784707375205" lon="9.019168898373332"><ele>59.333333333333336</ele><time>2026-03-23T15:28:17Z</time></trkpt><trkpt lat="33.35673770531451" lon="9.019345946631507"><ele>59.0</ele><time>2026-03-23T15:28:18Z</time></trkpt><trkpt lat="33.35668533676922" lon="9.019523462624047"><ele>59.0</ele><time>2026-03-23T15:28:19Z</time></trkpt><trkpt lat="33.35662920233837" lon="9.019699046327858"><ele>59.0</ele><time>2026-03-23T15:28:20Z</time></trkpt><trkpt lat="33.3565696835827" lon="9.019871688127475"><ele>59.0</ele><time>2026-03-23T15:28:21Z</time></trkpt><trkpt lat="33.35650873566032" lon="9.02003687720521"><ele>59.25</ele><time>2026-03-23T15:28:22Z</time></trkpt><trkpt lat="33.35645212498715" lon="9.020203147981169"><ele>59.5</ele><time>2026-03-23T15:28:23Z</time></trkpt><trkpt lat="33.35639544772458" lon="9.020372765027933"><ele>59.75</ele><time>2026-03-23T15:28:24Z</time></trkpt><trkpt lat="33.35634333227747" lon="9.020532653609477"><ele>60.0</ele><time>2026-03-23T15:28:25Z</time></trkpt><trkpt lat="33.356294518365274" lon="9.020689465991131"><ele>60.75</ele><time>2026-03-23T15:28:26Z</time></trkpt><trkpt lat="33.35625046039037" lon="9.020842610821076"><ele>61.5</ele><time>2026-03-23T15:28:27Z</time></trkpt><trkpt lat="33.356202503246756" lon="9.021000927266309"><ele>62.25</ele><time>2026-03-23T15:28:28Z</time></trkpt><trkpt lat="33.35615376441429" lon="9.021165261845814"><ele>63.0</ele><time>2026-03-23T15:28:29Z</time></trkpt><trkpt lat="33.356105340891055" lon="9.021323529253841"><ele>63.0</ele><time>2026-03-23T15:28:30Z</time></trkpt><trkpt lat="33.35604988412319" lon="9.021482398049294"><ele>63.0</ele><time>2026-03-23T15:28:31Z</time></trkpt><trkpt lat="33.35598814453576" lon="9.021640510211437"><ele>63.0</ele><time>2026-03-23T15:28:32Z</time></trkpt><trkpt lat="33.355927013081725" lon="9.021806270827648"><ele>63.0</ele><time>2026-03-23T15:28:33Z</time></trkpt><trkpt lat="33.355868884231725" lon="9.021979223939278"><ele>63.25</ele><time>2026-03-23T15:28:34Z</time></trkpt><trkpt lat="33.35582092904241" lon="9.022159473341452"><ele>63.5</ele><time>2026-03-23T15:28:35Z</time></trkpt><trkpt lat="33.35578475966531" lon="9.022334893842755"><ele>63.75</ele><time>2026-03-23T15:28:36Z</time></trkpt><trkpt lat="33.355751928591864" lon="9.022493989591135"><ele>64.0</ele><time>2026-03-23T15:28:37Z</time></trkpt><trkpt lat="33.35570998587228" lon="9.022633664828385"><ele>64.0</ele><time>2026-03-23T15:28:38Z</time></trkpt><trkpt lat="33.35565533472429" lon="9.022757217627472"><ele>64.0</ele><time>2026-03-23T15:28:39Z</time></trkpt><trkpt lat="33.35559224417732" lon="9.02286777104236"><ele>64.0</ele><time>2026-03-23T15:28:40Z</time></trkpt><trkpt lat="33.355533432784135" lon="9.02296066121704"><ele>64.0</ele><time>2026-03-23T15:28:41Z</time></trkpt><trkpt lat="33.35546829325729" lon="9.023048734663659"><ele>64.0</ele><time>2026-03-23T15:28:42Z</time></trkpt><trkpt lat="33.355388509185765" lon="9.023135170974637"><ele>64.2</ele><time>2026-03-23T15:28:43Z</time></trkpt><trkpt lat="33.35530868547073" lon="9.023225352055919"><ele>64.4</ele><time>2026-03-23T15:28:44Z</time></trkpt><trkpt lat="33.355243662423604" lon="9.023325060895441"><ele>64.6</ele><time>2026-03-23T15:28:45Z</time></trkpt><trkpt lat="33.35519188006374" lon="9.02342407152927"><ele>64.8</ele><time>2026-03-23T15:28:46Z</time></trkpt><trkpt lat="33.35515644420736" lon="9.023543525825284"><ele>65.0</ele><time>2026-03-23T15:28:47Z</time></trkpt><trkpt lat="33.355133054226435" lon="9.02366264236814"><ele>65.0</ele><time>2026-03-23T15:28:48Z</time></trkpt><trkpt lat="33.355122105071224" lon="9.023794914032132"><ele>65.0</ele><time>2026-03-23T15:28:49Z</time></trkpt><trkpt lat="33.3551166376041" lon="9.023924158573045"><ele>65.0</ele><time>2026-03-23T15:28:50Z</time></trkpt><trkpt lat="33.355113680266705" lon="9.024059310101437"><ele>65.0</ele><time>2026-03-23T15:28:51Z</time></trkpt><trkpt lat="33.355115200945406" lon="9.024186179249321"><ele>65.0</ele><time>2026-03-23T15:28:52Z</time></trkpt><trkpt lat="33.35512635086691" lon="9.024323197201586"><ele>64.25</ele><time>2026-03-23T15:28:53Z</time></trkpt><trkpt lat="33.35512916157484" lon="9.024461136303255"><ele>63.5</ele><time>2026-03-23T15:28:54Z</time></trkpt><trkpt lat="33.35512831907585" lon="9.024606284700663"><ele>62.75</ele><time>2026-03-23T15:28:55Z</time></trkpt><trkpt lat="33.35511528844214" lon="9.02475532047547"><ele>62.0</ele><time>2026-03-23T15:28:56Z</time></trkpt><trkpt lat="33.3550907336062" lon="9.024903911833857"><ele>62.25</ele><time>2026-03-23T15:28:57Z</time></trkpt><trkpt lat="33.35506352812938" lon="9.025049544378716"><ele>62.5</ele><time>2026-03-23T15:28:58Z</time></trkpt><trkpt lat="33.35504860394871" lon="9.025204110090026"><ele>62.75</ele><time>2026-03-23T15:28:59Z</time></trkpt><trkpt lat="33.35505479861084" lon="9.025361626869548"><ele>63.0</ele><time>2026-03-23T15:29:00Z</time></trkpt><trkpt lat="33.35507588338876" lon="9.025526246494593"><ele>63.0</ele><time>2026-03-23T15:29:01Z</time></trkpt><trkpt lat="33.35510397997332" lon="9.025678024477477"><ele>63.0</ele><time>2026-03-23T15:29:02Z</time></trkpt><trkpt lat="33.35512353164979" lon="9.025828319095972"><ele>63.0</ele><time>2026-03-23T15:29:03Z</time></trkpt><trkpt lat="33.35512979903746" lon="9.02598466030437"><ele>63.0</ele><time>2026-03-23T15:29:04Z</time></trkpt><trkpt lat="33.35512012215612" lon="9.026138982293334"><ele>63.5</ele><time>2026-03-23T15:29:05Z</time></trkpt><trkpt lat="33.35510775323002" lon="9.02630069355584"><ele>64.0</ele><time>2026-03-23T15:29:06Z</time></trkpt><trkpt lat="33.35508438553642" lon="9.026467514947427"><ele>64.5</ele><time>2026-03-23T15:29:07Z</time></trkpt><trkpt lat="33.35505399331117" lon="9.026637840134034"><ele>65.0</ele><time>2026-03-23T15:29:08Z</time></trkpt><trkpt lat="33.35501598783078" lon="9.026805884509171"><ele>65.0</ele><time>2026-03-23T15:29:09Z</time></trkpt><trkpt lat="33.354979264998825" lon="9.026965033492223"><ele>65.0</ele><time>2026-03-23T15:29:10Z</time></trkpt><trkpt lat="33.354937590141326" lon="9.027117950465415"><ele>65.0</ele><time>2026-03-23T15:29:11Z</time></trkpt><trkpt lat="33.35489722592391" lon="9.027272207797063"><ele>65.0</ele><time>2026-03-23T15:29:12Z</time></trkpt><trkpt lat="33.354858061574426" lon="9.027432880503998"><ele>65.0</ele><time>2026-03-23T15:29:13Z</time></trkpt><trkpt lat="33.354824962331584" lon="9.027594913542046"><ele>65.0</ele><time>2026-03-23T15:29:14Z</time></trkpt><trkpt lat="33.3547918337551" lon="9.027759307027399"><ele>65.0</ele><time>2026-03-23T15:29:15Z</time></trkpt><trkpt lat="33.35475475150743" lon="9.027926090023792"><ele>65.0</ele><time>2026-03-23T15:29:16Z</time></trkpt><trkpt lat="33.354714299453164" lon="9.028083767871202"><ele>65.25</ele><time>2026-03-23T15:29:17Z</time></trkpt><trkpt lat="33.354682487309574" lon="9.028238121557719"><ele>65.5</ele><time>2026-03-23T15:29:18Z</time></trkpt><trkpt lat="33.35466194872594" lon="9.02839961534544"><ele>65.75</ele><time>2026-03-23T15:29:19Z</time></trkpt><trkpt lat="33.354652113354256" lon="9.028563495477846"><ele>66.0</ele><time>2026-03-23T15:29:20Z</time></trkpt><trkpt lat="33.354650173113676" lon="9.028717665758691"><ele>66.0</ele><time>2026-03-23T15:29:21Z</time></trkpt><trkpt lat="33.35464120909849" lon="9.02885273033214"><ele>66.0</ele><time>2026-03-23T15:29:22Z</time></trkpt><trkpt lat="33.354618575092175" lon="9.028992045822774"><ele>66.0</ele><time>2026-03-23T15:29:23Z</time></trkpt><trkpt lat="33.354584989393736" lon="9.029135920418417"><ele>66.0</ele><time>2026-03-23T15:29:24Z</time></trkpt><trkpt lat="33.35453877463084" lon="9.029280098324381"><ele>66.0</ele><time>2026-03-23T15:29:25Z</time></trkpt><trkpt lat="33.35448501141338" lon="9.029429954555436"><ele>66.0</ele><time>2026-03-23T15:29:26Z</time></trkpt><trkpt lat="33.35442797454432" lon="9.029582622389162"><ele>66.0</ele><time>2026-03-23T15:29:27Z</time></trkpt><trkpt lat="33.35437473835445" lon="9.02974010859692"><ele>66.0</ele><time>2026-03-23T15:29:28Z</time></trkpt><trkpt lat="33.35432741122817" lon="9.029893564748205"><ele>66.0</ele><time>2026-03-23T15:29:29Z</time></trkpt><trkpt lat="33.35428336643752" lon="9.03003021571812"><ele>66.0</ele><time>2026-03-23T15:29:30Z</time></trkpt><trkpt lat="33.35423450652889" lon="9.03014858859602"><ele>66.0</ele><time>2026-03-23T15:29:31Z</time></trkpt><trkpt lat="33.354172773043075" lon="9.03025972518147"><ele>66.0</ele><time>2026-03-23T15:29:32Z</time></trkpt><trkpt lat="33.35409855126036" lon="9.030361436608281"><ele>66.0</ele><time>2026-03-23T15:29:33Z</time></trkpt><trkpt lat="33.354013652285985" lon="9.03044875971725"><ele>66.0</ele><time>2026-03-23T15:29:34Z</time></trkpt><trkpt lat="33.35392685077757" lon="9.030538746335582"><ele>66.0</ele><time>2026-03-23T15:29:35Z</time></trkpt><trkpt lat="33.353843956666005" lon="9.030638583111733"><ele>66.0</ele><time>2026-03-23T15:29:36Z</time></trkpt><trkpt lat="33.353757414848836" lon="9.030740470783982"><ele>66.0</ele><time>2026-03-23T15:29:37Z</time></trkpt><trkpt lat="33.353667033360416" lon="9.030822743266565"><ele>66.0</ele><time>2026-03-23T15:29:38Z</time></trkpt><trkpt lat="33.353577624735024" lon="9.030891757749043"><ele>66.0</ele><time>2026-03-23T15:29:39Z</time></trkpt><trkpt lat="33.35350597497815" lon="9.030959853195512"><ele>66.0</ele><time>2026-03-23T15:29:40Z</time></trkpt><trkpt lat="33.35345481448595" lon="9.031034889199054"><ele>66.0</ele><time>2026-03-23T15:29:41Z</time></trkpt><trkpt lat="33.35340409732021" lon="9.031124689248385"><ele>66.0</ele><time>2026-03-23T15:29:42Z</time></trkpt><trkpt lat="33.353364327572" lon="9.031233563357286"><ele>66.0</ele><time>2026-03-23T15:29:43Z</time></trkpt><trkpt lat="33.35333764539493" lon="9.031341586647535"><ele>66.0</ele><time>2026-03-23T15:29:44Z</time></trkpt><trkpt lat="33.35331190473301" lon="9.031442421838424"><ele>66.0</ele><time>2026-03-23T15:29:45Z</time></trkpt><trkpt lat="33.353276070761645" lon="9.031543624346364"><ele>66.0</ele><time>2026-03-23T15:29:46Z</time></trkpt><trkpt lat="33.35323090545913" lon="9.031660941699215"><ele>66.0</ele><time>2026-03-23T15:29:47Z</time></trkpt><trkpt lat="33.353178650617686" lon="9.031763278180756"><ele>66.0</ele><time>2026-03-23T15:29:48Z</time></trkpt><trkpt lat="33.35311148321309" lon="9.03186544811765"><ele>66.0</ele><time>2026-03-23T15:29:49Z</time></trkpt><trkpt lat="33.35303521772824" lon="9.031972396911398"><ele>66.0</ele><time>2026-03-23T15:29:50Z</time></trkpt><trkpt lat="33.35295555040458" lon="9.032091961131247"><ele>65.5</ele><time>2026-03-23T15:29:51Z</time></trkpt><trkpt lat="33.352877810166746" lon="9.032209859975525"><ele>65.0</ele><time>2026-03-23T15:29:52Z</time></trkpt><trkpt lat="33.35280414097701" lon="9.032315935268912"><ele>64.5</ele><time>2026-03-23T15:29:53Z</time></trkpt><trkpt lat="33.35271503938621" lon="9.032419975696637"><ele>64.0</ele><time>2026-03-23T15:29:54Z</time></trkpt><trkpt lat="33.35261761782699" lon="9.032526038864287"><ele>64.0</ele><time>2026-03-23T15:29:55Z</time></trkpt><trkpt lat="33.35251574836782" lon="9.032631570001884"><ele>64.0</ele><time>2026-03-23T15:29:56Z</time></trkpt><trkpt lat="33.35241216462912" lon="9.032736752116177"><ele>64.0</ele><time>2026-03-23T15:29:57Z</time></trkpt><trkpt lat="33.35231331780873" lon="9.03284774236444"><ele>64.0</ele><time>2026-03-23T15:29:58Z</time></trkpt><trkpt lat="33.3522167754368" lon="9.032958386255961"><ele>65.0</ele><time>2026-03-23T15:29:59Z</time></trkpt><trkpt lat="33.352117491014425" lon="9.033063990734265"><ele>66.0</ele><time>2026-03-23T15:30:00Z</time></trkpt><trkpt lat="33.352018696933015" lon="9.033160931377534"><ele>67.0</ele><time>2026-03-23T15:30:01Z</time></trkpt><trkpt lat="33.35192193575343" lon="9.033246701694065"><ele>68.0</ele><time>2026-03-23T15:30:02Z</time></trkpt><trkpt lat="33.351831556038306" lon="9.033340191661791"><ele>68.0</ele><time>2026-03-23T15:30:03Z</time></trkpt><trkpt lat="33.35175152223673" lon="9.033451266944978"><ele>68.0</ele><time>2026-03-23T15:30:04Z</time></trkpt><trkpt lat="33.3516861824232" lon="9.033577590063652"><ele>68.0</ele><time>2026-03-23T15:30:05Z</time></trkpt><trkpt lat="33.35162476783652" lon="9.033709203365579"><ele>68.0</ele><time>2026-03-23T15:30:06Z</time></trkpt><trkpt lat="33.351553531273225" lon="9.03383904589606"><ele>68.0</ele><time>2026-03-23T15:30:07Z</time></trkpt><trkpt lat="33.35148600838414" lon="9.03396307112826"><ele>68.0</ele><time>2026-03-23T15:30:08Z</time></trkpt><trkpt lat="33.351425351929755" lon="9.03405918310135"><ele>68.0</ele><time>2026-03-23T15:30:09Z</time></trkpt><trkpt lat="33.35137835510829" lon="9.034115064501595"><ele>68.0</ele><time>2026-03-23T15:30:10Z</time></trkpt><trkpt lat="33.351285431647405" lon="9.034178412262463"><ele>68.0</ele><time>2026-03-23T15:30:12Z</time></trkpt><trkpt lat="33.3512283396966" lon="9.034282321831029"><ele>67.66666666666667</ele><time>2026-03-23T15:30:14Z</time></trkpt><trkpt lat="33.35118924009147" lon="9.034360615363628"><ele>67.33333333333334</ele><time>2026-03-23T15:30:15Z</time></trkpt><trkpt lat="33.351145712028355" lon="9.034447536830855"><ele>67.0</ele><time>2026-03-23T15:30:16Z</time></trkpt><trkpt lat="33.35111062957694" lon="9.03453128157486"><ele>66.66666666666667</ele><time>2026-03-23T15:30:17Z</time></trkpt><trkpt lat="33.351068570741326" lon="9.034640803205061"><ele>66.33333333333333</ele><time>2026-03-23T15:30:19Z</time></trkpt><trkpt lat="33.35102995009873" lon="9.034750974652802"><ele>66.0</ele><time>2026-03-23T15:30:21Z</time></trkpt><trkpt lat="33.35098571850591" lon="9.034827188556065"><ele>66.0</ele><time>2026-03-23T15:30:22Z</time></trkpt><trkpt lat="33.350903936490944" lon="9.034942519402664"><ele>66.0</ele><time>2026-03-23T15:30:24Z</time></trkpt><trkpt lat="33.350850116661725" lon="9.035005696208446"><ele>66.0</ele><time>2026-03-23T15:30:25Z</time></trkpt><trkpt lat="33.3507881991001" lon="9.035084448096418"><ele>66.0</ele><time>2026-03-23T15:30:26Z</time></trkpt><trkpt lat="33.35072527943556" lon="9.035170560285064"><ele>66.0</ele><time>2026-03-23T15:30:27Z</time></trkpt><trkpt lat="33.3506607131506" lon="9.035249953973592"><ele>66.39999999999999</ele><time>2026-03-23T15:30:28Z</time></trkpt><trkpt lat="33.350590351566346" lon="9.03531872231239"><ele>66.8</ele><time>2026-03-23T15:30:29Z</time></trkpt><trkpt lat="33.350523027292745" lon="9.035387703718513"><ele>67.19999999999999</ele><time>2026-03-23T15:30:30Z</time></trkpt><trkpt lat="33.35045458319185" lon="9.03546175027209"><ele>67.6</ele><time>2026-03-23T15:30:31Z</time></trkpt><trkpt lat="33.350376190679924" lon="9.035546766556132"><ele>68.0</ele><time>2026-03-23T15:30:32Z</time></trkpt><trkpt lat="33.35029587854696" lon="9.035640398936666"><ele>68.0</ele><time>2026-03-23T15:30:33Z</time></trkpt><trkpt lat="33.35022350170433" lon="9.035733589219515"><ele>68.0</ele><time>2026-03-23T15:30:34Z</time></trkpt><trkpt lat="33.350142498294154" lon="9.035844299159878"><ele>68.0</ele><time>2026-03-23T15:30:35Z</time></trkpt><trkpt lat="33.35006690912575" lon="9.03595407978741"><ele>68.0</ele><time>2026-03-23T15:30:36Z</time></trkpt><trkpt lat="33.34999511810603" lon="9.03606458610436"><ele>67.8</ele><time>2026-03-23T15:30:37Z</time></trkpt><trkpt lat="33.349933536788534" lon="9.03616298815711"><ele>67.6</ele><time>2026-03-23T15:30:38Z</time></trkpt><trkpt lat="33.34987091225628" lon="9.036256040122993"><ele>67.4</ele><time>2026-03-23T15:30:39Z</time></trkpt><trkpt lat="33.34980379383476" lon="9.036348965459398"><ele>67.2</ele><time>2026-03-23T15:30:40Z</time></trkpt><trkpt lat="33.34973844518484" lon="9.036448479557885"><ele>67.0</ele><time>2026-03-23T15:30:41Z</time></trkpt><trkpt lat="33.349672237957044" lon="9.036551202100322"><ele>66.25</ele><time>2026-03-23T15:30:42Z</time></trkpt><trkpt lat="33.3496031498675" lon="9.036661068593109"><ele>65.5</ele><time>2026-03-23T15:30:43Z</time></trkpt><trkpt lat="33.34953365653697" lon="9.03677231629758"><ele>64.75</ele><time>2026-03-23T15:30:44Z</time></trkpt><trkpt lat="33.349464985182934" lon="9.036882779459976"><ele>64.0</ele><time>2026-03-23T15:30:45Z</time></trkpt><trkpt lat="33.3493879951769" lon="9.036994555145991"><ele>64.0</ele><time>2026-03-23T15:30:46Z</time></trkpt><trkpt lat="33.349311138665136" lon="9.037105646024859"><ele>64.0</ele><time>2026-03-23T15:30:47Z</time></trkpt><trkpt lat="33.34923882616942" lon="9.03721405485469"><ele>64.0</ele><time>2026-03-23T15:30:48Z</time></trkpt><trkpt lat="33.349166994206556" lon="9.037320371542902"><ele>64.0</ele><time>2026-03-23T15:30:49Z</time></trkpt><trkpt lat="33.349093635945806" lon="9.037433465104314"><ele>64.75</ele><time>2026-03-23T15:30:50Z</time></trkpt><trkpt lat="33.34902087423958" lon="9.03754108624777"><ele>65.5</ele><time>2026-03-23T15:30:51Z</time></trkpt><trkpt lat="33.348947249920734" lon="9.037648009718179"><ele>66.25</ele><time>2026-03-23T15:30:52Z</time></trkpt><trkpt lat="33.34887541202068" lon="9.037763643366137"><ele>67.0</ele><time>2026-03-23T15:30:53Z</time></trkpt><trkpt lat="33.34880404698233" lon="9.037877637481428"><ele>67.0</ele><time>2026-03-23T15:30:54Z</time></trkpt><trkpt lat="33.34874377367009" lon="9.037985475057118"><ele>67.0</ele><time>2026-03-23T15:30:55Z</time></trkpt><trkpt lat="33.34868483989708" lon="9.038092874965105"><ele>67.0</ele><time>2026-03-23T15:30:56Z</time></trkpt><trkpt lat="33.34862520230262" lon="9.038194718118897"><ele>67.0</ele><time>2026-03-23T15:30:57Z</time></trkpt><trkpt lat="33.3485716408965" lon="9.038293829758478"><ele>67.0</ele><time>2026-03-23T15:30:58Z</time></trkpt><trkpt lat="33.348512742292016" lon="9.038390513084234"><ele>67.4</ele><time>2026-03-23T15:30:59Z</time></trkpt><trkpt lat="33.3484490376173" lon="9.038496098133342"><ele>67.80000000000001</ele><time>2026-03-23T15:31:00Z</time></trkpt><trkpt lat="33.3483900597772" lon="9.038597456031942"><ele>68.2</ele><time>2026-03-23T15:31:01Z</time></trkpt><trkpt lat="33.34832652889026" lon="9.038697253779326"><ele>68.60000000000001</ele><time>2026-03-23T15:31:02Z</time></trkpt><trkpt lat="33.34826136062425" lon="9.038803480509083"><ele>69.0</ele><time>2026-03-23T15:31:03Z</time></trkpt><trkpt lat="33.348193350985966" lon="9.03891649601673"><ele>69.0</ele><time>2026-03-23T15:31:04Z</time></trkpt><trkpt lat="33.3481273765327" lon="9.039028503599575"><ele>69.0</ele><time>2026-03-23T15:31:05Z</time></trkpt><trkpt lat="33.348069610571216" lon="9.039135519431722"><ele>69.0</ele><time>2026-03-23T15:31:06Z</time></trkpt><trkpt lat="33.34801541195519" lon="9.039238079096963"><ele>69.0</ele><time>2026-03-23T15:31:07Z</time></trkpt><trkpt lat="33.34796017114294" lon="9.039343745528427"><ele>69.0</ele><time>2026-03-23T15:31:08Z</time></trkpt><trkpt lat="33.34790248459779" lon="9.039454972389093"><ele>69.0</ele><time>2026-03-23T15:31:09Z</time></trkpt><trkpt lat="33.347842044699" lon="9.039573303230608"><ele>69.0</ele><time>2026-03-23T15:31:10Z</time></trkpt><trkpt lat="33.347783143856745" lon="9.039694768467802"><ele>69.0</ele><time>2026-03-23T15:31:11Z</time></trkpt><trkpt lat="33.347719573053155" lon="9.03982165780774"><ele>69.0</ele><time>2026-03-23T15:31:12Z</time></trkpt><trkpt lat="33.347654068073666" lon="9.039942906816194"><ele>69.25</ele><time>2026-03-23T15:31:13Z</time></trkpt><trkpt lat="33.347585909496864" lon="9.040064113774434"><ele>69.5</ele><time>2026-03-23T15:31:14Z</time></trkpt><trkpt lat="33.34752401007173" lon="9.040186162075983"><ele>69.75</ele><time>2026-03-23T15:31:15Z</time></trkpt><trkpt lat="33.34746394131081" lon="9.04031980824003"><ele>70.0</ele><time>2026-03-23T15:31:16Z</time></trkpt><trkpt lat="33.34740272013549" lon="9.040451617044125"><ele>70.0</ele><time>2026-03-23T15:31:17Z</time></trkpt><trkpt lat="33.34733619944014" lon="9.040586090370146"><ele>70.0</ele><time>2026-03-23T15:31:18Z</time></trkpt><trkpt lat="33.34727091537702" lon="9.040709777299174"><ele>70.0</ele><time>2026-03-23T15:31:19Z</time></trkpt><trkpt lat="33.34720545493504" lon="9.040834233212186"><ele>70.0</ele><time>2026-03-23T15:31:20Z</time></trkpt><trkpt lat="33.347137771741515" lon="9.040955508206448"><ele>69.75</ele><time>2026-03-23T15:31:21Z</time></trkpt><trkpt lat="33.347067103673574" lon="9.041072157036437"><ele>69.5</ele><time>2026-03-23T15:31:22Z</time></trkpt><trkpt lat="33.34699504340463" lon="9.041190283356322"><ele>69.25</ele><time>2026-03-23T15:31:23Z</time></trkpt><trkpt lat="33.346923841030765" lon="9.041318924074258"><ele>69.0</ele><time>2026-03-23T15:31:24Z</time></trkpt><trkpt lat="33.346860642251194" lon="9.041455021201465"><ele>69.0</ele><time>2026-03-23T15:31:25Z</time></trkpt><trkpt lat="33.346796482744075" lon="9.041601131359277"><ele>69.0</ele><time>2026-03-23T15:31:26Z</time></trkpt><trkpt lat="33.346731032276736" lon="9.041742076213362"><ele>69.0</ele><time>2026-03-23T15:31:27Z</time></trkpt><trkpt lat="33.34666803807193" lon="9.041872976056766"><ele>69.0</ele><time>2026-03-23T15:31:28Z</time></trkpt><trkpt lat="33.34660972007674" lon="9.042001086460479"><ele>69.0</ele><time>2026-03-23T15:31:29Z</time></trkpt><trkpt lat="33.346551130257566" lon="9.042133348794405"><ele>69.0</ele><time>2026-03-23T15:31:30Z</time></trkpt><trkpt lat="33.34649187480996" lon="9.042270473180393"><ele>69.0</ele><time>2026-03-23T15:31:31Z</time></trkpt><trkpt lat="33.346431388305575" lon="9.042403902074637"><ele>69.0</ele><time>2026-03-23T15:31:32Z</time></trkpt><trkpt lat="33.34637143359907" lon="9.04254054570916"><ele>69.25</ele><time>2026-03-23T15:31:33Z</time></trkpt><trkpt lat="33.34630599883547" lon="9.042681477010941"><ele>69.5</ele><time>2026-03-23T15:31:34Z</time></trkpt><trkpt lat="33.34624082077887" lon="9.042819416169754"><ele>69.75</ele><time>2026-03-23T15:31:35Z</time></trkpt><trkpt lat="33.34617993103138" lon="9.042945233543898"><ele>70.0</ele><time>2026-03-23T15:31:36Z</time></trkpt><trkpt lat="33.34611449407918" lon="9.043073653906195"><ele>70.0</ele><time>2026-03-23T15:31:37Z</time></trkpt><trkpt lat="33.34605427557067" lon="9.043198697886162"><ele>70.0</ele><time>2026-03-23T15:31:38Z</time></trkpt><trkpt lat="33.345996038376775" lon="9.04332175734655"><ele>70.0</ele><time>2026-03-23T15:31:39Z</time></trkpt><trkpt lat="33.34593712818666" lon="9.04343331346345"><ele>70.0</ele><time>2026-03-23T15:31:40Z</time></trkpt><trkpt lat="33.34587234758717" lon="9.043545032144534"><ele>70.5</ele><time>2026-03-23T15:31:41Z</time></trkpt><trkpt lat="33.34579772693131" lon="9.043658456262465"><ele>71.0</ele><time>2026-03-23T15:31:42Z</time></trkpt><trkpt lat="33.345720615957845" lon="9.043768444692285"><ele>71.5</ele><time>2026-03-23T15:31:43Z</time></trkpt><trkpt lat="33.34564304307164" lon="9.043891767458426"><ele>72.0</ele><time>2026-03-23T15:31:44Z</time></trkpt><trkpt lat="33.34557795533361" lon="9.044017963002542"><ele>72.5</ele><time>2026-03-23T15:31:45Z</time></trkpt><trkpt lat="33.345518591389784" lon="9.044138488361812"><ele>73.0</ele><time>2026-03-23T15:31:46Z</time></trkpt><trkpt lat="33.345457213398625" lon="9.044255813377372"><ele>73.5</ele><time>2026-03-23T15:31:47Z</time></trkpt><trkpt lat="33.34539336807282" lon="9.044369010141054"><ele>74.0</ele><time>2026-03-23T15:31:48Z</time></trkpt><trkpt lat="33.34532849679093" lon="9.04448166052685"><ele>74.0</ele><time>2026-03-23T15:31:49Z</time></trkpt><trkpt lat="33.345260006426535" lon="9.044587126470661"><ele>74.0</ele><time>2026-03-23T15:31:50Z</time></trkpt><trkpt lat="33.345181096363596" lon="9.044697999538096"><ele>74.0</ele><time>2026-03-23T15:31:51Z</time></trkpt><trkpt lat="33.34509800348936" lon="9.044809298296085"><ele>74.0</ele><time>2026-03-23T15:31:52Z</time></trkpt><trkpt lat="33.34501261079208" lon="9.04492448496428"><ele>73.5</ele><time>2026-03-23T15:31:53Z</time></trkpt><trkpt lat="33.34492662342053" lon="9.045036021905817"><ele>73.0</ele><time>2026-03-23T15:31:54Z</time></trkpt><trkpt lat="33.344833127708654" lon="9.045145982393"><ele>72.5</ele><time>2026-03-23T15:31:55Z</time></trkpt><trkpt lat="33.34473603527107" lon="9.045253625519283"><ele>72.0</ele><time>2026-03-23T15:31:56Z</time></trkpt><trkpt lat="33.34463742833639" lon="9.045353176382243"><ele>72.2</ele><time>2026-03-23T15:31:57Z</time></trkpt><trkpt lat="33.34454545788436" lon="9.045448904568916"><ele>72.4</ele><time>2026-03-23T15:31:58Z</time></trkpt><trkpt lat="33.34445726696278" lon="9.045553472574392"><ele>72.6</ele><time>2026-03-23T15:31:59Z</time></trkpt><trkpt lat="33.344388551019854" lon="9.04564430187075"><ele>72.8</ele><time>2026-03-23T15:32:00Z</time></trkpt><trkpt lat="33.34432984638363" lon="9.045726754873112"><ele>73.0</ele><time>2026-03-23T15:32:01Z</time></trkpt><trkpt lat="33.34427236273158" lon="9.045807390246486"><ele>73.0</ele><time>2026-03-23T15:32:02Z</time></trkpt><trkpt lat="33.344207287950304" lon="9.045874799922364"><ele>73.0</ele><time>2026-03-23T15:32:03Z</time></trkpt><trkpt lat="33.34414609255153" lon="9.045936643538957"><ele>73.0</ele><time>2026-03-23T15:32:04Z</time></trkpt><trkpt lat="33.34408546678642" lon="9.045985883330374"><ele>73.0</ele><time>2026-03-23T15:32:05Z</time></trkpt><trkpt lat="33.34402624200849" lon="9.046030435462212"><ele>73.0</ele><time>2026-03-23T15:32:06Z</time></trkpt><trkpt lat="33.343963131572295" lon="9.046084746903619"><ele>73.0</ele><time>2026-03-23T15:32:07Z</time></trkpt><trkpt lat="33.343895646431164" lon="9.04615519868634"><ele>73.5</ele><time>2026-03-23T15:32:08Z</time></trkpt><trkpt lat="33.3438195927413" lon="9.046238845533761"><ele>74.0</ele><time>2026-03-23T15:32:09Z</time></trkpt><trkpt lat="33.343753942217056" lon="9.046307267048384"><ele>74.5</ele><time>2026-03-23T15:32:10Z</time></trkpt><trkpt lat="33.34369724754152" lon="9.046364730895954"><ele>75.0</ele><time>2026-03-23T15:32:11Z</time></trkpt><trkpt lat="33.34364572337348" lon="9.046421975240646"><ele>75.5</ele><time>2026-03-23T15:32:12Z</time></trkpt><trkpt lat="33.34356216358019" lon="9.046514113201633"><ele>76.0</ele><time>2026-03-23T15:32:14Z</time></trkpt><trkpt lat="33.34347689168077" lon="9.04656220424867"><ele>76.0</ele><time>2026-03-23T15:32:16Z</time></trkpt><trkpt lat="33.34340906692993" lon="9.046586978962397"><ele>76.0</ele><time>2026-03-23T15:32:17Z</time></trkpt><trkpt lat="33.34333755983636" lon="9.046604554539847"><ele>76.0</ele><time>2026-03-23T15:32:18Z</time></trkpt><trkpt lat="33.34327266183792" lon="9.04661029424199"><ele>76.0</ele><time>2026-03-23T15:32:19Z</time></trkpt><trkpt lat="33.34320468260712" lon="9.046613165034946"><ele>76.0</ele><time>2026-03-23T15:32:20Z</time></trkpt><trkpt lat="33.34312876073865" lon="9.04661451656339"><ele>76.0</ele><time>2026-03-23T15:32:21Z</time></trkpt><trkpt lat="33.34305824890627" lon="9.046621030916073"><ele>76.0</ele><time>2026-03-23T15:32:22Z</time></trkpt><trkpt lat="33.34294320006695" lon="9.046649102736597"><ele>76.0</ele><time>2026-03-23T15:32:24Z</time></trkpt><trkpt lat="33.34283160981726" lon="9.046713578990548"><ele>76.0</ele><time>2026-03-23T15:32:26Z</time></trkpt><trkpt lat="33.34277421436959" lon="9.046764291174032"><ele>76.0</ele><time>2026-03-23T15:32:27Z</time></trkpt><trkpt lat="33.342706280585745" lon="9.04683371446148"><ele>76.0</ele><time>2026-03-23T15:32:28Z</time></trkpt><trkpt lat="33.342646834252825" lon="9.046896825649602"><ele>76.0</ele><time>2026-03-23T15:32:29Z</time></trkpt><trkpt lat="33.3425924276717" lon="9.046944117879866"><ele>76.0</ele><time>2026-03-23T15:32:30Z</time></trkpt><trkpt lat="33.342522624342095" lon="9.047015239204752"><ele>76.0</ele><time>2026-03-23T15:32:31Z</time></trkpt><trkpt lat="33.34244405055088" lon="9.047091258494696"><ele>76.0</ele><time>2026-03-23T15:32:32Z</time></trkpt><trkpt lat="33.34238502578662" lon="9.047138150658437"><ele>76.0</ele><time>2026-03-23T15:32:33Z</time></trkpt><trkpt lat="33.34228111953191" lon="9.047163278981625"><ele>76.0</ele><time>2026-03-23T15:32:35Z</time></trkpt><trkpt lat="33.34220124425618" lon="9.047171275780114"><ele>76.0</ele><time>2026-03-23T15:32:37Z</time></trkpt><trkpt lat="33.342069883039485" lon="9.04721789942317"><ele>76.16666666666666</ele><time>2026-03-23T15:32:39Z</time></trkpt><trkpt lat="33.342004560619365" lon="9.04725021535686"><ele>76.33333333333333</ele><time>2026-03-23T15:32:40Z</time></trkpt><trkpt lat="33.34189041932207" lon="9.047302797738194"><ele>76.5</ele><time>2026-03-23T15:32:42Z</time></trkpt><trkpt lat="33.34181481495891" lon="9.047343632299153"><ele>76.66666666666667</ele><time>2026-03-23T15:32:43Z</time></trkpt><trkpt lat="33.34173649152864" lon="9.047380796496343"><ele>76.83333333333334</ele><time>2026-03-23T15:32:44Z</time></trkpt><trkpt lat="33.341655441032515" lon="9.047413541578154"><ele>77.0</ele><time>2026-03-23T15:32:45Z</time></trkpt><trkpt lat="33.3415744796054" lon="9.047448016926205"><ele>76.83333333333334</ele><time>2026-03-23T15:32:46Z</time></trkpt><trkpt lat="33.34150568779633" lon="9.047486044731187"><ele>76.66666666666667</ele><time>2026-03-23T15:32:47Z</time></trkpt><trkpt lat="33.34144246807196" lon="9.047522542465824"><ele>76.5</ele><time>2026-03-23T15:32:48Z</time></trkpt><trkpt lat="33.34136790321605" lon="9.047562673489686"><ele>76.33333333333333</ele><time>2026-03-23T15:32:49Z</time></trkpt><trkpt lat="33.3412794737707" lon="9.047615470435591"><ele>76.16666666666666</ele><time>2026-03-23T15:32:50Z</time></trkpt><trkpt lat="33.34119255529897" lon="9.047670872736072"><ele>76.0</ele><time>2026-03-23T15:32:51Z</time></trkpt><trkpt lat="33.341097747479616" lon="9.04772146676733"><ele>75.2</ele><time>2026-03-23T15:32:52Z</time></trkpt><trkpt lat="33.34100366459232" lon="9.047769741684316"><ele>74.39999999999999</ele><time>2026-03-23T15:32:53Z</time></trkpt><trkpt lat="33.34091755537469" lon="9.047821328877903"><ele>73.6</ele><time>2026-03-23T15:32:54Z</time></trkpt><trkpt lat="33.34083200369339" lon="9.047870788973084"><ele>72.8</ele><time>2026-03-23T15:32:55Z</time></trkpt><trkpt lat="33.34074784243313" lon="9.047920308480277"><ele>72.0</ele><time>2026-03-23T15:32:56Z</time></trkpt><trkpt lat="33.340653427219266" lon="9.047967645500373"><ele>72.0</ele><time>2026-03-23T15:32:57Z</time></trkpt><trkpt lat="33.34056541772372" lon="9.048003641949206"><ele>72.0</ele><time>2026-03-23T15:32:58Z</time></trkpt><trkpt lat="33.34047274450879" lon="9.048037829470333"><ele>72.0</ele><time>2026-03-23T15:32:59Z</time></trkpt><trkpt lat="33.34036907221227" lon="9.048086900043822"><ele>72.0</ele><time>2026-03-23T15:33:00Z</time></trkpt><trkpt lat="33.34027671000274" lon="9.048140239367196"><ele>72.0</ele><time>2026-03-23T15:33:01Z</time></trkpt><trkpt lat="33.340176295724916" lon="9.048208526312363"><ele>71.5</ele><time>2026-03-23T15:33:02Z</time></trkpt><trkpt lat="33.34008242994736" lon="9.048281840701483"><ele>71.0</ele><time>2026-03-23T15:33:03Z</time></trkpt><trkpt lat="33.3399965223951" lon="9.048363414246825"><ele>70.5</ele><time>2026-03-23T15:33:04Z</time></trkpt><trkpt lat="33.33991137414167" lon="9.04845599580965"><ele>70.0</ele><time>2026-03-23T15:33:05Z</time></trkpt><trkpt lat="33.33983135062641" lon="9.048552145998661"><ele>70.0</ele><time>2026-03-23T15:33:06Z</time></trkpt><trkpt lat="33.33974983658695" lon="9.048654744062734"><ele>70.0</ele><time>2026-03-23T15:33:07Z</time></trkpt><trkpt lat="33.33967292581906" lon="9.04874232784091"><ele>70.0</ele><time>2026-03-23T15:33:08Z</time></trkpt><trkpt lat="33.33959936680602" lon="9.04883132932354"><ele>70.0</ele><time>2026-03-23T15:33:09Z</time></trkpt><trkpt lat="33.33953082850323" lon="9.048914119915226"><ele>70.0</ele><time>2026-03-23T15:33:10Z</time></trkpt><trkpt lat="33.33945646684583" lon="9.049009923215412"><ele>70.4</ele><time>2026-03-23T15:33:11Z</time></trkpt><trkpt lat="33.33940403319896" lon="9.049111386525656"><ele>70.8</ele><time>2026-03-23T15:33:12Z</time></trkpt><trkpt lat="33.3393587261154" lon="9.04921251003141"><ele>71.2</ele><time>2026-03-23T15:33:13Z</time></trkpt><trkpt lat="33.3393217313697" lon="9.049301640291588"><ele>71.6</ele><time>2026-03-23T15:33:14Z</time></trkpt><trkpt lat="33.33927117303595" lon="9.049393410873005"><ele>72.0</ele><time>2026-03-23T15:33:15Z</time></trkpt><trkpt lat="33.33920735494031" lon="9.049477527626124"><ele>72.6</ele><time>2026-03-23T15:33:16Z</time></trkpt><trkpt lat="33.3391390761381" lon="9.049550789555687"><ele>73.2</ele><time>2026-03-23T15:33:17Z</time></trkpt><trkpt lat="33.33908057253424" lon="9.049612109287937"><ele>73.8</ele><time>2026-03-23T15:33:18Z</time></trkpt><trkpt lat="33.339017183204476" lon="9.04967537481244"><ele>74.4</ele><time>2026-03-23T15:33:19Z</time></trkpt><trkpt lat="33.33893229233054" lon="9.049749779644399"><ele>75.0</ele><time>2026-03-23T15:33:20Z</time></trkpt><trkpt lat="33.33884269432534" lon="9.0498234491385"><ele>75.0</ele><time>2026-03-23T15:33:21Z</time></trkpt><trkpt lat="33.33878201867976" lon="9.049889667702196"><ele>75.0</ele><time>2026-03-23T15:33:22Z</time></trkpt><trkpt lat="33.338743057019194" lon="9.049965288088654"><ele>75.0</ele><time>2026-03-23T15:33:23Z</time></trkpt><trkpt lat="33.33871835409121" lon="9.05003834694914"><ele>75.0</ele><time>2026-03-23T15:33:24Z</time></trkpt><trkpt lat="33.338686794786184" lon="9.050153461187394"><ele>75.0</ele><time>2026-03-23T15:33:26Z</time></trkpt><trkpt lat="33.338649360025045" lon="9.0502725067758"><ele>75.0</ele><time>2026-03-23T15:33:28Z</time></trkpt><trkpt lat="33.338618652817686" lon="9.050346001545234"><ele>74.8</ele><time>2026-03-23T15:33:29Z</time></trkpt><trkpt lat="33.338584494423735" lon="9.050421184303804"><ele>74.6</ele><time>2026-03-23T15:33:30Z</time></trkpt><trkpt lat="33.3385420045253" lon="9.050500086504277"><ele>74.4</ele><time>2026-03-23T15:33:31Z</time></trkpt><trkpt lat="33.33849871650457" lon="9.05058565428198"><ele>74.2</ele><time>2026-03-23T15:33:32Z</time></trkpt><trkpt lat="33.3384479147035" lon="9.050709014971568"><ele>74.0</ele><time>2026-03-23T15:33:33Z</time></trkpt><trkpt lat="33.33839807713189" lon="9.050817859556341"><ele>74.33333333333334</ele><time>2026-03-23T15:33:34Z</time></trkpt><trkpt lat="33.33834546967085" lon="9.05091118952722"><ele>74.66666666666667</ele><time>2026-03-23T15:33:35Z</time></trkpt><trkpt lat="33.33828999306551" lon="9.051012816770106"><ele>75.0</ele><time>2026-03-23T15:33:36Z</time></trkpt><trkpt lat="33.33825638058981" lon="9.05109392546099"><ele>75.33333333333333</ele><time>2026-03-23T15:33:37Z</time></trkpt><trkpt lat="33.3382330931294" lon="9.05117226015088"><ele>75.66666666666666</ele><time>2026-03-23T15:33:38Z</time></trkpt><trkpt lat="33.3382180499624" lon="9.051253739863045"><ele>76.0</ele><time>2026-03-23T15:33:39Z</time></trkpt><trkpt lat="33.33820171862603" lon="9.05135700571407"><ele>76.0</ele><time>2026-03-23T15:33:40Z</time></trkpt><trkpt lat="33.3381810150372" lon="9.051466306844627"><ele>76.0</ele><time>2026-03-23T15:33:41Z</time></trkpt><trkpt lat="33.33816583516203" lon="9.051545752026112"><ele>76.0</ele><time>2026-03-23T15:33:42Z</time></trkpt><trkpt lat="33.33815063499026" lon="9.051624537136084"><ele>76.0</ele><time>2026-03-23T15:33:43Z</time></trkpt><trkpt lat="33.338145410817205" lon="9.051768662942978"><ele>76.0</ele><time>2026-03-23T15:33:45Z</time></trkpt><trkpt lat="33.33812917562342" lon="9.05186794680944"><ele>76.0</ele><time>2026-03-23T15:33:46Z</time></trkpt><trkpt lat="33.33810349549259" lon="9.051969901334578"><ele>76.2</ele><time>2026-03-23T15:33:47Z</time></trkpt><trkpt lat="33.338062008247654" lon="9.05206186785938"><ele>76.39999999999999</ele><time>2026-03-23T15:33:48Z</time></trkpt><trkpt lat="33.33801099109827" lon="9.052147050585248"><ele>76.6</ele><time>2026-03-23T15:33:49Z</time></trkpt><trkpt lat="33.33796482823607" lon="9.052238092913603"><ele>76.8</ele><time>2026-03-23T15:33:50Z</time></trkpt><trkpt lat="33.33791909573112" lon="9.052347602625156"><ele>77.0</ele><time>2026-03-23T15:33:51Z</time></trkpt><trkpt lat="33.33788435669825" lon="9.052450380387246"><ele>77.2</ele><time>2026-03-23T15:33:52Z</time></trkpt><trkpt lat="33.33784204036173" lon="9.05257006904441"><ele>77.4</ele><time>2026-03-23T15:33:53Z</time></trkpt><trkpt lat="33.337810614503994" lon="9.052662401369634"><ele>77.6</ele><time>2026-03-23T15:33:54Z</time></trkpt><trkpt lat="33.337774823788415" lon="9.052757288529612"><ele>77.8</ele><time>2026-03-23T15:33:55Z</time></trkpt><trkpt lat="33.33773839204604" lon="9.052867107459972"><ele>78.0</ele><time>2026-03-23T15:33:56Z</time></trkpt><trkpt lat="33.33771238218173" lon="9.052977622248653"><ele>78.0</ele><time>2026-03-23T15:33:57Z</time></trkpt><trkpt lat="33.33768242684346" lon="9.053085697061377"><ele>78.0</ele><time>2026-03-23T15:33:58Z</time></trkpt><trkpt lat="33.337648524249325" lon="9.053201458479817"><ele>78.0</ele><time>2026-03-23T15:33:59Z</time></trkpt><trkpt lat="33.33760706534636" lon="9.05330142689871"><ele>78.0</ele><time>2026-03-23T15:34:00Z</time></trkpt><trkpt lat="33.33756366478184" lon="9.053382865063373"><ele>78.0</ele><time>2026-03-23T15:34:01Z</time></trkpt><trkpt lat="33.337525076015176" lon="9.053450785681747"><ele>78.0</ele><time>2026-03-23T15:34:02Z</time></trkpt><trkpt lat="33.33746774317049" lon="9.053568009923955"><ele>78.0</ele><time>2026-03-23T15:34:04Z</time></trkpt><trkpt lat="33.33744269320985" lon="9.053654275671159"><ele>78.0</ele><time>2026-03-23T15:34:05Z</time></trkpt><trkpt lat="33.337417746830894" lon="9.053735699823516"><ele>78.0</ele><time>2026-03-23T15:34:06Z</time></trkpt><trkpt lat="33.33738257961487" lon="9.053858159279057"><ele>78.0</ele><time>2026-03-23T15:34:07Z</time></trkpt><trkpt lat="33.33735114326175" lon="9.053978188466097"><ele>78.0</ele><time>2026-03-23T15:34:08Z</time></trkpt><trkpt lat="33.33731806605882" lon="9.054099483111994"><ele>77.5</ele><time>2026-03-23T15:34:09Z</time></trkpt><trkpt lat="33.337279972968915" lon="9.054222497398621"><ele>77.0</ele><time>2026-03-23T15:34:10Z</time></trkpt><trkpt lat="33.33723511304279" lon="9.0543423381212"><ele>76.5</ele><time>2026-03-23T15:34:11Z</time></trkpt><trkpt lat="33.33719158203893" lon="9.054481579837422"><ele>76.0</ele><time>2026-03-23T15:34:12Z</time></trkpt><trkpt lat="33.337157914440475" lon="9.054608998047778"><ele>76.0</ele><time>2026-03-23T15:34:13Z</time></trkpt><trkpt lat="33.33712138789093" lon="9.054743866213059"><ele>76.0</ele><time>2026-03-23T15:34:14Z</time></trkpt><trkpt lat="33.33708833660489" lon="9.054876764671485"><ele>76.0</ele><time>2026-03-23T15:34:15Z</time></trkpt><trkpt lat="33.33705358102367" lon="9.055015422584605"><ele>76.0</ele><time>2026-03-23T15:34:16Z</time></trkpt><trkpt lat="33.33701493619349" lon="9.055142246037088"><ele>76.39999999999999</ele><time>2026-03-23T15:34:17Z</time></trkpt><trkpt lat="33.3369727447855" lon="9.055260217342948"><ele>76.8</ele><time>2026-03-23T15:34:18Z</time></trkpt><trkpt lat="33.33692431044637" lon="9.05538024891485"><ele>77.19999999999999</ele><time>2026-03-23T15:34:19Z</time></trkpt><trkpt lat="33.33688228327603" lon="9.055483827503993"><ele>77.6</ele><time>2026-03-23T15:34:20Z</time></trkpt><trkpt lat="33.33684531464319" lon="9.05558027745939"><ele>78.0</ele><time>2026-03-23T15:34:21Z</time></trkpt><trkpt lat="33.3368049478148" lon="9.055678731119745"><ele>78.0</ele><time>2026-03-23T15:34:22Z</time></trkpt><trkpt lat="33.33676743921473" lon="9.055802419151954"><ele>78.0</ele><time>2026-03-23T15:34:23Z</time></trkpt><trkpt lat="33.33673510128235" lon="9.055918910045898"><ele>78.0</ele><time>2026-03-23T15:34:24Z</time></trkpt><trkpt lat="33.33670716381929" lon="9.056051160577947"><ele>78.0</ele><time>2026-03-23T15:34:25Z</time></trkpt><trkpt lat="33.33668209272017" lon="9.056183944552314"><ele>78.0</ele><time>2026-03-23T15:34:26Z</time></trkpt><trkpt lat="33.33665131487049" lon="9.05630854093439"><ele>78.0</ele><time>2026-03-23T15:34:27Z</time></trkpt><trkpt lat="33.33661292573242" lon="9.056435865818287"><ele>78.0</ele><time>2026-03-23T15:34:28Z</time></trkpt><trkpt lat="33.33657403965823" lon="9.056556147480682"><ele>78.0</ele><time>2026-03-23T15:34:29Z</time></trkpt><trkpt lat="33.33653714929639" lon="9.056675982638764"><ele>78.0</ele><time>2026-03-23T15:34:30Z</time></trkpt><trkpt lat="33.33649529166199" lon="9.05678501701288"><ele>78.0</ele><time>2026-03-23T15:34:31Z</time></trkpt><trkpt lat="33.33644806139007" lon="9.056888146219306"><ele>77.25</ele><time>2026-03-23T15:34:32Z</time></trkpt><trkpt lat="33.33638584439428" lon="9.05700732705303"><ele>76.5</ele><time>2026-03-23T15:34:33Z</time></trkpt><trkpt lat="33.33633010160458" lon="9.057125090711589"><ele>75.75</ele><time>2026-03-23T15:34:34Z</time></trkpt><trkpt lat="33.33626586949687" lon="9.057242661336188"><ele>75.0</ele><time>2026-03-23T15:34:35Z</time></trkpt><trkpt lat="33.336206651108824" lon="9.057358646847206"><ele>76.0</ele><time>2026-03-23T15:34:36Z</time></trkpt><trkpt lat="33.336147881783695" lon="9.057472447773307"><ele>77.0</ele><time>2026-03-23T15:34:37Z</time></trkpt><trkpt lat="33.33608010870352" lon="9.0575882492578"><ele>78.0</ele><time>2026-03-23T15:34:38Z</time></trkpt><trkpt lat="33.33601066669287" lon="9.05769303201004"><ele>79.0</ele><time>2026-03-23T15:34:39Z</time></trkpt><trkpt lat="33.33593913129728" lon="9.057794084347318"><ele>79.0</ele><time>2026-03-23T15:34:40Z</time></trkpt><trkpt lat="33.33586233942445" lon="9.057906330794092"><ele>79.0</ele><time>2026-03-23T15:34:41Z</time></trkpt><trkpt lat="33.33578987090299" lon="9.058015417722507"><ele>79.0</ele><time>2026-03-23T15:34:42Z</time></trkpt><trkpt lat="33.33571434747568" lon="9.058117693057717"><ele>79.0</ele><time>2026-03-23T15:34:43Z</time></trkpt><trkpt lat="33.3356385874835" lon="9.05823243585579"><ele>79.0</ele><time>2026-03-23T15:34:44Z</time></trkpt><trkpt lat="33.33556388380746" lon="9.058344456820215"><ele>79.0</ele><time>2026-03-23T15:34:45Z</time></trkpt><trkpt lat="33.33548394637924" lon="9.058454305713841"><ele>79.0</ele><time>2026-03-23T15:34:46Z</time></trkpt><trkpt lat="33.335403530012144" lon="9.058552904708566"><ele>79.0</ele><time>2026-03-23T15:34:47Z</time></trkpt><trkpt lat="33.335315496560966" lon="9.058649675117717"><ele>79.0</ele><time>2026-03-23T15:34:48Z</time></trkpt><trkpt lat="33.33522441649091" lon="9.05873900091067"><ele>79.0</ele><time>2026-03-23T15:34:49Z</time></trkpt><trkpt lat="33.33513028226065" lon="9.058823950135857"><ele>79.0</ele><time>2026-03-23T15:34:50Z</time></trkpt><trkpt lat="33.33503929276573" lon="9.05891491170474"><ele>79.0</ele><time>2026-03-23T15:34:51Z</time></trkpt><trkpt lat="33.334952917077324" lon="9.059000722976588"><ele>79.0</ele><time>2026-03-23T15:34:52Z</time></trkpt><trkpt lat="33.33487449309556" lon="9.059074027828146"><ele>79.0</ele><time>2026-03-23T15:34:53Z</time></trkpt><trkpt lat="33.33479909984201" lon="9.059140775508158"><ele>79.0</ele><time>2026-03-23T15:34:54Z</time></trkpt><trkpt lat="33.334716756288174" lon="9.059197829840345"><ele>79.0</ele><time>2026-03-23T15:34:55Z</time></trkpt><trkpt lat="33.334632364569885" lon="9.059259259309998"><ele>79.0</ele><time>2026-03-23T15:34:56Z</time></trkpt><trkpt lat="33.33454671880175" lon="9.059331730629987"><ele>79.0</ele><time>2026-03-23T15:34:57Z</time></trkpt><trkpt lat="33.334461125350245" lon="9.059416610274832"><ele>79.0</ele><time>2026-03-23T15:34:58Z</time></trkpt><trkpt lat="33.33437495337365" lon="9.059500517085697"><ele>79.0</ele><time>2026-03-23T15:34:59Z</time></trkpt><trkpt lat="33.33427962164171" lon="9.059590306192876"><ele>79.0</ele><time>2026-03-23T15:35:00Z</time></trkpt><trkpt lat="33.334191859889955" lon="9.059676206730538"><ele>79.0</ele><time>2026-03-23T15:35:01Z</time></trkpt><trkpt lat="33.33411580956897" lon="9.059753386321486"><ele>79.0</ele><time>2026-03-23T15:35:02Z</time></trkpt><trkpt lat="33.33403989174236" lon="9.059815297720698"><ele>79.0</ele><time>2026-03-23T15:35:03Z</time></trkpt><trkpt lat="33.33396464356197" lon="9.059873714342004"><ele>79.0</ele><time>2026-03-23T15:35:04Z</time></trkpt><trkpt lat="33.33389033560692" lon="9.059937916537537"><ele>79.0</ele><time>2026-03-23T15:35:05Z</time></trkpt><trkpt lat="33.33382913183583" lon="9.05998694319461"><ele>79.0</ele><time>2026-03-23T15:35:06Z</time></trkpt><trkpt lat="33.333733970372265" lon="9.060052562227156"><ele>78.66666666666666</ele><time>2026-03-23T15:35:08Z</time></trkpt><trkpt lat="33.333684860282766" lon="9.060101867507354"><ele>78.33333333333333</ele><time>2026-03-23T15:35:09Z</time></trkpt><trkpt lat="33.33363230050672" lon="9.060177127988712"><ele>78.0</ele><time>2026-03-23T15:35:10Z</time></trkpt><trkpt lat="33.33359208479701" lon="9.060243178085383"><ele>77.66666666666667</ele><time>2026-03-23T15:35:11Z</time></trkpt><trkpt lat="33.33349927681118" lon="9.060341914855124"><ele>77.33333333333334</ele><time>2026-03-23T15:35:13Z</time></trkpt><trkpt lat="33.3334375936849" lon="9.060415543610176"><ele>77.0</ele><time>2026-03-23T15:35:14Z</time></trkpt><trkpt lat="33.333384952989555" lon="9.060517483890932"><ele>77.0</ele><time>2026-03-23T15:35:15Z</time></trkpt><trkpt lat="33.33334909089043" lon="9.060629632581643"><ele>77.0</ele><time>2026-03-23T15:35:16Z</time></trkpt><trkpt lat="33.33330892734334" lon="9.060734142449025"><ele>77.0</ele><time>2026-03-23T15:35:17Z</time></trkpt><trkpt lat="33.33325570400631" lon="9.060845744441554"><ele>77.0</ele><time>2026-03-23T15:35:18Z</time></trkpt><trkpt lat="33.33320383880203" lon="9.060940361798366"><ele>77.0</ele><time>2026-03-23T15:35:19Z</time></trkpt><trkpt lat="33.333147192577755" lon="9.06101894294074"><ele>77.0</ele><time>2026-03-23T15:35:20Z</time></trkpt><trkpt lat="33.33308671745745" lon="9.061096829292005"><ele>77.0</ele><time>2026-03-23T15:35:21Z</time></trkpt><trkpt lat="33.33302443504285" lon="9.061180382582178"><ele>77.0</ele><time>2026-03-23T15:35:22Z</time></trkpt><trkpt lat="33.33295973569312" lon="9.061264977969607"><ele>77.0</ele><time>2026-03-23T15:35:23Z</time></trkpt><trkpt lat="33.3328785890327" lon="9.06135456182386"><ele>77.0</ele><time>2026-03-23T15:35:24Z</time></trkpt><trkpt lat="33.33279675936771" lon="9.061434818992735"><ele>76.6</ele><time>2026-03-23T15:35:25Z</time></trkpt><trkpt lat="33.33271294612037" lon="9.061512157496166"><ele>76.2</ele><time>2026-03-23T15:35:26Z</time></trkpt><trkpt lat="33.33262923725567" lon="9.061591643700442"><ele>75.8</ele><time>2026-03-23T15:35:27Z</time></trkpt><trkpt lat="33.332561277657604" lon="9.061657013731304"><ele>75.4</ele><time>2026-03-23T15:35:28Z</time></trkpt><trkpt lat="33.3324840063381" lon="9.06173266890356"><ele>75.0</ele><time>2026-03-23T15:35:29Z</time></trkpt><trkpt lat="33.33240668144173" lon="9.061811049274906"><ele>75.0</ele><time>2026-03-23T15:35:30Z</time></trkpt><trkpt lat="33.33232223402114" lon="9.061903340530145"><ele>75.0</ele><time>2026-03-23T15:35:31Z</time></trkpt><trkpt lat="33.33223668901587" lon="9.061996150170582"><ele>75.0</ele><time>2026-03-23T15:35:32Z</time></trkpt><trkpt lat="33.332142832829454" lon="9.062100021297871"><ele>75.0</ele><time>2026-03-23T15:35:33Z</time></trkpt><trkpt lat="33.332045744732106" lon="9.06219728141685"><ele>75.2</ele><time>2026-03-23T15:35:34Z</time></trkpt><trkpt lat="33.331957532149886" lon="9.062290407983541"><ele>75.4</ele><time>2026-03-23T15:35:35Z</time></trkpt><trkpt lat="33.33189067455088" lon="9.062359945315771"><ele>75.6</ele><time>2026-03-23T15:35:36Z</time></trkpt><trkpt lat="33.331818239606086" lon="9.062445434509822"><ele>75.8</ele><time>2026-03-23T15:35:37Z</time></trkpt><trkpt lat="33.331746437634216" lon="9.062500696609002"><ele>76.0</ele><time>2026-03-23T15:35:38Z</time></trkpt><trkpt lat="33.33167284131673" lon="9.062543228407879"><ele>75.57142857142857</ele><time>2026-03-23T15:35:39Z</time></trkpt><trkpt lat="33.33161572907996" lon="9.062582972470896"><ele>75.14285714285715</ele><time>2026-03-23T15:35:40Z</time></trkpt><trkpt lat="33.33156064705037" lon="9.062626354848954"><ele>74.71428571428572</ele><time>2026-03-23T15:35:41Z</time></trkpt><trkpt lat="33.33149972552245" lon="9.062679292779762"><ele>74.28571428571428</ele><time>2026-03-23T15:35:42Z</time></trkpt><trkpt lat="33.331441341975406" lon="9.062735606269497"><ele>73.85714285714286</ele><time>2026-03-23T15:35:43Z</time></trkpt><trkpt lat="33.33137897806842" lon="9.06276626305571"><ele>73.42857142857143</ele><time>2026-03-23T15:35:44Z</time></trkpt><trkpt lat="33.33130517721115" lon="9.062792699987051"><ele>73.0</ele><time>2026-03-23T15:35:45Z</time></trkpt><trkpt lat="33.33121721900185" lon="9.062812738825471"><ele>72.6</ele><time>2026-03-23T15:35:46Z</time></trkpt><trkpt lat="33.33113465369741" lon="9.062826729333661"><ele>72.19999999999999</ele><time>2026-03-23T15:35:47Z</time></trkpt><trkpt lat="33.33105053234387" lon="9.06283489458983"><ele>71.8</ele><time>2026-03-23T15:35:48Z</time></trkpt><trkpt lat="33.3309643739625" lon="9.06284507335341"><ele>71.39999999999999</ele><time>2026-03-23T15:35:49Z</time></trkpt><trkpt lat="33.33086772725856" lon="9.062864193108437"><ele>71.0</ele><time>2026-03-23T15:35:50Z</time></trkpt><trkpt lat="33.330768878897324" lon="9.06287830330965"><ele>71.0</ele><time>2026-03-23T15:35:51Z</time></trkpt><trkpt lat="33.3306634891123" lon="9.062886497639788"><ele>71.0</ele><time>2026-03-23T15:35:52Z</time></trkpt><trkpt lat="33.33055715320602" lon="9.062892566874746"><ele>71.0</ele><time>2026-03-23T15:35:53Z</time></trkpt><trkpt lat="33.330434370077825" lon="9.062897730061385"><ele>71.0</ele><time>2026-03-23T15:35:54Z</time></trkpt><trkpt lat="33.330296411690085" lon="9.06290236993842"><ele>71.0</ele><time>2026-03-23T15:35:55Z</time></trkpt><trkpt lat="33.33015082166127" lon="9.062919847406492"><ele>71.0</ele><time>2026-03-23T15:35:56Z</time></trkpt><trkpt lat="33.330026161380346" lon="9.062941661917876"><ele>71.0</ele><time>2026-03-23T15:35:57Z</time></trkpt><trkpt lat="33.32990960975633" lon="9.062982435961805"><ele>71.0</ele><time>2026-03-23T15:35:58Z</time></trkpt><trkpt lat="33.32979520858156" lon="9.06303705480921"><ele>71.8</ele><time>2026-03-23T15:35:59Z</time></trkpt><trkpt lat="33.32968583478753" lon="9.063085839981067"><ele>72.6</ele><time>2026-03-23T15:36:00Z</time></trkpt><trkpt lat="33.32957620751213" lon="9.063128373384764"><ele>73.4</ele><time>2026-03-23T15:36:01Z</time></trkpt><trkpt lat="33.32948884047684" lon="9.063171744062483"><ele>74.2</ele><time>2026-03-23T15:36:02Z</time></trkpt><trkpt lat="33.32942002107121" lon="9.063210111041474"><ele>75.0</ele><time>2026-03-23T15:36:03Z</time></trkpt><trkpt lat="33.32932919348116" lon="9.063249445304246"><ele>75.0</ele><time>2026-03-23T15:36:04Z</time></trkpt><trkpt lat="33.32922712772412" lon="9.063272269063942"><ele>75.0</ele><time>2026-03-23T15:36:05Z</time></trkpt><trkpt lat="33.32912381106651" lon="9.063277182787479"><ele>75.0</ele><time>2026-03-23T15:36:06Z</time></trkpt><trkpt lat="33.32902124904968" lon="9.063271498521262"><ele>75.0</ele><time>2026-03-23T15:36:07Z</time></trkpt><trkpt lat="33.32892275652384" lon="9.063258197483831"><ele>75.0</ele><time>2026-03-23T15:36:08Z</time></trkpt><trkpt lat="33.328832213264135" lon="9.063268709728822"><ele>75.0</ele><time>2026-03-23T15:36:09Z</time></trkpt><trkpt lat="33.32874706979807" lon="9.063289029210875"><ele>75.0</ele><time>2026-03-23T15:36:10Z</time></trkpt><trkpt lat="33.328640770255525" lon="9.063299669586607"><ele>75.0</ele><time>2026-03-23T15:36:11Z</time></trkpt><trkpt lat="33.32855129902727" lon="9.06331682199655"><ele>75.0</ele><time>2026-03-23T15:36:12Z</time></trkpt><trkpt lat="33.328484019063914" lon="9.063342174441871"><ele>75.0</ele><time>2026-03-23T15:36:13Z</time></trkpt><trkpt lat="33.328412237788825" lon="9.063383332927012"><ele>75.0</ele><time>2026-03-23T15:36:14Z</time></trkpt><trkpt lat="33.32834902787081" lon="9.063416457188511"><ele>75.0</ele><time>2026-03-23T15:36:15Z</time></trkpt><trkpt lat="33.328276197386245" lon="9.06344342182859"><ele>75.0</ele><time>2026-03-23T15:36:16Z</time></trkpt><trkpt lat="33.32820946904885" lon="9.06346511890637"><ele>75.0</ele><time>2026-03-23T15:36:17Z</time></trkpt><trkpt lat="33.328145672736426" lon="9.063485275545881"><ele>75.0</ele><time>2026-03-23T15:36:18Z</time></trkpt><trkpt lat="33.32807972124393" lon="9.06349465540781"><ele>75.0</ele><time>2026-03-23T15:36:19Z</time></trkpt><trkpt lat="33.32796951879452" lon="9.063548564049926"><ele>75.0</ele><time>2026-03-23T15:36:21Z</time></trkpt><trkpt lat="33.32786779504141" lon="9.063609918798834"><ele>75.2</ele><time>2026-03-23T15:36:23Z</time></trkpt><trkpt lat="33.32776871095609" lon="9.063635472465533"><ele>75.4</ele><time>2026-03-23T15:36:25Z</time></trkpt><trkpt lat="33.327658883432555" lon="9.063628952058338"><ele>75.6</ele><time>2026-03-23T15:36:27Z</time></trkpt><trkpt lat="33.32758308742929" lon="9.063661135835977"><ele>75.8</ele><time>2026-03-23T15:36:29Z</time></trkpt><trkpt lat="33.327582551264754" lon="9.063767879864077"><ele>76.0</ele><time>2026-03-23T15:36:39Z</time></trkpt><trkpt lat="33.32748947334948" lon="9.06386079941349"><ele>76.0</ele><time>2026-03-23T15:36:41Z</time></trkpt><trkpt lat="33.32742931596151" lon="9.063907842497755"><ele>76.0</ele><time>2026-03-23T15:36:42Z</time></trkpt><trkpt lat="33.327316242868626" lon="9.063942431192052"><ele>76.0</ele><time>2026-03-23T15:36:44Z</time></trkpt><trkpt lat="33.32720813983029" lon="9.063924025050769"><ele>76.0</ele><time>2026-03-23T15:36:46Z</time></trkpt><trkpt lat="33.32715639819135" lon="9.06399340287425"><ele>76.0</ele><time>2026-03-23T15:36:49Z</time></trkpt><trkpt lat="33.32710770795193" lon="9.064048175789626"><ele>76.0</ele><time>2026-03-23T15:39:07Z</time></trkpt><trkpt lat="33.32704130154325" lon="9.064130103194268"><ele>76.0</ele><time>2026-03-23T15:39:09Z</time></trkpt><trkpt lat="33.326950779110646" lon="9.064228532858893"><ele>76.0</ele><time>2026-03-23T15:39:11Z</time></trkpt><trkpt lat="33.3268962223069" lon="9.064289421170578"><ele>76.0</ele><time>2026-03-23T15:39:12Z</time></trkpt><trkpt lat="33.32684125641249" lon="9.06433500806191"><ele>76.0</ele><time>2026-03-23T15:39:13Z</time></trkpt><trkpt lat="33.3267784197263" lon="9.064374515230307"><ele>76.0</ele><time>2026-03-23T15:39:14Z</time></trkpt><trkpt lat="33.32671086516216" lon="9.064406449090665"><ele>76.0</ele><time>2026-03-23T15:39:15Z</time></trkpt><trkpt lat="33.32664666903748" lon="9.06444209551943"><ele>76.0</ele><time>2026-03-23T15:39:16Z</time></trkpt><trkpt lat="33.32658517485702" lon="9.064463896046197"><ele>76.0</ele><time>2026-03-23T15:39:17Z</time></trkpt><trkpt lat="33.326468577825985" lon="9.064503877259169"><ele>76.0</ele><time>2026-03-23T15:39:19Z</time></trkpt><trkpt lat="33.32637066921121" lon="9.064591319430257"><ele>76.0</ele><time>2026-03-23T15:39:21Z</time></trkpt><trkpt lat="33.326300963453896" lon="9.064632239810814"><ele>76.0</ele><time>2026-03-23T15:39:22Z</time></trkpt><trkpt lat="33.326232831273956" lon="9.06467349933128"><ele>76.16666666666666</ele><time>2026-03-23T15:39:23Z</time></trkpt><trkpt lat="33.326153849714856" lon="9.064726030458816"><ele>76.33333333333333</ele><time>2026-03-23T15:39:25Z</time></trkpt><trkpt lat="33.32608941132338" lon="9.064768977213216"><ele>76.5</ele><time>2026-03-23T15:39:27Z</time></trkpt><trkpt lat="33.32602795389844" lon="9.064808589818623"><ele>76.66666666666667</ele><time>2026-03-23T15:39:29Z</time></trkpt><trkpt lat="33.32597283635086" lon="9.06485005271348"><ele>76.83333333333334</ele><time>2026-03-23T15:39:31Z</time></trkpt><trkpt lat="33.32591306255319" lon="9.064940383599767"><ele>77.0</ele><time>2026-03-23T15:39:34Z</time></trkpt><trkpt lat="33.32587142483616" lon="9.065025742734905"><ele>77.0</ele><time>2026-03-23T15:39:36Z</time></trkpt><trkpt lat="33.3258179057469" lon="9.065083663606048"><ele>77.0</ele><time>2026-03-23T15:39:38Z</time></trkpt><trkpt lat="33.32576490759186" lon="9.065139490506468"><ele>77.0</ele><time>2026-03-23T15:39:40Z</time></trkpt><trkpt lat="33.32569245617399" lon="9.065234325326555"><ele>77.0</ele><time>2026-03-23T15:39:43Z</time></trkpt><trkpt lat="33.325660867799286" lon="9.065302636911447"><ele>77.0</ele><time>2026-03-23T15:39:45Z</time></trkpt><trkpt lat="33.32563662515662" lon="9.065394050381553"><ele>77.0</ele><time>2026-03-23T15:43:40Z</time></trkpt><trkpt lat="33.32560381178837" lon="9.065505367930239"><ele>77.0</ele><time>2026-03-23T15:43:42Z</time></trkpt><trkpt lat="33.32554949469116" lon="9.06556445757374"><ele>77.0</ele><time>2026-03-23T15:43:44Z</time></trkpt><trkpt lat="33.3254856389072" lon="9.065643658039724"><ele>77.0</ele><time>2026-03-23T15:43:46Z</time></trkpt><trkpt lat="33.325433741365806" lon="9.065754632953714"><ele>77.0</ele><time>2026-03-23T15:43:48Z</time></trkpt><trkpt lat="33.325397696211624" lon="9.065858009696234"><ele>77.0</ele><time>2026-03-23T15:43:50Z</time></trkpt><trkpt lat="33.32536875872106" lon="9.065978648421192"><ele>77.0</ele><time>2026-03-23T15:43:52Z</time></trkpt><trkpt lat="33.32531600051865" lon="9.066069186532026"><ele>77.0</ele><time>2026-03-23T15:43:54Z</time></trkpt><trkpt lat="33.325209206412644" lon="9.066080815034729"><ele>77.0</ele><time>2026-03-23T15:43:56Z</time></trkpt><trkpt lat="33.32510173146846" lon="9.066040926152132"><ele>77.0</ele><time>2026-03-23T15:43:58Z</time></trkpt><trkpt lat="33.32499761778768" lon="9.066016874946527"><ele>77.0</ele><time>2026-03-23T15:44:00Z</time></trkpt><trkpt lat="33.32493333015752" lon="9.066032568997734"><ele>77.0</ele><time>2026-03-23T15:44:01Z</time></trkpt><trkpt lat="33.32487127409335" lon="9.066053606396798"><ele>77.0</ele><time>2026-03-23T15:44:02Z</time></trkpt><trkpt lat="33.32475469845359" lon="9.066097231117087"><ele>77.0</ele><time>2026-03-23T15:44:04Z</time></trkpt><trkpt lat="33.3246511293553" lon="9.06613967067305"><ele>77.0</ele><time>2026-03-23T15:44:06Z</time></trkpt><trkpt lat="33.32456180822441" lon="9.066193806957742"><ele>77.0</ele><time>2026-03-23T15:44:08Z</time></trkpt><trkpt lat="33.3244850932385" lon="9.066230465787582"><ele>77.0</ele><time>2026-03-23T15:44:10Z</time></trkpt><trkpt lat="33.32442142124129" lon="9.06630931231456"><ele>77.0</ele><time>2026-03-23T15:44:12Z</time></trkpt><trkpt lat="33.32434095083743" lon="9.066402312560433"><ele>77.0</ele><time>2026-03-23T15:44:14Z</time></trkpt><trkpt lat="33.32428826980942" lon="9.066511376803929"><ele>77.0</ele><time>2026-03-23T15:44:16Z</time></trkpt><trkpt lat="33.324271634512016" lon="9.066589674900182"><ele>77.0</ele><time>2026-03-23T15:44:18Z</time></trkpt><trkpt lat="33.32427328549703" lon="9.06670506449289"><ele>76.83333333333334</ele><time>2026-03-23T15:44:20Z</time></trkpt><trkpt lat="33.32423537021032" lon="9.06679349839614"><ele>76.66666666666667</ele><time>2026-03-23T15:44:22Z</time></trkpt><trkpt lat="33.324152242561105" lon="9.066819118861469"><ele>76.5</ele><time>2026-03-23T15:44:25Z</time></trkpt><trkpt lat="33.32408927818472" lon="9.066775789910688"><ele>76.33333333333333</ele><time>2026-03-23T15:44:27Z</time></trkpt><trkpt lat="33.32402655912911" lon="9.066741864879305"><ele>76.16666666666666</ele><time>2026-03-23T15:44:29Z</time></trkpt><trkpt lat="33.3239447537308" lon="9.066800292471047"><ele>76.0</ele><time>2026-03-23T15:44:31Z</time></trkpt><trkpt lat="33.323882799463235" lon="9.066909133555896"><ele>76.0</ele><time>2026-03-23T15:44:33Z</time></trkpt><trkpt lat="33.32381978241709" lon="9.067012467494646"><ele>76.0</ele><time>2026-03-23T15:44:35Z</time></trkpt><trkpt lat="33.32377370704171" lon="9.067148544718027"><ele>76.0</ele><time>2026-03-23T15:44:37Z</time></trkpt><trkpt lat="33.3237279277148" lon="9.067259005539006"><ele>76.0</ele><time>2026-03-23T15:44:39Z</time></trkpt><trkpt lat="33.32366430655092" lon="9.06727658133521"><ele>76.0</ele><time>2026-03-23T15:48:31Z</time></trkpt><trkpt lat="33.323576644911554" lon="9.067313353403549"><ele>76.0</ele><time>2026-03-23T15:57:57Z</time></trkpt><trkpt lat="33.323470212966875" lon="9.067371315838013"><ele>76.0</ele><time>2026-03-23T15:57:59Z</time></trkpt><trkpt lat="33.32339930880376" lon="9.06744544341141"><ele>76.0</ele><time>2026-03-23T15:58:01Z</time></trkpt><trkpt lat="33.323397349907054" lon="9.067522761120992"><ele>76.0</ele><time>2026-03-23T15:58:03Z</time></trkpt><trkpt lat="33.32343381887433" lon="9.067631410237338"><ele>76.0</ele><time>2026-03-23T15:58:54.001Z</time></trkpt><trkpt lat="33.3234576057582" lon="9.067783659628843"><ele>75.66666666666666</ele><time>2026-03-23T15:58:56.001Z</time></trkpt><trkpt lat="33.3234745506421" lon="9.067879862468219"><ele>75.33333333333333</ele><time>2026-03-23T15:58:57.001Z</time></trkpt><trkpt lat="33.32348529802932" lon="9.067984926748201"><ele>75.0</ele><time>2026-03-23T15:58:58.001Z</time></trkpt><trkpt lat="33.32348882988472" lon="9.068090147872342"><ele>74.66666666666667</ele><time>2026-03-23T15:58:59.001Z</time></trkpt><trkpt lat="33.32348534365523" lon="9.06819835076471"><ele>74.33333333333334</ele><time>2026-03-23T15:59:00.001Z</time></trkpt><trkpt lat="33.32348037645728" lon="9.068305521794267"><ele>74.0</ele><time>2026-03-23T15:59:01.001Z</time></trkpt><trkpt lat="33.3234748149108" lon="9.06841437406526"><ele>73.83333333333334</ele><time>2026-03-23T15:59:02.001Z</time></trkpt><trkpt lat="33.323466524541274" lon="9.068502102604992"><ele>73.66666666666667</ele><time>2026-03-23T15:59:03.001Z</time></trkpt><trkpt lat="33.323455053790056" lon="9.068588563739986"><ele>73.5</ele><time>2026-03-23T15:59:04.001Z</time></trkpt><trkpt lat="33.323443743041736" lon="9.068685723463396"><ele>73.33333333333333</ele><time>2026-03-23T15:59:05.001Z</time></trkpt><trkpt lat="33.323437802391766" lon="9.068783186118894"><ele>73.16666666666666</ele><time>2026-03-23T15:59:06.001Z</time></trkpt><trkpt lat="33.32343295517162" lon="9.068885812648661"><ele>73.0</ele><time>2026-03-23T15:59:07.001Z</time></trkpt><trkpt lat="33.32342420349566" lon="9.06897876412157"><ele>73.0</ele><time>2026-03-23T15:59:08.001Z</time></trkpt><trkpt lat="33.32341303030559" lon="9.069065436271396"><ele>73.0</ele><time>2026-03-23T15:59:09.002Z</time></trkpt><trkpt lat="33.32340333227192" lon="9.069160255484803"><ele>73.0</ele><time>2026-03-23T15:59:10.002Z</time></trkpt><trkpt lat="33.323395607836325" lon="9.06925612017714"><ele>73.0</ele><time>2026-03-23T15:59:11.002Z</time></trkpt><trkpt lat="33.32338774841359" lon="9.069347737298445"><ele>73.0</ele><time>2026-03-23T15:59:12.002Z</time></trkpt><trkpt lat="33.323389617236515" lon="9.069440025804735"><ele>73.0</ele><time>2026-03-23T15:59:13.002Z</time></trkpt><trkpt lat="33.32340566457635" lon="9.069541579075244"><ele>73.0</ele><time>2026-03-23T15:59:14.002Z</time></trkpt><trkpt lat="33.32341421220242" lon="9.069645419632591"><ele>73.0</ele><time>2026-03-23T15:59:15.002Z</time></trkpt><trkpt lat="33.32342033900166" lon="9.069752715190761"><ele>73.0</ele><time>2026-03-23T15:59:16.002Z</time></trkpt><trkpt lat="33.323423591644904" lon="9.06985281416224"><ele>73.0</ele><time>2026-03-23T15:59:17.002Z</time></trkpt><trkpt lat="33.32341587729376" lon="9.069945510797682"><ele>73.0</ele><time>2026-03-23T15:59:18.002Z</time></trkpt><trkpt lat="33.32340037934775" lon="9.070035317719295"><ele>73.0</ele><time>2026-03-23T15:59:19.002Z</time></trkpt><trkpt lat="33.3233754949073" lon="9.070119117847074"><ele>73.0</ele><time>2026-03-23T15:59:20.002Z</time></trkpt><trkpt lat="33.32334325007882" lon="9.070212416379453"><ele>73.0</ele><time>2026-03-23T15:59:21.002Z</time></trkpt><trkpt lat="33.32332057850894" lon="9.070305477430203"><ele>73.0</ele><time>2026-03-23T15:59:22.002Z</time></trkpt><trkpt lat="33.323312327176595" lon="9.070389019202992"><ele>73.0</ele><time>2026-03-23T15:59:23.002Z</time></trkpt><trkpt lat="33.32331117147879" lon="9.070467638084114"><ele>73.0</ele><time>2026-03-23T15:59:24.002Z</time></trkpt><trkpt lat="33.323312832298186" lon="9.070555065450982"><ele>73.0</ele><time>2026-03-23T15:59:25.002Z</time></trkpt><trkpt lat="33.323315475171775" lon="9.070646192872982"><ele>73.0</ele><time>2026-03-23T15:59:26.002Z</time></trkpt><trkpt lat="33.323308580008096" lon="9.0707387927947"><ele>73.0</ele><time>2026-03-23T15:59:27.002Z</time></trkpt><trkpt lat="33.32330183738954" lon="9.070838688940066"><ele>73.0</ele><time>2026-03-23T15:59:28.002Z</time></trkpt><trkpt lat="33.32330024319942" lon="9.07097979805232"><ele>73.0</ele><time>2026-03-23T15:59:30.002Z</time></trkpt><trkpt lat="33.323300582124844" lon="9.07107072300991"><ele>73.0</ele><time>2026-03-23T15:59:31.002Z</time></trkpt><trkpt lat="33.32330829710095" lon="9.071171134283087"><ele>73.0</ele><time>2026-03-23T15:59:32.002Z</time></trkpt><trkpt lat="33.32331952601302" lon="9.071277148068745"><ele>73.33333333333333</ele><time>2026-03-23T15:59:33.002Z</time></trkpt><trkpt lat="33.32332728093482" lon="9.071377034721207"><ele>73.66666666666666</ele><time>2026-03-23T15:59:34.002Z</time></trkpt><trkpt lat="33.32334132138929" lon="9.071481315674983"><ele>74.0</ele><time>2026-03-23T15:59:35.002Z</time></trkpt><trkpt lat="33.32336062550343" lon="9.071575514257688"><ele>74.33333333333333</ele><time>2026-03-23T15:59:36.002Z</time></trkpt><trkpt lat="33.32338343238511" lon="9.0716581153769"><ele>74.66666666666667</ele><time>2026-03-23T15:59:37.002Z</time></trkpt><trkpt lat="33.32340682614282" lon="9.071743114130431"><ele>75.0</ele><time>2026-03-23T15:59:38.002Z</time></trkpt><trkpt lat="33.32343517586565" lon="9.071839674203718"><ele>75.0</ele><time>2026-03-23T15:59:39.002Z</time></trkpt><trkpt lat="33.32345448595921" lon="9.071928834521833"><ele>75.0</ele><time>2026-03-23T15:59:40.002Z</time></trkpt><trkpt lat="33.32346589152176" lon="9.07201487833506"><ele>75.0</ele><time>2026-03-23T15:59:41.002Z</time></trkpt><trkpt lat="33.32346480843356" lon="9.072092832307257"><ele>75.0</ele><time>2026-03-23T15:59:42.002Z</time></trkpt><trkpt lat="33.323437765422035" lon="9.072198274510473"><ele>75.0</ele><time>2026-03-23T15:59:44.002Z</time></trkpt><trkpt lat="33.323386542872086" lon="9.07228679964933"><ele>75.0</ele><time>2026-03-23T15:59:46.002Z</time></trkpt><trkpt lat="33.32334800977357" lon="9.072358331601308"><ele>75.0</ele><time>2026-03-23T15:59:47.002Z</time></trkpt><trkpt lat="33.32329525318609" lon="9.07243406323989"><ele>75.0</ele><time>2026-03-23T15:59:48.002Z</time></trkpt><trkpt lat="33.32324114804746" lon="9.072492222193416"><ele>75.0</ele><time>2026-03-23T15:59:49.002Z</time></trkpt><trkpt lat="33.32317438544992" lon="9.072565009904991"><ele>75.0</ele><time>2026-03-23T15:59:50.002Z</time></trkpt><trkpt lat="33.323110927028125" lon="9.072645571948822"><ele>75.0</ele><time>2026-03-23T15:59:51.002Z</time></trkpt><trkpt lat="33.32304678018912" lon="9.072721050645194"><ele>75.0</ele><time>2026-03-23T15:59:52.001Z</time></trkpt><trkpt lat="33.32297852359666" lon="9.07279428499003"><ele>75.0</ele><time>2026-03-23T15:59:53.001Z</time></trkpt><trkpt lat="33.32291245810429" lon="9.072861522487285"><ele>75.0</ele><time>2026-03-23T15:59:54.001Z</time></trkpt><trkpt lat="33.32284610764142" lon="9.072922716883763"><ele>75.0</ele><time>2026-03-23T15:59:55.001Z</time></trkpt><trkpt lat="33.32278059238229" lon="9.072974836450056"><ele>75.0</ele><time>2026-03-23T15:59:56.001Z</time></trkpt><trkpt lat="33.322699560153275" lon="9.07303577039319"><ele>75.0</ele><time>2026-03-23T15:59:57.001Z</time></trkpt><trkpt lat="33.32261844215808" lon="9.073100748926866"><ele>75.0</ele><time>2026-03-23T15:59:58.001Z</time></trkpt><trkpt lat="33.322550527705744" lon="9.073159298674424"><ele>75.0</ele><time>2026-03-23T15:59:59.001Z</time></trkpt><trkpt lat="33.32249041344866" lon="9.073209726491168"><ele>75.0</ele><time>2026-03-23T16:00:00.001Z</time></trkpt><trkpt lat="33.3224268047893" lon="9.073260082580466"><ele>75.0</ele><time>2026-03-23T16:00:01.001Z</time></trkpt><trkpt lat="33.32235530103034" lon="9.07331614758191"><ele>75.0</ele><time>2026-03-23T16:00:02.001Z</time></trkpt><trkpt lat="33.32228546684256" lon="9.073365648712969"><ele>75.0</ele><time>2026-03-23T16:00:03.001Z</time></trkpt><trkpt lat="33.32221355410872" lon="9.073406937125304"><ele>75.0</ele><time>2026-03-23T16:00:04.001Z</time></trkpt><trkpt lat="33.322126158852505" lon="9.07344437324598"><ele>75.16666666666667</ele><time>2026-03-23T16:00:05.001Z</time></trkpt><trkpt lat="33.32204416294034" lon="9.073464364129316"><ele>75.33333333333333</ele><time>2026-03-23T16:00:06.001Z</time></trkpt><trkpt lat="33.32196245672955" lon="9.073476391536927"><ele>75.5</ele><time>2026-03-23T16:00:07.001Z</time></trkpt><trkpt lat="33.32187784235278" lon="9.073496509507239"><ele>75.66666666666666</ele><time>2026-03-23T16:00:08.001Z</time></trkpt><trkpt lat="33.321804336692956" lon="9.07352289143637"><ele>75.83333333333333</ele><time>2026-03-23T16:00:09.001Z</time></trkpt><trkpt lat="33.321728273757714" lon="9.073559050466635"><ele>76.0</ele><time>2026-03-23T16:00:10.001Z</time></trkpt><trkpt lat="33.32165850037849" lon="9.073603006779564"><ele>76.0</ele><time>2026-03-23T16:00:11.001Z</time></trkpt><trkpt lat="33.32159302724322" lon="9.073646004388252"><ele>76.0</ele><time>2026-03-23T16:00:12.001Z</time></trkpt><trkpt lat="33.32153603092059" lon="9.07369582799886"><ele>76.0</ele><time>2026-03-23T16:00:13.001Z</time></trkpt><trkpt lat="33.321482253816846" lon="9.073744600047416"><ele>76.0</ele><time>2026-03-23T16:00:14.001Z</time></trkpt><trkpt lat="33.32142083269489" lon="9.073804390411185"><ele>76.0</ele><time>2026-03-23T16:00:15.001Z</time></trkpt><trkpt lat="33.32136555978364" lon="9.073861707777896"><ele>76.0</ele><time>2026-03-23T16:00:16.001Z</time></trkpt><trkpt lat="33.3213171249054" lon="9.073924957876919"><ele>76.0</ele><time>2026-03-23T16:00:17.001Z</time></trkpt><trkpt lat="33.321273518904135" lon="9.074008403934295"><ele>76.0</ele><time>2026-03-23T16:00:18.001Z</time></trkpt><trkpt lat="33.321224104128966" lon="9.074098786020134"><ele>76.0</ele><time>2026-03-23T16:00:19.001Z</time></trkpt><trkpt lat="33.32116905555181" lon="9.074169709322604"><ele>76.0</ele><time>2026-03-23T16:00:20.001Z</time></trkpt><trkpt lat="33.32110505984982" lon="9.07423066468413"><ele>76.0</ele><time>2026-03-23T16:00:21.001Z</time></trkpt><trkpt lat="33.321052771697616" lon="9.074303637663721"><ele>76.0</ele><time>2026-03-23T16:00:22.001Z</time></trkpt><trkpt lat="33.320994224720685" lon="9.074391188708125"><ele>76.0</ele><time>2026-03-23T16:00:23.001Z</time></trkpt><trkpt lat="33.32093102146812" lon="9.074470097840694"><ele>76.0</ele><time>2026-03-23T16:00:24.001Z</time></trkpt><trkpt lat="33.320870192875724" lon="9.074550847632466"><ele>76.0</ele><time>2026-03-23T16:00:25.001Z</time></trkpt><trkpt lat="33.320811803789766" lon="9.074632270862294"><ele>76.0</ele><time>2026-03-23T16:00:26.001Z</time></trkpt><trkpt lat="33.32075857430657" lon="9.074700306965408"><ele>76.0</ele><time>2026-03-23T16:00:27.001Z</time></trkpt><trkpt lat="33.32070645016424" lon="9.074751226948285"><ele>76.0</ele><time>2026-03-23T16:00:28.001Z</time></trkpt><trkpt lat="33.32064329234945" lon="9.074801857601843"><ele>76.0</ele><time>2026-03-23T16:00:29.001Z</time></trkpt><trkpt lat="33.320578428774915" lon="9.0748570497384"><ele>76.16666666666666</ele><time>2026-03-23T16:00:30.001Z</time></trkpt><trkpt lat="33.32051896280623" lon="9.07490236259217"><ele>76.33333333333333</ele><time>2026-03-23T16:00:31.001Z</time></trkpt><trkpt lat="33.32045340786614" lon="9.074956303616782"><ele>76.5</ele><time>2026-03-23T16:00:32.001Z</time></trkpt><trkpt lat="33.32039066522822" lon="9.075008528057802"><ele>76.66666666666667</ele><time>2026-03-23T16:00:33.001Z</time></trkpt><trkpt lat="33.320324258865185" lon="9.075059210739544"><ele>76.83333333333334</ele><time>2026-03-23T16:00:34.001Z</time></trkpt><trkpt lat="33.32025804948445" lon="9.075101977744042"><ele>77.0</ele><time>2026-03-23T16:00:35.001Z</time></trkpt><trkpt lat="33.32019089663273" lon="9.075143996448457"><ele>77.0</ele><time>2026-03-23T16:00:36.001Z</time></trkpt><trkpt lat="33.32012030706903" lon="9.075184454008323"><ele>77.0</ele><time>2026-03-23T16:00:37.001Z</time></trkpt><trkpt lat="33.32004363518122" lon="9.075224794964631"><ele>77.0</ele><time>2026-03-23T16:00:38.001Z</time></trkpt><trkpt lat="33.319949207419256" lon="9.075293930570423"><ele>77.0</ele><time>2026-03-23T16:00:39.001Z</time></trkpt><trkpt lat="33.31988102655772" lon="9.075348715153059"><ele>77.0</ele><time>2026-03-23T16:00:40.001Z</time></trkpt><trkpt lat="33.319827942073275" lon="9.07541632232033"><ele>77.0</ele><time>2026-03-23T16:00:41.001Z</time></trkpt><trkpt lat="33.31977195271337" lon="9.075470813583157"><ele>77.16666666666667</ele><time>2026-03-23T16:00:42.001Z</time></trkpt><trkpt lat="33.319712059023885" lon="9.075510671200647"><ele>77.33333333333334</ele><time>2026-03-23T16:00:43.001Z</time></trkpt><trkpt lat="33.319615131491105" lon="9.07556445160718"><ele>77.5</ele><time>2026-03-23T16:00:45.001Z</time></trkpt><trkpt lat="33.31955272277158" lon="9.075612618163525"><ele>77.66666666666667</ele><time>2026-03-23T16:00:46.001Z</time></trkpt><trkpt lat="33.319482289875936" lon="9.07567190746375"><ele>77.83333333333333</ele><time>2026-03-23T16:00:47.001Z</time></trkpt><trkpt lat="33.319421017937096" lon="9.07571759729988"><ele>78.0</ele><time>2026-03-23T16:00:48.001Z</time></trkpt><trkpt lat="33.3193108705988" lon="9.07576636071958"><ele>78.2</ele><time>2026-03-23T16:00:50.001Z</time></trkpt><trkpt lat="33.31922047878366" lon="9.075810285827767"><ele>78.4</ele><time>2026-03-23T16:00:52.001Z</time></trkpt><trkpt lat="33.31911130569528" lon="9.07583511052597"><ele>78.60000000000001</ele><time>2026-03-23T16:00:54.001Z</time></trkpt><trkpt lat="33.318998393792235" lon="9.075854041917195"><ele>78.8</ele><time>2026-03-23T16:00:56.001Z</time></trkpt><trkpt lat="33.318902259580675" lon="9.07593243018525"><ele>79.0</ele><time>2026-03-23T16:00:58.001Z</time></trkpt><trkpt lat="33.318850210004115" lon="9.075992051352042"><ele>79.16666666666666</ele><time>2026-03-23T16:00:59.001Z</time></trkpt><trkpt lat="33.318797197807505" lon="9.076049608314015"><ele>79.33333333333333</ele><time>2026-03-23T16:01:00.001Z</time></trkpt><trkpt lat="33.31874445716009" lon="9.076107731109117"><ele>79.5</ele><time>2026-03-23T16:01:01.001Z</time></trkpt><trkpt lat="33.31868981439679" lon="9.076169617503892"><ele>79.66666666666667</ele><time>2026-03-23T16:01:02.001Z</time></trkpt><trkpt lat="33.31863638414832" lon="9.076246036800212"><ele>79.83333333333334</ele><time>2026-03-23T16:01:03.001Z</time></trkpt><trkpt lat="33.3185950497577" lon="9.076315536191322"><ele>80.0</ele><time>2026-03-23T16:01:04.001Z</time></trkpt><trkpt lat="33.31853452164427" lon="9.076389440998813"><ele>80.0</ele><time>2026-03-23T16:01:05.001Z</time></trkpt><trkpt lat="33.318474868033135" lon="9.076443068992093"><ele>80.0</ele><time>2026-03-23T16:01:06.001Z</time></trkpt><trkpt lat="33.31838337517086" lon="9.076505516346842"><ele>80.0</ele><time>2026-03-23T16:01:08.001Z</time></trkpt><trkpt lat="33.318280458511225" lon="9.076598632276028"><ele>80.0</ele><time>2026-03-23T16:01:10.001Z</time></trkpt><trkpt lat="33.318212389498356" lon="9.076658639059088"><ele>80.0</ele><time>2026-03-23T16:01:12.001Z</time></trkpt><trkpt lat="33.318180207665506" lon="9.076727060947064"><ele>80.0</ele><time>2026-03-23T16:01:15.001Z</time></trkpt><trkpt lat="33.31813554074754" lon="9.076794198943736"><ele>80.0</ele><time>2026-03-23T16:02:07.001Z</time></trkpt><trkpt lat="33.31806910786372" lon="9.076851283597602"><ele>80.0</ele><time>2026-03-23T16:02:09.001Z</time></trkpt><trkpt lat="33.318001328026845" lon="9.076870980775698"><ele>80.0</ele><time>2026-03-23T16:02:10.001Z</time></trkpt><trkpt lat="33.317881536121966" lon="9.076881288695235"><ele>80.0</ele><time>2026-03-23T16:02:12.001Z</time></trkpt><trkpt lat="33.31778261828304" lon="9.076881087610024"><ele>80.0</ele><time>2026-03-23T16:02:14.001Z</time></trkpt><trkpt lat="33.3176793070937" lon="9.076847934616552"><ele>80.0</ele><time>2026-03-23T16:02:16.001Z</time></trkpt><trkpt lat="33.31758179540751" lon="9.0768724545209"><ele>80.0</ele><time>2026-03-23T16:02:18.001Z</time></trkpt><trkpt lat="33.31750889819828" lon="9.076922766923296"><ele>80.0</ele><time>2026-03-23T16:02:20.001Z</time></trkpt><trkpt lat="33.31746708418881" lon="9.076982323610446"><ele>80.0</ele><time>2026-03-23T16:02:21.001Z</time></trkpt><trkpt lat="33.31742367264627" lon="9.077043866352"><ele>80.0</ele><time>2026-03-23T16:02:22.001Z</time></trkpt><trkpt lat="33.31732818784824" lon="9.077119671305448"><ele>80.0</ele><time>2026-03-23T16:02:24.001Z</time></trkpt><trkpt lat="33.31727052486904" lon="9.077159643412305"><ele>80.33333333333334</ele><time>2026-03-23T16:02:25.001Z</time></trkpt><trkpt lat="33.317210485827275" lon="9.077198600889506"><ele>80.66666666666667</ele><time>2026-03-23T16:02:26.001Z</time></trkpt><trkpt lat="33.31715166381423" lon="9.077226749162028"><ele>81.0</ele><time>2026-03-23T16:02:27.001Z</time></trkpt><trkpt lat="33.31704934904153" lon="9.07726627437165"><ele>81.33333333333333</ele><time>2026-03-23T16:02:29.001Z</time></trkpt><trkpt lat="33.31696228804872" lon="9.077275578397758"><ele>81.66666666666666</ele><time>2026-03-23T16:02:31.001Z</time></trkpt><trkpt lat="33.31688264336792" lon="9.077287431602121"><ele>82.0</ele><time>2026-03-23T16:02:33.001Z</time></trkpt><trkpt lat="33.316764521839076" lon="9.077298299527177"><ele>82.0</ele><time>2026-03-23T16:02:35.001Z</time></trkpt><trkpt lat="33.31666674507064" lon="9.07739094880334"><ele>82.0</ele><time>2026-03-23T16:02:37.001Z</time></trkpt><trkpt lat="33.31657410844407" lon="9.077518217164664"><ele>82.0</ele><time>2026-03-23T16:02:39.001Z</time></trkpt><trkpt lat="33.31653608444419" lon="9.07758527765611"><ele>82.0</ele><time>2026-03-23T16:02:40.001Z</time></trkpt><trkpt lat="33.31649252597877" lon="9.077648224204642"><ele>82.0</ele><time>2026-03-23T16:02:41.001Z</time></trkpt><trkpt lat="33.316443372615915" lon="9.077701752332345"><ele>82.19999999999999</ele><time>2026-03-23T16:02:42.001Z</time></trkpt><trkpt lat="33.316380055799186" lon="9.077770911926258"><ele>82.4</ele><time>2026-03-23T16:02:43.001Z</time></trkpt><trkpt lat="33.316312738590376" lon="9.077858081107278"><ele>82.6</ele><time>2026-03-23T16:02:44.001Z</time></trkpt><trkpt lat="33.316232213354766" lon="9.077960257094496"><ele>82.80000000000001</ele><time>2026-03-23T16:02:45.001Z</time></trkpt><trkpt lat="33.316138521120244" lon="9.078052643377175"><ele>83.0</ele><time>2026-03-23T16:02:46.001Z</time></trkpt><trkpt lat="33.3160393542171" lon="9.078132715372302"><ele>83.0</ele><time>2026-03-23T16:02:47.001Z</time></trkpt><trkpt lat="33.31592885803939" lon="9.078214157478916"><ele>83.0</ele><time>2026-03-23T16:02:48.001Z</time></trkpt><trkpt lat="33.31580509557031" lon="9.078294424714239"><ele>83.0</ele><time>2026-03-23T16:02:49.001Z</time></trkpt><trkpt lat="33.315691886401815" lon="9.078373093313559"><ele>83.0</ele><time>2026-03-23T16:02:50.001Z</time></trkpt><trkpt lat="33.315595671297665" lon="9.078448067437261"><ele>82.5</ele><time>2026-03-23T16:02:51.001Z</time></trkpt><trkpt lat="33.31551282312504" lon="9.078515685501587"><ele>82.0</ele><time>2026-03-23T16:02:52.001Z</time></trkpt><trkpt lat="33.31543321135883" lon="9.078568132316388"><ele>81.5</ele><time>2026-03-23T16:02:53.001Z</time></trkpt><trkpt lat="33.31535903645128" lon="9.078593382493223"><ele>81.0</ele><time>2026-03-23T16:02:54.001Z</time></trkpt><trkpt lat="33.31529396877281" lon="9.078597761996638"><ele>80.5</ele><time>2026-03-23T16:02:55.001Z</time></trkpt><trkpt lat="33.315224217921916" lon="9.07859644703952"><ele>80.0</ele><time>2026-03-23T16:02:56.001Z</time></trkpt><trkpt lat="33.315150361955595" lon="9.078598123812933"><ele>80.0</ele><time>2026-03-23T16:02:57.001Z</time></trkpt><trkpt lat="33.31507132029821" lon="9.0786234669399"><ele>80.0</ele><time>2026-03-23T16:02:58.001Z</time></trkpt><trkpt lat="33.314998131687005" lon="9.078664481317256"><ele>80.0</ele><time>2026-03-23T16:02:59.001Z</time></trkpt><trkpt lat="33.31492685485534" lon="9.078711319862743"><ele>80.0</ele><time>2026-03-23T16:03:00.001Z</time></trkpt><trkpt lat="33.3148498020425" lon="9.078751825207164"><ele>80.0</ele><time>2026-03-23T16:03:01.001Z</time></trkpt><trkpt lat="33.31476156664934" lon="9.078778806606104"><ele>80.0</ele><time>2026-03-23T16:03:02.001Z</time></trkpt><trkpt lat="33.31466927905227" lon="9.078797154293527"><ele>79.66666666666667</ele><time>2026-03-23T16:03:03.001Z</time></trkpt><trkpt lat="33.3145817117032" lon="9.078821806580109"><ele>79.33333333333334</ele><time>2026-03-23T16:03:04.001Z</time></trkpt><trkpt lat="33.3144957827483" lon="9.07886036646082"><ele>79.0</ele><time>2026-03-23T16:03:05.001Z</time></trkpt><trkpt lat="33.31443035024989" lon="9.07889790237588"><ele>78.66666666666667</ele><time>2026-03-23T16:03:06.001Z</time></trkpt><trkpt lat="33.31437116822356" lon="9.07892942262638"><ele>78.33333333333333</ele><time>2026-03-23T16:03:07.001Z</time></trkpt><trkpt lat="33.31430989297412" lon="9.078955683032644"><ele>78.0</ele><time>2026-03-23T16:03:08.001Z</time></trkpt><trkpt lat="33.314237600162905" lon="9.078983080318876"><ele>78.0</ele><time>2026-03-23T16:03:09.001Z</time></trkpt><trkpt lat="33.314163874083" lon="9.079001600348944"><ele>78.0</ele><time>2026-03-23T16:03:10.001Z</time></trkpt><trkpt lat="33.31409164740297" lon="9.07901982952861"><ele>78.0</ele><time>2026-03-23T16:03:11.001Z</time></trkpt><trkpt lat="33.31402696894469" lon="9.079033584199815"><ele>78.0</ele><time>2026-03-23T16:03:12.001Z</time></trkpt><trkpt lat="33.3139607106186" lon="9.079040392758497"><ele>78.0</ele><time>2026-03-23T16:03:13.001Z</time></trkpt><trkpt lat="33.31384814811904" lon="9.079065550829494"><ele>78.0</ele><time>2026-03-23T16:03:15.001Z</time></trkpt><trkpt lat="33.313780301470175" lon="9.079105516512557"><ele>78.0</ele><time>2026-03-23T16:03:16.001Z</time></trkpt><trkpt lat="33.313718492880774" lon="9.07914516590406"><ele>78.0</ele><time>2026-03-23T16:03:17.001Z</time></trkpt><trkpt lat="33.31360436796276" lon="9.079163777212903"><ele>78.0</ele><time>2026-03-23T16:03:19.001Z</time></trkpt><trkpt lat="33.31349983044722" lon="9.07922782067591"><ele>78.0</ele><time>2026-03-23T16:03:21.001Z</time></trkpt><trkpt lat="33.313465279821585" lon="9.079294578625543"><ele>78.0</ele><time>2026-03-23T16:03:22.001Z</time></trkpt><trkpt lat="33.31343888700277" lon="9.07937034628106"><ele>78.0</ele><time>2026-03-23T16:03:23.001Z</time></trkpt><trkpt lat="33.313403355744455" lon="9.079491439568809"><ele>78.0</ele><time>2026-03-23T16:03:25.001Z</time></trkpt><trkpt lat="33.31334770726847" lon="9.07955047982685"><ele>78.0</ele><time>2026-03-23T16:03:27.001Z</time></trkpt><trkpt lat="33.31326574641999" lon="9.079578801633408"><ele>78.0</ele><time>2026-03-23T16:03:29.001Z</time></trkpt><trkpt lat="33.31316827402124" lon="9.079568589202184"><ele>78.0</ele><time>2026-03-23T16:03:31.001Z</time></trkpt><trkpt lat="33.31307691646048" lon="9.079609764343248"><ele>78.0</ele><time>2026-03-23T16:03:33.001Z</time></trkpt><trkpt lat="33.31298731492982" lon="9.07966415814375"><ele>78.5</ele><time>2026-03-23T16:03:35.001Z</time></trkpt><trkpt lat="33.3129109030678" lon="9.079745907055214"><ele>79.0</ele><time>2026-03-23T16:03:37.001Z</time></trkpt><trkpt lat="33.31282878235948" lon="9.079789857505043"><ele>79.5</ele><time>2026-03-23T16:03:39.002Z</time></trkpt><trkpt lat="33.31275942578623" lon="9.079777956620244"><ele>80.0</ele><time>2026-03-23T16:03:41.002Z</time></trkpt><trkpt lat="33.312695312634496" lon="9.079784134932776"><ele>80.5</ele><time>2026-03-23T16:03:42.002Z</time></trkpt><trkpt lat="33.31262405577037" lon="9.079800698093388"><ele>81.0</ele><time>2026-03-23T16:03:43.002Z</time></trkpt><trkpt lat="33.312512291647664" lon="9.079836447653486"><ele>81.0</ele><time>2026-03-23T16:03:45.002Z</time></trkpt><trkpt lat="33.31243299905602" lon="9.079833157504035"><ele>81.0</ele><time>2026-03-23T16:03:49.002Z</time></trkpt><trkpt lat="33.31236570189134" lon="9.079836302462303"><ele>81.0</ele><time>2026-03-23T16:03:51.002Z</time></trkpt><trkpt lat="33.312289044924874" lon="9.079836685909747"><ele>81.0</ele><time>2026-03-23T16:03:53.002Z</time></trkpt><trkpt lat="33.312158199644166" lon="9.079821057457888"><ele>81.0</ele><time>2026-03-23T16:03:55.002Z</time></trkpt><trkpt lat="33.31206115336873" lon="9.079817027446476"><ele>80.8</ele><time>2026-03-23T16:03:56.002Z</time></trkpt><trkpt lat="33.311971514267455" lon="9.079826413602472"><ele>80.6</ele><time>2026-03-23T16:03:57.002Z</time></trkpt><trkpt lat="33.31188506074486" lon="9.079846284276316"><ele>80.4</ele><time>2026-03-23T16:03:58.002Z</time></trkpt><trkpt lat="33.31179496817618" lon="9.079857779727666"><ele>80.2</ele><time>2026-03-23T16:03:59.002Z</time></trkpt><trkpt lat="33.31170546917531" lon="9.079869844577454"><ele>80.0</ele><time>2026-03-23T16:04:00.002Z</time></trkpt><trkpt lat="33.31161040001274" lon="9.079880823650848"><ele>80.0</ele><time>2026-03-23T16:04:01.002Z</time></trkpt><trkpt lat="33.31151431735744" lon="9.079883864172963"><ele>80.0</ele><time>2026-03-23T16:04:02.002Z</time></trkpt><trkpt lat="33.31141426954679" lon="9.079883347165305"><ele>80.0</ele><time>2026-03-23T16:04:03.002Z</time></trkpt><trkpt lat="33.311319827130866" lon="9.079877058395882"><ele>80.0</ele><time>2026-03-23T16:04:04Z</time></trkpt><trkpt lat="33.31122818249553" lon="9.07986911808301"><ele>80.0</ele><time>2026-03-23T16:04:05Z</time></trkpt><trkpt lat="33.31113991830131" lon="9.079865493680964"><ele>80.2</ele><time>2026-03-23T16:04:06Z</time></trkpt><trkpt lat="33.31106518097956" lon="9.079874020427782"><ele>80.4</ele><time>2026-03-23T16:04:07Z</time></trkpt><trkpt lat="33.3109797212124" lon="9.079894166789831"><ele>80.6</ele><time>2026-03-23T16:04:08Z</time></trkpt><trkpt lat="33.31088986706165" lon="9.079904183832763"><ele>80.8</ele><time>2026-03-23T16:04:09Z</time></trkpt><trkpt lat="33.310791164977395" lon="9.079902552990635"><ele>81.0</ele><time>2026-03-23T16:04:10Z</time></trkpt><trkpt lat="33.31068834147372" lon="9.079892294174604"><ele>81.0</ele><time>2026-03-23T16:04:11Z</time></trkpt><trkpt lat="33.31057617030373" lon="9.07987605285412"><ele>81.0</ele><time>2026-03-23T16:04:12Z</time></trkpt><trkpt lat="33.310453414462145" lon="9.07986931059196"><ele>81.0</ele><time>2026-03-23T16:04:13Z</time></trkpt><trkpt lat="33.31032334846634" lon="9.079877683910915"><ele>81.0</ele><time>2026-03-23T16:04:14Z</time></trkpt><trkpt lat="33.31018280667975" lon="9.079899360350385"><ele>80.75</ele><time>2026-03-23T16:04:15Z</time></trkpt><trkpt lat="33.3100485237716" lon="9.079921403440872"><ele>80.5</ele><time>2026-03-23T16:04:16Z</time></trkpt><trkpt lat="33.30992368135075" lon="9.079949673826064"><ele>80.25</ele><time>2026-03-23T16:04:17Z</time></trkpt><trkpt lat="33.30981084754612" lon="9.079979748631402"><ele>80.0</ele><time>2026-03-23T16:04:18Z</time></trkpt><trkpt lat="33.30971740449303" lon="9.080015648840666"><ele>79.66666666666667</ele><time>2026-03-23T16:04:19Z</time></trkpt><trkpt lat="33.309641576168744" lon="9.08005465886057"><ele>79.33333333333334</ele><time>2026-03-23T16:04:20Z</time></trkpt><trkpt lat="33.30957041829876" lon="9.080101443663269"><ele>79.0</ele><time>2026-03-23T16:04:21Z</time></trkpt><trkpt lat="33.30951964352998" lon="9.080154558295737"><ele>78.66666666666667</ele><time>2026-03-23T16:04:22Z</time></trkpt><trkpt lat="33.309464849133676" lon="9.080208152623296"><ele>78.33333333333333</ele><time>2026-03-23T16:04:23Z</time></trkpt><trkpt lat="33.309370836763314" lon="9.080297325500396"><ele>78.0</ele><time>2026-03-23T16:04:25Z</time></trkpt><trkpt lat="33.30926191879628" lon="9.080419303397349"><ele>78.0</ele><time>2026-03-23T16:04:27Z</time></trkpt><trkpt lat="33.309186472185914" lon="9.080501939757385"><ele>78.0</ele><time>2026-03-23T16:04:28Z</time></trkpt><trkpt lat="33.30910490965235" lon="9.080589404754187"><ele>78.0</ele><time>2026-03-23T16:04:29Z</time></trkpt><trkpt lat="33.30902471533682" lon="9.080669470416286"><ele>78.0</ele><time>2026-03-23T16:04:30Z</time></trkpt><trkpt lat="33.308937437695256" lon="9.08074517291684"><ele>78.0</ele><time>2026-03-23T16:04:31Z</time></trkpt><trkpt lat="33.3088599156943" lon="9.080813215244607"><ele>78.16666666666667</ele><time>2026-03-23T16:04:32Z</time></trkpt><trkpt lat="33.30879035549407" lon="9.080866048692023"><ele>78.33333333333333</ele><time>2026-03-23T16:04:33Z</time></trkpt><trkpt lat="33.308721160000374" lon="9.080915220669677"><ele>78.5</ele><time>2026-03-23T16:04:34Z</time></trkpt><trkpt lat="33.30864922355905" lon="9.080960978539299"><ele>78.66666666666666</ele><time>2026-03-23T16:04:35Z</time></trkpt><trkpt lat="33.308576954740566" lon="9.081006066900118"><ele>78.83333333333333</ele><time>2026-03-23T16:04:36Z</time></trkpt><trkpt lat="33.308504754383385" lon="9.08105162232359"><ele>79.0</ele><time>2026-03-23T16:04:37.001Z</time></trkpt><trkpt lat="33.30845198260061" lon="9.081095992171624"><ele>79.0</ele><time>2026-03-23T16:04:38.001Z</time></trkpt><trkpt lat="33.30840300727448" lon="9.081152639403406"><ele>79.0</ele><time>2026-03-23T16:04:39.001Z</time></trkpt><trkpt lat="33.308337524293826" lon="9.081261915244605"><ele>79.0</ele><time>2026-03-23T16:04:41.001Z</time></trkpt><trkpt lat="33.3082978624756" lon="9.081336210615511"><ele>79.0</ele><time>2026-03-23T16:04:42.001Z</time></trkpt><trkpt lat="33.30824806780617" lon="9.081407470905782"><ele>79.0</ele><time>2026-03-23T16:04:43.001Z</time></trkpt><trkpt lat="33.30820135641772" lon="9.081481009747016"><ele>79.0</ele><time>2026-03-23T16:04:44.001Z</time></trkpt><trkpt lat="33.308152169465934" lon="9.081552818905983"><ele>79.16666666666666</ele><time>2026-03-23T16:04:45.001Z</time></trkpt><trkpt lat="33.308105857107776" lon="9.081617719331094"><ele>79.33333333333333</ele><time>2026-03-23T16:04:46.001Z</time></trkpt><trkpt lat="33.307995747576555" lon="9.081707604826903"><ele>79.5</ele><time>2026-03-23T16:04:48.001Z</time></trkpt><trkpt lat="33.30793096235323" lon="9.081739526981995"><ele>79.66666666666667</ele><time>2026-03-23T16:04:49.001Z</time></trkpt><trkpt lat="33.30786371513541" lon="9.081755974933936"><ele>79.83333333333334</ele><time>2026-03-23T16:04:50.001Z</time></trkpt><trkpt lat="33.30777685260247" lon="9.081776017842929"><ele>80.0</ele><time>2026-03-23T16:04:51.001Z</time></trkpt><trkpt lat="33.30767100835917" lon="9.08180863651942"><ele>80.0</ele><time>2026-03-23T16:04:52.001Z</time></trkpt><trkpt lat="33.30755743536898" lon="9.081861990110067"><ele>80.0</ele><time>2026-03-23T16:04:53.001Z</time></trkpt><trkpt lat="33.30744227616989" lon="9.081918332532796"><ele>80.0</ele><time>2026-03-23T16:04:54.001Z</time></trkpt><trkpt lat="33.30732511639215" lon="9.081963158569332"><ele>80.0</ele><time>2026-03-23T16:04:55.001Z</time></trkpt><trkpt lat="33.30721196934023" lon="9.081997185774169"><ele>79.4</ele><time>2026-03-23T16:04:56.001Z</time></trkpt><trkpt lat="33.3070981038962" lon="9.082039883897677"><ele>78.8</ele><time>2026-03-23T16:04:57.001Z</time></trkpt><trkpt lat="33.3070036427029" lon="9.08208752513276"><ele>78.2</ele><time>2026-03-23T16:04:58.001Z</time></trkpt><trkpt lat="33.30691633570297" lon="9.082146146679376"><ele>77.6</ele><time>2026-03-23T16:04:59.001Z</time></trkpt><trkpt lat="33.30683314430956" lon="9.082206093696518"><ele>77.0</ele><time>2026-03-23T16:05:00.001Z</time></trkpt><trkpt lat="33.306760547049386" lon="9.082271580634147"><ele>77.0</ele><time>2026-03-23T16:05:01.001Z</time></trkpt><trkpt lat="33.306690964830494" lon="9.082337259659148"><ele>77.0</ele><time>2026-03-23T16:05:02.001Z</time></trkpt><trkpt lat="33.30661433320445" lon="9.082392327013341"><ele>77.0</ele><time>2026-03-23T16:05:03.001Z</time></trkpt><trkpt lat="33.306526460452176" lon="9.082445014897015"><ele>77.0</ele><time>2026-03-23T16:05:04.001Z</time></trkpt><trkpt lat="33.306456648240044" lon="9.08247929869421"><ele>77.0</ele><time>2026-03-23T16:05:05.001Z</time></trkpt><trkpt lat="33.30635120577021" lon="9.08252481335246"><ele>77.2</ele><time>2026-03-23T16:05:07.001Z</time></trkpt><trkpt lat="33.30625526935562" lon="9.082604210800124"><ele>77.4</ele><time>2026-03-23T16:05:09.001Z</time></trkpt><trkpt lat="33.30620859813325" lon="9.082663952600505"><ele>77.6</ele><time>2026-03-23T16:05:10.001Z</time></trkpt><trkpt lat="33.30615939352373" lon="9.082732184186188"><ele>77.8</ele><time>2026-03-23T16:05:11.001Z</time></trkpt><trkpt lat="33.306101582219604" lon="9.082822087483246"><ele>78.0</ele><time>2026-03-23T16:05:12.001Z</time></trkpt><trkpt lat="33.306055757376726" lon="9.082925910779947"><ele>78.0</ele><time>2026-03-23T16:05:13.001Z</time></trkpt><trkpt lat="33.30602535805524" lon="9.083039787889751"><ele>78.0</ele><time>2026-03-23T16:05:14.001Z</time></trkpt><trkpt lat="33.306006025920325" lon="9.083163440609344"><ele>78.0</ele><time>2026-03-23T16:05:15.001Z</time></trkpt><trkpt lat="33.30598938003054" lon="9.08327775044835"><ele>78.0</ele><time>2026-03-23T16:05:16.001Z</time></trkpt><trkpt lat="33.305969161424954" lon="9.083363850983499"><ele>78.0</ele><time>2026-03-23T16:05:17.001Z</time></trkpt><trkpt lat="33.30593804628326" lon="9.083512801954912"><ele>77.83333333333333</ele><time>2026-03-23T16:05:19.001Z</time></trkpt><trkpt lat="33.305916732265224" lon="9.083606196926379"><ele>77.66666666666667</ele><time>2026-03-23T16:05:20.001Z</time></trkpt><trkpt lat="33.30589719134897" lon="9.083702379487809"><ele>77.5</ele><time>2026-03-23T16:05:21.001Z</time></trkpt><trkpt lat="33.30590024411715" lon="9.083785011831514"><ele>77.33333333333334</ele><time>2026-03-23T16:05:22.001Z</time></trkpt><trkpt lat="33.305922311178286" lon="9.083860310761033"><ele>77.16666666666667</ele><time>2026-03-23T16:05:23.001Z</time></trkpt><trkpt lat="33.30594113805554" lon="9.083935357207492"><ele>77.0</ele><time>2026-03-23T16:05:24.001Z</time></trkpt><trkpt lat="33.30593417607751" lon="9.084064683764701"><ele>77.4</ele><time>2026-03-23T16:05:26.001Z</time></trkpt><trkpt lat="33.30592539356132" lon="9.084147302605567"><ele>77.80000000000001</ele><time>2026-03-23T16:05:27.001Z</time></trkpt><trkpt lat="33.305917626619646" lon="9.084254340349428"><ele>78.2</ele><time>2026-03-23T16:05:28.001Z</time></trkpt><trkpt lat="33.30590726708712" lon="9.084377854934054"><ele>78.60000000000001</ele><time>2026-03-23T16:05:29.001Z</time></trkpt><trkpt lat="33.30589022906554" lon="9.08450519219546"><ele>79.0</ele><time>2026-03-23T16:05:30.001Z</time></trkpt><trkpt lat="33.30587341038207" lon="9.084629893686383"><ele>79.00000000000001</ele><time>2026-03-23T16:05:31.001Z</time></trkpt><trkpt lat="33.305860309064485" lon="9.084733111181707"><ele>79.0</ele><time>2026-03-23T16:05:32.001Z</time></trkpt><trkpt lat="33.305844107798414" lon="9.084821550404996"><ele>79.0</ele><time>2026-03-23T16:05:33.001Z</time></trkpt><trkpt lat="33.30582342811211" lon="9.084909778520093"><ele>79.0</ele><time>2026-03-23T16:05:34.001Z</time></trkpt><trkpt lat="33.305805744495416" lon="9.084986480483305"><ele>79.0</ele><time>2026-03-23T16:05:35.001Z</time></trkpt><trkpt lat="33.30579291588443" lon="9.085066756000842"><ele>79.00000000000001</ele><time>2026-03-23T16:05:37.001Z</time></trkpt><trkpt lat="33.305786717013184" lon="9.085144214452287"><ele>79.0</ele><time>2026-03-23T16:05:40.001Z</time></trkpt><trkpt lat="33.30578750382775" lon="9.085225262668088"><ele>79.0</ele><time>2026-03-23T16:05:42.001Z</time></trkpt><trkpt lat="33.305757207227295" lon="9.085435082840611"><ele>79.0</ele><time>2026-03-23T16:08:00.001Z</time></trkpt><trkpt lat="33.30575316546512" lon="9.08554078666541"><ele>79.0</ele><time>2026-03-23T16:08:01.001Z</time></trkpt><trkpt lat="33.305736928511905" lon="9.085657344907107"><ele>79.0</ele><time>2026-03-23T16:08:02.001Z</time></trkpt><trkpt lat="33.30571592653618" lon="9.085769137387402"><ele>79.0</ele><time>2026-03-23T16:08:03.001Z</time></trkpt><trkpt lat="33.305684356409714" lon="9.085889530669242"><ele>79.0</ele><time>2026-03-23T16:08:04.001Z</time></trkpt><trkpt lat="33.305655156057014" lon="9.086004967249247"><ele>79.0</ele><time>2026-03-23T16:08:05.001Z</time></trkpt><trkpt lat="33.30563142169104" lon="9.086114365213373"><ele>79.0</ele><time>2026-03-23T16:08:06.001Z</time></trkpt><trkpt lat="33.305607857088084" lon="9.086227133655235"><ele>79.0</ele><time>2026-03-23T16:08:07.001Z</time></trkpt><trkpt lat="33.30557490110559" lon="9.086359710270344"><ele>79.66666666666666</ele><time>2026-03-23T16:08:08.001Z</time></trkpt><trkpt lat="33.30553603303991" lon="9.086520499501157"><ele>80.33333333333333</ele><time>2026-03-23T16:08:09.001Z</time></trkpt><trkpt lat="33.30549299477266" lon="9.086700176134384"><ele>81.0</ele><time>2026-03-23T16:08:10.001Z</time></trkpt><trkpt lat="33.305444651358975" lon="9.086893010950341"><ele>81.66666666666667</ele><time>2026-03-23T16:08:11.001Z</time></trkpt><trkpt lat="33.305392741801086" lon="9.087085665688171"><ele>82.33333333333334</ele><time>2026-03-23T16:08:12.001Z</time></trkpt><trkpt lat="33.305336553277655" lon="9.087267119813621"><ele>83.0</ele><time>2026-03-23T16:08:13.001Z</time></trkpt><trkpt lat="33.305282334435944" lon="9.087416504308468"><ele>82.25</ele><time>2026-03-23T16:08:14.001Z</time></trkpt><trkpt lat="33.30523276724113" lon="9.08756122556707"><ele>81.5</ele><time>2026-03-23T16:08:15.001Z</time></trkpt><trkpt lat="33.305180851160095" lon="9.087704548827983"><ele>80.75</ele><time>2026-03-23T16:08:16.001Z</time></trkpt><trkpt lat="33.30512057816557" lon="9.087847831491159"><ele>80.0</ele><time>2026-03-23T16:08:17.001Z</time></trkpt><trkpt lat="33.305050167217416" lon="9.087991913813331"><ele>80.0</ele><time>2026-03-23T16:08:18.001Z</time></trkpt><trkpt lat="33.30496598775049" lon="9.088138936138611"><ele>80.0</ele><time>2026-03-23T16:08:19.001Z</time></trkpt><trkpt lat="33.304874921540105" lon="9.088281347838382"><ele>80.0</ele><time>2026-03-23T16:08:20.001Z</time></trkpt><trkpt lat="33.304801361134494" lon="9.088409367081944"><ele>80.0</ele><time>2026-03-23T16:08:21.001Z</time></trkpt><trkpt lat="33.30474310420182" lon="9.088528448447798"><ele>80.4</ele><time>2026-03-23T16:08:22.001Z</time></trkpt><trkpt lat="33.30469917476889" lon="9.08863659003692"><ele>80.8</ele><time>2026-03-23T16:08:23.001Z</time></trkpt><trkpt lat="33.30466513639308" lon="9.088725825313974"><ele>81.19999999999999</ele><time>2026-03-23T16:08:24.001Z</time></trkpt><trkpt lat="33.30463319990075" lon="9.088801057531837"><ele>81.6</ele><time>2026-03-23T16:08:25.001Z</time></trkpt><trkpt lat="33.304578260902545" lon="9.08891145924529"><ele>82.0</ele><time>2026-03-23T16:08:27.001Z</time></trkpt><trkpt lat="33.30455163688871" lon="9.089021193159033"><ele>82.25</ele><time>2026-03-23T16:09:19.001Z</time></trkpt><trkpt lat="33.304536147331575" lon="9.08912051720288"><ele>82.5</ele><time>2026-03-23T16:09:20.001Z</time></trkpt><trkpt lat="33.30450652554086" lon="9.089232481308379"><ele>82.75</ele><time>2026-03-23T16:09:21.001Z</time></trkpt><trkpt lat="33.304481661614346" lon="9.089368121494767"><ele>83.0</ele><time>2026-03-23T16:09:22.001Z</time></trkpt><trkpt lat="33.30433242730648" lon="9.089298006649413"><ele>83.0</ele><time>2026-03-23T16:09:23.001Z</time></trkpt><trkpt lat="33.30425633232341" lon="9.089412536831325"><ele>83.0</ele><time>2026-03-23T16:09:24.001Z</time></trkpt><trkpt lat="33.30419337837471" lon="9.089511876370866"><ele>83.0</ele><time>2026-03-23T16:09:25.001Z</time></trkpt><trkpt lat="33.30413656561034" lon="9.089581826066174"><ele>83.0</ele><time>2026-03-23T16:09:26.001Z</time></trkpt><trkpt lat="33.30408116376734" lon="9.08963710541867"><ele>83.0</ele><time>2026-03-23T16:09:27.001Z</time></trkpt><trkpt lat="33.304028918455906" lon="9.089683009964611"><ele>83.0</ele><time>2026-03-23T16:09:28.001Z</time></trkpt><trkpt lat="33.30396761537058" lon="9.089737936238347"><ele>83.16666666666667</ele><time>2026-03-23T16:09:29.001Z</time></trkpt><trkpt lat="33.30390390836874" lon="9.08979790452904"><ele>83.33333333333334</ele><time>2026-03-23T16:09:30.001Z</time></trkpt><trkpt lat="33.3038393851775" lon="9.089854845210839"><ele>83.5</ele><time>2026-03-23T16:09:31.001Z</time></trkpt><trkpt lat="33.30377317847967" lon="9.089910410828123"><ele>83.66666666666667</ele><time>2026-03-23T16:09:32.001Z</time></trkpt><trkpt lat="33.30370473867399" lon="9.0899694075862"><ele>83.83333333333333</ele><time>2026-03-23T16:09:33.001Z</time></trkpt><trkpt lat="33.30364727540719" lon="9.090026788156464"><ele>84.0</ele><time>2026-03-23T16:09:34.001Z</time></trkpt><trkpt lat="33.30356413474331" lon="9.090126848502075"><ele>84.0</ele><time>2026-03-23T16:09:36.001Z</time></trkpt><trkpt lat="33.3035167072868" lon="9.090182660483844"><ele>84.0</ele><time>2026-03-23T16:09:37.001Z</time></trkpt><trkpt lat="33.303426880795485" lon="9.090252422703493"><ele>84.0</ele><time>2026-03-23T16:09:39.001Z</time></trkpt><trkpt lat="33.30334067926546" lon="9.090337166620964"><ele>84.0</ele><time>2026-03-23T16:09:41.001Z</time></trkpt><trkpt lat="33.303263935619086" lon="9.090437025568662"><ele>84.0</ele><time>2026-03-23T16:09:43.001Z</time></trkpt><trkpt lat="33.30321400919304" lon="9.090497446968492"><ele>84.0</ele><time>2026-03-23T16:09:44.001Z</time></trkpt><trkpt lat="33.30312668784139" lon="9.090609439544087"><ele>84.0</ele><time>2026-03-23T16:09:46.001Z</time></trkpt><trkpt lat="33.303081743949136" lon="9.090663393887024"><ele>84.0</ele><time>2026-03-23T16:09:47.001Z</time></trkpt><trkpt lat="33.303027548072386" lon="9.090719350141779"><ele>84.0</ele><time>2026-03-23T16:09:48.001Z</time></trkpt><trkpt lat="33.30293604083248" lon="9.090799356787596"><ele>84.0</ele><time>2026-03-23T16:09:50.001Z</time></trkpt><trkpt lat="33.302844705379584" lon="9.090864997194801"><ele>83.71428571428571</ele><time>2026-03-23T16:09:52.001Z</time></trkpt><trkpt lat="33.30276912795287" lon="9.090902794432413"><ele>83.42857142857143</ele><time>2026-03-23T16:09:53.001Z</time></trkpt><trkpt lat="33.30270491483029" lon="9.090936920488824"><ele>83.14285714285714</ele><time>2026-03-23T16:09:54.001Z</time></trkpt><trkpt lat="33.302649186166" lon="9.090972789043398"><ele>82.85714285714286</ele><time>2026-03-23T16:09:55.001Z</time></trkpt><trkpt lat="33.30258506693094" lon="9.091022373652486"><ele>82.57142857142857</ele><time>2026-03-23T16:09:56.001Z</time></trkpt><trkpt lat="33.302522096261015" lon="9.091073812408263"><ele>82.28571428571428</ele><time>2026-03-23T16:09:57.001Z</time></trkpt><trkpt lat="33.302466266566846" lon="9.091126211578556"><ele>82.0</ele><time>2026-03-23T16:09:58.001Z</time></trkpt><trkpt lat="33.302397894890476" lon="9.091172829003169"><ele>82.0</ele><time>2026-03-23T16:09:59.001Z</time></trkpt><trkpt lat="33.302312262360196" lon="9.091218901341138"><ele>82.0</ele><time>2026-03-23T16:10:00.001Z</time></trkpt><trkpt lat="33.30222800699351" lon="9.09126564318676"><ele>82.0</ele><time>2026-03-23T16:10:01.001Z</time></trkpt><trkpt lat="33.302150483364855" lon="9.091313870646765"><ele>82.0</ele><time>2026-03-23T16:10:02.001Z</time></trkpt><trkpt lat="33.30207779737445" lon="9.091365635553363"><ele>82.0</ele><time>2026-03-23T16:10:03.001Z</time></trkpt><trkpt lat="33.30200116590907" lon="9.091419200221306"><ele>82.0</ele><time>2026-03-23T16:10:04.001Z</time></trkpt><trkpt lat="33.30192890632584" lon="9.091480276958407"><ele>81.8</ele><time>2026-03-23T16:10:05.001Z</time></trkpt><trkpt lat="33.301854492049685" lon="9.091543216503098"><ele>81.6</ele><time>2026-03-23T16:10:06.001Z</time></trkpt><trkpt lat="33.30178095319343" lon="9.09160977964177"><ele>81.39999999999999</ele><time>2026-03-23T16:10:07.001Z</time></trkpt><trkpt lat="33.30171167569862" lon="9.091678072619715"><ele>81.19999999999999</ele><time>2026-03-23T16:10:08.001Z</time></trkpt><trkpt lat="33.30163382404959" lon="9.091747850970316"><ele>81.0</ele><time>2026-03-23T16:10:09.001Z</time></trkpt><trkpt lat="33.30155543498792" lon="9.091822211144844"><ele>81.0</ele><time>2026-03-23T16:10:10.001Z</time></trkpt><trkpt lat="33.301478317042346" lon="9.091901444772903"><ele>81.0</ele><time>2026-03-23T16:10:11.001Z</time></trkpt><trkpt lat="33.30139281912982" lon="9.091985494016965"><ele>81.0</ele><time>2026-03-23T16:10:12.001Z</time></trkpt><trkpt lat="33.301306168188916" lon="9.092077117641757"><ele>81.0</ele><time>2026-03-23T16:10:13.001Z</time></trkpt><trkpt lat="33.30121298820655" lon="9.092165285497614"><ele>81.0</ele><time>2026-03-23T16:10:14.001Z</time></trkpt><trkpt lat="33.30111347759091" lon="9.092246686437674"><ele>81.0</ele><time>2026-03-23T16:10:15.001Z</time></trkpt><trkpt lat="33.30102148990522" lon="9.092316284518954"><ele>81.0</ele><time>2026-03-23T16:10:16.001Z</time></trkpt><trkpt lat="33.30094192865361" lon="9.0923676410915"><ele>81.0</ele><time>2026-03-23T16:10:17.001Z</time></trkpt><trkpt lat="33.300866703220166" lon="9.092413001874899"><ele>81.0</ele><time>2026-03-23T16:10:18.001Z</time></trkpt><trkpt lat="33.30079172402942" lon="9.092454059466782"><ele>81.0</ele><time>2026-03-23T16:10:19.001Z</time></trkpt><trkpt lat="33.30072475735585" lon="9.092500919380905"><ele>81.0</ele><time>2026-03-23T16:10:20.001Z</time></trkpt><trkpt lat="33.30065712588304" lon="9.092556863702661"><ele>81.6</ele><time>2026-03-23T16:10:21.001Z</time></trkpt><trkpt lat="33.30058682771643" lon="9.092627784551107"><ele>82.19999999999999</ele><time>2026-03-23T16:10:22.001Z</time></trkpt><trkpt lat="33.30051277536388" lon="9.092703215577654"><ele>82.80000000000001</ele><time>2026-03-23T16:10:23.001Z</time></trkpt><trkpt lat="33.30044697797026" lon="9.09277785748532"><ele>83.4</ele><time>2026-03-23T16:10:24.001Z</time></trkpt><trkpt lat="33.30037927544458" lon="9.092857419844362"><ele>84.0</ele><time>2026-03-23T16:10:25.001Z</time></trkpt><trkpt lat="33.30030966895101" lon="9.092937547860037"><ele>84.0</ele><time>2026-03-23T16:10:26.001Z</time></trkpt><trkpt lat="33.30024419117516" lon="9.093010366698564"><ele>84.0</ele><time>2026-03-23T16:10:27.001Z</time></trkpt><trkpt lat="33.30017278200882" lon="9.093086555659568"><ele>84.0</ele><time>2026-03-23T16:10:28.001Z</time></trkpt><trkpt lat="33.300105276719165" lon="9.093169559201245"><ele>84.0</ele><time>2026-03-23T16:10:29.001Z</time></trkpt><trkpt lat="33.30004739838097" lon="9.093251735745904"><ele>84.0</ele><time>2026-03-23T16:10:30.001Z</time></trkpt><trkpt lat="33.29998264987407" lon="9.093343465685846"><ele>84.2</ele><time>2026-03-23T16:10:31.001Z</time></trkpt><trkpt lat="33.299914833082106" lon="9.093436492112906"><ele>84.4</ele><time>2026-03-23T16:10:32.001Z</time></trkpt><trkpt lat="33.29985201822989" lon="9.09351739902695"><ele>84.6</ele><time>2026-03-23T16:10:33.001Z</time></trkpt><trkpt lat="33.29978543910449" lon="9.093600447579345"><ele>84.8</ele><time>2026-03-23T16:10:34.001Z</time></trkpt><trkpt lat="33.299724004494536" lon="9.0936803804128"><ele>85.0</ele><time>2026-03-23T16:10:35.001Z</time></trkpt><trkpt lat="33.29965482074451" lon="9.093759818178377"><ele>85.0</ele><time>2026-03-23T16:10:36.001Z</time></trkpt><trkpt lat="33.2995856801632" lon="9.093834629927319"><ele>85.0</ele><time>2026-03-23T16:10:37.001Z</time></trkpt><trkpt lat="33.299518715574344" lon="9.093912646998625"><ele>85.0</ele><time>2026-03-23T16:10:38.001Z</time></trkpt><trkpt lat="33.2994490737658" lon="9.09399423938091"><ele>85.0</ele><time>2026-03-23T16:10:39.001Z</time></trkpt><trkpt lat="33.29938031711644" lon="9.094064725087124"><ele>85.0</ele><time>2026-03-23T16:10:40.001Z</time></trkpt><trkpt lat="33.29931894689627" lon="9.094140725998733"><ele>84.66666666666666</ele><time>2026-03-23T16:10:41.001Z</time></trkpt><trkpt lat="33.29926598409948" lon="9.094220408198453"><ele>84.33333333333333</ele><time>2026-03-23T16:10:42.001Z</time></trkpt><trkpt lat="33.299198074729176" lon="9.094300268199104"><ele>84.0</ele><time>2026-03-23T16:10:43.001Z</time></trkpt><trkpt lat="33.29913017947065" lon="9.094354568351672"><ele>83.66666666666667</ele><time>2026-03-23T16:10:44.001Z</time></trkpt><trkpt lat="33.2990516286016" lon="9.09440931489581"><ele>83.33333333333334</ele><time>2026-03-23T16:10:45.001Z</time></trkpt><trkpt lat="33.298989285042516" lon="9.094456249939217"><ele>83.0</ele><time>2026-03-23T16:10:46.001Z</time></trkpt><trkpt lat="33.29892843102795" lon="9.094518031007967"><ele>83.4</ele><time>2026-03-23T16:10:47.001Z</time></trkpt><trkpt lat="33.298867497951086" lon="9.09457046580436"><ele>83.80000000000001</ele><time>2026-03-23T16:10:48.001Z</time></trkpt><trkpt lat="33.29878215837325" lon="9.09460399546696"><ele>84.2</ele><time>2026-03-23T16:10:50.001Z</time></trkpt><trkpt lat="33.29865706744482" lon="9.094640565673245"><ele>84.6</ele><time>2026-03-23T16:10:52.001Z</time></trkpt><trkpt lat="33.298563812370595" lon="9.094686551915675"><ele>85.0</ele><time>2026-03-23T16:10:53.001Z</time></trkpt><trkpt lat="33.29846617218221" lon="9.094740388738453"><ele>85.0</ele><time>2026-03-23T16:10:54.001Z</time></trkpt><trkpt lat="33.29837456008695" lon="9.094797530352215"><ele>85.0</ele><time>2026-03-23T16:10:55.001Z</time></trkpt><trkpt lat="33.29828578855786" lon="9.09486942997675"><ele>85.0</ele><time>2026-03-23T16:10:56.001Z</time></trkpt><trkpt lat="33.29822159005001" lon="9.094948939975087"><ele>85.0</ele><time>2026-03-23T16:10:57.001Z</time></trkpt><trkpt lat="33.298151185745105" lon="9.095025593778676"><ele>85.0</ele><time>2026-03-23T16:10:58.001Z</time></trkpt><trkpt lat="33.29806893471674" lon="9.095082425671064"><ele>84.8</ele><time>2026-03-23T16:10:59.001Z</time></trkpt><trkpt lat="33.29796699335659" lon="9.095129758693966"><ele>84.6</ele><time>2026-03-23T16:11:00.001Z</time></trkpt><trkpt lat="33.29785812796271" lon="9.095163523628033"><ele>84.4</ele><time>2026-03-23T16:11:01.001Z</time></trkpt><trkpt lat="33.29774856279141" lon="9.095187316244376"><ele>84.2</ele><time>2026-03-23T16:11:02.001Z</time></trkpt><trkpt lat="33.29763616966539" lon="9.095201451208613"><ele>84.0</ele><time>2026-03-23T16:11:03.001Z</time></trkpt><trkpt lat="33.297531663345566" lon="9.095218840136601"><ele>84.0</ele><time>2026-03-23T16:11:04.001Z</time></trkpt><trkpt lat="33.29741807109816" lon="9.0952401526066"><ele>84.0</ele><time>2026-03-23T16:11:05.001Z</time></trkpt><trkpt lat="33.29731865106583" lon="9.095264112214739"><ele>84.0</ele><time>2026-03-23T16:11:06.001Z</time></trkpt><trkpt lat="33.297248987204114" lon="9.095279678409286"><ele>84.0</ele><time>2026-03-23T16:11:07.001Z</time></trkpt><trkpt lat="33.2971494976028" lon="9.095312568744564"><ele>84.0</ele><time>2026-03-23T16:11:10.001Z</time></trkpt><trkpt lat="33.29708763104512" lon="9.095331983641492"><ele>83.71428571428571</ele><time>2026-03-23T16:11:11.001Z</time></trkpt><trkpt lat="33.297020056441255" lon="9.095352149967262"><ele>83.42857142857143</ele><time>2026-03-23T16:11:12.001Z</time></trkpt><trkpt lat="33.29696092320133" lon="9.095388279999003"><ele>83.14285714285714</ele><time>2026-03-23T16:11:13.001Z</time></trkpt><trkpt lat="33.29690570802927" lon="9.095432363758164"><ele>82.85714285714286</ele><time>2026-03-23T16:11:14.001Z</time></trkpt><trkpt lat="33.29685054551935" lon="9.095469133085713"><ele>82.57142857142857</ele><time>2026-03-23T16:11:15.001Z</time></trkpt><trkpt lat="33.29678807516877" lon="9.095505492474004"><ele>82.28571428571428</ele><time>2026-03-23T16:11:16.001Z</time></trkpt><trkpt lat="33.296724267299076" lon="9.095549189753791"><ele>82.0</ele><time>2026-03-23T16:11:17.001Z</time></trkpt><trkpt lat="33.29664412575909" lon="9.095622370939548"><ele>82.0</ele><time>2026-03-23T16:11:19.001Z</time></trkpt><trkpt lat="33.29655524324758" lon="9.095693106791094"><ele>82.0</ele><time>2026-03-23T16:11:21.001Z</time></trkpt><trkpt lat="33.29648373726521" lon="9.095771281125677"><ele>82.0</ele><time>2026-03-23T16:11:23.001Z</time></trkpt><trkpt lat="33.29642102721012" lon="9.09583668807867"><ele>82.0</ele><time>2026-03-23T16:11:25.001Z</time></trkpt><trkpt lat="33.29637791725074" lon="9.095893092778491"><ele>82.0</ele><time>2026-03-23T16:11:26.001Z</time></trkpt><trkpt lat="33.29629729610822" lon="9.096006538731011"><ele>82.83333333333333</ele><time>2026-03-23T16:11:28.001Z</time></trkpt><trkpt lat="33.296246991961326" lon="9.096055638977775"><ele>83.66666666666666</ele><time>2026-03-23T16:11:29.001Z</time></trkpt><trkpt lat="33.296164053758204" lon="9.096117243090557"><ele>84.5</ele><time>2026-03-23T16:11:31.001Z</time></trkpt><trkpt lat="33.29607320941042" lon="9.096156977876925"><ele>85.33333333333333</ele><time>2026-03-23T16:11:33.001Z</time></trkpt><trkpt lat="33.2960153899867" lon="9.096187428422558"><ele>86.16666666666667</ele><time>2026-03-23T16:11:34.001Z</time></trkpt><trkpt lat="33.29595774539583" lon="9.096221060836218"><ele>87.0</ele><time>2026-03-23T16:11:35.001Z</time></trkpt><trkpt lat="33.29585247567522" lon="9.096300780926336"><ele>87.0</ele><time>2026-03-23T16:11:37.001Z</time></trkpt><trkpt lat="33.29580450418738" lon="9.096355498158402"><ele>87.0</ele><time>2026-03-23T16:11:38.001Z</time></trkpt><trkpt lat="33.295734096151264" lon="9.096457199611415"><ele>87.0</ele><time>2026-03-23T16:11:40.001Z</time></trkpt><trkpt lat="33.295662584586715" lon="9.096517790307864"><ele>87.0</ele><time>2026-03-23T16:11:42.001Z</time></trkpt><trkpt lat="33.29559665597895" lon="9.096550950125906"><ele>87.0</ele><time>2026-03-23T16:11:43.001Z</time></trkpt><trkpt lat="33.2955318459796" lon="9.096591380441636"><ele>87.0</ele><time>2026-03-23T16:11:44.001Z</time></trkpt><trkpt lat="33.29547835002101" lon="9.096639760821798"><ele>87.0</ele><time>2026-03-23T16:11:45.001Z</time></trkpt><trkpt lat="33.29538917273081" lon="9.096700232847235"><ele>87.0</ele><time>2026-03-23T16:11:47.001Z</time></trkpt><trkpt lat="33.29527604572498" lon="9.096729217929221"><ele>87.0</ele><time>2026-03-23T16:11:49.001Z</time></trkpt><trkpt lat="33.295214413726484" lon="9.096747466700382"><ele>87.0</ele><time>2026-03-23T16:11:50.001Z</time></trkpt><trkpt lat="33.29510346687811" lon="9.096760293588744"><ele>87.0</ele><time>2026-03-23T16:11:52.001Z</time></trkpt><trkpt lat="33.29502456591135" lon="9.09679581782779"><ele>87.0</ele><time>2026-03-23T16:11:54.001Z</time></trkpt><trkpt lat="33.29498113485761" lon="9.096851643426865"><ele>87.0</ele><time>2026-03-23T16:11:55.001Z</time></trkpt><trkpt lat="33.29493517794158" lon="9.09690981052629"><ele>87.0</ele><time>2026-03-23T16:11:56.001Z</time></trkpt><trkpt lat="33.29487820165794" lon="9.096948778817389"><ele>87.0</ele><time>2026-03-23T16:11:57.001Z</time></trkpt><trkpt lat="33.29480984009893" lon="9.096983842899611"><ele>87.0</ele><time>2026-03-23T16:11:58.001Z</time></trkpt><trkpt lat="33.29476153969698" lon="9.09703461265937"><ele>87.0</ele><time>2026-03-23T16:11:59.001Z</time></trkpt><trkpt lat="33.29468593648469" lon="9.097123193139987"><ele>87.0</ele><time>2026-03-23T16:12:01.001Z</time></trkpt><trkpt lat="33.29463325169455" lon="9.09720678560184"><ele>87.16666666666667</ele><time>2026-03-23T16:12:03.001Z</time></trkpt><trkpt lat="33.294643265476196" lon="9.097324243502548"><ele>87.33333333333333</ele><time>2026-03-23T16:12:05.001Z</time></trkpt><trkpt lat="33.294614701839265" lon="9.097403743194572"><ele>87.5</ele><time>2026-03-23T16:12:06.001Z</time></trkpt><trkpt lat="33.29456577795051" lon="9.097460068648328"><ele>87.66666666666666</ele><time>2026-03-23T16:12:07.001Z</time></trkpt><trkpt lat="33.29449770088622" lon="9.097498323739407"><ele>87.83333333333333</ele><time>2026-03-23T16:12:08.001Z</time></trkpt><trkpt lat="33.29442834930704" lon="9.097513405695269"><ele>88.0</ele><time>2026-03-23T16:12:09.001Z</time></trkpt><trkpt lat="33.294351550051026" lon="9.097526332512256"><ele>88.0</ele><time>2026-03-23T16:12:10.001Z</time></trkpt><trkpt lat="33.294272920761756" lon="9.097548954162693"><ele>88.0</ele><time>2026-03-23T16:12:11.001Z</time></trkpt><trkpt lat="33.29420211859184" lon="9.097583882441743"><ele>88.0</ele><time>2026-03-23T16:12:12.001Z</time></trkpt><trkpt lat="33.29412547483677" lon="9.097645913200964"><ele>88.0</ele><time>2026-03-23T16:12:13.001Z</time></trkpt><trkpt lat="33.29406256272614" lon="9.097722540418765"><ele>88.0</ele><time>2026-03-23T16:12:14.001Z</time></trkpt><trkpt lat="33.29400107264791" lon="9.09780335509458"><ele>88.0</ele><time>2026-03-23T16:12:15.001Z</time></trkpt><trkpt lat="33.293938223634214" lon="9.097894806205478"><ele>88.0</ele><time>2026-03-23T16:12:16.001Z</time></trkpt><trkpt lat="33.29385172592811" lon="9.097975415476093"><ele>88.0</ele><time>2026-03-23T16:12:17.001Z</time></trkpt><trkpt lat="33.293751317727505" lon="9.098041020016154"><ele>88.0</ele><time>2026-03-23T16:12:18.001Z</time></trkpt><trkpt lat="33.293650767974874" lon="9.09810432157624"><ele>88.0</ele><time>2026-03-23T16:12:19.001Z</time></trkpt><trkpt lat="33.29357057213226" lon="9.098156544907257"><ele>88.0</ele><time>2026-03-23T16:12:20.001Z</time></trkpt><trkpt lat="33.29350290322727" lon="9.098201978916943"><ele>88.4</ele><time>2026-03-23T16:12:21.001Z</time></trkpt><trkpt lat="33.293421114533324" lon="9.098251900776216"><ele>88.80000000000001</ele><time>2026-03-23T16:12:22.001Z</time></trkpt><trkpt lat="33.293345305143696" lon="9.098303956485543"><ele>89.2</ele><time>2026-03-23T16:12:23.001Z</time></trkpt><trkpt lat="33.29327867852827" lon="9.098364454055462"><ele>89.6</ele><time>2026-03-23T16:12:24.001Z</time></trkpt><trkpt lat="33.29322113964987" lon="9.098439575926445"><ele>90.0</ele><time>2026-03-23T16:12:25.001Z</time></trkpt><trkpt lat="33.29315060903676" lon="9.098544634525577"><ele>90.25</ele><time>2026-03-23T16:12:26.001Z</time></trkpt><trkpt lat="33.2930825785487" lon="9.098663438645154"><ele>90.5</ele><time>2026-03-23T16:12:27.001Z</time></trkpt><trkpt lat="33.29302036639915" lon="9.09879380599634"><ele>90.75</ele><time>2026-03-23T16:12:28Z</time></trkpt><trkpt lat="33.292970717289904" lon="9.098917985384306"><ele>91.0</ele><time>2026-03-23T16:12:29Z</time></trkpt><trkpt lat="33.2929205566645" lon="9.09903052583457"><ele>90.5</ele><time>2026-03-23T16:12:30Z</time></trkpt><trkpt lat="33.29286133052723" lon="9.099134659796132"><ele>90.0</ele><time>2026-03-23T16:12:31Z</time></trkpt><trkpt lat="33.292789982120055" lon="9.099215678751424"><ele>89.5</ele><time>2026-03-23T16:12:32Z</time></trkpt><trkpt lat="33.29269565982166" lon="9.099306466021796"><ele>89.0</ele><time>2026-03-23T16:12:33Z</time></trkpt><trkpt lat="33.292588569424474" lon="9.099386091120964"><ele>89.0</ele><time>2026-03-23T16:12:34Z</time></trkpt><trkpt lat="33.292473452528654" lon="9.099468366558728"><ele>89.0</ele><time>2026-03-23T16:12:35Z</time></trkpt><trkpt lat="33.2923718739272" lon="9.09954475444491"><ele>89.0</ele><time>2026-03-23T16:12:36Z</time></trkpt><trkpt lat="33.29228481691879" lon="9.099618274270034"><ele>89.0</ele><time>2026-03-23T16:12:37Z</time></trkpt><trkpt lat="33.29220109837093" lon="9.099701076946046"><ele>89.75</ele><time>2026-03-23T16:12:38Z</time></trkpt><trkpt lat="33.29211490775231" lon="9.099788069264614"><ele>90.5</ele><time>2026-03-23T16:12:39Z</time></trkpt><trkpt lat="33.2920252918782" lon="9.099883967486033"><ele>91.25</ele><time>2026-03-23T16:12:40Z</time></trkpt><trkpt lat="33.2919417188807" lon="9.099985305197578"><ele>92.0</ele><time>2026-03-23T16:12:41Z</time></trkpt><trkpt lat="33.29186182078888" lon="9.100097944177751"><ele>92.0</ele><time>2026-03-23T16:12:42Z</time></trkpt><trkpt lat="33.29181213479382" lon="9.100211735030632"><ele>92.0</ele><time>2026-03-23T16:12:43Z</time></trkpt><trkpt lat="33.29176848302098" lon="9.100340812962674"><ele>92.0</ele><time>2026-03-23T16:12:44Z</time></trkpt><trkpt lat="33.29172892120128" lon="9.100488927278743"><ele>92.0</ele><time>2026-03-23T16:12:45Z</time></trkpt><trkpt lat="33.29168195852898" lon="9.100626246354818"><ele>92.0</ele><time>2026-03-23T16:12:46Z</time></trkpt><trkpt lat="33.29162235320556" lon="9.100742047806612"><ele>92.0</ele><time>2026-03-23T16:12:47Z</time></trkpt><trkpt lat="33.29154980145722" lon="9.100864537496763"><ele>92.0</ele><time>2026-03-23T16:12:48Z</time></trkpt><trkpt lat="33.291478886668635" lon="9.100964596487346"><ele>92.0</ele><time>2026-03-23T16:12:49Z</time></trkpt><trkpt lat="33.29139547836478" lon="9.101059151404119"><ele>91.8</ele><time>2026-03-23T16:12:50Z</time></trkpt><trkpt lat="33.29130032865217" lon="9.101160890481191"><ele>91.6</ele><time>2026-03-23T16:12:51Z</time></trkpt><trkpt lat="33.29121612247303" lon="9.101269536630717"><ele>91.39999999999999</ele><time>2026-03-23T16:12:52Z</time></trkpt><trkpt lat="33.29115583099073" lon="9.101368349817458"><ele>91.19999999999999</ele><time>2026-03-23T16:12:53Z</time></trkpt><trkpt lat="33.2911014513656" lon="9.10144952430542"><ele>91.0</ele><time>2026-03-23T16:12:54Z</time></trkpt><trkpt lat="33.29104680716834" lon="9.101521924024002"><ele>91.0</ele><time>2026-03-23T16:12:55Z</time></trkpt><trkpt lat="33.291002701477" lon="9.10158177138479"><ele>91.0</ele><time>2026-03-23T16:12:56Z</time></trkpt><trkpt lat="33.29095021154576" lon="9.101656970760349"><ele>91.0</ele><time>2026-03-23T16:12:57Z</time></trkpt><trkpt lat="33.2908862714289" lon="9.10174683339332"><ele>91.0</ele><time>2026-03-23T16:12:58Z</time></trkpt><trkpt lat="33.29081103847004" lon="9.10183969068574"><ele>91.0</ele><time>2026-03-23T16:12:59Z</time></trkpt><trkpt lat="33.29072195395027" lon="9.101928396000512"><ele>91.25</ele><time>2026-03-23T16:13:00Z</time></trkpt><trkpt lat="33.2906200601328" lon="9.1020041878252"><ele>91.5</ele><time>2026-03-23T16:13:01Z</time></trkpt><trkpt lat="33.29050592493866" lon="9.102075206391016"><ele>91.75</ele><time>2026-03-23T16:13:02Z</time></trkpt><trkpt lat="33.29039455351808" lon="9.102145395189767"><ele>92.0</ele><time>2026-03-23T16:13:03Z</time></trkpt><trkpt lat="33.29029029636842" lon="9.102204778003639"><ele>92.6</ele><time>2026-03-23T16:13:04Z</time></trkpt><trkpt lat="33.29020088794925" lon="9.102253362707845"><ele>93.19999999999999</ele><time>2026-03-23T16:13:05Z</time></trkpt><trkpt lat="33.29011363684234" lon="9.102302735717453"><ele>93.8</ele><time>2026-03-23T16:13:06Z</time></trkpt><trkpt lat="33.290023664237616" lon="9.102353010056223"><ele>94.4</ele><time>2026-03-23T16:13:07Z</time></trkpt><trkpt lat="33.28993782606612" lon="9.102365573321089"><ele>95.0</ele><time>2026-03-23T16:13:08Z</time></trkpt><trkpt lat="33.289831583012415" lon="9.1023609302318"><ele>94.75</ele><time>2026-03-23T16:13:09Z</time></trkpt><trkpt lat="33.289703346751885" lon="9.102354131716272"><ele>94.5</ele><time>2026-03-23T16:13:10Z</time></trkpt><trkpt lat="33.28957380740419" lon="9.102353730124838"><ele>94.25</ele><time>2026-03-23T16:13:11Z</time></trkpt><trkpt lat="33.28944405233315" lon="9.102341744827413"><ele>94.0</ele><time>2026-03-23T16:13:12Z</time></trkpt><trkpt lat="33.28932915066696" lon="9.102334629925474"><ele>94.0</ele><time>2026-03-23T16:13:13Z</time></trkpt><trkpt lat="33.289211299533136" lon="9.10233836600223"><ele>94.0</ele><time>2026-03-23T16:13:14Z</time></trkpt><trkpt lat="33.28909295259024" lon="9.102337630001818"><ele>94.0</ele><time>2026-03-23T16:13:15Z</time></trkpt><trkpt lat="33.288977914278185" lon="9.102331023775898"><ele>94.0</ele><time>2026-03-23T16:13:16Z</time></trkpt><trkpt lat="33.288863273775036" lon="9.102320644172725"><ele>93.4</ele><time>2026-03-23T16:13:17Z</time></trkpt><trkpt lat="33.28875660021103" lon="9.102315907352903"><ele>92.80000000000001</ele><time>2026-03-23T16:13:18Z</time></trkpt><trkpt lat="33.288643805751164" lon="9.1023060098883"><ele>92.19999999999999</ele><time>2026-03-23T16:13:19Z</time></trkpt><trkpt lat="33.28853408444853" lon="9.102279407483305"><ele>91.6</ele><time>2026-03-23T16:13:20Z</time></trkpt><trkpt lat="33.288420937615676" lon="9.102241888922906"><ele>91.0</ele><time>2026-03-23T16:13:21Z</time></trkpt><trkpt lat="33.28831006147377" lon="9.102195511343284"><ele>91.0</ele><time>2026-03-23T16:13:22Z</time></trkpt><trkpt lat="33.28821651161379" lon="9.102153926188446"><ele>91.0</ele><time>2026-03-23T16:13:23Z</time></trkpt><trkpt lat="33.28812507245319" lon="9.102113421896075"><ele>91.0</ele><time>2026-03-23T16:13:24Z</time></trkpt><trkpt lat="33.28804229435308" lon="9.102087534069534"><ele>91.0</ele><time>2026-03-23T16:13:25Z</time></trkpt><trkpt lat="33.28796457452721" lon="9.102070815016392"><ele>91.0</ele><time>2026-03-23T16:13:26Z</time></trkpt><trkpt lat="33.28789797754888" lon="9.102060216426702"><ele>91.0</ele><time>2026-03-23T16:13:27Z</time></trkpt><trkpt lat="33.28781431906898" lon="9.102030488700747"><ele>90.83333333333333</ele><time>2026-03-23T16:13:29Z</time></trkpt><trkpt lat="33.28773063520403" lon="9.102006855127106"><ele>90.66666666666666</ele><time>2026-03-23T16:13:31Z</time></trkpt><trkpt lat="33.28763795232031" lon="9.10199240489528"><ele>90.5</ele><time>2026-03-23T16:13:33Z</time></trkpt><trkpt lat="33.28751125589108" lon="9.101969299903677"><ele>90.33333333333333</ele><time>2026-03-23T16:13:35Z</time></trkpt><trkpt lat="33.28744807197032" lon="9.101988134607339"><ele>90.16666666666667</ele><time>2026-03-23T16:13:36Z</time></trkpt><trkpt lat="33.287393042613665" lon="9.102035101782866"><ele>90.0</ele><time>2026-03-23T16:13:37Z</time></trkpt><trkpt lat="33.287341007797515" lon="9.102086213358842"><ele>90.0</ele><time>2026-03-23T16:13:38Z</time></trkpt><trkpt lat="33.28726776958887" lon="9.102133210984974"><ele>90.0</ele><time>2026-03-23T16:13:40Z</time></trkpt><trkpt lat="33.28718472429971" lon="9.102145959879927"><ele>90.0</ele><time>2026-03-23T16:13:42Z</time></trkpt><trkpt lat="33.28707710770298" lon="9.102084653154419"><ele>90.0</ele><time>2026-03-23T16:13:44Z</time></trkpt><trkpt lat="33.28699022624129" lon="9.102013652981437"><ele>90.0</ele><time>2026-03-23T16:13:46Z</time></trkpt><trkpt lat="33.286919490907636" lon="9.101918731095184"><ele>90.0</ele><time>2026-03-23T16:13:48.001Z</time></trkpt><trkpt lat="33.28683850451585" lon="9.101834119285304"><ele>90.0</ele><time>2026-03-23T16:13:50.001Z</time></trkpt><trkpt lat="33.28677652378203" lon="9.101818921725625"><ele>90.0</ele><time>2026-03-23T16:13:51.001Z</time></trkpt><trkpt lat="33.286665072554726" lon="9.10177373084198"><ele>90.0</ele><time>2026-03-23T16:13:54.001Z</time></trkpt><trkpt lat="33.28656855423712" lon="9.101718506589688"><ele>90.0</ele><time>2026-03-23T16:13:56.001Z</time></trkpt><trkpt lat="33.286455427037275" lon="9.10167831676484"><ele>90.14285714285714</ele><time>2026-03-23T16:13:58.001Z</time></trkpt><trkpt lat="33.28637832934226" lon="9.10160576760551"><ele>90.28571428571429</ele><time>2026-03-23T16:14:00.001Z</time></trkpt><trkpt lat="33.28632657303506" lon="9.101562146847664"><ele>90.42857142857143</ele><time>2026-03-23T16:14:01.001Z</time></trkpt><trkpt lat="33.2862666883787" lon="9.101525813677142"><ele>90.57142857142857</ele><time>2026-03-23T16:14:02.001Z</time></trkpt><trkpt lat="33.28620062527675" lon="9.10148556820674"><ele>90.71428571428572</ele><time>2026-03-23T16:14:04.001Z</time></trkpt><trkpt lat="33.28613439137244" lon="9.101466162041163"><ele>90.85714285714286</ele><time>2026-03-23T16:14:06.001Z</time></trkpt><trkpt lat="33.28606449164648" lon="9.101438713295131"><ele>91.0</ele><time>2026-03-23T16:14:07.001Z</time></trkpt><trkpt lat="33.28596703539613" lon="9.1013839956316"><ele>91.4</ele><time>2026-03-23T16:14:09.001Z</time></trkpt><trkpt lat="33.28586790354061" lon="9.101339301839117"><ele>91.8</ele><time>2026-03-23T16:14:11.001Z</time></trkpt><trkpt lat="33.28577812799776" lon="9.101283221273869"><ele>92.2</ele><time>2026-03-23T16:14:13.001Z</time></trkpt><trkpt lat="33.285703554355486" lon="9.101196276147695"><ele>92.60000000000001</ele><time>2026-03-23T16:14:15.001Z</time></trkpt><trkpt lat="33.28559288587408" lon="9.101175280757468"><ele>93.0</ele><time>2026-03-23T16:14:17.001Z</time></trkpt><trkpt lat="33.28548895044881" lon="9.101172920016984"><ele>93.0</ele><time>2026-03-23T16:14:19.001Z</time></trkpt><trkpt lat="33.28541357442079" lon="9.10116712292747"><ele>93.0</ele><time>2026-03-23T16:14:20.001Z</time></trkpt><trkpt lat="33.28532871680563" lon="9.101154440796012"><ele>93.0</ele><time>2026-03-23T16:14:21.001Z</time></trkpt><trkpt lat="33.285242793184985" lon="9.101135807341207"><ele>93.0</ele><time>2026-03-23T16:14:22.001Z</time></trkpt><trkpt lat="33.28515850224677" lon="9.10110691309799"><ele>93.0</ele><time>2026-03-23T16:14:23.001Z</time></trkpt><trkpt lat="33.28506302564049" lon="9.101070085272097"><ele>93.0</ele><time>2026-03-23T16:14:24.001Z</time></trkpt><trkpt lat="33.284965835539886" lon="9.101040367095912"><ele>93.0</ele><time>2026-03-23T16:14:25.001Z</time></trkpt><trkpt lat="33.28485635076231" lon="9.101009962949963"><ele>93.0</ele><time>2026-03-23T16:14:26.001Z</time></trkpt><trkpt lat="33.2847524303581" lon="9.100981305514624"><ele>93.0</ele><time>2026-03-23T16:14:27.001Z</time></trkpt><trkpt lat="33.284649585533515" lon="9.100947997053137"><ele>93.0</ele><time>2026-03-23T16:14:28.001Z</time></trkpt><trkpt lat="33.284556065864216" lon="9.10091280533965"><ele>93.0</ele><time>2026-03-23T16:14:29.001Z</time></trkpt><trkpt lat="33.28445270301967" lon="9.100872763797856"><ele>93.0</ele><time>2026-03-23T16:14:30.001Z</time></trkpt><trkpt lat="33.28436528171515" lon="9.100848868254296"><ele>93.0</ele><time>2026-03-23T16:14:31.001Z</time></trkpt><trkpt lat="33.28428002707548" lon="9.100835773819474"><ele>93.0</ele><time>2026-03-23T16:14:32.001Z</time></trkpt><trkpt lat="33.28416565215257" lon="9.100849795177407"><ele>93.0</ele><time>2026-03-23T16:14:34Z</time></trkpt><trkpt lat="33.28407251897947" lon="9.10084926872751"><ele>93.0</ele><time>2026-03-23T16:14:35Z</time></trkpt><trkpt lat="33.284001836509546" lon="9.10084433010596"><ele>93.00000000000001</ele><time>2026-03-23T16:14:36Z</time></trkpt><trkpt lat="33.283919689312015" lon="9.100833808637637"><ele>93.0</ele><time>2026-03-23T16:14:37Z</time></trkpt><trkpt lat="33.28383768407685" lon="9.100812893656599"><ele>93.0</ele><time>2026-03-23T16:14:38Z</time></trkpt><trkpt lat="33.2837640082229" lon="9.10079939881085"><ele>93.0</ele><time>2026-03-23T16:14:39Z</time></trkpt><trkpt lat="33.28370114691607" lon="9.100784543943984"><ele>93.0</ele><time>2026-03-23T16:14:40Z</time></trkpt><trkpt lat="33.283633859058" lon="9.100774964425174"><ele>93.00000000000001</ele><time>2026-03-23T16:14:41Z</time></trkpt><trkpt lat="33.28356016577441" lon="9.100769037459578"><ele>93.0</ele><time>2026-03-23T16:14:42Z</time></trkpt><trkpt lat="33.28346827891908" lon="9.100763353665693"><ele>93.0</ele><time>2026-03-23T16:14:43Z</time></trkpt><trkpt lat="33.283387862031326" lon="9.10075321762045"><ele>93.0</ele><time>2026-03-23T16:14:44Z</time></trkpt><trkpt lat="33.283305672624834" lon="9.10075155027209"><ele>93.0</ele><time>2026-03-23T16:14:45Z</time></trkpt><trkpt lat="33.283236301560514" lon="9.100760742478851"><ele>93.0</ele><time>2026-03-23T16:14:46Z</time></trkpt><trkpt lat="33.283173749145774" lon="9.100771327657391"><ele>93.0</ele><time>2026-03-23T16:14:47Z</time></trkpt><trkpt lat="33.28311084620894" lon="9.100781875837157"><ele>93.0</ele><time>2026-03-23T16:14:48Z</time></trkpt><trkpt lat="33.28299981301159" lon="9.100791776390366"><ele>92.83333333333333</ele><time>2026-03-23T16:14:50Z</time></trkpt><trkpt lat="33.282897485961236" lon="9.10078560734654"><ele>92.66666666666667</ele><time>2026-03-23T16:14:52Z</time></trkpt><trkpt lat="33.28281329216042" lon="9.100748442097995"><ele>92.5</ele><time>2026-03-23T16:14:54Z</time></trkpt><trkpt lat="33.282745030566026" lon="9.100726015205892"><ele>92.33333333333334</ele><time>2026-03-23T16:14:56Z</time></trkpt><trkpt lat="33.28266668404303" lon="9.10069925920063"><ele>92.16666666666667</ele><time>2026-03-23T16:17:05Z</time></trkpt><trkpt lat="33.282594315714874" lon="9.100663426499233"><ele>92.0</ele><time>2026-03-23T16:17:06Z</time></trkpt><trkpt lat="33.28251804309522" lon="9.100629249909082"><ele>92.0</ele><time>2026-03-23T16:17:07Z</time></trkpt><trkpt lat="33.28243834472784" lon="9.100588873356122"><ele>92.0</ele><time>2026-03-23T16:17:08Z</time></trkpt><trkpt lat="33.28236649812246" lon="9.100546751673846"><ele>92.0</ele><time>2026-03-23T16:17:09Z</time></trkpt><trkpt lat="33.282294896793275" lon="9.100507870628979"><ele>92.0</ele><time>2026-03-23T16:17:10Z</time></trkpt><trkpt lat="33.282219376385015" lon="9.100466315096801"><ele>92.0</ele><time>2026-03-23T16:17:11Z</time></trkpt><trkpt lat="33.2821618212758" lon="9.100427344699032"><ele>92.0</ele><time>2026-03-23T16:17:12Z</time></trkpt><trkpt lat="33.28206175270865" lon="9.100380018778834"><ele>92.0</ele><time>2026-03-23T16:17:14Z</time></trkpt><trkpt lat="33.28196585474131" lon="9.100339431791165"><ele>92.0</ele><time>2026-03-23T16:17:16Z</time></trkpt><trkpt lat="33.28186680003364" lon="9.100308236741492"><ele>92.0</ele><time>2026-03-23T16:17:18Z</time></trkpt><trkpt lat="33.28174240168709" lon="9.100256855267707"><ele>92.0</ele><time>2026-03-23T16:17:20Z</time></trkpt><trkpt lat="33.281622846214646" lon="9.100209986258722"><ele>92.0</ele><time>2026-03-23T16:17:22Z</time></trkpt><trkpt lat="33.281563214674414" lon="9.100182366390865"><ele>92.0</ele><time>2026-03-23T16:17:23Z</time></trkpt><trkpt lat="33.281445149548354" lon="9.10011651233994"><ele>92.0</ele><time>2026-03-23T16:17:25Z</time></trkpt><trkpt lat="33.28138404880438" lon="9.100088111557973"><ele>92.0</ele><time>2026-03-23T16:17:26Z</time></trkpt><trkpt lat="33.281276890956356" lon="9.10004109382027"><ele>92.0</ele><time>2026-03-23T16:17:28Z</time></trkpt><trkpt lat="33.28118771213469" lon="9.09999762494577"><ele>92.19999999999999</ele><time>2026-03-23T16:17:30Z</time></trkpt><trkpt lat="33.281087486033314" lon="9.099951921030565"><ele>92.4</ele><time>2026-03-23T16:17:32Z</time></trkpt><trkpt lat="33.2809637616641" lon="9.099886742102042"><ele>92.6</ele><time>2026-03-23T16:17:34Z</time></trkpt><trkpt lat="33.280904061936724" lon="9.09984990046779"><ele>92.80000000000001</ele><time>2026-03-23T16:17:35Z</time></trkpt><trkpt lat="33.28080350243326" lon="9.099805562544086"><ele>93.0</ele><time>2026-03-23T16:17:37Z</time></trkpt><trkpt lat="33.28071481856915" lon="9.099766087384268"><ele>92.66666666666667</ele><time>2026-03-23T16:17:39Z</time></trkpt><trkpt lat="33.28064040374971" lon="9.099732104273693"><ele>92.33333333333333</ele><time>2026-03-23T16:17:40Z</time></trkpt><trkpt lat="33.28055638795951" lon="9.099693267750233"><ele>92.0</ele><time>2026-03-23T16:17:41Z</time></trkpt><trkpt lat="33.28047237638093" lon="9.099653680585336"><ele>91.66666666666666</ele><time>2026-03-23T16:17:42Z</time></trkpt><trkpt lat="33.28038120641589" lon="9.099612711266731"><ele>91.33333333333333</ele><time>2026-03-23T16:17:43Z</time></trkpt><trkpt lat="33.28029567494764" lon="9.099584538763054"><ele>91.0</ele><time>2026-03-23T16:17:44Z</time></trkpt><trkpt lat="33.2802109503712" lon="9.099558862463395"><ele>91.0</ele><time>2026-03-23T16:17:45.001Z</time></trkpt><trkpt lat="33.28013244887819" lon="9.099539077286643"><ele>91.0</ele><time>2026-03-23T16:17:46.001Z</time></trkpt><trkpt lat="33.28006505625558" lon="9.099535446910886"><ele>91.0</ele><time>2026-03-23T16:17:47.001Z</time></trkpt><trkpt lat="33.2799411684818" lon="9.099573347329878"><ele>91.0</ele><time>2026-03-23T16:17:49.001Z</time></trkpt><trkpt lat="33.27988214194133" lon="9.099607367907737"><ele>91.0</ele><time>2026-03-23T16:17:50.001Z</time></trkpt><trkpt lat="33.27981857861251" lon="9.099651013840306"><ele>91.0</ele><time>2026-03-23T16:17:51.001Z</time></trkpt><trkpt lat="33.279751379108426" lon="9.09969413145929"><ele>91.0</ele><time>2026-03-23T16:17:52.001Z</time></trkpt><trkpt lat="33.27965257450698" lon="9.099761174101536"><ele>91.0</ele><time>2026-03-23T16:17:54.001Z</time></trkpt><trkpt lat="33.27956638394572" lon="9.09985154467167"><ele>91.0</ele><time>2026-03-23T16:17:56.001Z</time></trkpt><trkpt lat="33.27948552633157" lon="9.099966132351616"><ele>91.0</ele><time>2026-03-23T16:17:58.001Z</time></trkpt><trkpt lat="33.2794422393477" lon="9.100029049203131"><ele>91.0</ele><time>2026-03-23T16:17:59.001Z</time></trkpt><trkpt lat="33.27939185873376" lon="9.100081384147963"><ele>91.0</ele><time>2026-03-23T16:18:00.001Z</time></trkpt><trkpt lat="33.27929153907494" lon="9.10011970425247"><ele>91.0</ele><time>2026-03-23T16:18:02.001Z</time></trkpt><trkpt lat="33.27915711174296" lon="9.100111016477749"><ele>91.0</ele><time>2026-03-23T16:18:04.001Z</time></trkpt><trkpt lat="33.279074462613245" lon="9.100074841660016"><ele>91.0</ele><time>2026-03-23T16:18:05.001Z</time></trkpt><trkpt lat="33.27900497401582" lon="9.100040370018881"><ele>91.0</ele><time>2026-03-23T16:18:06.001Z</time></trkpt><trkpt lat="33.278905214851086" lon="9.100000718959189"><ele>91.4</ele><time>2026-03-23T16:18:08.001Z</time></trkpt><trkpt lat="33.27879149349878" lon="9.099978571475049"><ele>91.8</ele><time>2026-03-23T16:18:10.001Z</time></trkpt><trkpt lat="33.278660329449984" lon="9.09997622091748"><ele>92.2</ele><time>2026-03-23T16:18:12.001Z</time></trkpt><trkpt lat="33.278597153789285" lon="9.09998985683478"><ele>92.60000000000001</ele><time>2026-03-23T16:18:13.001Z</time></trkpt><trkpt lat="33.27847489247923" lon="9.100028469771448"><ele>93.0</ele><time>2026-03-23T16:18:15.001Z</time></trkpt><trkpt lat="33.27836502086494" lon="9.100061575028489"><ele>93.0</ele><time>2026-03-23T16:18:17.001Z</time></trkpt><trkpt lat="33.27830172237676" lon="9.10007068155227"><ele>93.0</ele><time>2026-03-23T16:18:18.001Z</time></trkpt><trkpt lat="33.27823005007395" lon="9.100085676008073"><ele>93.0</ele><time>2026-03-23T16:18:19.001Z</time></trkpt><trkpt lat="33.27813320056473" lon="9.100089262560424"><ele>93.0</ele><time>2026-03-23T16:18:21.001Z</time></trkpt><trkpt lat="33.278045552927686" lon="9.10005869299404"><ele>93.0</ele><time>2026-03-23T16:18:23.001Z</time></trkpt><trkpt lat="33.277955485710876" lon="9.100002070364749"><ele>93.0</ele><time>2026-03-23T16:18:25.001Z</time></trkpt><trkpt lat="33.277883534244815" lon="9.099958580817272"><ele>93.0</ele><time>2026-03-23T16:18:27.001Z</time></trkpt><trkpt lat="33.27779681554251" lon="9.099953227175948"><ele>93.0</ele><time>2026-03-23T16:19:08Z</time></trkpt><trkpt lat="33.27773380468135" lon="9.099961203583051"><ele>93.0</ele><time>2026-03-23T16:19:09Z</time></trkpt><trkpt lat="33.27765933154587" lon="9.099945524810943"><ele>93.0</ele><time>2026-03-23T16:19:11Z</time></trkpt><trkpt lat="33.2775907757481" lon="9.099920074587173"><ele>93.0</ele><time>2026-03-23T16:19:13Z</time></trkpt><trkpt lat="33.2775245040061" lon="9.099911452949025"><ele>93.0</ele><time>2026-03-23T16:19:15Z</time></trkpt><trkpt lat="33.27743911403302" lon="9.099885209279313"><ele>93.0</ele><time>2026-03-23T16:19:17Z</time></trkpt><trkpt lat="33.27739200274863" lon="9.099817147784742"><ele>93.0</ele><time>2026-03-23T16:19:19Z</time></trkpt><trkpt lat="33.277304591716884" lon="9.099809392388542"><ele>93.0</ele><time>2026-03-23T16:19:23Z</time></trkpt><trkpt lat="33.277205785125524" lon="9.099820415204155"><ele>93.0</ele><time>2026-03-23T16:19:25Z</time></trkpt><trkpt lat="33.2771451621639" lon="9.099784116118967"><ele>93.0</ele><time>2026-03-23T16:19:26Z</time></trkpt><trkpt lat="33.277090488120486" lon="9.099735856545207"><ele>93.0</ele><time>2026-03-23T16:19:27Z</time></trkpt><trkpt lat="33.276987807699896" lon="9.09968638438199"><ele>93.0</ele><time>2026-03-23T16:19:29Z</time></trkpt><trkpt lat="33.276901773925466" lon="9.099694988705673"><ele>93.0</ele><time>2026-03-23T16:19:30Z</time></trkpt><trkpt lat="33.27681947126497" lon="9.099706788602123"><ele>93.0</ele><time>2026-03-23T16:19:31Z</time></trkpt><trkpt lat="33.276745620505075" lon="9.099727180082715"><ele>93.0</ele><time>2026-03-23T16:19:32Z</time></trkpt><trkpt lat="33.27663351588246" lon="9.099798139876299"><ele>93.0</ele><time>2026-03-23T16:19:34Z</time></trkpt><trkpt lat="33.276561335598366" lon="9.099901725696592"><ele>92.80000000000001</ele><time>2026-03-23T16:19:36Z</time></trkpt><trkpt lat="33.27649219271298" lon="9.099970310949544"><ele>92.6</ele><time>2026-03-23T16:19:38Z</time></trkpt><trkpt lat="33.27642647583422" lon="9.100070574876833"><ele>92.4</ele><time>2026-03-23T16:19:40Z</time></trkpt><trkpt lat="33.276349445511684" lon="9.100135230196413"><ele>92.19999999999999</ele><time>2026-03-23T16:19:42Z</time></trkpt><trkpt lat="33.276260459350134" lon="9.100148051469736"><ele>92.0</ele><time>2026-03-23T16:19:44Z</time></trkpt><trkpt lat="33.276158193023306" lon="9.100132922902455"><ele>92.39999999999999</ele><time>2026-03-23T16:19:46Z</time></trkpt><trkpt lat="33.276033161838676" lon="9.100172673754331"><ele>92.8</ele><time>2026-03-23T16:19:48Z</time></trkpt><trkpt lat="33.27595907644913" lon="9.1002404079719"><ele>93.2</ele><time>2026-03-23T16:19:50Z</time></trkpt><trkpt lat="33.275942621187724" lon="9.100377676411581"><ele>93.6</ele><time>2026-03-23T16:19:52Z</time></trkpt><trkpt lat="33.275943036640435" lon="9.100471234274355"><ele>94.0</ele><time>2026-03-23T16:19:53Z</time></trkpt><trkpt lat="33.27593017537332" lon="9.100566118547368"><ele>94.0</ele><time>2026-03-23T16:19:54Z</time></trkpt><trkpt lat="33.275901672250455" lon="9.10064697964592"><ele>94.0</ele><time>2026-03-23T16:19:55Z</time></trkpt><trkpt lat="33.275867285554064" lon="9.100723697019607"><ele>94.0</ele><time>2026-03-23T16:19:56Z</time></trkpt><trkpt lat="33.27581965679694" lon="9.100779004202531"><ele>94.0</ele><time>2026-03-23T16:19:57Z</time></trkpt><trkpt lat="33.27574734711521" lon="9.100828469680867"><ele>94.0</ele><time>2026-03-23T16:19:58Z</time></trkpt><trkpt lat="33.2756589549622" lon="9.100875072500715"><ele>94.0</ele><time>2026-03-23T16:19:59Z</time></trkpt><trkpt lat="33.27557206098754" lon="9.100932353736491"><ele>93.6</ele><time>2026-03-23T16:20:00Z</time></trkpt><trkpt lat="33.275513824011554" lon="9.10099532471879"><ele>93.2</ele><time>2026-03-23T16:20:01Z</time></trkpt><trkpt lat="33.2754723098614" lon="9.101065363337263"><ele>92.8</ele><time>2026-03-23T16:20:02Z</time></trkpt><trkpt lat="33.27539665304483" lon="9.101161846634781"><ele>92.39999999999999</ele><time>2026-03-23T16:20:04Z</time></trkpt><trkpt lat="33.27530948252335" lon="9.101192746945332"><ele>92.0</ele><time>2026-03-23T16:20:06Z</time></trkpt><trkpt lat="33.275198408295346" lon="9.10119163925355"><ele>92.0</ele><time>2026-03-23T16:20:08Z</time></trkpt><trkpt lat="33.275100480837665" lon="9.101195030421628"><ele>92.0</ele><time>2026-03-23T16:20:10Z</time></trkpt><trkpt lat="33.27501942429335" lon="9.101232862621714"><ele>92.0</ele><time>2026-03-23T16:20:12Z</time></trkpt><trkpt lat="33.27495883466395" lon="9.101357342035051"><ele>92.0</ele><time>2026-03-23T16:20:14Z</time></trkpt><trkpt lat="33.27492987773755" lon="9.101475074645586"><ele>92.0</ele><time>2026-03-23T16:20:16Z</time></trkpt><trkpt lat="33.27487935316669" lon="9.101570425218265"><ele>91.83333333333334</ele><time>2026-03-23T16:20:18Z</time></trkpt><trkpt lat="33.27481063741122" lon="9.101624751301678"><ele>91.66666666666667</ele><time>2026-03-23T16:20:20Z</time></trkpt><trkpt lat="33.27470054232603" lon="9.10162539381703"><ele>91.5</ele><time>2026-03-23T16:20:22.001Z</time></trkpt><trkpt lat="33.274582547788036" lon="9.101675528557575"><ele>91.33333333333333</ele><time>2026-03-23T16:20:24.001Z</time></trkpt><trkpt lat="33.27453012620548" lon="9.101718926693778"><ele>91.16666666666666</ele><time>2026-03-23T16:20:25.001Z</time></trkpt><trkpt lat="33.27447606762565" lon="9.101764305984261"><ele>91.0</ele><time>2026-03-23T16:20:26.001Z</time></trkpt><trkpt lat="33.27435871549246" lon="9.101815658142668"><ele>91.0</ele><time>2026-03-23T16:20:28.001Z</time></trkpt><trkpt lat="33.274255082891464" lon="9.101847392636616"><ele>91.0</ele><time>2026-03-23T16:20:30.001Z</time></trkpt><trkpt lat="33.2741593168308" lon="9.101875531297434"><ele>91.0</ele><time>2026-03-23T16:20:32.001Z</time></trkpt><trkpt lat="33.274065686020556" lon="9.101804836621229"><ele>91.0</ele><time>2026-03-23T16:20:34.001Z</time></trkpt><trkpt lat="33.27402328990568" lon="9.101745756006459"><ele>91.0</ele><time>2026-03-23T16:20:35.001Z</time></trkpt><trkpt lat="33.273926036150016" lon="9.101675897239186"><ele>91.5</ele><time>2026-03-23T16:20:37.001Z</time></trkpt><trkpt lat="33.27381776725967" lon="9.10171882802988"><ele>92.0</ele><time>2026-03-23T16:20:39.001Z</time></trkpt><trkpt lat="33.27375452420237" lon="9.101781589568862"><ele>92.5</ele><time>2026-03-23T16:22:26Z</time></trkpt><trkpt lat="33.273691856104776" lon="9.10182285820808"><ele>93.0</ele><time>2026-03-23T16:22:27Z</time></trkpt><trkpt lat="33.27363195490458" lon="9.101853317956055"><ele>93.5</ele><time>2026-03-23T16:22:28Z</time></trkpt><trkpt lat="33.27352251912911" lon="9.101853068242063"><ele>94.0</ele><time>2026-03-23T16:22:30Z</time></trkpt><trkpt lat="33.27340315956441" lon="9.101857286678255"><ele>94.0</ele><time>2026-03-23T16:22:32Z</time></trkpt><trkpt lat="33.27331215069561" lon="9.101923762000395"><ele>94.0</ele><time>2026-03-23T16:22:34Z</time></trkpt><trkpt lat="33.27324650137964" lon="9.101959005346293"><ele>94.0</ele><time>2026-03-23T16:22:35Z</time></trkpt><trkpt lat="33.27314658797475" lon="9.102025470843252"><ele>94.0</ele><time>2026-03-23T16:22:37Z</time></trkpt><trkpt lat="33.273094089796935" lon="9.102106559997027"><ele>94.0</ele><time>2026-03-23T16:22:39Z</time></trkpt><trkpt lat="33.27303811727993" lon="9.102219744644477"><ele>93.5</ele><time>2026-03-23T16:22:41Z</time></trkpt><trkpt lat="33.27299985926601" lon="9.102294739737715"><ele>93.0</ele><time>2026-03-23T16:22:42Z</time></trkpt><trkpt lat="33.272923649946925" lon="9.102384584443111"><ele>92.5</ele><time>2026-03-23T16:22:44Z</time></trkpt><trkpt lat="33.27283035968471" lon="9.102405291212266"><ele>92.0</ele><time>2026-03-23T16:22:46Z</time></trkpt><trkpt lat="33.27276103924966" lon="9.102416168856319"><ele>91.5</ele><time>2026-03-23T16:22:47Z</time></trkpt><trkpt lat="33.27268782567637" lon="9.102454162122008"><ele>91.0</ele><time>2026-03-23T16:22:48Z</time></trkpt><trkpt lat="33.27260354041742" lon="9.102504400715576"><ele>90.8</ele><time>2026-03-23T16:22:49Z</time></trkpt><trkpt lat="33.27252412984838" lon="9.102580682424493"><ele>90.6</ele><time>2026-03-23T16:22:50Z</time></trkpt><trkpt lat="33.272459976037226" lon="9.102663775360044"><ele>90.4</ele><time>2026-03-23T16:22:51Z</time></trkpt><trkpt lat="33.27241198968834" lon="9.102731593136502"><ele>90.2</ele><time>2026-03-23T16:22:52Z</time></trkpt><trkpt lat="33.27234748793472" lon="9.102841124045396"><ele>90.0</ele><time>2026-03-23T16:22:54Z</time></trkpt><trkpt lat="33.27231200492267" lon="9.102919505782475"><ele>90.0</ele><time>2026-03-23T16:22:55Z</time></trkpt><trkpt lat="33.27226000257149" lon="9.103074568141194"><ele>90.0</ele><time>2026-03-23T16:22:57Z</time></trkpt><trkpt lat="33.27222415199098" lon="9.103201171163734"><ele>90.0</ele><time>2026-03-23T16:22:59Z</time></trkpt><trkpt lat="33.27215989307135" lon="9.103236447229444"><ele>90.0</ele><time>2026-03-23T16:23:01Z</time></trkpt><trkpt lat="33.272070836109116" lon="9.103221201842329"><ele>90.0</ele><time>2026-03-23T16:23:03Z</time></trkpt><trkpt lat="33.271987230183186" lon="9.10325771358541"><ele>90.0</ele><time>2026-03-23T16:23:05Z</time></trkpt><trkpt lat="33.27192740649339" lon="9.103344580800623"><ele>90.0</ele><time>2026-03-23T16:23:07Z</time></trkpt><trkpt lat="33.271896193038515" lon="9.103424398002838"><ele>90.0</ele><time>2026-03-23T16:23:08Z</time></trkpt><trkpt lat="33.271871776119546" lon="9.103502843270805"><ele>90.0</ele><time>2026-03-23T16:23:09Z</time></trkpt><trkpt lat="33.27181628069986" lon="9.103585421069646"><ele>90.0</ele><time>2026-03-23T16:23:11Z</time></trkpt><trkpt lat="33.2717077140191" lon="9.103608709044714"><ele>90.0</ele><time>2026-03-23T16:23:13Z</time></trkpt><trkpt lat="33.27159186444689" lon="9.103627704682689"><ele>90.0</ele><time>2026-03-23T16:23:15Z</time></trkpt><trkpt lat="33.2715141823282" lon="9.10370437211374"><ele>90.0</ele><time>2026-03-23T16:23:17Z</time></trkpt><trkpt lat="33.271415428424184" lon="9.103794258980678"><ele>90.0</ele><time>2026-03-23T16:23:19Z</time></trkpt><trkpt lat="33.271366226025236" lon="9.103841357857547"><ele>90.0</ele><time>2026-03-23T16:23:20Z</time></trkpt><trkpt lat="33.27131622886364" lon="9.103894735282697"><ele>90.0</ele><time>2026-03-23T16:23:21Z</time></trkpt><trkpt lat="33.271247411330634" lon="9.10395926158988"><ele>90.0</ele><time>2026-03-23T16:23:23Z</time></trkpt><trkpt lat="33.27117435803979" lon="9.104046411563793"><ele>89.6</ele><time>2026-03-23T16:23:25Z</time></trkpt><trkpt lat="33.27110433097681" lon="9.104118263979268"><ele>89.2</ele><time>2026-03-23T16:23:27Z</time></trkpt><trkpt lat="33.27101170244089" lon="9.10419091347522"><ele>88.80000000000001</ele><time>2026-03-23T16:23:31Z</time></trkpt><trkpt lat="33.27094863799348" lon="9.104210229044831"><ele>88.4</ele><time>2026-03-23T16:23:32Z</time></trkpt><trkpt lat="33.270879327572466" lon="9.10423737386255"><ele>88.0</ele><time>2026-03-23T16:23:34Z</time></trkpt><trkpt lat="33.27078915633993" lon="9.104321111783932"><ele>88.0</ele><time>2026-03-23T16:23:37Z</time></trkpt><trkpt lat="33.27073229716752" lon="9.10435453702234"><ele>88.0</ele><time>2026-03-23T16:23:39Z</time></trkpt><trkpt lat="33.27067594522668" lon="9.104394439122375"><ele>88.0</ele><time>2026-03-23T16:23:41Z</time></trkpt><trkpt lat="33.270601897701596" lon="9.104375784383112"><ele>88.0</ele><time>2026-03-23T16:24:14Z</time></trkpt><trkpt lat="33.27048574179287" lon="9.104448720165616"><ele>88.0</ele><time>2026-03-23T16:24:16Z</time></trkpt><trkpt lat="33.27039972039951" lon="9.104558143351111"><ele>88.80000000000001</ele><time>2026-03-23T16:24:18Z</time></trkpt><trkpt lat="33.270335492453185" lon="9.104696824000667"><ele>89.6</ele><time>2026-03-23T16:24:20Z</time></trkpt><trkpt lat="33.27027120806897" lon="9.104820963795667"><ele>90.4</ele><time>2026-03-23T16:24:22Z</time></trkpt><trkpt lat="33.270224787866184" lon="9.104902898007158"><ele>91.19999999999999</ele><time>2026-03-23T16:24:23Z</time></trkpt><trkpt lat="33.270183883077294" lon="9.104997990039235"><ele>92.0</ele><time>2026-03-23T16:24:25Z</time></trkpt><trkpt lat="33.2701707259568" lon="9.105072144398504"><ele>92.16666666666667</ele><time>2026-03-23T16:24:27Z</time></trkpt><trkpt lat="33.270151098454" lon="9.105201958425813"><ele>92.33333333333334</ele><time>2026-03-23T16:24:30Z</time></trkpt><trkpt lat="33.270140720970325" lon="9.105277152798697"><ele>92.5</ele><time>2026-03-23T16:24:31Z</time></trkpt><trkpt lat="33.27012698981069" lon="9.105352656645683"><ele>92.66666666666667</ele><time>2026-03-23T16:24:32Z</time></trkpt><trkpt lat="33.270103502525316" lon="9.105449654199425"><ele>92.83333333333333</ele><time>2026-03-23T16:24:34Z</time></trkpt><trkpt lat="33.27006374342239" lon="9.105575717679098"><ele>93.0</ele><time>2026-03-23T16:24:36Z</time></trkpt><trkpt lat="33.27003375837263" lon="9.105646214578458"><ele>93.0</ele><time>2026-03-23T16:24:37Z</time></trkpt><trkpt lat="33.269993513082056" lon="9.105704799674776"><ele>93.0</ele><time>2026-03-23T16:24:38Z</time></trkpt><trkpt lat="33.26993039247113" lon="9.105823084236812"><ele>93.0</ele><time>2026-03-23T16:24:40Z</time></trkpt><trkpt lat="33.269863891242025" lon="9.105905831267807"><ele>93.0</ele><time>2026-03-23T16:24:42Z</time></trkpt><trkpt lat="33.269824959752036" lon="9.105989349786194"><ele>93.0</ele><time>2026-03-23T16:24:44Z</time></trkpt><trkpt lat="33.26980477874825" lon="9.106061066719631"><ele>93.0</ele><time>2026-03-23T16:24:46Z</time></trkpt><trkpt lat="33.26970857820171" lon="9.106040782076231"><ele>92.2</ele><time>2026-03-23T16:24:50Z</time></trkpt><trkpt lat="33.26964437356336" lon="9.105991324520168"><ele>91.4</ele><time>2026-03-23T16:24:52Z</time></trkpt><trkpt lat="33.26953950246637" lon="9.105993668229273"><ele>90.60000000000001</ele><time>2026-03-23T16:24:54Z</time></trkpt><trkpt lat="33.26942091162758" lon="9.105995425411244"><ele>89.80000000000001</ele><time>2026-03-23T16:24:56Z</time></trkpt><trkpt lat="33.26929513801606" lon="9.105984855414706"><ele>89.0</ele><time>2026-03-23T16:24:58Z</time></trkpt><trkpt lat="33.26923429742163" lon="9.105938138972716"><ele>89.0</ele><time>2026-03-23T16:24:59Z</time></trkpt><trkpt lat="33.26918291445319" lon="9.105871722166132"><ele>89.0</ele><time>2026-03-23T16:25:00Z</time></trkpt><trkpt lat="33.269132174894516" lon="9.105786557756645"><ele>89.0</ele><time>2026-03-23T16:25:01Z</time></trkpt><trkpt lat="33.26907872678293" lon="9.105735758700346"><ele>89.0</ele><time>2026-03-23T16:25:02Z</time></trkpt><trkpt lat="33.26897507216476" lon="9.105711506530406"><ele>89.0</ele><time>2026-03-23T16:25:04Z</time></trkpt><trkpt lat="33.26889490783118" lon="9.105681174850876"><ele>89.0</ele><time>2026-03-23T16:25:06Z</time></trkpt><trkpt lat="33.268830303123394" lon="9.105627715170716"><ele>90.0</ele><time>2026-03-23T16:25:08Z</time></trkpt><trkpt lat="33.268751021347136" lon="9.105588988080864"><ele>91.0</ele><time>2026-03-23T16:25:10Z</time></trkpt><trkpt lat="33.268632749069596" lon="9.105567229227999"><ele>92.0</ele><time>2026-03-23T16:25:12Z</time></trkpt><trkpt lat="33.26854842751174" lon="9.105556183710172"><ele>93.0</ele><time>2026-03-23T16:25:14Z</time></trkpt><trkpt lat="33.26846927769482" lon="9.105493249034021"><ele>94.0</ele><time>2026-03-23T16:25:59Z</time></trkpt><trkpt lat="33.268439162725905" lon="9.105371514803682"><ele>94.0</ele><time>2026-03-23T16:26:01Z</time></trkpt><trkpt lat="33.26841323171956" lon="9.105302584053614"><ele>94.0</ele><time>2026-03-23T16:26:02Z</time></trkpt><trkpt lat="33.26837200124921" lon="9.105237286422831"><ele>94.0</ele><time>2026-03-23T16:26:03Z</time></trkpt><trkpt lat="33.26832059993539" lon="9.105182297886008"><ele>94.0</ele><time>2026-03-23T16:26:04Z</time></trkpt><trkpt lat="33.26826154429053" lon="9.105097881699226"><ele>94.0</ele><time>2026-03-23T16:26:06Z</time></trkpt><trkpt lat="33.268257226842856" lon="9.104968675624821"><ele>94.0</ele><time>2026-03-23T16:26:08Z</time></trkpt><trkpt lat="33.268223111342095" lon="9.104893241330275"><ele>93.80000000000001</ele><time>2026-03-23T16:26:09Z</time></trkpt><trkpt lat="33.268164523450395" lon="9.104808022154016"><ele>93.60000000000001</ele><time>2026-03-23T16:26:10Z</time></trkpt><trkpt lat="33.26810868672475" lon="9.10472397731329"><ele>93.4</ele><time>2026-03-23T16:26:11Z</time></trkpt><trkpt lat="33.26805407430271" lon="9.104628278532418"><ele>93.2</ele><time>2026-03-23T16:26:12Z</time></trkpt><trkpt lat="33.26796126538609" lon="9.104522866738693"><ele>93.0</ele><time>2026-03-23T16:26:14Z</time></trkpt><trkpt lat="33.26789635715381" lon="9.10447772246683"><ele>92.4</ele><time>2026-03-23T16:26:15Z</time></trkpt><trkpt lat="33.267826790291515" lon="9.104445376994011"><ele>91.80000000000001</ele><time>2026-03-23T16:26:16Z</time></trkpt><trkpt lat="33.267734088472764" lon="9.104349111040252"><ele>91.2</ele><time>2026-03-23T16:26:18Z</time></trkpt><trkpt lat="33.26767817316812" lon="9.104260946907354"><ele>90.6</ele><time>2026-03-23T16:26:19Z</time></trkpt><trkpt lat="33.267631537553115" lon="9.104173380631833"><ele>90.0</ele><time>2026-03-23T16:26:20Z</time></trkpt><trkpt lat="33.26756568060032" lon="9.104076911689816"><ele>90.0</ele><time>2026-03-23T16:26:21Z</time></trkpt><trkpt lat="33.26749658291949" lon="9.103976736244089"><ele>90.0</ele><time>2026-03-23T16:26:22Z</time></trkpt><trkpt lat="33.267427225618086" lon="9.103884800512875"><ele>90.0</ele><time>2026-03-23T16:26:23Z</time></trkpt><trkpt lat="33.2673494748343" lon="9.103802853476818"><ele>90.0</ele><time>2026-03-23T16:26:24Z</time></trkpt><trkpt lat="33.267244498160096" lon="9.103719027036417"><ele>90.0</ele><time>2026-03-23T16:26:25Z</time></trkpt><trkpt lat="33.26715380529793" lon="9.103653041006666"><ele>90.6</ele><time>2026-03-23T16:26:26Z</time></trkpt><trkpt lat="33.26706404046983" lon="9.103594864695271"><ele>91.2</ele><time>2026-03-23T16:26:27Z</time></trkpt><trkpt lat="33.26696404128738" lon="9.103537893527383"><ele>91.80000000000001</ele><time>2026-03-23T16:26:28Z</time></trkpt><trkpt lat="33.26688094891516" lon="9.103486324616043"><ele>92.4</ele><time>2026-03-23T16:26:29Z</time></trkpt><trkpt lat="33.26680056714858" lon="9.103438636701886"><ele>93.0</ele><time>2026-03-23T16:26:30Z</time></trkpt><trkpt lat="33.26670635759585" lon="9.103395839522955"><ele>93.0</ele><time>2026-03-23T16:26:31Z</time></trkpt><trkpt lat="33.266603547347486" lon="9.103366328246706"><ele>93.0</ele><time>2026-03-23T16:26:32Z</time></trkpt><trkpt lat="33.2664956714378" lon="9.103329967424516"><ele>93.0</ele><time>2026-03-23T16:26:33Z</time></trkpt><trkpt lat="33.26640024959003" lon="9.103278885897566"><ele>93.0</ele><time>2026-03-23T16:26:34Z</time></trkpt><trkpt lat="33.26632207132111" lon="9.103227452436062"><ele>93.0</ele><time>2026-03-23T16:26:35Z</time></trkpt><trkpt lat="33.26624153784144" lon="9.103191853798425"><ele>93.0</ele><time>2026-03-23T16:26:36Z</time></trkpt><trkpt lat="33.266149358310976" lon="9.10317363887333"><ele>93.0</ele><time>2026-03-23T16:26:37Z</time></trkpt><trkpt lat="33.26607903382085" lon="9.103141144330515"><ele>93.0</ele><time>2026-03-23T16:26:38Z</time></trkpt><trkpt lat="33.26598871673722" lon="9.103087909536534"><ele>93.0</ele><time>2026-03-23T16:26:39Z</time></trkpt><trkpt lat="33.26592599535992" lon="9.103038523246296"><ele>93.0</ele><time>2026-03-23T16:26:40Z</time></trkpt><trkpt lat="33.26585401766462" lon="9.102968490398716"><ele>93.0</ele><time>2026-03-23T16:26:41Z</time></trkpt><trkpt lat="33.26578469507381" lon="9.102890350628586"><ele>93.0</ele><time>2026-03-23T16:26:42Z</time></trkpt><trkpt lat="33.265724265188126" lon="9.102822992949012"><ele>93.0</ele><time>2026-03-23T16:26:43Z</time></trkpt><trkpt lat="33.265671472243795" lon="9.10274154251667"><ele>93.0</ele><time>2026-03-23T16:26:44Z</time></trkpt><trkpt lat="33.265626450211585" lon="9.10264758785952"><ele>93.0</ele><time>2026-03-23T16:26:45Z</time></trkpt><trkpt lat="33.265598168877524" lon="9.10257851606142"><ele>93.0</ele><time>2026-03-23T16:26:46Z</time></trkpt><trkpt lat="33.26555421675083" lon="9.102468697371895"><ele>93.0</ele><time>2026-03-23T16:26:48Z</time></trkpt><trkpt lat="33.265511844793224" lon="9.102376295119486"><ele>92.60000000000001</ele><time>2026-03-23T16:26:50Z</time></trkpt><trkpt lat="33.26545425449635" lon="9.10228414682284"><ele>92.2</ele><time>2026-03-23T16:26:52Z</time></trkpt><trkpt lat="33.26537624401329" lon="9.102239607555767"><ele>91.8</ele><time>2026-03-23T16:26:54Z</time></trkpt><trkpt lat="33.265258342001296" lon="9.102256728703034"><ele>91.4</ele><time>2026-03-23T16:26:56Z</time></trkpt><trkpt lat="33.26518806534286" lon="9.102278735248136"><ele>91.0</ele><time>2026-03-23T16:26:57Z</time></trkpt><trkpt lat="33.265089748194974" lon="9.102323300057527"><ele>91.0</ele><time>2026-03-23T16:26:59Z</time></trkpt><trkpt lat="33.265025702355544" lon="9.102326338886943"><ele>91.0</ele><time>2026-03-23T16:27:01Z</time></trkpt><trkpt lat="33.26494395534244" lon="9.102299217705612"><ele>91.0</ele><time>2026-03-23T16:27:03Z</time></trkpt><trkpt lat="33.264859446058956" lon="9.10227547197127"><ele>91.0</ele><time>2026-03-23T16:27:05Z</time></trkpt><trkpt lat="33.26480832141234" lon="9.102221648711021"><ele>91.0</ele><time>2026-03-23T16:27:07Z</time></trkpt><trkpt lat="33.26475399007563" lon="9.102183394192803"><ele>91.0</ele><time>2026-03-23T16:27:10Z</time></trkpt><trkpt lat="33.264693224705915" lon="9.102143317100216"><ele>91.0</ele><time>2026-03-23T16:29:34Z</time></trkpt><trkpt lat="33.26458234126577" lon="9.102109886443824"><ele>91.16666666666666</ele><time>2026-03-23T16:29:36Z</time></trkpt><trkpt lat="33.26448080088814" lon="9.102109557124553"><ele>91.33333333333333</ele><time>2026-03-23T16:29:38Z</time></trkpt><trkpt lat="33.26441584252687" lon="9.102078991688009"><ele>91.5</ele><time>2026-03-23T16:29:40Z</time></trkpt><trkpt lat="33.264376235557485" lon="9.102013848730701"><ele>91.66666666666667</ele><time>2026-03-23T16:29:54Z</time></trkpt><trkpt lat="33.264281762264005" lon="9.101971115556108"><ele>91.83333333333334</ele><time>2026-03-23T16:29:57Z</time></trkpt><trkpt lat="33.26421466917279" lon="9.101922965301748"><ele>92.0</ele><time>2026-03-23T16:29:58Z</time></trkpt><trkpt lat="33.264103979420085" lon="9.10188797569494"><ele>92.0</ele><time>2026-03-23T16:30:00Z</time></trkpt><trkpt lat="33.26403468764096" lon="9.101886522771716"><ele>92.0</ele><time>2026-03-23T16:30:01Z</time></trkpt><trkpt lat="33.26393962933818" lon="9.101875713869823"><ele>92.0</ele><time>2026-03-23T16:30:03Z</time></trkpt><trkpt lat="33.263873108797824" lon="9.101828301323467"><ele>92.0</ele><time>2026-03-23T16:30:48Z</time></trkpt><trkpt lat="33.263796088998326" lon="9.101762865666103"><ele>92.0</ele><time>2026-03-23T16:30:50Z</time></trkpt><trkpt lat="33.263720944795864" lon="9.101706133033021"><ele>92.0</ele><time>2026-03-23T16:30:52Z</time></trkpt><trkpt lat="33.26362491232273" lon="9.101652772336246"><ele>91.8</ele><time>2026-03-23T16:30:54Z</time></trkpt><trkpt lat="33.26353407526521" lon="9.101639061977009"><ele>91.6</ele><time>2026-03-23T16:30:56Z</time></trkpt><trkpt lat="33.26341697774507" lon="9.101660781476674"><ele>91.39999999999999</ele><time>2026-03-23T16:30:58Z</time></trkpt><trkpt lat="33.26330745531451" lon="9.101695619747153"><ele>91.19999999999999</ele><time>2026-03-23T16:31:00Z</time></trkpt><trkpt lat="33.263242483946684" lon="9.101716014138718"><ele>91.0</ele><time>2026-03-23T16:31:02Z</time></trkpt><trkpt lat="33.26319214868725" lon="9.101639082276069"><ele>90.83333333333333</ele><time>2026-03-23T16:31:04Z</time></trkpt><trkpt lat="33.2631430155566" lon="9.101541524376426"><ele>90.66666666666666</ele><time>2026-03-23T16:31:07Z</time></trkpt><trkpt lat="33.26313511460073" lon="9.101460110969079"><ele>90.5</ele><time>2026-03-23T16:31:09Z</time></trkpt><trkpt lat="33.26304056436902" lon="9.101448631577545"><ele>90.33333333333333</ele><time>2026-03-23T16:31:12Z</time></trkpt><trkpt lat="33.26297749176181" lon="9.10146513401349"><ele>90.16666666666667</ele><time>2026-03-23T16:31:13Z</time></trkpt><trkpt lat="33.26290684123762" lon="9.101487716612175"><ele>90.0</ele><time>2026-03-23T16:31:14Z</time></trkpt><trkpt lat="33.26283250732284" lon="9.101507490453173"><ele>90.0</ele><time>2026-03-23T16:31:15Z</time></trkpt><trkpt lat="33.262763771771965" lon="9.101530131474641"><ele>90.0</ele><time>2026-03-23T16:31:16Z</time></trkpt><trkpt lat="33.26269932313204" lon="9.10156899120328"><ele>90.0</ele><time>2026-03-23T16:31:17Z</time></trkpt><trkpt lat="33.26262832310692" lon="9.101622076397827"><ele>90.0</ele><time>2026-03-23T16:31:18Z</time></trkpt><trkpt lat="33.26256636251985" lon="9.10166986213594"><ele>90.0</ele><time>2026-03-23T16:31:19Z</time></trkpt><trkpt lat="33.262471231392375" lon="9.10172763119125"><ele>90.0</ele><time>2026-03-23T16:31:21Z</time></trkpt><trkpt lat="33.262371929798306" lon="9.101721474565212"><ele>90.4</ele><time>2026-03-23T16:31:23Z</time></trkpt><trkpt lat="33.26228190466251" lon="9.101712435771192"><ele>90.8</ele><time>2026-03-23T16:31:25Z</time></trkpt><trkpt lat="33.26219049983955" lon="9.101703670526152"><ele>91.19999999999999</ele><time>2026-03-23T16:31:27Z</time></trkpt><trkpt lat="33.262117525704" lon="9.10168681689276"><ele>91.6</ele><time>2026-03-23T16:31:29Z</time></trkpt><trkpt lat="33.262013916914086" lon="9.101644235919789"><ele>92.0</ele><time>2026-03-23T16:31:31Z</time></trkpt><trkpt lat="33.261911329150486" lon="9.101628062128366"><ele>92.19999999999999</ele><time>2026-03-23T16:31:33Z</time></trkpt><trkpt lat="33.261826403176826" lon="9.101634840504554"><ele>92.4</ele><time>2026-03-23T16:31:35Z</time></trkpt><trkpt lat="33.2617263047837" lon="9.10166295276381"><ele>92.6</ele><time>2026-03-23T16:31:37Z</time></trkpt><trkpt lat="33.26164314035425" lon="9.101710686158512"><ele>92.80000000000001</ele><time>2026-03-23T16:31:39Z</time></trkpt><trkpt lat="33.26156465736062" lon="9.101771145640797"><ele>93.0</ele><time>2026-03-23T16:31:41Z</time></trkpt><trkpt lat="33.26147121335443" lon="9.1017748338393"><ele>93.0</ele><time>2026-03-23T16:31:43Z</time></trkpt><trkpt lat="33.26138040634595" lon="9.10172129649077"><ele>93.0</ele><time>2026-03-23T16:31:45Z</time></trkpt><trkpt lat="33.26130390753959" lon="9.101706883003125"><ele>93.0</ele><time>2026-03-23T16:31:47Z</time></trkpt><trkpt lat="33.26122241829354" lon="9.101684047448435"><ele>93.0</ele><time>2026-03-23T16:31:49Z</time></trkpt><trkpt lat="33.26115667900266" lon="9.101608619252946"><ele>93.0</ele><time>2026-03-23T16:31:52Z</time></trkpt><trkpt lat="33.261126755198596" lon="9.101481124592246"><ele>93.0</ele><time>2026-03-23T16:31:54Z</time></trkpt><trkpt lat="33.26109440115426" lon="9.10135924051396"><ele>93.0</ele><time>2026-03-23T16:31:56Z</time></trkpt><trkpt lat="33.26104220532055" lon="9.101284864405981"><ele>93.0</ele><time>2026-03-23T16:31:58Z</time></trkpt><trkpt lat="33.26094455160087" lon="9.101296645393495"><ele>93.0</ele><time>2026-03-23T16:32:01Z</time></trkpt><trkpt lat="33.260880399077855" lon="9.101320697514042"><ele>93.0</ele><time>2026-03-23T16:32:02Z</time></trkpt><trkpt lat="33.26077506737058" lon="9.10137566165816"><ele>93.0</ele><time>2026-03-23T16:32:04Z</time></trkpt><trkpt lat="33.26069769506447" lon="9.101434638417585"><ele>93.0</ele><time>2026-03-23T16:32:06Z</time></trkpt><trkpt lat="33.26063226669149" lon="9.101541998548267"><ele>93.0</ele><time>2026-03-23T16:32:08Z</time></trkpt><trkpt lat="33.260548454806965" lon="9.101624683468721"><ele>93.0</ele><time>2026-03-23T16:32:10Z</time></trkpt><trkpt lat="33.260452684326644" lon="9.101655619263896"><ele>93.0</ele><time>2026-03-23T16:32:12Z</time></trkpt><trkpt lat="33.26035029438723" lon="9.101655052631813"><ele>92.2</ele><time>2026-03-23T16:32:14Z</time></trkpt><trkpt lat="33.26026922206615" lon="9.101694579896808"><ele>91.4</ele><time>2026-03-23T16:32:16Z</time></trkpt><trkpt lat="33.26018492313202" lon="9.101694924160654"><ele>90.60000000000001</ele><time>2026-03-23T16:32:18Z</time></trkpt><trkpt lat="33.26009679505828" lon="9.10166047403289"><ele>89.80000000000001</ele><time>2026-03-23T16:32:29Z</time></trkpt><trkpt lat="33.260030040472294" lon="9.1016579780279"><ele>89.0</ele><time>2026-03-23T16:32:30Z</time></trkpt><trkpt lat="33.25989224337039" lon="9.101650948862996"><ele>89.4</ele><time>2026-03-23T16:32:32Z</time></trkpt><trkpt lat="33.25976425419741" lon="9.101656234426576"><ele>89.80000000000001</ele><time>2026-03-23T16:32:34Z</time></trkpt><trkpt lat="33.25968118244928" lon="9.101674035791328"><ele>90.19999999999999</ele><time>2026-03-23T16:32:36Z</time></trkpt><trkpt lat="33.25959817084757" lon="9.101638553240393"><ele>90.6</ele><time>2026-03-23T16:32:39Z</time></trkpt><trkpt lat="33.25952015211347" lon="9.101701006745262"><ele>91.0</ele><time>2026-03-23T16:32:41Z</time></trkpt><trkpt lat="33.25943071054899" lon="9.1017324684765"><ele>91.0</ele><time>2026-03-23T16:32:43Z</time></trkpt><trkpt lat="33.25935787435779" lon="9.101738883301302"><ele>91.0</ele><time>2026-03-23T16:32:44Z</time></trkpt><trkpt lat="33.25927712244852" lon="9.101751615513502"><ele>91.0</ele><time>2026-03-23T16:32:45Z</time></trkpt><trkpt lat="33.25920044440065" lon="9.101769796929812"><ele>91.0</ele><time>2026-03-23T16:32:46Z</time></trkpt><trkpt lat="33.2591390096741" lon="9.101802858348275"><ele>91.0</ele><time>2026-03-23T16:32:47Z</time></trkpt><trkpt lat="33.25907413694028" lon="9.101857291424622"><ele>91.0</ele><time>2026-03-23T16:32:48Z</time></trkpt><trkpt lat="33.25901312268543" lon="9.101925885734026"><ele>91.0</ele><time>2026-03-23T16:32:49Z</time></trkpt><trkpt lat="33.25896146440327" lon="9.101997259910895"><ele>91.0</ele><time>2026-03-23T16:32:50Z</time></trkpt><trkpt lat="33.258908711189775" lon="9.102080521667414"><ele>91.0</ele><time>2026-03-23T16:32:51Z</time></trkpt><trkpt lat="33.258869094998495" lon="9.102170043715672"><ele>91.0</ele><time>2026-03-23T16:32:52Z</time></trkpt><trkpt lat="33.2588384381854" lon="9.102274745662832"><ele>91.0</ele><time>2026-03-23T16:32:53Z</time></trkpt><trkpt lat="33.258827582605385" lon="9.102356750543931"><ele>91.0</ele><time>2026-03-23T16:32:54Z</time></trkpt><trkpt lat="33.25881974828874" lon="9.102436919214803"><ele>91.16666666666666</ele><time>2026-03-23T16:32:55Z</time></trkpt><trkpt lat="33.2588095800396" lon="9.10251216658757"><ele>91.33333333333333</ele><time>2026-03-23T16:32:56Z</time></trkpt><trkpt lat="33.258770528325535" lon="9.102593568707656"><ele>91.5</ele><time>2026-03-23T16:32:58Z</time></trkpt><trkpt lat="33.25869382685451" lon="9.102641276805276"><ele>91.66666666666667</ele><time>2026-03-23T16:33:00Z</time></trkpt><trkpt lat="33.258630041131255" lon="9.102696390286827"><ele>91.83333333333334</ele><time>2026-03-23T16:33:02Z</time></trkpt><trkpt lat="33.25860900037375" lon="9.1027781344648"><ele>92.0</ele><time>2026-03-23T16:33:03Z</time></trkpt><trkpt lat="33.25859774612907" lon="9.102869989578062"><ele>92.0</ele><time>2026-03-23T16:33:04Z</time></trkpt><trkpt lat="33.25857741265851" lon="9.102952120677449"><ele>92.0</ele><time>2026-03-23T16:33:05Z</time></trkpt><trkpt lat="33.25856747009089" lon="9.103072179317865"><ele>92.0</ele><time>2026-03-23T16:33:07Z</time></trkpt><trkpt lat="33.2585794310577" lon="9.103205754871516"><ele>92.0</ele><time>2026-03-23T16:33:09Z</time></trkpt><trkpt lat="33.258574750599855" lon="9.103282820876824"><ele>92.0</ele><time>2026-03-23T16:33:10Z</time></trkpt><trkpt lat="33.258563536131135" lon="9.103421913847477"><ele>91.8</ele><time>2026-03-23T16:33:12Z</time></trkpt><trkpt lat="33.258572844985395" lon="9.103502380136927"><ele>91.6</ele><time>2026-03-23T16:33:13Z</time></trkpt><trkpt lat="33.258555797341984" lon="9.103627558784215"><ele>91.39999999999999</ele><time>2026-03-23T16:33:15Z</time></trkpt><trkpt lat="33.2585010198821" lon="9.103720055291761"><ele>91.19999999999999</ele><time>2026-03-23T16:33:17Z</time></trkpt><trkpt lat="33.25842161760279" lon="9.103763554959714"><ele>91.0</ele><time>2026-03-23T16:33:29Z</time></trkpt><trkpt lat="33.25832790068748" lon="9.10382627293819"><ele>91.0</ele><time>2026-03-23T16:33:31Z</time></trkpt><trkpt lat="33.25824260296652" lon="9.103882198636601"><ele>91.0</ele><time>2026-03-23T16:33:33Z</time></trkpt><trkpt lat="33.25817154287596" lon="9.103930527345872"><ele>91.0</ele><time>2026-03-23T16:33:35Z</time></trkpt><trkpt lat="33.25810511366369" lon="9.103985026107036"><ele>91.0</ele><time>2026-03-23T16:33:36Z</time></trkpt><trkpt lat="33.2580384491803" lon="9.104043945544317"><ele>91.0</ele><time>2026-03-23T16:33:37Z</time></trkpt><trkpt lat="33.25798129445013" lon="9.104096085580226"><ele>91.0</ele><time>2026-03-23T16:33:38Z</time></trkpt><trkpt lat="33.257900364740514" lon="9.104127041643649"><ele>91.16666666666666</ele><time>2026-03-23T16:33:41Z</time></trkpt><trkpt lat="33.25781921008025" lon="9.104074439820545"><ele>91.33333333333333</ele><time>2026-03-23T16:33:43Z</time></trkpt><trkpt lat="33.257743743087765" lon="9.104108094835071"><ele>91.5</ele><time>2026-03-23T16:33:45Z</time></trkpt><trkpt lat="33.257693090914934" lon="9.104168039716432"><ele>91.66666666666667</ele><time>2026-03-23T16:33:46Z</time></trkpt><trkpt lat="33.257610826357805" lon="9.104258452633074"><ele>91.83333333333334</ele><time>2026-03-23T16:33:48Z</time></trkpt><trkpt lat="33.25754973509719" lon="9.104338547207744"><ele>92.0</ele><time>2026-03-23T16:33:50Z</time></trkpt><trkpt lat="33.25753990371162" lon="9.104460983157185"><ele>92.0</ele><time>2026-03-23T16:33:52Z</time></trkpt><trkpt lat="33.25756703685523" lon="9.104586525001535"><ele>92.0</ele><time>2026-03-23T16:33:54Z</time></trkpt><trkpt lat="33.257583937164775" lon="9.104659257365219"><ele>92.0</ele><time>2026-03-23T16:33:55Z</time></trkpt><trkpt lat="33.25752350906697" lon="9.104724524890178"><ele>92.0</ele><time>2026-03-23T16:33:59Z</time></trkpt><trkpt lat="33.2574211958951" lon="9.104770499046381"><ele>92.0</ele><time>2026-03-23T16:34:01Z</time></trkpt><trkpt lat="33.25731681061856" lon="9.104840249974686"><ele>92.0</ele><time>2026-03-23T16:34:03Z</time></trkpt><trkpt lat="33.25723940651923" lon="9.104911982862422"><ele>92.0</ele><time>2026-03-23T16:34:05Z</time></trkpt><trkpt lat="33.25720602245513" lon="9.105034676097496"><ele>92.0</ele><time>2026-03-23T16:34:07Z</time></trkpt><trkpt lat="33.257197900953805" lon="9.10511237424219"><ele>92.0</ele><time>2026-03-23T16:34:08Z</time></trkpt><trkpt lat="33.257184591490116" lon="9.105187225782243"><ele>92.0</ele><time>2026-03-23T16:34:09Z</time></trkpt><trkpt lat="33.25711458864692" lon="9.10529684339903"><ele>92.19999999999999</ele><time>2026-03-23T16:34:11Z</time></trkpt><trkpt lat="33.25704504867374" lon="9.105417047612441"><ele>92.4</ele><time>2026-03-23T16:34:13Z</time></trkpt><trkpt lat="33.257016147453555" lon="9.105501685538787"><ele>92.6</ele><time>2026-03-23T16:34:14Z</time></trkpt><trkpt lat="33.25698658247945" lon="9.105569850648038"><ele>92.80000000000001</ele><time>2026-03-23T16:34:15Z</time></trkpt><trkpt lat="33.256905929375684" lon="9.105685179964427"><ele>93.0</ele><time>2026-03-23T16:34:17Z</time></trkpt><trkpt lat="33.25684818638765" lon="9.105738996303833"><ele>93.16666666666667</ele><time>2026-03-23T16:34:18Z</time></trkpt><trkpt lat="33.25677799392696" lon="9.105790704784967"><ele>93.33333333333333</ele><time>2026-03-23T16:34:19Z</time></trkpt><trkpt lat="33.25669804503596" lon="9.105835639117076"><ele>93.5</ele><time>2026-03-23T16:34:20Z</time></trkpt><trkpt lat="33.25662128315133" lon="9.10587672182524"><ele>93.66666666666666</ele><time>2026-03-23T16:34:21Z</time></trkpt><trkpt lat="33.256561759432266" lon="9.105919360132189"><ele>93.83333333333333</ele><time>2026-03-23T16:34:22Z</time></trkpt><trkpt lat="33.25650553272227" lon="9.105977957689074"><ele>94.0</ele><time>2026-03-23T16:34:23Z</time></trkpt><trkpt lat="33.256451904728955" lon="9.106042828581284"><ele>94.0</ele><time>2026-03-23T16:34:24Z</time></trkpt><trkpt lat="33.25639576617903" lon="9.106106260071376"><ele>94.0</ele><time>2026-03-23T16:34:25Z</time></trkpt><trkpt lat="33.25633378594961" lon="9.10616441530729"><ele>94.0</ele><time>2026-03-23T16:34:26Z</time></trkpt><trkpt lat="33.25626626390695" lon="9.10620276225328"><ele>94.0</ele><time>2026-03-23T16:34:27Z</time></trkpt><trkpt lat="33.25618765360771" lon="9.10622943457812"><ele>94.0</ele><time>2026-03-23T16:34:28Z</time></trkpt><trkpt lat="33.25611723419988" lon="9.106253581976373"><ele>94.0</ele><time>2026-03-23T16:34:29Z</time></trkpt><trkpt lat="33.25605439096971" lon="9.106296444633669"><ele>94.0</ele><time>2026-03-23T16:34:30Z</time></trkpt><trkpt lat="33.255992525175266" lon="9.106344930856796"><ele>94.0</ele><time>2026-03-23T16:34:31Z</time></trkpt><trkpt lat="33.25592959221227" lon="9.106408297471065"><ele>94.0</ele><time>2026-03-23T16:34:32Z</time></trkpt><trkpt lat="33.255867432853314" lon="9.106486430679238"><ele>94.0</ele><time>2026-03-23T16:34:33Z</time></trkpt><trkpt lat="33.255824675254" lon="9.106558588256632"><ele>94.0</ele><time>2026-03-23T16:34:34Z</time></trkpt><trkpt lat="33.25578536841483" lon="9.10661881731103"><ele>94.0</ele><time>2026-03-23T16:34:35Z</time></trkpt><trkpt lat="33.255710293225896" lon="9.106692133230565"><ele>93.4</ele><time>2026-03-23T16:34:37Z</time></trkpt><trkpt lat="33.255614672363336" lon="9.106769375900793"><ele>92.80000000000001</ele><time>2026-03-23T16:34:39Z</time></trkpt><trkpt lat="33.25551802739321" lon="9.106854718597694"><ele>92.19999999999999</ele><time>2026-03-23T16:34:41Z</time></trkpt><trkpt lat="33.25546179447536" lon="9.1069632110538"><ele>91.6</ele><time>2026-03-23T16:34:43Z</time></trkpt><trkpt lat="33.25539969397052" lon="9.107065836186784"><ele>91.0</ele><time>2026-03-23T16:34:45Z</time></trkpt><trkpt lat="33.25529155537937" lon="9.107089027871083"><ele>91.0</ele><time>2026-03-23T16:34:47Z</time></trkpt><trkpt lat="33.25517175367953" lon="9.10711362342557"><ele>91.0</ele><time>2026-03-23T16:34:49Z</time></trkpt><trkpt lat="33.25506416560804" lon="9.107146940986263"><ele>91.0</ele><time>2026-03-23T16:34:51Z</time></trkpt><trkpt lat="33.25498488921326" lon="9.107226211539832"><ele>91.0</ele><time>2026-03-23T16:34:53Z</time></trkpt><trkpt lat="33.25495583467246" lon="9.1072993682023"><ele>91.0</ele><time>2026-03-23T16:34:54Z</time></trkpt><trkpt lat="33.25492718426575" lon="9.107370707273564"><ele>91.28571428571429</ele><time>2026-03-23T16:34:55Z</time></trkpt><trkpt lat="33.254870731470994" lon="9.107427804518094"><ele>91.57142857142857</ele><time>2026-03-23T16:34:56Z</time></trkpt><trkpt lat="33.25481966540182" lon="9.10748133029095"><ele>91.85714285714286</ele><time>2026-03-23T16:34:57Z</time></trkpt><trkpt lat="33.25477658980251" lon="9.107548773489729"><ele>92.14285714285714</ele><time>2026-03-23T16:34:58Z</time></trkpt><trkpt lat="33.25475007613234" lon="9.107626101028822"><ele>92.42857142857143</ele><time>2026-03-23T16:34:59Z</time></trkpt><trkpt lat="33.254726596233645" lon="9.107718780523065"><ele>92.71428571428572</ele><time>2026-03-23T16:35:00Z</time></trkpt><trkpt lat="33.25469636930858" lon="9.107810571156831"><ele>93.0</ele><time>2026-03-23T16:35:01Z</time></trkpt><trkpt lat="33.25466857136813" lon="9.107886900697284"><ele>93.00000000000001</ele><time>2026-03-23T16:35:02Z</time></trkpt><trkpt lat="33.25465745543316" lon="9.107963879344995"><ele>93.0</ele><time>2026-03-23T16:35:04Z</time></trkpt><trkpt lat="33.25463242921169" lon="9.108065329453117"><ele>93.0</ele><time>2026-03-23T16:35:06Z</time></trkpt><trkpt lat="33.25458800861489" lon="9.108122685240971"><ele>93.0</ele><time>2026-03-23T16:35:08Z</time></trkpt><trkpt lat="33.25451200059601" lon="9.108132213485177"><ele>93.0</ele><time>2026-03-23T16:35:10Z</time></trkpt><trkpt lat="33.25443864927308" lon="9.108167573628153"><ele>93.00000000000001</ele><time>2026-03-23T16:35:11Z</time></trkpt><trkpt lat="33.25437411703871" lon="9.108207973490789"><ele>93.0</ele><time>2026-03-23T16:35:12Z</time></trkpt><trkpt lat="33.254320123974985" lon="9.108255012864282"><ele>93.0</ele><time>2026-03-23T16:35:13Z</time></trkpt><trkpt lat="33.254270499073805" lon="9.108322436783851"><ele>93.0</ele><time>2026-03-23T16:35:15Z</time></trkpt><trkpt lat="33.25424529431916" lon="9.108413916444869"><ele>93.0</ele><time>2026-03-23T16:35:17Z</time></trkpt><trkpt lat="33.25419159771285" lon="9.108476101721402"><ele>93.0</ele><time>2026-03-23T16:35:19Z</time></trkpt><trkpt lat="33.25409524126189" lon="9.108527720882241"><ele>93.0</ele><time>2026-03-23T16:35:21Z</time></trkpt><trkpt lat="33.25403545976232" lon="9.10856134770825"><ele>93.0</ele><time>2026-03-23T16:35:22Z</time></trkpt><trkpt lat="33.25392278891203" lon="9.108600149145612"><ele>92.80000000000001</ele><time>2026-03-23T16:35:24Z</time></trkpt><trkpt lat="33.25380764629213" lon="9.108645964101992"><ele>92.6</ele><time>2026-03-23T16:35:26Z</time></trkpt><trkpt lat="33.25375041400139" lon="9.108679021886832"><ele>92.4</ele><time>2026-03-23T16:35:27Z</time></trkpt><trkpt lat="33.25366208139508" lon="9.108724961477254"><ele>92.19999999999999</ele><time>2026-03-23T16:35:29Z</time></trkpt><trkpt lat="33.253540980894805" lon="9.108790886984389"><ele>92.0</ele><time>2026-03-23T16:35:31Z</time></trkpt><trkpt lat="33.253465971375626" lon="9.108832029224585"><ele>92.0</ele><time>2026-03-23T16:35:32Z</time></trkpt><trkpt lat="33.2534024904851" lon="9.108875018208291"><ele>92.0</ele><time>2026-03-23T16:35:33Z</time></trkpt><trkpt lat="33.25334772767763" lon="9.108927194006407"><ele>92.0</ele><time>2026-03-23T16:35:34Z</time></trkpt><trkpt lat="33.25325508143059" lon="9.109024727513958"><ele>92.0</ele><time>2026-03-23T16:35:36Z</time></trkpt><trkpt lat="33.25321655867983" lon="9.109086653259222"><ele>92.0</ele><time>2026-03-23T16:35:36.999Z</time></trkpt><trkpt lat="33.25318877378603" lon="9.109223199235966"><ele>92.0</ele><time>2026-03-23T16:35:39Z</time></trkpt><trkpt lat="33.25317156580446" lon="9.109314095388585"><ele>91.8</ele><time>2026-03-23T16:35:40Z</time></trkpt><trkpt lat="33.253147983144025" lon="9.109396357818536"><ele>91.6</ele><time>2026-03-23T16:35:41Z</time></trkpt><trkpt lat="33.25307366858558" lon="9.109504476988965"><ele>91.39999999999999</ele><time>2026-03-23T16:35:43Z</time></trkpt><trkpt lat="33.252985019367" lon="9.109605553427423"><ele>91.19999999999999</ele><time>2026-03-23T16:35:45Z</time></trkpt><trkpt lat="33.25287092759369" lon="9.10965200324438"><ele>91.0</ele><time>2026-03-23T16:35:47Z</time></trkpt><trkpt lat="33.25274302209776" lon="9.109738314737442"><ele>91.33333333333333</ele><time>2026-03-23T16:35:49Z</time></trkpt><trkpt lat="33.25269836669349" lon="9.109797305017072"><ele>91.66666666666666</ele><time>2026-03-23T16:35:50Z</time></trkpt><trkpt lat="33.25265486727054" lon="9.109860284165276"><ele>92.0</ele><time>2026-03-23T16:35:51Z</time></trkpt><trkpt lat="33.25256105535199" lon="9.109960891274358"><ele>92.33333333333333</ele><time>2026-03-23T16:35:53Z</time></trkpt><trkpt lat="33.25249992409483" lon="9.110020370708124"><ele>92.66666666666667</ele><time>2026-03-23T16:35:54Z</time></trkpt><trkpt lat="33.25243759691649" lon="9.110078890493094"><ele>93.0</ele><time>2026-03-23T16:35:55Z</time></trkpt><trkpt lat="33.25237839922531" lon="9.110132011875583"><ele>93.00000000000001</ele><time>2026-03-23T16:35:56Z</time></trkpt><trkpt lat="33.252316601656005" lon="9.110160698614706"><ele>93.0</ele><time>2026-03-23T16:35:57Z</time></trkpt><trkpt lat="33.25225316618192" lon="9.11018294147332"><ele>93.0</ele><time>2026-03-23T16:35:58Z</time></trkpt><trkpt lat="33.25218727544755" lon="9.110220602647498"><ele>93.0</ele><time>2026-03-23T16:35:59Z</time></trkpt><trkpt lat="33.25212867123339" lon="9.110262162976595"><ele>93.0</ele><time>2026-03-23T16:36:00Z</time></trkpt><trkpt lat="33.25206959563186" lon="9.110315003278238"><ele>93.00000000000001</ele><time>2026-03-23T16:36:01Z</time></trkpt><trkpt lat="33.25201512337329" lon="9.110372783589801"><ele>93.0</ele><time>2026-03-23T16:36:02Z</time></trkpt><trkpt lat="33.25194731795121" lon="9.110444271297794"><ele>93.00000000000001</ele><time>2026-03-23T16:36:03Z</time></trkpt><trkpt lat="33.251905690391126" lon="9.110506967901173"><ele>93.0</ele><time>2026-03-23T16:36:04Z</time></trkpt><trkpt lat="33.25186692457019" lon="9.110574844698553"><ele>93.0</ele><time>2026-03-23T16:36:05Z</time></trkpt><trkpt lat="33.251818837043295" lon="9.110649585772354"><ele>93.0</ele><time>2026-03-23T16:36:06Z</time></trkpt><trkpt lat="33.25176840868824" lon="9.110715939381434"><ele>93.0</ele><time>2026-03-23T16:36:07Z</time></trkpt><trkpt lat="33.25172470095004" lon="9.110776359604323"><ele>93.00000000000001</ele><time>2026-03-23T16:36:08Z</time></trkpt><trkpt lat="33.25166921201477" lon="9.11084177893529"><ele>93.0</ele><time>2026-03-23T16:36:09Z</time></trkpt><trkpt lat="33.251613402525045" lon="9.110893546963892"><ele>93.0</ele><time>2026-03-23T16:36:10Z</time></trkpt><trkpt lat="33.25150031147766" lon="9.11095329717013"><ele>93.0</ele><time>2026-03-23T16:36:12Z</time></trkpt><trkpt lat="33.25142788729702" lon="9.11099674321888"><ele>93.0</ele><time>2026-03-23T16:36:13Z</time></trkpt><trkpt lat="33.25135739527988" lon="9.111058761866031"><ele>93.0</ele><time>2026-03-23T16:36:14Z</time></trkpt><trkpt lat="33.251288754546486" lon="9.111132832307455"><ele>93.0</ele><time>2026-03-23T16:36:15Z</time></trkpt><trkpt lat="33.25122787025497" lon="9.11120605978591"><ele>92.66666666666667</ele><time>2026-03-23T16:36:16Z</time></trkpt><trkpt lat="33.2511832988932" lon="9.11125944767539"><ele>92.33333333333333</ele><time>2026-03-23T16:36:17Z</time></trkpt><trkpt lat="33.2511188988368" lon="9.111325267500833"><ele>92.0</ele><time>2026-03-23T16:36:18Z</time></trkpt><trkpt lat="33.25106072986703" lon="9.111375772189664"><ele>91.66666666666666</ele><time>2026-03-23T16:36:19Z</time></trkpt><trkpt lat="33.25097812551347" lon="9.111447451352264"><ele>91.33333333333333</ele><time>2026-03-23T16:36:20Z</time></trkpt><trkpt lat="33.250894319729554" lon="9.111513907025081"><ele>91.0</ele><time>2026-03-23T16:36:21Z</time></trkpt><trkpt lat="33.25080961043963" lon="9.111569001657092"><ele>91.16666666666666</ele><time>2026-03-23T16:36:22Z</time></trkpt><trkpt lat="33.250736490825375" lon="9.111622201010519"><ele>91.33333333333333</ele><time>2026-03-23T16:36:23Z</time></trkpt><trkpt lat="33.25067522010741" lon="9.11168472720805"><ele>91.5</ele><time>2026-03-23T16:36:24Z</time></trkpt><trkpt lat="33.250623994838854" lon="9.111749818637163"><ele>91.66666666666667</ele><time>2026-03-23T16:36:25Z</time></trkpt><trkpt lat="33.250577395443244" lon="9.111828932117719"><ele>91.83333333333334</ele><time>2026-03-23T16:36:26Z</time></trkpt><trkpt lat="33.250526132071236" lon="9.111904972549555"><ele>92.0</ele><time>2026-03-23T16:36:27Z</time></trkpt><trkpt lat="33.25046813480393" lon="9.111981664151784"><ele>92.0</ele><time>2026-03-23T16:36:28Z</time></trkpt><trkpt lat="33.2503993293194" lon="9.112050739731044"><ele>92.0</ele><time>2026-03-23T16:36:29Z</time></trkpt><trkpt lat="33.25033358573306" lon="9.112122723927817"><ele>92.0</ele><time>2026-03-23T16:36:30Z</time></trkpt><trkpt lat="33.25023999081937" lon="9.112198781240876"><ele>92.0</ele><time>2026-03-23T16:36:31Z</time></trkpt><trkpt lat="33.2501689610258" lon="9.112281220277813"><ele>92.0</ele><time>2026-03-23T16:36:32Z</time></trkpt><trkpt lat="33.25010272626588" lon="9.112357406550307"><ele>91.6</ele><time>2026-03-23T16:36:33Z</time></trkpt><trkpt lat="33.25002829730515" lon="9.112437094058107"><ele>91.19999999999999</ele><time>2026-03-23T16:36:34Z</time></trkpt><trkpt lat="33.24995795645904" lon="9.112499056806014"><ele>90.8</ele><time>2026-03-23T16:36:35Z</time></trkpt><trkpt lat="33.24988266040507" lon="9.112565388211669"><ele>90.4</ele><time>2026-03-23T16:36:36Z</time></trkpt><trkpt lat="33.24981446378975" lon="9.112629797548635"><ele>90.0</ele><time>2026-03-23T16:36:37Z</time></trkpt><trkpt lat="33.24975489702465" lon="9.112698056131862"><ele>89.8</ele><time>2026-03-23T16:36:38Z</time></trkpt><trkpt lat="33.24968650194892" lon="9.112780743305475"><ele>89.6</ele><time>2026-03-23T16:36:39Z</time></trkpt><trkpt lat="33.24961011825036" lon="9.11286107212543"><ele>89.4</ele><time>2026-03-23T16:36:40Z</time></trkpt><trkpt lat="33.24954085829513" lon="9.112927723373932"><ele>89.2</ele><time>2026-03-23T16:36:41Z</time></trkpt><trkpt lat="33.249469821602744" lon="9.112988667343922"><ele>89.0</ele><time>2026-03-23T16:36:42Z</time></trkpt><trkpt lat="33.24940295136232" lon="9.113044987946253"><ele>89.0</ele><time>2026-03-23T16:36:43Z</time></trkpt><trkpt lat="33.24932204167346" lon="9.11311024199195"><ele>89.0</ele><time>2026-03-23T16:36:44Z</time></trkpt><trkpt lat="33.24924032981197" lon="9.113170925280823"><ele>89.0</ele><time>2026-03-23T16:36:45Z</time></trkpt><trkpt lat="33.24916136308028" lon="9.113218450075419"><ele>89.0</ele><time>2026-03-23T16:36:46Z</time></trkpt><trkpt lat="33.24907331601899" lon="9.1132620249976"><ele>89.0</ele><time>2026-03-23T16:36:47Z</time></trkpt><trkpt lat="33.24899567870716" lon="9.113285352122423"><ele>89.5</ele><time>2026-03-23T16:36:48Z</time></trkpt><trkpt lat="33.24892959513542" lon="9.113309511950048"><ele>90.0</ele><time>2026-03-23T16:36:49Z</time></trkpt><trkpt lat="33.24887231694874" lon="9.113347368712226"><ele>90.5</ele><time>2026-03-23T16:36:50Z</time></trkpt><trkpt lat="33.24882093119981" lon="9.11339628180476"><ele>91.0</ele><time>2026-03-23T16:36:51Z</time></trkpt><trkpt lat="33.24872632678036" lon="9.113478055740885"><ele>91.5</ele><time>2026-03-23T16:36:53Z</time></trkpt><trkpt lat="33.24865968565886" lon="9.113490774563035"><ele>92.0</ele><time>2026-03-23T16:36:54Z</time></trkpt><trkpt lat="33.24858806371046" lon="9.113492048445876"><ele>92.0</ele><time>2026-03-23T16:36:55Z</time></trkpt><trkpt lat="33.248513809490625" lon="9.113498991038211"><ele>92.0</ele><time>2026-03-23T16:36:56Z</time></trkpt><trkpt lat="33.24845236622279" lon="9.113519096803262"><ele>92.0</ele><time>2026-03-23T16:36:57Z</time></trkpt><trkpt lat="33.248393172424535" lon="9.11355199871991"><ele>92.0</ele><time>2026-03-23T16:36:58Z</time></trkpt><trkpt lat="33.24830469630383" lon="9.113632179202682"><ele>92.0</ele><time>2026-03-23T16:37:00Z</time></trkpt><trkpt lat="33.24821659155598" lon="9.113755303252486"><ele>92.0</ele><time>2026-03-23T16:37:02Z</time></trkpt><trkpt lat="33.2481627642362" lon="9.113848640853773"><ele>92.0</ele><time>2026-03-23T16:37:03Z</time></trkpt><trkpt lat="33.248101306989085" lon="9.113921632309578"><ele>92.0</ele><time>2026-03-23T16:37:04Z</time></trkpt><trkpt lat="33.24803380414638" lon="9.113979171677903"><ele>92.0</ele><time>2026-03-23T16:37:05Z</time></trkpt><trkpt lat="33.247970300530255" lon="9.114030201480132"><ele>92.0</ele><time>2026-03-23T16:37:06Z</time></trkpt><trkpt lat="33.24791000268553" lon="9.114086809101751"><ele>92.0</ele><time>2026-03-23T16:37:07Z</time></trkpt><trkpt lat="33.24784790589807" lon="9.11415031011564"><ele>91.83333333333334</ele><time>2026-03-23T16:37:08Z</time></trkpt><trkpt lat="33.247801376178195" lon="9.114213599182737"><ele>91.66666666666667</ele><time>2026-03-23T16:37:09Z</time></trkpt><trkpt lat="33.24776906333312" lon="9.114295764690576"><ele>91.5</ele><time>2026-03-23T16:37:10Z</time></trkpt><trkpt lat="33.24771676498995" lon="9.114399011023755"><ele>91.33333333333333</ele><time>2026-03-23T16:37:11Z</time></trkpt><trkpt lat="33.247667377957" lon="9.114481870874219"><ele>91.16666666666666</ele><time>2026-03-23T16:37:12Z</time></trkpt><trkpt lat="33.24761604595958" lon="9.114561283679839"><ele>91.0</ele><time>2026-03-23T16:37:13Z</time></trkpt><trkpt lat="33.24759242933883" lon="9.11463263435335"><ele>91.0</ele><time>2026-03-23T16:37:14Z</time></trkpt><trkpt lat="33.24756910923293" lon="9.11470601679212"><ele>91.0</ele><time>2026-03-23T16:37:15Z</time></trkpt><trkpt lat="33.24753106820951" lon="9.114766772061115"><ele>91.0</ele><time>2026-03-23T16:37:16Z</time></trkpt><trkpt lat="33.2474775822433" lon="9.114807592663368"><ele>91.0</ele><time>2026-03-23T16:37:17Z</time></trkpt><trkpt lat="33.24736799406236" lon="9.114896876968437"><ele>91.0</ele><time>2026-03-23T16:37:19Z</time></trkpt><trkpt lat="33.247303753740034" lon="9.114989880188764"><ele>91.0</ele><time>2026-03-23T16:37:20Z</time></trkpt><trkpt lat="33.247240273340054" lon="9.115078693606726"><ele>91.16666666666666</ele><time>2026-03-23T16:37:21Z</time></trkpt><trkpt lat="33.24717187499072" lon="9.11513790248113"><ele>91.33333333333333</ele><time>2026-03-23T16:37:22Z</time></trkpt><trkpt lat="33.24709724814236" lon="9.11518164806406"><ele>91.5</ele><time>2026-03-23T16:37:23Z</time></trkpt><trkpt lat="33.24702369940245" lon="9.115212723152665"><ele>91.66666666666667</ele><time>2026-03-23T16:37:24Z</time></trkpt><trkpt lat="33.24694685848626" lon="9.11523409157548"><ele>91.83333333333334</ele><time>2026-03-23T16:37:25Z</time></trkpt><trkpt lat="33.24687806007097" lon="9.115259901415504"><ele>92.0</ele><time>2026-03-23T16:37:26Z</time></trkpt><trkpt lat="33.24680905410657" lon="9.115309470856"><ele>92.0</ele><time>2026-03-23T16:37:27Z</time></trkpt><trkpt lat="33.24674544537432" lon="9.115392922170502"><ele>92.0</ele><time>2026-03-23T16:37:28Z</time></trkpt><trkpt lat="33.24667289029924" lon="9.115499251870022"><ele>92.0</ele><time>2026-03-23T16:37:29Z</time></trkpt><trkpt lat="33.2465955947688" lon="9.115614864470638"><ele>92.0</ele><time>2026-03-23T16:37:30Z</time></trkpt><trkpt lat="33.24652612834649" lon="9.115725886925691"><ele>92.0</ele><time>2026-03-23T16:37:31Z</time></trkpt><trkpt lat="33.24646955306549" lon="9.11582416785532"><ele>92.25</ele><time>2026-03-23T16:37:32Z</time></trkpt><trkpt lat="33.24640910551949" lon="9.115933653121976"><ele>92.5</ele><time>2026-03-23T16:37:33Z</time></trkpt><trkpt lat="33.24633867221379" lon="9.116041669014416"><ele>92.75</ele><time>2026-03-23T16:37:34Z</time></trkpt><trkpt lat="33.24625561213638" lon="9.11613367309043"><ele>93.0</ele><time>2026-03-23T16:37:35Z</time></trkpt><trkpt lat="33.24616805621207" lon="9.116223564284281"><ele>93.0</ele><time>2026-03-23T16:37:36Z</time></trkpt><trkpt lat="33.24607397962658" lon="9.116286646774237"><ele>93.0</ele><time>2026-03-23T16:37:37Z</time></trkpt><trkpt lat="33.24598362868457" lon="9.116325740817977"><ele>93.0</ele><time>2026-03-23T16:37:38Z</time></trkpt><trkpt lat="33.245894960066394" lon="9.116342605877191"><ele>93.0</ele><time>2026-03-23T16:37:39Z</time></trkpt><trkpt lat="33.24581875798675" lon="9.116352981547491"><ele>93.0</ele><time>2026-03-23T16:37:40Z</time></trkpt><trkpt lat="33.24575411168455" lon="9.116375781266704"><ele>93.0</ele><time>2026-03-23T16:37:41Z</time></trkpt><trkpt lat="33.24565311123065" lon="9.116470473845023"><ele>93.0</ele><time>2026-03-23T16:37:43Z</time></trkpt><trkpt lat="33.2455895296708" lon="9.116550046431124"><ele>93.0</ele><time>2026-03-23T16:37:44Z</time></trkpt><trkpt lat="33.24552590318515" lon="9.116623725360801"><ele>93.0</ele><time>2026-03-23T16:37:45Z</time></trkpt><trkpt lat="33.24544931492829" lon="9.116709157662177"><ele>93.0</ele><time>2026-03-23T16:37:46Z</time></trkpt><trkpt lat="33.24537017603789" lon="9.116785970379167"><ele>93.0</ele><time>2026-03-23T16:37:47Z</time></trkpt><trkpt lat="33.24529998229307" lon="9.116845572299264"><ele>93.0</ele><time>2026-03-23T16:37:48Z</time></trkpt><trkpt lat="33.24525066318021" lon="9.11690171001627"><ele>93.0</ele><time>2026-03-23T16:37:49Z</time></trkpt><trkpt lat="33.24519351062938" lon="9.116976502805676"><ele>93.0</ele><time>2026-03-23T16:37:50Z</time></trkpt><trkpt lat="33.24515167834806" lon="9.117043903726552"><ele>93.0</ele><time>2026-03-23T16:37:51Z</time></trkpt><trkpt lat="33.24511081575171" lon="9.11711757565847"><ele>93.0</ele><time>2026-03-23T16:37:52Z</time></trkpt><trkpt lat="33.24506216457677" lon="9.117207020237785"><ele>93.0</ele><time>2026-03-23T16:37:53Z</time></trkpt><trkpt lat="33.245012657154334" lon="9.117276986770491"><ele>93.0</ele><time>2026-03-23T16:37:54Z</time></trkpt><trkpt lat="33.244942935324616" lon="9.117358590812112"><ele>93.0</ele><time>2026-03-23T16:37:55Z</time></trkpt><trkpt lat="33.24488945408379" lon="9.117404760696244"><ele>93.0</ele><time>2026-03-23T16:37:56Z</time></trkpt><trkpt lat="33.24483549255567" lon="9.11745451761193"><ele>93.0</ele><time>2026-03-23T16:37:57Z</time></trkpt><trkpt lat="33.24477838592097" lon="9.117505252666941"><ele>93.0</ele><time>2026-03-23T16:37:58Z</time></trkpt><trkpt lat="33.244722389134985" lon="9.11755030628373"><ele>93.0</ele><time>2026-03-23T16:37:59Z</time></trkpt><trkpt lat="33.244587823214836" lon="9.11757616028027"><ele>91.33333333333333</ele><time>2026-03-23T16:38:01Z</time></trkpt><trkpt lat="33.24433964422816" lon="9.117662038076547"><ele>89.66666666666666</ele><time>2026-03-23T16:38:05Z</time></trkpt><trkpt lat="33.244258842167795" lon="9.117734752000612"><ele>88.0</ele><time>2026-03-23T16:38:06Z</time></trkpt><trkpt lat="33.24419374680662" lon="9.117825730041782"><ele>88.0</ele><time>2026-03-23T16:38:07Z</time></trkpt><trkpt lat="33.244143096058515" lon="9.117916515960873"><ele>88.0</ele><time>2026-03-23T16:38:08Z</time></trkpt><trkpt lat="33.24409575466406" lon="9.117985358182091"><ele>88.0</ele><time>2026-03-23T16:38:09Z</time></trkpt><trkpt lat="33.24404878019138" lon="9.118061436916655"><ele>88.0</ele><time>2026-03-23T16:38:10Z</time></trkpt><trkpt lat="33.24400639345788" lon="9.118152510185567"><ele>88.0</ele><time>2026-03-23T16:38:11Z</time></trkpt><trkpt lat="33.243960657959704" lon="9.118228261005973"><ele>88.0</ele><time>2026-03-23T16:38:12Z</time></trkpt><trkpt lat="33.243900453002034" lon="9.118281041748977"><ele>88.57142857142857</ele><time>2026-03-23T16:38:13Z</time></trkpt><trkpt lat="33.24384379879628" lon="9.11831416452661"><ele>89.14285714285714</ele><time>2026-03-23T16:38:14Z</time></trkpt><trkpt lat="33.243781218404806" lon="9.118342836506367"><ele>89.71428571428572</ele><time>2026-03-23T16:38:15Z</time></trkpt><trkpt lat="33.24372277178338" lon="9.11837798084858"><ele>90.28571428571428</ele><time>2026-03-23T16:38:16Z</time></trkpt><trkpt lat="33.24367267287716" lon="9.118434495396128"><ele>90.85714285714285</ele><time>2026-03-23T16:38:17Z</time></trkpt><trkpt lat="33.24362802740193" lon="9.118510588754328"><ele>91.42857142857143</ele><time>2026-03-23T16:38:18Z</time></trkpt><trkpt lat="33.24358349261967" lon="9.118592320971961"><ele>92.0</ele><time>2026-03-23T16:38:19Z</time></trkpt><trkpt lat="33.2435319239958" lon="9.1186853006145"><ele>92.0</ele><time>2026-03-23T16:38:20Z</time></trkpt><trkpt lat="33.243497051127456" lon="9.118755051239763"><ele>92.0</ele><time>2026-03-23T16:38:21Z</time></trkpt><trkpt lat="33.24345453212209" lon="9.118824313499319"><ele>92.0</ele><time>2026-03-23T16:38:22Z</time></trkpt><trkpt lat="33.243412541633276" lon="9.11889031136363"><ele>92.0</ele><time>2026-03-23T16:38:23Z</time></trkpt><trkpt lat="33.2433578217219" lon="9.118969516415833"><ele>92.0</ele><time>2026-03-23T16:38:24Z</time></trkpt><trkpt lat="33.243297219338714" lon="9.119040434014343"><ele>92.0</ele><time>2026-03-23T16:38:25Z</time></trkpt><trkpt lat="33.24321994386323" lon="9.119117109839374"><ele>92.0</ele><time>2026-03-23T16:38:26Z</time></trkpt><trkpt lat="33.24314029415548" lon="9.119183427912937"><ele>92.0</ele><time>2026-03-23T16:38:27Z</time></trkpt><trkpt lat="33.243070542790655" lon="9.119228150471093"><ele>92.0</ele><time>2026-03-23T16:38:28Z</time></trkpt><trkpt lat="33.243000324092776" lon="9.119262586023124"><ele>92.0</ele><time>2026-03-23T16:38:29Z</time></trkpt><trkpt lat="33.24289314826244" lon="9.119341706953902"><ele>92.0</ele><time>2026-03-23T16:38:31Z</time></trkpt><trkpt lat="33.242834213834854" lon="9.119405569064728"><ele>92.0</ele><time>2026-03-23T16:38:32Z</time></trkpt><trkpt lat="33.24276637514672" lon="9.119484273824574"><ele>92.0</ele><time>2026-03-23T16:38:33Z</time></trkpt><trkpt lat="33.24268768357342" lon="9.119571905075691"><ele>92.0</ele><time>2026-03-23T16:38:34Z</time></trkpt><trkpt lat="33.24262285981491" lon="9.119642968408744"><ele>92.0</ele><time>2026-03-23T16:38:35Z</time></trkpt><trkpt lat="33.242568363014925" lon="9.119699269026981"><ele>92.0</ele><time>2026-03-23T16:38:36Z</time></trkpt><trkpt lat="33.24250855427819" lon="9.119748556195876"><ele>92.0</ele><time>2026-03-23T16:38:37Z</time></trkpt><trkpt lat="33.24244018961202" lon="9.11978829243018"><ele>92.0</ele><time>2026-03-23T16:38:38Z</time></trkpt><trkpt lat="33.24236423052055" lon="9.119830935970096"><ele>92.0</ele><time>2026-03-23T16:38:39Z</time></trkpt><trkpt lat="33.2422745605704" lon="9.119890554304723"><ele>92.0</ele><time>2026-03-23T16:38:40Z</time></trkpt><trkpt lat="33.242194217637895" lon="9.119955460667265"><ele>92.0</ele><time>2026-03-23T16:38:41Z</time></trkpt><trkpt lat="33.2421099942813" lon="9.120010463767757"><ele>92.0</ele><time>2026-03-23T16:38:42Z</time></trkpt><trkpt lat="33.24202783738276" lon="9.12004861955688"><ele>92.33333333333334</ele><time>2026-03-23T16:38:43Z</time></trkpt><trkpt lat="33.24195151705741" lon="9.120088059211247"><ele>92.66666666666667</ele><time>2026-03-23T16:38:44Z</time></trkpt><trkpt lat="33.24187062962547" lon="9.120137956154172"><ele>93.0</ele><time>2026-03-23T16:38:45Z</time></trkpt><trkpt lat="33.241795010430074" lon="9.120197559965673"><ele>93.33333333333333</ele><time>2026-03-23T16:38:46Z</time></trkpt><trkpt lat="33.241735331922726" lon="9.120260367047674"><ele>93.66666666666666</ele><time>2026-03-23T16:38:47Z</time></trkpt><trkpt lat="33.24169355014008" lon="9.120317742054777"><ele>94.0</ele><time>2026-03-23T16:38:48Z</time></trkpt><trkpt lat="33.24164718615968" lon="9.120388087699855"><ele>94.0</ele><time>2026-03-23T16:38:49Z</time></trkpt><trkpt lat="33.241596212965945" lon="9.120450931316892"><ele>94.0</ele><time>2026-03-23T16:38:50Z</time></trkpt><trkpt lat="33.2415409229991" lon="9.120518297493684"><ele>94.0</ele><time>2026-03-23T16:38:51Z</time></trkpt><trkpt lat="33.24147263747179" lon="9.120577623065724"><ele>94.0</ele><time>2026-03-23T16:38:52Z</time></trkpt><trkpt lat="33.241403694037906" lon="9.120621792729093"><ele>94.0</ele><time>2026-03-23T16:38:53Z</time></trkpt><trkpt lat="33.24134381579225" lon="9.120663575942416"><ele>94.0</ele><time>2026-03-23T16:38:54Z</time></trkpt><trkpt lat="33.24122440656505" lon="9.120710307799337"><ele>93.57142857142857</ele><time>2026-03-23T16:38:56Z</time></trkpt><trkpt lat="33.241149340347555" lon="9.12073805842015"><ele>93.14285714285714</ele><time>2026-03-23T16:38:57Z</time></trkpt><trkpt lat="33.24107175015433" lon="9.120762972930159"><ele>92.71428571428572</ele><time>2026-03-23T16:38:58Z</time></trkpt><trkpt lat="33.24100830193401" lon="9.120810403824862"><ele>92.28571428571428</ele><time>2026-03-23T16:38:59Z</time></trkpt><trkpt lat="33.240971624798995" lon="9.120881787791198"><ele>91.85714285714286</ele><time>2026-03-23T16:39:00Z</time></trkpt><trkpt lat="33.24094210526955" lon="9.120960618711258"><ele>91.42857142857143</ele><time>2026-03-23T16:39:01Z</time></trkpt><trkpt lat="33.240887360912865" lon="9.121008950531914"><ele>91.0</ele><time>2026-03-23T16:39:03Z</time></trkpt><trkpt lat="33.240790012011374" lon="9.121035544637282"><ele>91.0</ele><time>2026-03-23T16:39:05Z</time></trkpt><trkpt lat="33.240726436610586" lon="9.12107194492969"><ele>91.0</ele><time>2026-03-23T16:39:06Z</time></trkpt><trkpt lat="33.2406608293716" lon="9.12114765144321"><ele>91.0</ele><time>2026-03-23T16:39:07Z</time></trkpt><trkpt lat="33.240602119707184" lon="9.12124453954372"><ele>91.0</ele><time>2026-03-23T16:39:08Z</time></trkpt><trkpt lat="33.240557728136125" lon="9.121347902518094"><ele>91.0</ele><time>2026-03-23T16:39:09Z</time></trkpt><trkpt lat="33.24049060625394" lon="9.121468685736064"><ele>91.25</ele><time>2026-03-23T16:39:10Z</time></trkpt><trkpt lat="33.24040885547496" lon="9.121565030581955"><ele>91.5</ele><time>2026-03-23T16:39:11Z</time></trkpt><trkpt lat="33.24031541643448" lon="9.121660116431897"><ele>91.75</ele><time>2026-03-23T16:39:12Z</time></trkpt><trkpt lat="33.24022492524566" lon="9.121759331672688"><ele>92.0</ele><time>2026-03-23T16:39:13Z</time></trkpt><trkpt lat="33.24014388180418" lon="9.12187120124903"><ele>92.0</ele><time>2026-03-23T16:39:14Z</time></trkpt><trkpt lat="33.240067962211526" lon="9.121981027673097"><ele>92.0</ele><time>2026-03-23T16:39:15Z</time></trkpt><trkpt lat="33.239987610772644" lon="9.122087014070049"><ele>92.0</ele><time>2026-03-23T16:39:16Z</time></trkpt><trkpt lat="33.23990444823914" lon="9.122179934587145"><ele>92.0</ele><time>2026-03-23T16:39:17Z</time></trkpt><trkpt lat="33.23981505399034" lon="9.12227081600938"><ele>92.19999999999999</ele><time>2026-03-23T16:39:18Z</time></trkpt><trkpt lat="33.23972228982101" lon="9.122353988682608"><ele>92.4</ele><time>2026-03-23T16:39:19Z</time></trkpt><trkpt lat="33.2396247484866" lon="9.122427696470188"><ele>92.6</ele><time>2026-03-23T16:39:20Z</time></trkpt><trkpt lat="33.239528919597134" lon="9.122485756038094"><ele>92.80000000000001</ele><time>2026-03-23T16:39:21Z</time></trkpt><trkpt lat="33.23943512848963" lon="9.122534496390971"><ele>93.0</ele><time>2026-03-23T16:39:22Z</time></trkpt><trkpt lat="33.23933750720969" lon="9.122586340926537"><ele>93.0</ele><time>2026-03-23T16:39:23Z</time></trkpt><trkpt lat="33.23924922503723" lon="9.122637498669864"><ele>93.0</ele><time>2026-03-23T16:39:24Z</time></trkpt><trkpt lat="33.23917745157281" lon="9.122686767820005"><ele>93.0</ele><time>2026-03-23T16:39:25Z</time></trkpt><trkpt lat="33.23909798689136" lon="9.122733556207956"><ele>93.0</ele><time>2026-03-23T16:39:26Z</time></trkpt><trkpt lat="33.23901332430988" lon="9.122778435380187"><ele>93.0</ele><time>2026-03-23T16:39:27Z</time></trkpt><trkpt lat="33.23891629366693" lon="9.122851709255372"><ele>92.60000000000001</ele><time>2026-03-23T16:39:28Z</time></trkpt><trkpt lat="33.238844400067194" lon="9.12292029081461"><ele>92.2</ele><time>2026-03-23T16:39:29Z</time></trkpt><trkpt lat="33.238769407696395" lon="9.12299489443187"><ele>91.8</ele><time>2026-03-23T16:39:30Z</time></trkpt><trkpt lat="33.23869309772011" lon="9.12307474866447"><ele>91.4</ele><time>2026-03-23T16:39:31Z</time></trkpt><trkpt lat="33.238618831659984" lon="9.123151248992142"><ele>91.0</ele><time>2026-03-23T16:39:32Z</time></trkpt><trkpt lat="33.238550778554846" lon="9.123224885618582"><ele>91.19999999999999</ele><time>2026-03-23T16:39:33Z</time></trkpt><trkpt lat="33.23849168865012" lon="9.123300192529472"><ele>91.39999999999999</ele><time>2026-03-23T16:39:34Z</time></trkpt><trkpt lat="33.23844394451109" lon="9.123388252768303"><ele>91.6</ele><time>2026-03-23T16:39:35Z</time></trkpt><trkpt lat="33.23838300398562" lon="9.123521012651613"><ele>91.8</ele><time>2026-03-23T16:39:37Z</time></trkpt><trkpt lat="33.238328684499805" lon="9.123577066945815"><ele>92.0</ele><time>2026-03-23T16:39:38Z</time></trkpt><trkpt lat="33.23826255444387" lon="9.123633888209751"><ele>92.0</ele><time>2026-03-23T16:39:39Z</time></trkpt><trkpt lat="33.23818074918273" lon="9.123697568748913"><ele>92.0</ele><time>2026-03-23T16:39:40Z</time></trkpt><trkpt lat="33.23811269382662" lon="9.1237709338055"><ele>92.0</ele><time>2026-03-23T16:39:41Z</time></trkpt><trkpt lat="33.23804375035291" lon="9.12383988022563"><ele>92.0</ele><time>2026-03-23T16:39:42Z</time></trkpt><trkpt lat="33.23796537241684" lon="9.123896714929053"><ele>92.0</ele><time>2026-03-23T16:39:43Z</time></trkpt><trkpt lat="33.23787614000712" lon="9.123950166659881"><ele>92.0</ele><time>2026-03-23T16:39:44Z</time></trkpt><trkpt lat="33.23778687864403" lon="9.124016932645668"><ele>92.0</ele><time>2026-03-23T16:39:45Z</time></trkpt><trkpt lat="33.23772062916389" lon="9.124091376971426"><ele>92.0</ele><time>2026-03-23T16:39:46Z</time></trkpt><trkpt lat="33.237652207536236" lon="9.124176492512934"><ele>92.0</ele><time>2026-03-23T16:39:47Z</time></trkpt><trkpt lat="33.23758534497957" lon="9.12424989380101"><ele>92.0</ele><time>2026-03-23T16:39:48Z</time></trkpt><trkpt lat="33.23750324109079" lon="9.124314991389129"><ele>91.8</ele><time>2026-03-23T16:39:49Z</time></trkpt><trkpt lat="33.237416213379205" lon="9.124388001941924"><ele>91.6</ele><time>2026-03-23T16:39:50Z</time></trkpt><trkpt lat="33.237329653146354" lon="9.124457613999377"><ele>91.39999999999999</ele><time>2026-03-23T16:39:51Z</time></trkpt><trkpt lat="33.237236681531655" lon="9.12452883819241"><ele>91.19999999999999</ele><time>2026-03-23T16:39:52Z</time></trkpt><trkpt lat="33.237158437579915" lon="9.124591922933154"><ele>91.0</ele><time>2026-03-23T16:39:53Z</time></trkpt><trkpt lat="33.237070974511944" lon="9.124658511930322"><ele>91.0</ele><time>2026-03-23T16:39:55Z</time></trkpt><trkpt lat="33.23696085624341" lon="9.12472941806305"><ele>91.0</ele><time>2026-03-23T16:39:57Z</time></trkpt><trkpt lat="33.23688418032617" lon="9.12478086626174"><ele>91.0</ele><time>2026-03-23T16:39:58Z</time></trkpt><trkpt lat="33.236804178958515" lon="9.124834675190518"><ele>91.0</ele><time>2026-03-23T16:39:59Z</time></trkpt><trkpt lat="33.23672998817523" lon="9.12488915288944"><ele>91.0</ele><time>2026-03-23T16:40:00Z</time></trkpt><trkpt lat="33.23665817338692" lon="9.124950623296895"><ele>90.8</ele><time>2026-03-23T16:40:01Z</time></trkpt><trkpt lat="33.23658217839761" lon="9.125012786661683"><ele>90.6</ele><time>2026-03-23T16:40:02Z</time></trkpt><trkpt lat="33.23649132530271" lon="9.125079964213269"><ele>90.4</ele><time>2026-03-23T16:40:03Z</time></trkpt><trkpt lat="33.2364056975917" lon="9.125148790196034"><ele>90.2</ele><time>2026-03-23T16:40:04Z</time></trkpt><trkpt lat="33.236318842337724" lon="9.125223622107137"><ele>90.0</ele><time>2026-03-23T16:40:05Z</time></trkpt><trkpt lat="33.23623850826739" lon="9.125298719282071"><ele>90.0</ele><time>2026-03-23T16:40:06Z</time></trkpt><trkpt lat="33.23616536678949" lon="9.125371214843637"><ele>90.0</ele><time>2026-03-23T16:40:07Z</time></trkpt><trkpt lat="33.23608711649838" lon="9.125452456073788"><ele>90.0</ele><time>2026-03-23T16:40:08Z</time></trkpt><trkpt lat="33.236020096405454" lon="9.125528874992622"><ele>90.0</ele><time>2026-03-23T16:40:09Z</time></trkpt><trkpt lat="33.2359519823275" lon="9.125619215114428"><ele>90.0</ele><time>2026-03-23T16:40:10Z</time></trkpt><trkpt lat="33.2359060282907" lon="9.125703061565584"><ele>90.33333333333333</ele><time>2026-03-23T16:40:11Z</time></trkpt><trkpt lat="33.23588787178557" lon="9.125777406905794"><ele>90.66666666666667</ele><time>2026-03-23T16:40:12Z</time></trkpt><trkpt lat="33.2358571218056" lon="9.125862357249307"><ele>91.0</ele><time>2026-03-23T16:40:13Z</time></trkpt><trkpt lat="33.235805414959394" lon="9.125938871063786"><ele>91.33333333333334</ele><time>2026-03-23T16:40:14Z</time></trkpt><trkpt lat="33.235746103714085" lon="9.1260185667552"><ele>91.66666666666667</ele><time>2026-03-23T16:40:15Z</time></trkpt><trkpt lat="33.23568199761309" lon="9.126088819093855"><ele>92.0</ele><time>2026-03-23T16:40:16Z</time></trkpt><trkpt lat="33.23560349757924" lon="9.126177914196282"><ele>92.39999999999999</ele><time>2026-03-23T16:40:17Z</time></trkpt><trkpt lat="33.23552816462747" lon="9.126256546025676"><ele>92.8</ele><time>2026-03-23T16:40:18Z</time></trkpt><trkpt lat="33.23546067782013" lon="9.126344887667342"><ele>93.2</ele><time>2026-03-23T16:40:19Z</time></trkpt><trkpt lat="33.23539119831967" lon="9.12641934481987"><ele>93.6</ele><time>2026-03-23T16:40:20Z</time></trkpt><trkpt lat="33.235315000493614" lon="9.126492282086746"><ele>94.0</ele><time>2026-03-23T16:40:21Z</time></trkpt><trkpt lat="33.23524062499024" lon="9.126569180446797"><ele>94.0</ele><time>2026-03-23T16:40:22Z</time></trkpt><trkpt lat="33.23517416885959" lon="9.126659244931052"><ele>94.0</ele><time>2026-03-23T16:40:23Z</time></trkpt><trkpt lat="33.23510716645956" lon="9.126763286604751"><ele>94.0</ele><time>2026-03-23T16:40:24Z</time></trkpt><trkpt lat="33.23503737486087" lon="9.126875447662956"><ele>94.0</ele><time>2026-03-23T16:40:25Z</time></trkpt><trkpt lat="33.23497341230525" lon="9.12698258507291"><ele>94.0</ele><time>2026-03-23T16:40:26Z</time></trkpt><trkpt lat="33.234904698894894" lon="9.127082208100058"><ele>94.0</ele><time>2026-03-23T16:40:27Z</time></trkpt><trkpt lat="33.23482905662787" lon="9.127183319036305"><ele>94.0</ele><time>2026-03-23T16:40:28Z</time></trkpt><trkpt lat="33.23475513427468" lon="9.12728254774847"><ele>94.0</ele><time>2026-03-23T16:40:29Z</time></trkpt><trkpt lat="33.23468340991049" lon="9.127376543413288"><ele>94.0</ele><time>2026-03-23T16:40:30Z</time></trkpt><trkpt lat="33.234610581420064" lon="9.127476899571077"><ele>94.0</ele><time>2026-03-23T16:40:31Z</time></trkpt><trkpt lat="33.23452730413262" lon="9.127583908669559"><ele>94.2</ele><time>2026-03-23T16:40:32Z</time></trkpt><trkpt lat="33.23444514481201" lon="9.127673459772643"><ele>94.4</ele><time>2026-03-23T16:40:33Z</time></trkpt><trkpt lat="33.234355318907966" lon="9.127759323916566"><ele>94.6</ele><time>2026-03-23T16:40:34Z</time></trkpt><trkpt lat="33.23426765368146" lon="9.127835889539877"><ele>94.8</ele><time>2026-03-23T16:40:35Z</time></trkpt><trkpt lat="33.2341963171663" lon="9.12790562481057"><ele>95.0</ele><time>2026-03-23T16:40:36Z</time></trkpt><trkpt lat="33.23412570132526" lon="9.127991431776634"><ele>95.0</ele><time>2026-03-23T16:40:37Z</time></trkpt><trkpt lat="33.234058249866635" lon="9.128089161510115"><ele>95.0</ele><time>2026-03-23T16:40:38Z</time></trkpt><trkpt lat="33.233987985042795" lon="9.12819443440533"><ele>95.0</ele><time>2026-03-23T16:40:39Z</time></trkpt><trkpt lat="33.233919322681956" lon="9.128302143692002"><ele>95.0</ele><time>2026-03-23T16:40:40Z</time></trkpt><trkpt lat="33.233849203576135" lon="9.128399126660131"><ele>95.0</ele><time>2026-03-23T16:40:41Z</time></trkpt><trkpt lat="33.23376858430276" lon="9.128495533581948"><ele>95.4</ele><time>2026-03-23T16:40:42Z</time></trkpt><trkpt lat="33.23368446253608" lon="9.128589706084002"><ele>95.8</ele><time>2026-03-23T16:40:43Z</time></trkpt><trkpt lat="33.23359740558" lon="9.128684846250072"><ele>96.19999999999999</ele><time>2026-03-23T16:40:44Z</time></trkpt><trkpt lat="33.23352598239438" lon="9.128737456110343"><ele>96.6</ele><time>2026-03-23T16:40:45Z</time></trkpt><trkpt lat="33.23343867839285" lon="9.128782966942046"><ele>97.0</ele><time>2026-03-23T16:40:47Z</time></trkpt><trkpt lat="33.233362272744394" lon="9.128855307959846"><ele>97.0</ele><time>2026-03-23T16:40:49Z</time></trkpt><trkpt lat="33.233307349524644" lon="9.12890540710764"><ele>97.0</ele><time>2026-03-23T16:40:50Z</time></trkpt><trkpt lat="33.2332543476701" lon="9.128980809239474"><ele>97.0</ele><time>2026-03-23T16:40:51Z</time></trkpt><trkpt lat="33.23318781068082" lon="9.129052584411246"><ele>97.0</ele><time>2026-03-23T16:40:52Z</time></trkpt><trkpt lat="33.23310799153658" lon="9.129109578583058"><ele>97.0</ele><time>2026-03-23T16:40:53Z</time></trkpt><trkpt lat="33.23300795504527" lon="9.129197405972628"><ele>97.6</ele><time>2026-03-23T16:40:54Z</time></trkpt><trkpt lat="33.232914052175666" lon="9.129261828401821"><ele>98.19999999999999</ele><time>2026-03-23T16:40:55Z</time></trkpt><trkpt lat="33.23281603687817" lon="9.129313925982899"><ele>98.8</ele><time>2026-03-23T16:40:56Z</time></trkpt><trkpt lat="33.232726506197324" lon="9.129367537466086"><ele>99.4</ele><time>2026-03-23T16:40:57Z</time></trkpt><trkpt lat="33.23263279303776" lon="9.12943150583669"><ele>100.0</ele><time>2026-03-23T16:40:58Z</time></trkpt><trkpt lat="33.2325400319359" lon="9.129481879475888"><ele>100.0</ele><time>2026-03-23T16:40:59Z</time></trkpt><trkpt lat="33.23243785241616" lon="9.129542881526646"><ele>100.0</ele><time>2026-03-23T16:41:00Z</time></trkpt><trkpt lat="33.23234546759996" lon="9.129607516485946"><ele>100.0</ele><time>2026-03-23T16:41:01Z</time></trkpt><trkpt lat="33.23226358562171" lon="9.129677183203784"><ele>100.0</ele><time>2026-03-23T16:41:02Z</time></trkpt><trkpt lat="33.23218067979826" lon="9.129750572031776"><ele>100.0</ele><time>2026-03-23T16:41:03Z</time></trkpt><trkpt lat="33.23210441054961" lon="9.12981844483752"><ele>99.6</ele><time>2026-03-23T16:41:04Z</time></trkpt><trkpt lat="33.23201483592855" lon="9.12990034318397"><ele>99.2</ele><time>2026-03-23T16:41:06Z</time></trkpt><trkpt lat="33.23191089102019" lon="9.12998753288933"><ele>98.80000000000001</ele><time>2026-03-23T16:41:08Z</time></trkpt><trkpt lat="33.23185279771508" lon="9.13002492343525"><ele>98.4</ele><time>2026-03-23T16:41:09Z</time></trkpt><trkpt lat="33.23177746151145" lon="9.130068872551115"><ele>98.0</ele><time>2026-03-23T16:41:10Z</time></trkpt><trkpt lat="33.231702194782045" lon="9.130115005913442"><ele>98.0</ele><time>2026-03-23T16:41:11Z</time></trkpt><trkpt lat="33.231627905745604" lon="9.130181967385386"><ele>98.0</ele><time>2026-03-23T16:41:12Z</time></trkpt><trkpt lat="33.23154503498067" lon="9.130251863441266"><ele>98.0</ele><time>2026-03-23T16:41:13Z</time></trkpt><trkpt lat="33.231480382774954" lon="9.13031109751332"><ele>98.0</ele><time>2026-03-23T16:41:14Z</time></trkpt><trkpt lat="33.231394250585566" lon="9.130378757918875"><ele>98.0</ele><time>2026-03-23T16:41:15Z</time></trkpt><trkpt lat="33.231310263633205" lon="9.13045811209626"><ele>97.99999999999999</ele><time>2026-03-23T16:41:16Z</time></trkpt><trkpt lat="33.231237709713795" lon="9.130535908209325"><ele>98.0</ele><time>2026-03-23T16:41:17Z</time></trkpt><trkpt lat="33.23116236025559" lon="9.130614513228899"><ele>98.0</ele><time>2026-03-23T16:41:18Z</time></trkpt><trkpt lat="33.23108697227043" lon="9.130689345222024"><ele>98.0</ele><time>2026-03-23T16:41:19Z</time></trkpt><trkpt lat="33.231034757774744" lon="9.130751432990195"><ele>97.99999999999999</ele><time>2026-03-23T16:41:20Z</time></trkpt><trkpt lat="33.23098552974101" lon="9.130821054850605"><ele>98.0</ele><time>2026-03-23T16:41:21Z</time></trkpt><trkpt lat="33.230928713545175" lon="9.13090451386839"><ele>98.0</ele><time>2026-03-23T16:41:22Z</time></trkpt><trkpt lat="33.2308528431727" lon="9.13099587445444"><ele>98.0</ele><time>2026-03-23T16:41:23Z</time></trkpt><trkpt lat="33.230778891851116" lon="9.131066984484088"><ele>98.0</ele><time>2026-03-23T16:41:24Z</time></trkpt><trkpt lat="33.23071880172121" lon="9.131115624535576"><ele>98.0</ele><time>2026-03-23T16:41:25Z</time></trkpt><trkpt lat="33.23061808676752" lon="9.131211530505556"><ele>98.0</ele><time>2026-03-23T16:41:27.001Z</time></trkpt><trkpt lat="33.230558437389156" lon="9.131281066428693"><ele>97.99999999999999</ele><time>2026-03-23T16:41:28.001Z</time></trkpt><trkpt lat="33.230508739042875" lon="9.13136370698237"><ele>98.0</ele><time>2026-03-23T16:41:29.001Z</time></trkpt><trkpt lat="33.23047801760893" lon="9.13145536216075"><ele>98.0</ele><time>2026-03-23T16:41:30.001Z</time></trkpt><trkpt lat="33.23045765834771" lon="9.131565973715057"><ele>98.0</ele><time>2026-03-23T16:41:31.001Z</time></trkpt><trkpt lat="33.2304272712328" lon="9.131653527356839"><ele>97.99999999999999</ele><time>2026-03-23T16:41:32.001Z</time></trkpt><trkpt lat="33.23037003239923" lon="9.131744799428764"><ele>98.0</ele><time>2026-03-23T16:41:33.001Z</time></trkpt><trkpt lat="33.230295729989045" lon="9.131813974493348"><ele>98.0</ele><time>2026-03-23T16:41:34.001Z</time></trkpt><trkpt lat="33.23022123102922" lon="9.131884534069433"><ele>98.0</ele><time>2026-03-23T16:41:35.001Z</time></trkpt><trkpt lat="33.230150432854266" lon="9.13199292240754"><ele>98.0</ele><time>2026-03-23T16:41:36.001Z</time></trkpt><trkpt lat="33.23008407205639" lon="9.132085112859789"><ele>98.0</ele><time>2026-03-23T16:41:37.001Z</time></trkpt><trkpt lat="33.23003678114413" lon="9.132170193448674"><ele>98.0</ele><time>2026-03-23T16:41:38.001Z</time></trkpt><trkpt lat="33.22998199216485" lon="9.13223834060957"><ele>97.99999999999999</ele><time>2026-03-23T16:41:39.001Z</time></trkpt><trkpt lat="33.22991430100127" lon="9.132304537531898"><ele>98.0</ele><time>2026-03-23T16:41:40.001Z</time></trkpt><trkpt lat="33.22983272910882" lon="9.13237131740473"><ele>98.0</ele><time>2026-03-23T16:41:41.001Z</time></trkpt><trkpt lat="33.2297549980464" lon="9.132412907067016"><ele>98.0</ele><time>2026-03-23T16:41:42.001Z</time></trkpt><trkpt lat="33.22968493976906" lon="9.13245513345415"><ele>97.99999999999999</ele><time>2026-03-23T16:41:43.001Z</time></trkpt><trkpt lat="33.22962781340087" lon="9.132519045919869"><ele>98.0</ele><time>2026-03-23T16:41:44.001Z</time></trkpt><trkpt lat="33.22956658351231" lon="9.132600979589451"><ele>97.60000000000001</ele><time>2026-03-23T16:41:45.001Z</time></trkpt><trkpt lat="33.22951561903968" lon="9.132689576390554"><ele>97.2</ele><time>2026-03-23T16:41:46.001Z</time></trkpt><trkpt lat="33.22945418042965" lon="9.132769827628605"><ele>96.8</ele><time>2026-03-23T16:41:47.001Z</time></trkpt><trkpt lat="33.229385740660376" lon="9.13283450304166"><ele>96.4</ele><time>2026-03-23T16:41:48.001Z</time></trkpt><trkpt lat="33.22932220813668" lon="9.1328995834145"><ele>96.0</ele><time>2026-03-23T16:41:49.001Z</time></trkpt><trkpt lat="33.22924016565815" lon="9.132970116361081"><ele>96.0</ele><time>2026-03-23T16:41:50.001Z</time></trkpt><trkpt lat="33.229145455593155" lon="9.133057140120048"><ele>96.0</ele><time>2026-03-23T16:41:51.001Z</time></trkpt><trkpt lat="33.22905771393197" lon="9.133128932059817"><ele>96.0</ele><time>2026-03-23T16:41:52Z</time></trkpt><trkpt lat="33.2289743934808" lon="9.133182668079712"><ele>96.0</ele><time>2026-03-23T16:41:53Z</time></trkpt><trkpt lat="33.22888375474102" lon="9.133232471632088"><ele>96.0</ele><time>2026-03-23T16:41:54Z</time></trkpt><trkpt lat="33.22878455698304" lon="9.13329635568693"><ele>96.4</ele><time>2026-03-23T16:41:55Z</time></trkpt><trkpt lat="33.22869483583425" lon="9.133370771379285"><ele>96.8</ele><time>2026-03-23T16:41:56Z</time></trkpt><trkpt lat="33.228604662625166" lon="9.133449444703121"><ele>97.2</ele><time>2026-03-23T16:41:57Z</time></trkpt><trkpt lat="33.22851895402962" lon="9.133535356750988"><ele>97.60000000000001</ele><time>2026-03-23T16:41:58Z</time></trkpt><trkpt lat="33.22844716750804" lon="9.133620292719185"><ele>98.0</ele><time>2026-03-23T16:41:59Z</time></trkpt><trkpt lat="33.22837163651203" lon="9.133714467108245"><ele>98.0</ele><time>2026-03-23T16:42:00Z</time></trkpt><trkpt lat="33.228294076296294" lon="9.133824785152122"><ele>98.0</ele><time>2026-03-23T16:42:01Z</time></trkpt><trkpt lat="33.22822902708209" lon="9.133927281857083"><ele>98.0</ele><time>2026-03-23T16:42:02Z</time></trkpt><trkpt lat="33.228176912199864" lon="9.134028583976338"><ele>98.0</ele><time>2026-03-23T16:42:03Z</time></trkpt><trkpt lat="33.22811559965087" lon="9.134141631962462"><ele>98.0</ele><time>2026-03-23T16:42:04Z</time></trkpt><trkpt lat="33.22803997203332" lon="9.134239045676276"><ele>98.5</ele><time>2026-03-23T16:42:05Z</time></trkpt><trkpt lat="33.2279549046694" lon="9.13432299191539"><ele>99.0</ele><time>2026-03-23T16:42:06Z</time></trkpt><trkpt lat="33.227863850657876" lon="9.134401956897122"><ele>99.5</ele><time>2026-03-23T16:42:07Z</time></trkpt><trkpt lat="33.22776077626534" lon="9.134494276368558"><ele>100.0</ele><time>2026-03-23T16:42:08Z</time></trkpt><trkpt lat="33.227662388709646" lon="9.13458045185031"><ele>100.0</ele><time>2026-03-23T16:42:09Z</time></trkpt><trkpt lat="33.22755889974331" lon="9.134662204805766"><ele>100.0</ele><time>2026-03-23T16:42:10Z</time></trkpt><trkpt lat="33.227462567283695" lon="9.134742513999893"><ele>100.0</ele><time>2026-03-23T16:42:11Z</time></trkpt><trkpt lat="33.22736305203763" lon="9.134838892099168"><ele>100.0</ele><time>2026-03-23T16:42:12Z</time></trkpt><trkpt lat="33.22726939943107" lon="9.13493796719172"><ele>100.2</ele><time>2026-03-23T16:42:13Z</time></trkpt><trkpt lat="33.22718220390726" lon="9.135031111742876"><ele>100.4</ele><time>2026-03-23T16:42:14Z</time></trkpt><trkpt lat="33.227107682452285" lon="9.135107696279137"><ele>100.6</ele><time>2026-03-23T16:42:15Z</time></trkpt><trkpt lat="33.22703442045778" lon="9.135186220394262"><ele>100.8</ele><time>2026-03-23T16:42:16Z</time></trkpt><trkpt lat="33.226962094559994" lon="9.13526027972877"><ele>101.0</ele><time>2026-03-23T16:42:17Z</time></trkpt><trkpt lat="33.22687386280116" lon="9.135339790647887"><ele>101.0</ele><time>2026-03-23T16:42:18Z</time></trkpt><trkpt lat="33.226782547278326" lon="9.135424163622083"><ele>101.0</ele><time>2026-03-23T16:42:19Z</time></trkpt><trkpt lat="33.226690268648696" lon="9.135508979517631"><ele>101.0</ele><time>2026-03-23T16:42:20Z</time></trkpt><trkpt lat="33.226596975328526" lon="9.135592511587523"><ele>101.0</ele><time>2026-03-23T16:42:21Z</time></trkpt><trkpt lat="33.226505974260405" lon="9.135680754706065"><ele>100.4</ele><time>2026-03-23T16:42:22Z</time></trkpt><trkpt lat="33.226421919162654" lon="9.135767655206466"><ele>99.8</ele><time>2026-03-23T16:42:23Z</time></trkpt><trkpt lat="33.226338894089366" lon="9.135861017922938"><ele>99.2</ele><time>2026-03-23T16:42:24Z</time></trkpt><trkpt lat="33.22625432101787" lon="9.135948263489654"><ele>98.60000000000001</ele><time>2026-03-23T16:42:25Z</time></trkpt><trkpt lat="33.22616890098235" lon="9.136033121754696"><ele>98.0</ele><time>2026-03-23T16:42:26Z</time></trkpt><trkpt lat="33.22608438660627" lon="9.13611067154952"><ele>98.0</ele><time>2026-03-23T16:42:27Z</time></trkpt><trkpt lat="33.225996834182205" lon="9.136188452089128"><ele>98.0</ele><time>2026-03-23T16:42:28Z</time></trkpt><trkpt lat="33.225908455066964" lon="9.136273294854822"><ele>98.0</ele><time>2026-03-23T16:42:29Z</time></trkpt><trkpt lat="33.22581654723914" lon="9.136362058519486"><ele>98.0</ele><time>2026-03-23T16:42:30Z</time></trkpt><trkpt lat="33.22571618378235" lon="9.136440252474667"><ele>98.2</ele><time>2026-03-23T16:42:31Z</time></trkpt><trkpt lat="33.225604618337854" lon="9.136520438021154"><ele>98.4</ele><time>2026-03-23T16:42:32Z</time></trkpt><trkpt lat="33.22550607552047" lon="9.136603571640071"><ele>98.60000000000001</ele><time>2026-03-23T16:42:33Z</time></trkpt><trkpt lat="33.22543062093719" lon="9.136682078994008"><ele>98.80000000000001</ele><time>2026-03-23T16:42:34Z</time></trkpt><trkpt lat="33.225360583264916" lon="9.136761361533864"><ele>99.0</ele><time>2026-03-23T16:42:35Z</time></trkpt><trkpt lat="33.225298140308" lon="9.13683900972853"><ele>99.0</ele><time>2026-03-23T16:42:36Z</time></trkpt><trkpt lat="33.22524689636605" lon="9.136919363569795"><ele>99.0</ele><time>2026-03-23T16:42:37Z</time></trkpt><trkpt lat="33.22520311111779" lon="9.136998226711276"><ele>99.0</ele><time>2026-03-23T16:42:38Z</time></trkpt><trkpt lat="33.22513685469981" lon="9.137089074336764"><ele>99.0</ele><time>2026-03-23T16:42:39Z</time></trkpt><trkpt lat="33.225073346148484" lon="9.13718481381936"><ele>99.0</ele><time>2026-03-23T16:42:40Z</time></trkpt><trkpt lat="33.225003113012676" lon="9.137279841543627"><ele>99.0</ele><time>2026-03-23T16:42:41Z</time></trkpt><trkpt lat="33.22493110186531" lon="9.137363325419768"><ele>99.0</ele><time>2026-03-23T16:42:42Z</time></trkpt><trkpt lat="33.22487519109697" lon="9.13742791790337"><ele>99.0</ele><time>2026-03-23T16:42:43Z</time></trkpt><trkpt lat="33.22483397831814" lon="9.137506047357029"><ele>99.0</ele><time>2026-03-23T16:42:44Z</time></trkpt><trkpt lat="33.22479050667727" lon="9.137591780553096"><ele>99.0</ele><time>2026-03-23T16:42:45Z</time></trkpt><trkpt lat="33.22473038494004" lon="9.137686047043477"><ele>99.0</ele><time>2026-03-23T16:42:46Z</time></trkpt><trkpt lat="33.22466750087455" lon="9.137770788115334"><ele>99.4</ele><time>2026-03-23T16:42:47Z</time></trkpt><trkpt lat="33.224597514609265" lon="9.137857704533738"><ele>99.80000000000001</ele><time>2026-03-23T16:42:48Z</time></trkpt><trkpt lat="33.22453424139597" lon="9.137940598969232"><ele>100.19999999999999</ele><time>2026-03-23T16:42:49Z</time></trkpt><trkpt lat="33.2244670090529" lon="9.138035127413682"><ele>100.6</ele><time>2026-03-23T16:42:50Z</time></trkpt><trkpt lat="33.22440992433922" lon="9.138104504714464"><ele>101.0</ele><time>2026-03-23T16:42:51Z</time></trkpt><trkpt lat="33.22435689738925" lon="9.138165776958617"><ele>100.99999999999999</ele><time>2026-03-23T16:42:52Z</time></trkpt><trkpt lat="33.22429770740506" lon="9.138237399717914"><ele>101.0</ele><time>2026-03-23T16:42:53Z</time></trkpt><trkpt lat="33.224236839201964" lon="9.138293601687394"><ele>101.0</ele><time>2026-03-23T16:42:54Z</time></trkpt><trkpt lat="33.22416812549932" lon="9.13833496294007"><ele>101.0</ele><time>2026-03-23T16:42:55Z</time></trkpt><trkpt lat="33.224081689315696" lon="9.138369078757265"><ele>100.99999999999999</ele><time>2026-03-23T16:42:56Z</time></trkpt><trkpt lat="33.22398575867187" lon="9.138403700224789"><ele>101.0</ele><time>2026-03-23T16:42:57Z</time></trkpt><trkpt lat="33.22387234897221" lon="9.138432448747238"><ele>101.0</ele><time>2026-03-23T16:42:58Z</time></trkpt><trkpt lat="33.223776100894554" lon="9.13845566471482"><ele>101.0</ele><time>2026-03-23T16:42:59Z</time></trkpt><trkpt lat="33.223685882836094" lon="9.138482248793835"><ele>101.0</ele><time>2026-03-23T16:43:00Z</time></trkpt><trkpt lat="33.22359585755599" lon="9.138529648184493"><ele>101.0</ele><time>2026-03-23T16:43:01Z</time></trkpt><trkpt lat="33.22350847592831" lon="9.138584094746864"><ele>101.0</ele><time>2026-03-23T16:43:02Z</time></trkpt><trkpt lat="33.223413488376686" lon="9.138661397868555"><ele>101.0</ele><time>2026-03-23T16:43:03Z</time></trkpt><trkpt lat="33.223315687179074" lon="9.138748889514822"><ele>101.0</ele><time>2026-03-23T16:43:04Z</time></trkpt><trkpt lat="33.22322826809824" lon="9.138828200408811"><ele>101.0</ele><time>2026-03-23T16:43:05Z</time></trkpt><trkpt lat="33.22315778063277" lon="9.13889401402744"><ele>101.0</ele><time>2026-03-23T16:43:06Z</time></trkpt><trkpt lat="33.22308787823941" lon="9.13896142816773"><ele>101.0</ele><time>2026-03-23T16:43:07Z</time></trkpt><trkpt lat="33.223034281022606" lon="9.139028523535716"><ele>101.19999999999999</ele><time>2026-03-23T16:43:08Z</time></trkpt><trkpt lat="33.222969927628945" lon="9.139112862690316"><ele>101.39999999999999</ele><time>2026-03-23T16:43:09Z</time></trkpt><trkpt lat="33.22288930427939" lon="9.139195347754033"><ele>101.6</ele><time>2026-03-23T16:43:10Z</time></trkpt><trkpt lat="33.222797834846375" lon="9.139276538929693"><ele>101.8</ele><time>2026-03-23T16:43:11Z</time></trkpt><trkpt lat="33.222715693929274" lon="9.13935477489531"><ele>102.0</ele><time>2026-03-23T16:43:12Z</time></trkpt><trkpt lat="33.22264214553759" lon="9.139431232224759"><ele>102.0</ele><time>2026-03-23T16:43:13Z</time></trkpt><trkpt lat="33.22256380201698" lon="9.1395143779036"><ele>102.0</ele><time>2026-03-23T16:43:14Z</time></trkpt><trkpt lat="33.22249363022391" lon="9.139594758643128"><ele>102.0</ele><time>2026-03-23T16:43:15Z</time></trkpt><trkpt lat="33.22243820424326" lon="9.139660445882306"><ele>102.0</ele><time>2026-03-23T16:43:16Z</time></trkpt><trkpt lat="33.2223800905873" lon="9.139721101106971"><ele>102.0</ele><time>2026-03-23T16:43:17Z</time></trkpt><trkpt lat="33.22227888564261" lon="9.139796246232299"><ele>102.0</ele><time>2026-03-23T16:43:19Z</time></trkpt><trkpt lat="33.222177704847084" lon="9.13986892601083"><ele>102.0</ele><time>2026-03-23T16:43:21Z</time></trkpt><trkpt lat="33.22211766615819" lon="9.139913518427877"><ele>102.0</ele><time>2026-03-23T16:43:22Z</time></trkpt><trkpt lat="33.222061175739924" lon="9.13997046588316"><ele>102.0</ele><time>2026-03-23T16:43:23Z</time></trkpt><trkpt lat="33.222018160594935" lon="9.14002575211871"><ele>102.0</ele><time>2026-03-23T16:43:24Z</time></trkpt><trkpt lat="33.2219389151937" lon="9.14014311306725"><ele>102.0</ele><time>2026-03-23T16:43:26Z</time></trkpt><trkpt lat="33.22188917345451" lon="9.14020738544764"><ele>102.0</ele><time>2026-03-23T16:43:27Z</time></trkpt><trkpt lat="33.22183926041647" lon="9.140274391668976"><ele>102.0</ele><time>2026-03-23T16:43:28Z</time></trkpt><trkpt lat="33.22178694779525" lon="9.140350169667943"><ele>102.0</ele><time>2026-03-23T16:43:29Z</time></trkpt><trkpt lat="33.221737103878624" lon="9.140411670708277"><ele>102.0</ele><time>2026-03-23T16:43:30Z</time></trkpt><trkpt lat="33.22167583433937" lon="9.140477655597952"><ele>102.0</ele><time>2026-03-23T16:43:31Z</time></trkpt><trkpt lat="33.22161401564268" lon="9.140544724908512"><ele>102.0</ele><time>2026-03-23T16:43:32Z</time></trkpt><trkpt lat="33.22154594188052" lon="9.140612474555903"><ele>102.0</ele><time>2026-03-23T16:43:33Z</time></trkpt><trkpt lat="33.22147377280636" lon="9.140677121459671"><ele>102.0</ele><time>2026-03-23T16:43:34Z</time></trkpt><trkpt lat="33.221417196243614" lon="9.140731400679641"><ele>102.0</ele><time>2026-03-23T16:43:35Z</time></trkpt><trkpt lat="33.22135741037977" lon="9.14078494101686"><ele>102.0</ele><time>2026-03-23T16:43:36Z</time></trkpt><trkpt lat="33.221286791427204" lon="9.140851732989049"><ele>102.0</ele><time>2026-03-23T16:43:37Z</time></trkpt><trkpt lat="33.221224389982545" lon="9.140918397591635"><ele>102.0</ele><time>2026-03-23T16:43:38Z</time></trkpt><trkpt lat="33.22115498707436" lon="9.14098735360925"><ele>102.0</ele><time>2026-03-23T16:43:39.001Z</time></trkpt><trkpt lat="33.221086594284635" lon="9.141057198034499"><ele>102.0</ele><time>2026-03-23T16:43:40.001Z</time></trkpt><trkpt lat="33.221013305282554" lon="9.141125463561103"><ele>102.0</ele><time>2026-03-23T16:43:41.001Z</time></trkpt><trkpt lat="33.22093523514282" lon="9.141186387366721"><ele>102.0</ele><time>2026-03-23T16:43:42.001Z</time></trkpt><trkpt lat="33.22085255645423" lon="9.141243321393677"><ele>102.0</ele><time>2026-03-23T16:43:43.001Z</time></trkpt><trkpt lat="33.22077772951296" lon="9.141291331176728"><ele>102.0</ele><time>2026-03-23T16:43:44.001Z</time></trkpt><trkpt lat="33.220691369836814" lon="9.141345286002217"><ele>102.0</ele><time>2026-03-23T16:43:45.001Z</time></trkpt><trkpt lat="33.220605611955015" lon="9.141390203082773"><ele>102.0</ele><time>2026-03-23T16:43:46.001Z</time></trkpt><trkpt lat="33.220523595134075" lon="9.141435706263465"><ele>102.0</ele><time>2026-03-23T16:43:47.001Z</time></trkpt><trkpt lat="33.22045146389748" lon="9.14148735351535"><ele>102.16666666666667</ele><time>2026-03-23T16:43:48.001Z</time></trkpt><trkpt lat="33.22038131270705" lon="9.141556608523045"><ele>102.33333333333334</ele><time>2026-03-23T16:43:49.001Z</time></trkpt><trkpt lat="33.22031420263913" lon="9.141612426329331"><ele>102.5</ele><time>2026-03-23T16:43:50.001Z</time></trkpt><trkpt lat="33.22023540430838" lon="9.141665660794759"><ele>102.66666666666667</ele><time>2026-03-23T16:43:51.001Z</time></trkpt><trkpt lat="33.220150150391774" lon="9.141702792996014"><ele>102.83333333333334</ele><time>2026-03-23T16:43:52.001Z</time></trkpt><trkpt lat="33.220069152003056" lon="9.141741273055871"><ele>103.0</ele><time>2026-03-23T16:43:53.001Z</time></trkpt><trkpt lat="33.21998685164353" lon="9.141787387963113"><ele>103.0</ele><time>2026-03-23T16:43:54.001Z</time></trkpt><trkpt lat="33.219896288507364" lon="9.141840226796882"><ele>103.0</ele><time>2026-03-23T16:43:55.001Z</time></trkpt><trkpt lat="33.21979641578168" lon="9.141904932892333"><ele>103.0</ele><time>2026-03-23T16:43:56.001Z</time></trkpt><trkpt lat="33.21971640709215" lon="9.141970083603944"><ele>103.0</ele><time>2026-03-23T16:43:57.001Z</time></trkpt><trkpt lat="33.21962750689551" lon="9.142047300354188"><ele>103.0</ele><time>2026-03-23T16:43:58Z</time></trkpt><trkpt lat="33.21955974280119" lon="9.142104092869625"><ele>103.16666666666667</ele><time>2026-03-23T16:43:59Z</time></trkpt><trkpt lat="33.21950304126733" lon="9.14215145301085"><ele>103.33333333333334</ele><time>2026-03-23T16:44:00Z</time></trkpt><trkpt lat="33.21945215610135" lon="9.142196031608337"><ele>103.5</ele><time>2026-03-23T16:44:01Z</time></trkpt><trkpt lat="33.21939730397082" lon="9.1422596957884"><ele>103.66666666666666</ele><time>2026-03-23T16:44:02Z</time></trkpt><trkpt lat="33.219343616552756" lon="9.142333657351292"><ele>103.83333333333333</ele><time>2026-03-23T16:44:03Z</time></trkpt><trkpt lat="33.21929108447872" lon="9.142408914054478"><ele>104.0</ele><time>2026-03-23T16:44:04Z</time></trkpt><trkpt lat="33.21923630454574" lon="9.1424903391658"><ele>104.2</ele><time>2026-03-23T16:44:05Z</time></trkpt><trkpt lat="33.21917001902779" lon="9.142592081939764"><ele>104.4</ele><time>2026-03-23T16:44:06Z</time></trkpt><trkpt lat="33.219101580785136" lon="9.142685582138734"><ele>104.6</ele><time>2026-03-23T16:44:07Z</time></trkpt><trkpt lat="33.21902787958629" lon="9.142767705710481"><ele>104.8</ele><time>2026-03-23T16:44:08Z</time></trkpt><trkpt lat="33.21895665832485" lon="9.142835846487591"><ele>105.0</ele><time>2026-03-23T16:44:09Z</time></trkpt><trkpt lat="33.21888447936944" lon="9.142886436275315"><ele>105.2</ele><time>2026-03-23T16:44:10Z</time></trkpt><trkpt lat="33.2188084368211" lon="9.142936251733271"><ele>105.4</ele><time>2026-03-23T16:44:11Z</time></trkpt><trkpt lat="33.21873101277139" lon="9.14298488695459"><ele>105.6</ele><time>2026-03-23T16:44:12Z</time></trkpt><trkpt lat="33.218643535861524" lon="9.143038628410924"><ele>105.8</ele><time>2026-03-23T16:44:13Z</time></trkpt><trkpt lat="33.218557143302355" lon="9.143090197315358"><ele>106.0</ele><time>2026-03-23T16:44:14Z</time></trkpt><trkpt lat="33.21846517888076" lon="9.14314325689049"><ele>106.0</ele><time>2026-03-23T16:44:15Z</time></trkpt><trkpt lat="33.21837166277303" lon="9.143198735253124"><ele>106.0</ele><time>2026-03-23T16:44:16Z</time></trkpt><trkpt lat="33.21828130954216" lon="9.143262746040067"><ele>106.0</ele><time>2026-03-23T16:44:17Z</time></trkpt><trkpt lat="33.21819580098014" lon="9.143344691522305"><ele>106.0</ele><time>2026-03-23T16:44:18Z</time></trkpt><trkpt lat="33.21812363361729" lon="9.143424763006355"><ele>106.0</ele><time>2026-03-23T16:44:19Z</time></trkpt><trkpt lat="33.21804075754846" lon="9.143514654800088"><ele>106.19999999999999</ele><time>2026-03-23T16:44:20Z</time></trkpt><trkpt lat="33.21796314148769" lon="9.143610798557964"><ele>106.39999999999999</ele><time>2026-03-23T16:44:21Z</time></trkpt><trkpt lat="33.21790690982035" lon="9.143707586275259"><ele>106.6</ele><time>2026-03-23T16:44:22Z</time></trkpt><trkpt lat="33.21785282700574" lon="9.143807999519353"><ele>106.8</ele><time>2026-03-23T16:44:23Z</time></trkpt><trkpt lat="33.21779843719637" lon="9.143905216490538"><ele>107.0</ele><time>2026-03-23T16:44:24Z</time></trkpt><trkpt lat="33.21774499936099" lon="9.144007594142536"><ele>107.0</ele><time>2026-03-23T16:44:25Z</time></trkpt><trkpt lat="33.21768160879441" lon="9.144104536214703"><ele>106.99999999999999</ele><time>2026-03-23T16:44:26Z</time></trkpt><trkpt lat="33.21761191471523" lon="9.14418619624474"><ele>106.99999999999999</ele><time>2026-03-23T16:44:27Z</time></trkpt><trkpt lat="33.21752264288995" lon="9.14428688916399"><ele>107.0</ele><time>2026-03-23T16:44:28Z</time></trkpt><trkpt lat="33.21743570110227" lon="9.144387241976922"><ele>107.0</ele><time>2026-03-23T16:44:29Z</time></trkpt><trkpt lat="33.217345307821965" lon="9.144492447016418"><ele>107.0</ele><time>2026-03-23T16:44:30Z</time></trkpt><trkpt lat="33.217261222861374" lon="9.144588768230836"><ele>106.99999999999999</ele><time>2026-03-23T16:44:31Z</time></trkpt><trkpt lat="33.217187954887144" lon="9.144673745686404"><ele>106.99999999999999</ele><time>2026-03-23T16:44:32Z</time></trkpt><trkpt lat="33.21712254978957" lon="9.144745979891916"><ele>107.0</ele><time>2026-03-23T16:44:33Z</time></trkpt><trkpt lat="33.21705434767245" lon="9.14480521475258"><ele>107.0</ele><time>2026-03-23T16:44:34Z</time></trkpt><trkpt lat="33.21697587655726" lon="9.14486862647017"><ele>107.0</ele><time>2026-03-23T16:44:35Z</time></trkpt><trkpt lat="33.21688219142669" lon="9.144928551229649"><ele>106.99999999999999</ele><time>2026-03-23T16:44:36Z</time></trkpt><trkpt lat="33.216791869211264" lon="9.144976435836773"><ele>106.99999999999999</ele><time>2026-03-23T16:44:37Z</time></trkpt><trkpt lat="33.21670234651012" lon="9.145024251387413"><ele>107.0</ele><time>2026-03-23T16:44:38Z</time></trkpt><trkpt lat="33.21660846026775" lon="9.145080018489237"><ele>107.0</ele><time>2026-03-23T16:44:39Z</time></trkpt><trkpt lat="33.21652922395543" lon="9.145135885882985"><ele>107.19999999999999</ele><time>2026-03-23T16:44:40Z</time></trkpt><trkpt lat="33.216460278835505" lon="9.145192370270964"><ele>107.39999999999999</ele><time>2026-03-23T16:44:41Z</time></trkpt><trkpt lat="33.21639508150753" lon="9.145263389882697"><ele>107.60000000000001</ele><time>2026-03-23T16:44:42Z</time></trkpt><trkpt lat="33.216345835072865" lon="9.145333036509392"><ele>107.80000000000001</ele><time>2026-03-23T16:44:43Z</time></trkpt><trkpt lat="33.216272499125544" lon="9.145443339704958"><ele>108.0</ele><time>2026-03-23T16:44:45Z</time></trkpt><trkpt lat="33.2162200214928" lon="9.145523298007499"><ele>108.0</ele><time>2026-03-23T16:44:46Z</time></trkpt><trkpt lat="33.216167048203474" lon="9.145582970081911"><ele>108.0</ele><time>2026-03-23T16:44:47Z</time></trkpt><trkpt lat="33.21611388704897" lon="9.145640742284915"><ele>108.0</ele><time>2026-03-23T16:44:48Z</time></trkpt><trkpt lat="33.216041033754365" lon="9.145714916528359"><ele>108.0</ele><time>2026-03-23T16:44:49Z</time></trkpt><trkpt lat="33.21596582544961" lon="9.145787780838203"><ele>108.0</ele><time>2026-03-23T16:44:50Z</time></trkpt><trkpt lat="33.21588184878012" lon="9.145855838098925"><ele>108.0</ele><time>2026-03-23T16:44:51Z</time></trkpt><trkpt lat="33.215799219067456" lon="9.145925774965226"><ele>107.80000000000001</ele><time>2026-03-23T16:44:52Z</time></trkpt><trkpt lat="33.215736406483884" lon="9.145986337459526"><ele>107.60000000000001</ele><time>2026-03-23T16:44:53Z</time></trkpt><trkpt lat="33.215667125810384" lon="9.146054918900399"><ele>107.39999999999999</ele><time>2026-03-23T16:44:54Z</time></trkpt><trkpt lat="33.21559177958689" lon="9.146128575889364"><ele>107.19999999999999</ele><time>2026-03-23T16:44:55Z</time></trkpt><trkpt lat="33.21551870714191" lon="9.146206093359796"><ele>107.0</ele><time>2026-03-23T16:44:56Z</time></trkpt><trkpt lat="33.21544548681872" lon="9.14628815267474"><ele>107.39999999999999</ele><time>2026-03-23T16:44:57Z</time></trkpt><trkpt lat="33.21536969879328" lon="9.146357027301395"><ele>107.79999999999998</ele><time>2026-03-23T16:44:58Z</time></trkpt><trkpt lat="33.21528484004075" lon="9.146413327246107"><ele>108.2</ele><time>2026-03-23T16:44:59Z</time></trkpt><trkpt lat="33.21519300714667" lon="9.146475389534404"><ele>108.6</ele><time>2026-03-23T16:45:00Z</time></trkpt><trkpt lat="33.215112640230366" lon="9.146524822570523"><ele>109.0</ele><time>2026-03-23T16:45:01Z</time></trkpt><trkpt lat="33.21502082757786" lon="9.146571961180602"><ele>109.0</ele><time>2026-03-23T16:45:02Z</time></trkpt><trkpt lat="33.21494124245923" lon="9.14661576151322"><ele>109.0</ele><time>2026-03-23T16:45:03Z</time></trkpt><trkpt lat="33.214862312609796" lon="9.146668240787543"><ele>109.0</ele><time>2026-03-23T16:45:04Z</time></trkpt><trkpt lat="33.214783822350896" lon="9.146739461966066"><ele>109.0</ele><time>2026-03-23T16:45:05Z</time></trkpt><trkpt lat="33.214705277945036" lon="9.146821271978498"><ele>109.0</ele><time>2026-03-23T16:45:06Z</time></trkpt><trkpt lat="33.21462970301482" lon="9.146898910361914"><ele>109.2</ele><time>2026-03-23T16:45:07Z</time></trkpt><trkpt lat="33.214550964617544" lon="9.146968085476521"><ele>109.4</ele><time>2026-03-23T16:45:08Z</time></trkpt><trkpt lat="33.214469752835655" lon="9.147039274213954"><ele>109.6</ele><time>2026-03-23T16:45:09Z</time></trkpt><trkpt lat="33.21439388219989" lon="9.147131251670261"><ele>109.8</ele><time>2026-03-23T16:45:10Z</time></trkpt><trkpt lat="33.21432013901543" lon="9.147216027660395"><ele>110.0</ele><time>2026-03-23T16:45:11Z</time></trkpt><trkpt lat="33.214253759976295" lon="9.147280606822331"><ele>109.99999999999999</ele><time>2026-03-23T16:45:12Z</time></trkpt><trkpt lat="33.21418654475456" lon="9.147324509544903"><ele>110.0</ele><time>2026-03-23T16:45:13Z</time></trkpt><trkpt lat="33.21410740865326" lon="9.147361883533256"><ele>110.0</ele><time>2026-03-23T16:45:14Z</time></trkpt><trkpt lat="33.21404142559228" lon="9.147389183375148"><ele>110.0</ele><time>2026-03-23T16:45:15Z</time></trkpt><trkpt lat="33.213982067964544" lon="9.14743618714826"><ele>109.99999999999999</ele><time>2026-03-23T16:45:16Z</time></trkpt><trkpt lat="33.21392487284351" lon="9.147496793524095"><ele>110.0</ele><time>2026-03-23T16:45:17Z</time></trkpt><trkpt lat="33.21386439968497" lon="9.147565724085569"><ele>110.0</ele><time>2026-03-23T16:45:18Z</time></trkpt><trkpt lat="33.21381469441249" lon="9.14764011045094"><ele>110.0</ele><time>2026-03-23T16:45:19Z</time></trkpt><trkpt lat="33.213759905546794" lon="9.147735953901735"><ele>110.0</ele><time>2026-03-23T16:45:20Z</time></trkpt><trkpt lat="33.2136976895172" lon="9.147831437506495"><ele>110.0</ele><time>2026-03-23T16:45:21Z</time></trkpt><trkpt lat="33.213616180997086" lon="9.147916995380816"><ele>110.0</ele><time>2026-03-23T16:45:22Z</time></trkpt><trkpt lat="33.21352184502078" lon="9.147988393503914"><ele>110.0</ele><time>2026-03-23T16:45:23Z</time></trkpt><trkpt lat="33.21341726525831" lon="9.14804996226733"><ele>110.0</ele><time>2026-03-23T16:45:24Z</time></trkpt><trkpt lat="33.21331955654206" lon="9.148111173581823"><ele>110.0</ele><time>2026-03-23T16:45:25Z</time></trkpt><trkpt lat="33.21323745146224" lon="9.14815920628497"><ele>110.0</ele><time>2026-03-23T16:45:26Z</time></trkpt><trkpt lat="33.21316213163867" lon="9.148229953414571"><ele>110.0</ele><time>2026-03-23T16:45:27Z</time></trkpt><trkpt lat="33.21308893488742" lon="9.14831270785933"><ele>110.0</ele><time>2026-03-23T16:45:28Z</time></trkpt><trkpt lat="33.21301330118319" lon="9.148397578103989"><ele>110.0</ele><time>2026-03-23T16:45:29Z</time></trkpt><trkpt lat="33.21292826571565" lon="9.148489481258627"><ele>110.0</ele><time>2026-03-23T16:45:30Z</time></trkpt><trkpt lat="33.21283876590273" lon="9.148575694127619"><ele>110.0</ele><time>2026-03-23T16:45:31Z</time></trkpt><trkpt lat="33.21275092474646" lon="9.14866527563352"><ele>110.0</ele><time>2026-03-23T16:45:32Z</time></trkpt><trkpt lat="33.212667942626474" lon="9.14875429140593"><ele>110.0</ele><time>2026-03-23T16:45:33Z</time></trkpt><trkpt lat="33.21258708006344" lon="9.14884979757197"><ele>110.0</ele><time>2026-03-23T16:45:34Z</time></trkpt><trkpt lat="33.212514173072144" lon="9.148958457494231"><ele>110.0</ele><time>2026-03-23T16:45:35Z</time></trkpt><trkpt lat="33.212442564731965" lon="9.149065898743428"><ele>110.0</ele><time>2026-03-23T16:45:36Z</time></trkpt><trkpt lat="33.21236246471184" lon="9.149165591427046"><ele>110.5</ele><time>2026-03-23T16:45:37Z</time></trkpt><trkpt lat="33.21227324860015" lon="9.149266492963221"><ele>111.0</ele><time>2026-03-23T16:45:38Z</time></trkpt><trkpt lat="33.21218780274221" lon="9.149365090031818"><ele>111.5</ele><time>2026-03-23T16:45:39Z</time></trkpt><trkpt lat="33.212102259448734" lon="9.14946640553432"><ele>112.0</ele><time>2026-03-23T16:45:40Z</time></trkpt><trkpt lat="33.21201563133943" lon="9.149562649237938"><ele>112.0</ele><time>2026-03-23T16:45:41Z</time></trkpt><trkpt lat="33.21194158709759" lon="9.149643141492492"><ele>111.99999999999999</ele><time>2026-03-23T16:45:42Z</time></trkpt><trkpt lat="33.21187047042446" lon="9.149740162564395"><ele>111.99999999999999</ele><time>2026-03-23T16:45:43Z</time></trkpt><trkpt lat="33.21179899796026" lon="9.14984079463514"><ele>112.0</ele><time>2026-03-23T16:45:44Z</time></trkpt><trkpt lat="33.211725167812794" lon="9.149942564955825"><ele>112.0</ele><time>2026-03-23T16:45:45Z</time></trkpt><trkpt lat="33.21164590437012" lon="9.150048679433672"><ele>112.0</ele><time>2026-03-23T16:45:46Z</time></trkpt><trkpt lat="33.2115684609584" lon="9.150155780396563"><ele>112.0</ele><time>2026-03-23T16:45:47Z</time></trkpt><trkpt lat="33.21148429847413" lon="9.150255282677293"><ele>112.0</ele><time>2026-03-23T16:45:48Z</time></trkpt><trkpt lat="33.211392581944985" lon="9.150347847354933"><ele>112.0</ele><time>2026-03-23T16:45:49Z</time></trkpt><trkpt lat="33.21130565075689" lon="9.150437147227379"><ele>112.0</ele><time>2026-03-23T16:45:50Z</time></trkpt><trkpt lat="33.21121587519808" lon="9.150527536110808"><ele>112.0</ele><time>2026-03-23T16:45:51Z</time></trkpt><trkpt lat="33.211127302692475" lon="9.150617419649903"><ele>112.0</ele><time>2026-03-23T16:45:52Z</time></trkpt><trkpt lat="33.211039434862506" lon="9.150709311321574"><ele>112.0</ele><time>2026-03-23T16:45:53Z</time></trkpt><trkpt lat="33.21096371831565" lon="9.150806370785029"><ele>112.19999999999999</ele><time>2026-03-23T16:45:54.001Z</time></trkpt><trkpt lat="33.210897989065906" lon="9.15090072874712"><ele>112.39999999999999</ele><time>2026-03-23T16:45:55.001Z</time></trkpt><trkpt lat="33.21084087665195" lon="9.150997507716484"><ele>112.60000000000001</ele><time>2026-03-23T16:45:56.001Z</time></trkpt><trkpt lat="33.210777420633285" lon="9.151082618052802"><ele>112.80000000000001</ele><time>2026-03-23T16:45:57.001Z</time></trkpt><trkpt lat="33.21072553011939" lon="9.151146198741467"><ele>113.0</ele><time>2026-03-23T16:45:58.001Z</time></trkpt><trkpt lat="33.21066837765713" lon="9.15121418072344"><ele>112.99999999999999</ele><time>2026-03-23T16:45:59.001Z</time></trkpt><trkpt lat="33.21059684962593" lon="9.151279615213634"><ele>113.0</ele><time>2026-03-23T16:46:01.001Z</time></trkpt><trkpt lat="33.21066048589122" lon="9.15134238988554"><ele>113.0</ele><time>2026-03-23T16:49:14Z</time></trkpt><trkpt lat="33.21073803084123" lon="9.151246215209687"><ele>113.0</ele><time>2026-03-23T16:49:16Z</time></trkpt><trkpt lat="33.21077501685132" lon="9.151180027010174"><ele>112.99999999999999</ele><time>2026-03-23T16:49:17Z</time></trkpt><trkpt lat="33.21081767879026" lon="9.151116130427166"><ele>113.0</ele><time>2026-03-23T16:49:18Z</time></trkpt><trkpt lat="33.210864352036744" lon="9.151036624522922"><ele>112.99999999999999</ele><time>2026-03-23T16:49:20Z</time></trkpt><trkpt lat="33.210893907826815" lon="9.150957185601417"><ele>113.0</ele><time>2026-03-23T16:49:23Z</time></trkpt><trkpt lat="33.21091012172019" lon="9.15088037512456"><ele>113.0</ele><time>2026-03-23T16:49:26Z</time></trkpt><trkpt lat="33.2108669130108" lon="9.15079067486452"><ele>113.0</ele><time>2026-03-23T16:49:28Z</time></trkpt><trkpt lat="33.21077919622066" lon="9.15077066684814"><ele>112.99999999999999</ele><time>2026-03-23T16:49:30Z</time></trkpt><trkpt lat="33.21065746685888" lon="9.150771746974888"><ele>113.0</ele><time>2026-03-23T16:49:32Z</time></trkpt><trkpt lat="33.21055778642699" lon="9.150720395638462"><ele>112.80000000000001</ele><time>2026-03-23T16:49:34Z</time></trkpt><trkpt lat="33.210511710140935" lon="9.150664001946383"><ele>112.60000000000001</ele><time>2026-03-23T16:49:35Z</time></trkpt><trkpt lat="33.210450897925234" lon="9.150589374167806"><ele>112.39999999999999</ele><time>2026-03-23T16:49:36Z</time></trkpt><trkpt lat="33.21037307795871" lon="9.150509455791614"><ele>112.19999999999999</ele><time>2026-03-23T16:49:37Z</time></trkpt><trkpt lat="33.21028951105488" lon="9.150432033404858"><ele>112.0</ele><time>2026-03-23T16:49:38Z</time></trkpt><trkpt lat="33.21020690570382" lon="9.150355990622463"><ele>112.0</ele><time>2026-03-23T16:49:39Z</time></trkpt><trkpt lat="33.210131490220796" lon="9.150284182641515"><ele>111.99999999999999</ele><time>2026-03-23T16:49:40Z</time></trkpt><trkpt lat="33.21005628332853" lon="9.150194577929906"><ele>111.99999999999999</ele><time>2026-03-23T16:49:41Z</time></trkpt><trkpt lat="33.21000175919461" lon="9.150121177517526"><ele>112.0</ele><time>2026-03-23T16:49:42Z</time></trkpt><trkpt lat="33.20993045315023" lon="9.150063514404733"><ele>112.0</ele><time>2026-03-23T16:49:43Z</time></trkpt><trkpt lat="33.209846756889945" lon="9.150017530499497"><ele>112.19999999999999</ele><time>2026-03-23T16:49:44Z</time></trkpt><trkpt lat="33.20974793431363" lon="9.149960914751185"><ele>112.39999999999999</ele><time>2026-03-23T16:49:45Z</time></trkpt><trkpt lat="33.20965716323427" lon="9.14989385433644"><ele>112.60000000000001</ele><time>2026-03-23T16:49:46Z</time></trkpt><trkpt lat="33.20958413105132" lon="9.14981766544602"><ele>112.80000000000001</ele><time>2026-03-23T16:49:47Z</time></trkpt><trkpt lat="33.20949454582433" lon="9.149745560653166"><ele>113.0</ele><time>2026-03-23T16:49:48Z</time></trkpt><trkpt lat="33.2094115400841" lon="9.149670100855685"><ele>113.33333333333333</ele><time>2026-03-23T16:49:49Z</time></trkpt><trkpt lat="33.2093408644391" lon="9.149617219877278"><ele>113.66666666666666</ele><time>2026-03-23T16:49:50Z</time></trkpt><trkpt lat="33.209270697713876" lon="9.149580820713858"><ele>114.0</ele><time>2026-03-23T16:49:51Z</time></trkpt><trkpt lat="33.209201649489444" lon="9.149538440551916"><ele>114.33333333333334</ele><time>2026-03-23T16:49:52Z</time></trkpt><trkpt lat="33.20913971096542" lon="9.14949874257002"><ele>114.66666666666667</ele><time>2026-03-23T16:49:53Z</time></trkpt><trkpt lat="33.2090715894637" lon="9.149453019618413"><ele>115.0</ele><time>2026-03-23T16:49:54Z</time></trkpt><trkpt lat="33.2090038565736" lon="9.149390129376819"><ele>115.33333333333334</ele><time>2026-03-23T16:49:55Z</time></trkpt><trkpt lat="33.20892997655193" lon="9.14933018720251"><ele>115.66666666666667</ele><time>2026-03-23T16:49:56Z</time></trkpt><trkpt lat="33.20885374386021" lon="9.14927932125986"><ele>116.0</ele><time>2026-03-23T16:49:57Z</time></trkpt><trkpt lat="33.208773020803285" lon="9.14922010649371"><ele>116.33333333333334</ele><time>2026-03-23T16:49:58Z</time></trkpt><trkpt lat="33.20870362369701" lon="9.149162769706534"><ele>116.66666666666667</ele><time>2026-03-23T16:49:59Z</time></trkpt><trkpt lat="33.20863737190614" lon="9.1491094906089"><ele>117.0</ele><time>2026-03-23T16:50:00Z</time></trkpt><trkpt lat="33.20856219286019" lon="9.149059102106996"><ele>117.19999999999999</ele><time>2026-03-23T16:50:01Z</time></trkpt><trkpt lat="33.208472601155705" lon="9.149018853808766"><ele>117.39999999999999</ele><time>2026-03-23T16:50:02Z</time></trkpt><trkpt lat="33.20837397448538" lon="9.148977488238573"><ele>117.60000000000001</ele><time>2026-03-23T16:50:03Z</time></trkpt><trkpt lat="33.20828625559604" lon="9.148934613524965"><ele>117.80000000000001</ele><time>2026-03-23T16:50:04Z</time></trkpt><trkpt lat="33.20820540631035" lon="9.148887616836024"><ele>118.0</ele><time>2026-03-23T16:50:05Z</time></trkpt><trkpt lat="33.20813326933956" lon="9.148848080540555"><ele>118.00000000000001</ele><time>2026-03-23T16:50:06Z</time></trkpt><trkpt lat="33.208077228569806" lon="9.148811847976097"><ele>118.0</ele><time>2026-03-23T16:50:07Z</time></trkpt><trkpt lat="33.20802528074399" lon="9.148762267994375"><ele>118.0</ele><time>2026-03-23T16:50:08Z</time></trkpt><trkpt lat="33.20794965521255" lon="9.14870113012507"><ele>118.0</ele><time>2026-03-23T16:50:09Z</time></trkpt><trkpt lat="33.20787055810963" lon="9.148641827053504"><ele>118.00000000000001</ele><time>2026-03-23T16:50:10Z</time></trkpt><trkpt lat="33.20778680228727" lon="9.148583444184775"><ele>118.0</ele><time>2026-03-23T16:50:11Z</time></trkpt><trkpt lat="33.20770846518537" lon="9.148535487267223"><ele>118.00000000000001</ele><time>2026-03-23T16:50:12Z</time></trkpt><trkpt lat="33.207631577529796" lon="9.148489482269898"><ele>118.0</ele><time>2026-03-23T16:50:13Z</time></trkpt><trkpt lat="33.20755208980139" lon="9.148453213785485"><ele>118.0</ele><time>2026-03-23T16:50:14Z</time></trkpt><trkpt lat="33.20746371460172" lon="9.148416683828229"><ele>118.0</ele><time>2026-03-23T16:50:15Z</time></trkpt><trkpt lat="33.20738602487031" lon="9.148387733083817"><ele>118.00000000000001</ele><time>2026-03-23T16:50:16Z</time></trkpt><trkpt lat="33.20731417693757" lon="9.148367509276946"><ele>118.0</ele><time>2026-03-23T16:50:17Z</time></trkpt><trkpt lat="33.20725318146969" lon="9.148340844842448"><ele>118.00000000000001</ele><time>2026-03-23T16:50:18Z</time></trkpt><trkpt lat="33.20719406484022" lon="9.148312132742191"><ele>118.0</ele><time>2026-03-23T16:50:19Z</time></trkpt><trkpt lat="33.2070784853024" lon="9.148282148584455"><ele>118.0</ele><time>2026-03-23T16:50:21Z</time></trkpt><trkpt lat="33.207012731606916" lon="9.148293535111963"><ele>118.0</ele><time>2026-03-23T16:50:22Z</time></trkpt><trkpt lat="33.20694601288638" lon="9.148325332432869"><ele>118.00000000000001</ele><time>2026-03-23T16:50:23Z</time></trkpt><trkpt lat="33.20686714968221" lon="9.148355804377271"><ele>118.0</ele><time>2026-03-23T16:50:24Z</time></trkpt><trkpt lat="33.206791554192456" lon="9.14835556244887"><ele>118.00000000000001</ele><time>2026-03-23T16:50:25Z</time></trkpt><trkpt lat="33.2067106485741" lon="9.148341433438015"><ele>118.0</ele><time>2026-03-23T16:50:26Z</time></trkpt><trkpt lat="33.20663754733793" lon="9.14831316012751"><ele>118.0</ele><time>2026-03-23T16:50:27Z</time></trkpt><trkpt lat="33.206556537558136" lon="9.148276330235339"><ele>118.0</ele><time>2026-03-23T16:50:28Z</time></trkpt><trkpt lat="33.20648276937372" lon="9.148259927978259"><ele>118.00000000000001</ele><time>2026-03-23T16:50:29Z</time></trkpt><trkpt lat="33.206416338844974" lon="9.148235543332678"><ele>118.0</ele><time>2026-03-23T16:50:30Z</time></trkpt><trkpt lat="33.20634315215297" lon="9.14820221429574"><ele>118.00000000000001</ele><time>2026-03-23T16:50:31Z</time></trkpt><trkpt lat="33.206274992054496" lon="9.148154276485704"><ele>118.0</ele><time>2026-03-23T16:50:32Z</time></trkpt><trkpt lat="33.20622541261813" lon="9.148093279016477"><ele>118.0</ele><time>2026-03-23T16:50:33Z</time></trkpt><trkpt lat="33.206166036434816" lon="9.148021117722086"><ele>118.0</ele><time>2026-03-23T16:50:34Z</time></trkpt><trkpt lat="33.20609424688931" lon="9.147973452478714"><ele>118.00000000000001</ele><time>2026-03-23T16:50:35Z</time></trkpt><trkpt lat="33.20603210109532" lon="9.147943288001244"><ele>118.0</ele><time>2026-03-23T16:50:36Z</time></trkpt><trkpt lat="33.205918797133776" lon="9.147916283143992"><ele>118.00000000000001</ele><time>2026-03-23T16:50:38Z</time></trkpt><trkpt lat="33.205855240291065" lon="9.147895179173098"><ele>118.0</ele><time>2026-03-23T16:50:39Z</time></trkpt><trkpt lat="33.205801059500025" lon="9.147847265004577"><ele>118.0</ele><time>2026-03-23T16:50:40Z</time></trkpt><trkpt lat="33.205712161484094" lon="9.147757247934097"><ele>118.0</ele><time>2026-03-23T16:50:42Z</time></trkpt><trkpt lat="33.20565002687367" lon="9.147702042512806"><ele>118.00000000000001</ele><time>2026-03-23T16:50:44Z</time></trkpt><trkpt lat="33.20554742806112" lon="9.147668397501358"><ele>118.0</ele><time>2026-03-23T16:50:46Z</time></trkpt><trkpt lat="33.205452704588694" lon="9.147676702827578"><ele>118.00000000000001</ele><time>2026-03-23T16:50:48Z</time></trkpt><trkpt lat="33.205349151375934" lon="9.147662003105584"><ele>118.0</ele><time>2026-03-23T16:50:50Z</time></trkpt><trkpt lat="33.20528179326772" lon="9.1476445347435"><ele>118.0</ele><time>2026-03-23T16:50:51Z</time></trkpt><trkpt lat="33.20519835405877" lon="9.147631759817708"><ele>118.0</ele><time>2026-03-23T16:50:53Z</time></trkpt><trkpt lat="33.205083087883175" lon="9.14760530451614"><ele>118.00000000000001</ele><time>2026-03-23T16:50:55Z</time></trkpt><trkpt lat="33.20501375836863" lon="9.147584993317587"><ele>118.0</ele><time>2026-03-23T16:50:56Z</time></trkpt><trkpt lat="33.20494975627922" lon="9.147580167298555"><ele>118.00000000000001</ele><time>2026-03-23T16:50:57Z</time></trkpt><trkpt lat="33.20488224142634" lon="9.147578569282592"><ele>118.0</ele><time>2026-03-23T16:50:58Z</time></trkpt><trkpt lat="33.20480838469282" lon="9.147579679635225"><ele>118.0</ele><time>2026-03-23T16:50:59Z</time></trkpt><trkpt lat="33.20473868154271" lon="9.147573780357709"><ele>118.0</ele><time>2026-03-23T16:51:00Z</time></trkpt><trkpt lat="33.20466181771121" lon="9.147559058399837"><ele>118.00000000000001</ele><time>2026-03-23T16:51:01Z</time></trkpt><trkpt lat="33.20457576507308" lon="9.147543806780705"><ele>118.0</ele><time>2026-03-23T16:51:02Z</time></trkpt><trkpt lat="33.20449800371434" lon="9.147537542454778"><ele>117.50000000000001</ele><time>2026-03-23T16:51:03Z</time></trkpt><trkpt lat="33.20438414666835" lon="9.147520119233826"><ele>117.0</ele><time>2026-03-23T16:51:05Z</time></trkpt><trkpt lat="33.204321468363496" lon="9.147529238246598"><ele>116.5</ele><time>2026-03-23T16:51:06Z</time></trkpt><trkpt lat="33.204196074799825" lon="9.147566120954709"><ele>116.0</ele><time>2026-03-23T16:51:08Z</time></trkpt><trkpt lat="33.20413023667097" lon="9.147565606521049"><ele>115.50000000000001</ele><time>2026-03-23T16:51:09Z</time></trkpt><trkpt lat="33.20406683082817" lon="9.147561832624564"><ele>115.0</ele><time>2026-03-23T16:51:10Z</time></trkpt><trkpt lat="33.204003266547915" lon="9.147556389980933"><ele>115.28571428571428</ele><time>2026-03-23T16:51:11Z</time></trkpt><trkpt lat="33.20393121382806" lon="9.14757182635389"><ele>115.57142857142857</ele><time>2026-03-23T16:51:12Z</time></trkpt><trkpt lat="33.203862028657944" lon="9.147600216719548"><ele>115.85714285714286</ele><time>2026-03-23T16:51:13Z</time></trkpt><trkpt lat="33.20379987813295" lon="9.147623528433963"><ele>116.14285714285714</ele><time>2026-03-23T16:51:14Z</time></trkpt><trkpt lat="33.20373275068708" lon="9.147625153319671"><ele>116.42857142857144</ele><time>2026-03-23T16:51:15Z</time></trkpt><trkpt lat="33.20366614411218" lon="9.147637744020793"><ele>116.71428571428572</ele><time>2026-03-23T16:51:16Z</time></trkpt><trkpt lat="33.2035867407193" lon="9.14771190218684"><ele>117.0</ele><time>2026-03-23T16:51:18Z</time></trkpt><trkpt lat="33.20355101316465" lon="9.147781583195224"><ele>117.0</ele><time>2026-03-23T16:51:19Z</time></trkpt><trkpt lat="33.20348543209739" lon="9.147837325029172"><ele>117.0</ele><time>2026-03-23T16:51:20Z</time></trkpt><trkpt lat="33.20340980877128" lon="9.14788096320629"><ele>117.0</ele><time>2026-03-23T16:51:21Z</time></trkpt><trkpt lat="33.2033398205661" lon="9.147927166423052"><ele>117.0</ele><time>2026-03-23T16:51:22Z</time></trkpt><trkpt lat="33.20327393333448" lon="9.147965049968846"><ele>117.0</ele><time>2026-03-23T16:51:23Z</time></trkpt><trkpt lat="33.203210752930836" lon="9.147984932107564"><ele>117.0</ele><time>2026-03-23T16:51:24Z</time></trkpt><trkpt lat="33.20313691422745" lon="9.147990082821499"><ele>116.39999999999999</ele><time>2026-03-23T16:51:25Z</time></trkpt><trkpt lat="33.20303492322711" lon="9.147956135037678"><ele>115.79999999999998</ele><time>2026-03-23T16:51:27Z</time></trkpt><trkpt lat="33.202909704431946" lon="9.147978361614935"><ele>115.2</ele><time>2026-03-23T16:51:29Z</time></trkpt><trkpt lat="33.20285037368131" lon="9.148013177300516"><ele>114.6</ele><time>2026-03-23T16:51:30Z</time></trkpt><trkpt lat="33.20278436701914" lon="9.148061572682181"><ele>114.0</ele><time>2026-03-23T16:51:31Z</time></trkpt><trkpt lat="33.202717519224635" lon="9.14810399182077"><ele>114.0</ele><time>2026-03-23T16:51:32Z</time></trkpt><trkpt lat="33.2026522019997" lon="9.148124550442574"><ele>113.99999999999999</ele><time>2026-03-23T16:51:33Z</time></trkpt><trkpt lat="33.20258913348901" lon="9.148142839579277"><ele>114.0</ele><time>2026-03-23T16:51:34Z</time></trkpt><trkpt lat="33.20251535698777" lon="9.148159669447082"><ele>114.0</ele><time>2026-03-23T16:51:35Z</time></trkpt><trkpt lat="33.202436422231926" lon="9.14817591744557"><ele>113.99999999999999</ele><time>2026-03-23T16:51:36Z</time></trkpt><trkpt lat="33.20236591133111" lon="9.14818802294034"><ele>114.0</ele><time>2026-03-23T16:51:37Z</time></trkpt><trkpt lat="33.202295289143564" lon="9.148198871504158"><ele>114.0</ele><time>2026-03-23T16:51:38Z</time></trkpt><trkpt lat="33.20219251767284" lon="9.148188193206718"><ele>114.0</ele><time>2026-03-23T16:51:40Z</time></trkpt><trkpt lat="33.20212377337825" lon="9.148160405920544"><ele>114.0</ele><time>2026-03-23T16:51:41Z</time></trkpt><trkpt lat="33.20204062145236" lon="9.148149995457967"><ele>114.0</ele><time>2026-03-23T16:51:42Z</time></trkpt><trkpt lat="33.2019462527492" lon="9.148162886147814"><ele>114.0</ele><time>2026-03-23T16:51:43Z</time></trkpt><trkpt lat="33.20185314257645" lon="9.14817862276166"><ele>114.0</ele><time>2026-03-23T16:51:44Z</time></trkpt><trkpt lat="33.20176670788059" lon="9.148179204394882"><ele>114.0</ele><time>2026-03-23T16:51:45Z</time></trkpt><trkpt lat="33.20167077619942" lon="9.148158174882775"><ele>114.0</ele><time>2026-03-23T16:51:46Z</time></trkpt><trkpt lat="33.201589238233936" lon="9.148122197503236"><ele>114.0</ele><time>2026-03-23T16:51:47Z</time></trkpt><trkpt lat="33.20151076548111" lon="9.148082636971132"><ele>114.0</ele><time>2026-03-23T16:51:48Z</time></trkpt><trkpt lat="33.20144698571575" lon="9.14803116766114"><ele>114.0</ele><time>2026-03-23T16:51:49Z</time></trkpt><trkpt lat="33.20138966834578" lon="9.147976744731372"><ele>114.0</ele><time>2026-03-23T16:51:50Z</time></trkpt><trkpt lat="33.20132486906675" lon="9.147916018638906"><ele>114.0</ele><time>2026-03-23T16:51:51Z</time></trkpt><trkpt lat="33.201233067589676" lon="9.147855221776016"><ele>113.6</ele><time>2026-03-23T16:51:52Z</time></trkpt><trkpt lat="33.20110378447597" lon="9.147785196768156"><ele>113.2</ele><time>2026-03-23T16:51:54Z</time></trkpt><trkpt lat="33.201035100112094" lon="9.147765128411367"><ele>112.79999999999998</ele><time>2026-03-23T16:51:55Z</time></trkpt><trkpt lat="33.200946743894974" lon="9.147748032699052"><ele>112.39999999999999</ele><time>2026-03-23T16:51:56Z</time></trkpt><trkpt lat="33.20086917789431" lon="9.14771373618238"><ele>112.0</ele><time>2026-03-23T16:51:57Z</time></trkpt><trkpt lat="33.20079499744226" lon="9.1476684158988"><ele>112.0</ele><time>2026-03-23T16:51:58Z</time></trkpt><trkpt lat="33.200706503858235" lon="9.14761661166728"><ele>111.99999999999999</ele><time>2026-03-23T16:51:59Z</time></trkpt><trkpt lat="33.200626896775944" lon="9.147590094463167"><ele>111.99999999999999</ele><time>2026-03-23T16:52:00Z</time></trkpt><trkpt lat="33.200538264952684" lon="9.147602115519211"><ele>112.0</ele><time>2026-03-23T16:52:01Z</time></trkpt><trkpt lat="33.20043805334849" lon="9.147623974795641"><ele>112.0</ele><time>2026-03-23T16:52:02Z</time></trkpt><trkpt lat="33.2003312987591" lon="9.147643094358298"><ele>112.16666666666667</ele><time>2026-03-23T16:52:03Z</time></trkpt><trkpt lat="33.20024582643461" lon="9.147654826643969"><ele>112.33333333333334</ele><time>2026-03-23T16:52:04Z</time></trkpt><trkpt lat="33.20015115948088" lon="9.147670749162737"><ele>112.5</ele><time>2026-03-23T16:52:05Z</time></trkpt><trkpt lat="33.20006361300348" lon="9.147682224665793"><ele>112.66666666666666</ele><time>2026-03-23T16:52:06Z</time></trkpt><trkpt lat="33.19998338096391" lon="9.14769243007264"><ele>112.83333333333333</ele><time>2026-03-23T16:52:07Z</time></trkpt><trkpt lat="33.19990321459144" lon="9.147710307309985"><ele>113.0</ele><time>2026-03-23T16:52:08Z</time></trkpt><trkpt lat="33.19980502872467" lon="9.147718488753448"><ele>113.4</ele><time>2026-03-23T16:52:09Z</time></trkpt><trkpt lat="33.199702558704296" lon="9.147723152147329"><ele>113.80000000000001</ele><time>2026-03-23T16:52:10Z</time></trkpt><trkpt lat="33.19960152250138" lon="9.147723395012108"><ele>114.2</ele><time>2026-03-23T16:52:11Z</time></trkpt><trkpt lat="33.19951547597864" lon="9.147715431013735"><ele>114.6</ele><time>2026-03-23T16:52:12Z</time></trkpt><trkpt lat="33.19942805269107" lon="9.147678405399093"><ele>115.0</ele><time>2026-03-23T16:52:13Z</time></trkpt><trkpt lat="33.199350400537284" lon="9.14764938127467"><ele>115.0</ele><time>2026-03-23T16:52:14Z</time></trkpt><trkpt lat="33.19926259084823" lon="9.147623553865513"><ele>115.0</ele><time>2026-03-23T16:52:15Z</time></trkpt><trkpt lat="33.19917362528174" lon="9.14760026311156"><ele>115.0</ele><time>2026-03-23T16:52:16Z</time></trkpt><trkpt lat="33.19907294525831" lon="9.147587897249977"><ele>115.0</ele><time>2026-03-23T16:52:17Z</time></trkpt><trkpt lat="33.198974260244306" lon="9.147580845482363"><ele>115.0</ele><time>2026-03-23T16:52:18Z</time></trkpt><trkpt lat="33.198879914378615" lon="9.147578859153839"><ele>115.2</ele><time>2026-03-23T16:52:19Z</time></trkpt><trkpt lat="33.19879370134014" lon="9.14756655458603"><ele>115.4</ele><time>2026-03-23T16:52:20Z</time></trkpt><trkpt lat="33.19870577342871" lon="9.147557945360518"><ele>115.6</ele><time>2026-03-23T16:52:21Z</time></trkpt><trkpt lat="33.19860908158405" lon="9.14756299705573"><ele>115.8</ele><time>2026-03-23T16:52:22Z</time></trkpt><trkpt lat="33.198520430720336" lon="9.147559500242263"><ele>116.0</ele><time>2026-03-23T16:52:23Z</time></trkpt><trkpt lat="33.19842881920952" lon="9.14754897032326"><ele>115.99999999999999</ele><time>2026-03-23T16:52:24Z</time></trkpt><trkpt lat="33.19836562081578" lon="9.147522841374755"><ele>116.0</ele><time>2026-03-23T16:52:25Z</time></trkpt><trkpt lat="33.19829704434238" lon="9.147488149317033"><ele>116.0</ele><time>2026-03-23T16:52:26Z</time></trkpt><trkpt lat="33.19821925513596" lon="9.147435236315005"><ele>116.0</ele><time>2026-03-23T16:52:27Z</time></trkpt><trkpt lat="33.19813972437806" lon="9.147394595430093"><ele>115.99999999999999</ele><time>2026-03-23T16:52:28Z</time></trkpt><trkpt lat="33.198049458501124" lon="9.147371323477028"><ele>116.0</ele><time>2026-03-23T16:52:29Z</time></trkpt><trkpt lat="33.197967859605036" lon="9.147358285216061"><ele>115.99999999999999</ele><time>2026-03-23T16:52:30Z</time></trkpt><trkpt lat="33.19787778239972" lon="9.14734697435811"><ele>116.0</ele><time>2026-03-23T16:52:31Z</time></trkpt><trkpt lat="33.197804113048264" lon="9.147347591509574"><ele>116.0</ele><time>2026-03-23T16:52:32Z</time></trkpt><trkpt lat="33.19772829095465" lon="9.147349634402401"><ele>116.0</ele><time>2026-03-23T16:52:33Z</time></trkpt><trkpt lat="33.19765039858939" lon="9.147362690265583"><ele>115.99999999999999</ele><time>2026-03-23T16:52:34Z</time></trkpt><trkpt lat="33.19757605355526" lon="9.147381327122071"><ele>116.0</ele><time>2026-03-23T16:52:35Z</time></trkpt><trkpt lat="33.197498105682264" lon="9.14739998376517"><ele>116.16666666666666</ele><time>2026-03-23T16:52:36Z</time></trkpt><trkpt lat="33.1974189354541" lon="9.147425749351967"><ele>116.33333333333333</ele><time>2026-03-23T16:52:37Z</time></trkpt><trkpt lat="33.197332374503105" lon="9.147457287327704"><ele>116.5</ele><time>2026-03-23T16:52:38Z</time></trkpt><trkpt lat="33.19724097271323" lon="9.147482312917331"><ele>116.66666666666666</ele><time>2026-03-23T16:52:39Z</time></trkpt><trkpt lat="33.1971539931411" lon="9.14751013661858"><ele>116.83333333333333</ele><time>2026-03-23T16:52:40Z</time></trkpt><trkpt lat="33.197080806691936" lon="9.147540914085743"><ele>117.0</ele><time>2026-03-23T16:52:41Z</time></trkpt><trkpt lat="33.197007514257955" lon="9.147559587497994"><ele>117.0</ele><time>2026-03-23T16:52:42Z</time></trkpt><trkpt lat="33.19691684530696" lon="9.147567977603467"><ele>116.99999999999999</ele><time>2026-03-23T16:52:43Z</time></trkpt><trkpt lat="33.1968296611076" lon="9.147574393229874"><ele>116.99999999999999</ele><time>2026-03-23T16:52:44Z</time></trkpt><trkpt lat="33.19673478308977" lon="9.147593789117165"><ele>117.0</ele><time>2026-03-23T16:52:45Z</time></trkpt><trkpt lat="33.196643633361205" lon="9.147613399155999"><ele>117.0</ele><time>2026-03-23T16:52:46Z</time></trkpt><trkpt lat="33.196557164903744" lon="9.147632944159763"><ele>116.83333333333333</ele><time>2026-03-23T16:52:47Z</time></trkpt><trkpt lat="33.19646677490038" lon="9.147661034471238"><ele>116.66666666666666</ele><time>2026-03-23T16:52:48Z</time></trkpt><trkpt lat="33.196380318644984" lon="9.147687455053305"><ele>116.5</ele><time>2026-03-23T16:52:49Z</time></trkpt><trkpt lat="33.19630059114929" lon="9.147702800083843"><ele>116.33333333333333</ele><time>2026-03-23T16:52:50Z</time></trkpt><trkpt lat="33.19623517978393" lon="9.147705412694108"><ele>116.16666666666666</ele><time>2026-03-23T16:52:51Z</time></trkpt><trkpt lat="33.19615340349195" lon="9.147715500086328"><ele>116.0</ele><time>2026-03-23T16:52:52Z</time></trkpt><trkpt lat="33.196071324859616" lon="9.147742029200522"><ele>115.99999999999999</ele><time>2026-03-23T16:52:53Z</time></trkpt><trkpt lat="33.1959805073502" lon="9.147773126309112"><ele>116.0</ele><time>2026-03-23T16:52:54Z</time></trkpt><trkpt lat="33.195893736153394" lon="9.14781674701579"><ele>116.0</ele><time>2026-03-23T16:52:55Z</time></trkpt><trkpt lat="33.19581927993318" lon="9.147862521664178"><ele>116.0</ele><time>2026-03-23T16:52:56Z</time></trkpt><trkpt lat="33.19573811346881" lon="9.147905446934496"><ele>115.99999999999999</ele><time>2026-03-23T16:52:57Z</time></trkpt><trkpt lat="33.19565514028764" lon="9.14792251677099"><ele>116.0</ele><time>2026-03-23T16:52:58Z</time></trkpt><trkpt lat="33.19556048104907" lon="9.147924847701328"><ele>115.66666666666666</ele><time>2026-03-23T16:52:59Z</time></trkpt><trkpt lat="33.19547304819411" lon="9.147923902560072"><ele>115.33333333333333</ele><time>2026-03-23T16:53:00Z</time></trkpt><trkpt lat="33.19538302391169" lon="9.147927073636199"><ele>115.0</ele><time>2026-03-23T16:53:01Z</time></trkpt><trkpt lat="33.195308287495244" lon="9.147940984635506"><ele>114.66666666666666</ele><time>2026-03-23T16:53:02Z</time></trkpt><trkpt lat="33.195242073686344" lon="9.147950526119121"><ele>114.33333333333333</ele><time>2026-03-23T16:53:03Z</time></trkpt><trkpt lat="33.1951724138279" lon="9.147954728291465"><ele>114.0</ele><time>2026-03-23T16:53:04Z</time></trkpt><trkpt lat="33.19510140844754" lon="9.147952874044897"><ele>114.0</ele><time>2026-03-23T16:53:05Z</time></trkpt><trkpt lat="33.19501331801769" lon="9.147953422823338"><ele>114.0</ele><time>2026-03-23T16:53:06Z</time></trkpt><trkpt lat="33.19494210419885" lon="9.147972675662185"><ele>114.0</ele><time>2026-03-23T16:53:07Z</time></trkpt><trkpt lat="33.19487544380749" lon="9.147982434751396"><ele>114.0</ele><time>2026-03-23T16:53:08Z</time></trkpt><trkpt lat="33.19479527076184" lon="9.147987116170427"><ele>114.0</ele><time>2026-03-23T16:53:09Z</time></trkpt><trkpt lat="33.19473002242976" lon="9.147996524169184"><ele>114.0</ele><time>2026-03-23T16:53:10Z</time></trkpt><trkpt lat="33.19460985097105" lon="9.14800148820596"><ele>114.28571428571428</ele><time>2026-03-23T16:53:12Z</time></trkpt><trkpt lat="33.19454627337973" lon="9.147991028684215"><ele>114.57142857142856</ele><time>2026-03-23T16:53:13Z</time></trkpt><trkpt lat="33.19447374910057" lon="9.147976975980907"><ele>114.85714285714286</ele><time>2026-03-23T16:53:14Z</time></trkpt><trkpt lat="33.194404892939595" lon="9.147976756445301"><ele>115.14285714285714</ele><time>2026-03-23T16:53:15Z</time></trkpt><trkpt lat="33.19433356785665" lon="9.148005561487377"><ele>115.42857142857143</ele><time>2026-03-23T16:53:16Z</time></trkpt><trkpt lat="33.194266818062935" lon="9.148036428893906"><ele>115.71428571428572</ele><time>2026-03-23T16:53:17Z</time></trkpt><trkpt lat="33.194182058743365" lon="9.1480347657177"><ele>116.00000000000001</ele><time>2026-03-23T16:53:19Z</time></trkpt><trkpt lat="33.19409379061295" lon="9.148009119427181"><ele>115.99999999999999</ele><time>2026-03-23T16:53:21Z</time></trkpt><trkpt lat="33.194017445905146" lon="9.14793048524082"><ele>116.0</ele><time>2026-03-23T16:53:23Z</time></trkpt><trkpt lat="33.19400164449879" lon="9.14784507402939"><ele>116.0</ele><time>2026-03-23T16:53:25Z</time></trkpt><trkpt lat="33.19396915147241" lon="9.147749614063951"><ele>116.0</ele><time>2026-03-23T16:53:27Z</time></trkpt><trkpt lat="33.193896699198966" lon="9.147723585356832"><ele>115.99999999999999</ele><time>2026-03-23T16:53:29Z</time></trkpt><trkpt lat="33.193790367854874" lon="9.147746282899137"><ele>116.0</ele><time>2026-03-23T16:53:31Z</time></trkpt><trkpt lat="33.19365606832874" lon="9.147817705898348"><ele>116.16666666666666</ele><time>2026-03-23T16:53:33Z</time></trkpt><trkpt lat="33.19359240697573" lon="9.147880235025061"><ele>116.33333333333333</ele><time>2026-03-23T16:53:34Z</time></trkpt><trkpt lat="33.193528443335964" lon="9.147944233223418"><ele>116.5</ele><time>2026-03-23T16:53:35Z</time></trkpt><trkpt lat="33.193464681120716" lon="9.147979041294779"><ele>116.66666666666666</ele><time>2026-03-23T16:53:36Z</time></trkpt><trkpt lat="33.19340002994963" lon="9.148001577120144"><ele>116.83333333333333</ele><time>2026-03-23T16:53:37Z</time></trkpt><trkpt lat="33.19333547321892" lon="9.148010003553711"><ele>117.0</ele><time>2026-03-23T16:53:38Z</time></trkpt><trkpt lat="33.19320702109308" lon="9.148004721155832"><ele>117.0</ele><time>2026-03-23T16:53:40Z</time></trkpt><trkpt lat="33.1931360726316" lon="9.147968508681966"><ele>116.99999999999999</ele><time>2026-03-23T16:53:42Z</time></trkpt><trkpt lat="33.19303661946841" lon="9.147971839332067"><ele>116.99999999999999</ele><time>2026-03-23T16:53:44Z</time></trkpt><trkpt lat="33.192964534672214" lon="9.147978480549241"><ele>117.0</ele><time>2026-03-23T16:53:46Z</time></trkpt><trkpt lat="33.19285860599669" lon="9.148001089703786"><ele>117.0</ele><time>2026-03-23T16:53:48Z</time></trkpt><trkpt lat="33.19276676943151" lon="9.147973372518136"><ele>117.0</ele><time>2026-03-23T16:53:50Z</time></trkpt><trkpt lat="33.19266735507515" lon="9.147913098752495"><ele>116.99999999999999</ele><time>2026-03-23T16:53:52Z</time></trkpt><trkpt lat="33.19255524132589" lon="9.147876418493945"><ele>116.99999999999999</ele><time>2026-03-23T16:53:54Z</time></trkpt><trkpt lat="33.19249169660102" lon="9.147803079287208"><ele>117.0</ele><time>2026-03-23T16:53:56Z</time></trkpt><trkpt lat="33.192416661278" lon="9.147691138539978"><ele>117.0</ele><time>2026-03-23T16:53:58Z</time></trkpt><trkpt lat="33.1923175586042" lon="9.147653218364242"><ele>117.0</ele><time>2026-03-23T16:54:00Z</time></trkpt><trkpt lat="33.192207569580205" lon="9.147627345013817"><ele>116.99999999999999</ele><time>2026-03-23T16:54:02Z</time></trkpt><trkpt lat="33.19214895856063" lon="9.14759583340955"><ele>116.99999999999999</ele><time>2026-03-23T16:54:03Z</time></trkpt><trkpt lat="33.192089238245025" lon="9.147560525256166"><ele>117.0</ele><time>2026-03-23T16:54:04Z</time></trkpt><trkpt lat="33.19202428916685" lon="9.147542227607724"><ele>117.0</ele><time>2026-03-23T16:54:05Z</time></trkpt><trkpt lat="33.191884483519125" lon="9.147534090482935"><ele>117.0</ele><time>2026-03-23T16:54:07Z</time></trkpt><trkpt lat="33.191814108924916" lon="9.14749959436161"><ele>117.0</ele><time>2026-03-23T16:54:08Z</time></trkpt><trkpt lat="33.191752599979964" lon="9.14746051401283"><ele>117.0</ele><time>2026-03-23T16:54:09Z</time></trkpt><trkpt lat="33.19168870523354" lon="9.147450525936886"><ele>117.0</ele><time>2026-03-23T16:54:10Z</time></trkpt><trkpt lat="33.191616031406824" lon="9.14746058059665"><ele>117.0</ele><time>2026-03-23T16:54:11Z</time></trkpt><trkpt lat="33.19152773522463" lon="9.14747422538998"><ele>117.0</ele><time>2026-03-23T16:54:12Z</time></trkpt><trkpt lat="33.19143253472745" lon="9.147502666606808"><ele>116.83333333333333</ele><time>2026-03-23T16:54:13Z</time></trkpt><trkpt lat="33.191358356324805" lon="9.147529931753446"><ele>116.66666666666666</ele><time>2026-03-23T16:54:14Z</time></trkpt><trkpt lat="33.19129857087196" lon="9.147563412276726"><ele>116.5</ele><time>2026-03-23T16:54:15Z</time></trkpt><trkpt lat="33.19121058764552" lon="9.147605076556884"><ele>116.33333333333333</ele><time>2026-03-23T16:54:16Z</time></trkpt><trkpt lat="33.19113641622126" lon="9.147646500725621"><ele>116.16666666666666</ele><time>2026-03-23T16:54:17Z</time></trkpt><trkpt lat="33.191060440721614" lon="9.147690705245633"><ele>116.0</ele><time>2026-03-23T16:54:18Z</time></trkpt><trkpt lat="33.190993282781335" lon="9.147724093318947"><ele>115.99999999999999</ele><time>2026-03-23T16:54:19Z</time></trkpt><trkpt lat="33.19089637374358" lon="9.147735337711973"><ele>116.0</ele><time>2026-03-23T16:54:21Z</time></trkpt><trkpt lat="33.19081527749169" lon="9.14772442480951"><ele>116.0</ele><time>2026-03-23T16:54:23Z</time></trkpt><trkpt lat="33.1907450508" lon="9.147714369038468"><ele>116.0</ele><time>2026-03-23T16:54:25Z</time></trkpt><trkpt lat="33.190675474392414" lon="9.147735556763724"><ele>115.99999999999999</ele><time>2026-03-23T16:54:27Z</time></trkpt><trkpt lat="33.19059238306941" lon="9.147715913156349"><ele>116.0</ele><time>2026-03-23T16:54:30Z</time></trkpt><trkpt lat="33.190543136279835" lon="9.147803784399828"><ele>115.99999999999999</ele><time>2026-03-23T17:08:44Z</time></trkpt><trkpt lat="33.19060013140973" lon="9.147913080853797"><ele>116.0</ele><time>2026-03-23T17:08:46Z</time></trkpt><trkpt lat="33.190638394837286" lon="9.147977944856333"><ele>116.0</ele><time>2026-03-23T17:08:47Z</time></trkpt><trkpt lat="33.19067374473881" lon="9.148057989184792"><ele>116.0</ele><time>2026-03-23T17:08:48Z</time></trkpt><trkpt lat="33.190717087820815" lon="9.148150844556989"><ele>115.99999999999999</ele><time>2026-03-23T17:08:49Z</time></trkpt><trkpt lat="33.1907699999238" lon="9.148244284542782"><ele>116.0</ele><time>2026-03-23T17:08:50Z</time></trkpt><trkpt lat="33.19083159545511" lon="9.148339437491629"><ele>116.19999999999999</ele><time>2026-03-23T17:08:51Z</time></trkpt><trkpt lat="33.19089331662978" lon="9.148418438440451"><ele>116.39999999999999</ele><time>2026-03-23T17:08:52Z</time></trkpt><trkpt lat="33.1909710551906" lon="9.148494250133277"><ele>116.6</ele><time>2026-03-23T17:08:53Z</time></trkpt><trkpt lat="33.19104709933893" lon="9.148563367154734"><ele>116.8</ele><time>2026-03-23T17:08:54Z</time></trkpt><trkpt lat="33.19112891605447" lon="9.148630225789018"><ele>117.0</ele><time>2026-03-23T17:08:55Z</time></trkpt><trkpt lat="33.191209596837155" lon="9.14869440151438"><ele>117.0</ele><time>2026-03-23T17:08:56Z</time></trkpt><trkpt lat="33.19129095339621" lon="9.148762095959112"><ele>116.99999999999999</ele><time>2026-03-23T17:08:57Z</time></trkpt><trkpt lat="33.19137341320089" lon="9.148838165850913"><ele>116.99999999999999</ele><time>2026-03-23T17:08:58Z</time></trkpt><trkpt lat="33.19145653713863" lon="9.148923641351322"><ele>117.0</ele><time>2026-03-23T17:08:59Z</time></trkpt><trkpt lat="33.19155160749072" lon="9.14900115805626"><ele>117.0</ele><time>2026-03-23T17:09:00Z</time></trkpt><trkpt lat="33.1916422079313" lon="9.149077869283792"><ele>117.19999999999999</ele><time>2026-03-23T17:09:01Z</time></trkpt><trkpt lat="33.19172982629911" lon="9.14915323558756"><ele>117.39999999999999</ele><time>2026-03-23T17:09:02Z</time></trkpt><trkpt lat="33.191822870561374" lon="9.149228261511448"><ele>117.60000000000001</ele><time>2026-03-23T17:09:03Z</time></trkpt><trkpt lat="33.19191488095405" lon="9.149305569786398"><ele>117.80000000000001</ele><time>2026-03-23T17:09:04Z</time></trkpt><trkpt lat="33.19200131091233" lon="9.14938280632781"><ele>118.0</ele><time>2026-03-23T17:09:05Z</time></trkpt><trkpt lat="33.192085608010984" lon="9.149469225114693"><ele>118.0</ele><time>2026-03-23T17:09:06Z</time></trkpt><trkpt lat="33.19216574750829" lon="9.149565528486482"><ele>118.0</ele><time>2026-03-23T17:09:07Z</time></trkpt><trkpt lat="33.19224659189709" lon="9.149667829502866"><ele>118.0</ele><time>2026-03-23T17:09:08Z</time></trkpt><trkpt lat="33.192324638685356" lon="9.149772781253638"><ele>118.0</ele><time>2026-03-23T17:09:09Z</time></trkpt><trkpt lat="33.192393641178555" lon="9.149879955665389"><ele>117.5</ele><time>2026-03-23T17:09:10Z</time></trkpt><trkpt lat="33.192460683639716" lon="9.150000332096356"><ele>117.0</ele><time>2026-03-23T17:09:11Z</time></trkpt><trkpt lat="33.192521779313715" lon="9.15013271719485"><ele>116.5</ele><time>2026-03-23T17:09:12Z</time></trkpt><trkpt lat="33.19257965808691" lon="9.150264373645276"><ele>116.0</ele><time>2026-03-23T17:09:13Z</time></trkpt><trkpt lat="33.19263898339379" lon="9.150399683725926"><ele>116.0</ele><time>2026-03-23T17:09:14Z</time></trkpt><trkpt lat="33.19271034727295" lon="9.150538689135479"><ele>116.0</ele><time>2026-03-23T17:09:15Z</time></trkpt><trkpt lat="33.19279871676574" lon="9.150674197596778"><ele>116.0</ele><time>2026-03-23T17:09:16Z</time></trkpt><trkpt lat="33.19289377703817" lon="9.15080918619781"><ele>116.0</ele><time>2026-03-23T17:09:17Z</time></trkpt><trkpt lat="33.19299226345448" lon="9.150935573498126"><ele>116.0</ele><time>2026-03-23T17:09:18Z</time></trkpt><trkpt lat="33.19309423680242" lon="9.15106125725797"><ele>116.0</ele><time>2026-03-23T17:09:19Z</time></trkpt><trkpt lat="33.19319840779643" lon="9.151189888557209"><ele>116.0</ele><time>2026-03-23T17:09:20Z</time></trkpt><trkpt lat="33.193302944618374" lon="9.151318245917809"><ele>116.0</ele><time>2026-03-23T17:09:21Z</time></trkpt><trkpt lat="33.19341735423746" lon="9.15144381646276"><ele>116.33333333333333</ele><time>2026-03-23T17:09:22Z</time></trkpt><trkpt lat="33.1935211313357" lon="9.151566324887147"><ele>116.66666666666666</ele><time>2026-03-23T17:09:23Z</time></trkpt><trkpt lat="33.19362442002242" lon="9.151701970900268"><ele>117.0</ele><time>2026-03-23T17:09:24Z</time></trkpt><trkpt lat="33.19372833075485" lon="9.151839232944786"><ele>117.0</ele><time>2026-03-23T17:09:25Z</time></trkpt><trkpt lat="33.19382291692797" lon="9.15197161657769"><ele>117.0</ele><time>2026-03-23T17:09:26Z</time></trkpt><trkpt lat="33.19393054944596" lon="9.152102848250959"><ele>117.0</ele><time>2026-03-23T17:09:27Z</time></trkpt><trkpt lat="33.19401646704153" lon="9.15223296414186"><ele>117.0</ele><time>2026-03-23T17:09:28Z</time></trkpt><trkpt lat="33.19410745235603" lon="9.152379354160727"><ele>117.25</ele><time>2026-03-23T17:09:29Z</time></trkpt><trkpt lat="33.19419760613172" lon="9.15251038649716"><ele>117.5</ele><time>2026-03-23T17:09:30Z</time></trkpt><trkpt lat="33.19429148826834" lon="9.152641418432653"><ele>117.75</ele><time>2026-03-23T17:09:31Z</time></trkpt><trkpt lat="33.1943844914841" lon="9.152775292835024"><ele>118.0</ele><time>2026-03-23T17:09:32Z</time></trkpt><trkpt lat="33.194466917214626" lon="9.15290656778042"><ele>118.0</ele><time>2026-03-23T17:09:33Z</time></trkpt><trkpt lat="33.19454829667271" lon="9.153043049937187"><ele>118.0</ele><time>2026-03-23T17:09:34Z</time></trkpt><trkpt lat="33.19463075720706" lon="9.153180148522097"><ele>118.0</ele><time>2026-03-23T17:09:35Z</time></trkpt><trkpt lat="33.194721254724094" lon="9.153309724971185"><ele>118.0</ele><time>2026-03-23T17:09:36Z</time></trkpt><trkpt lat="33.19481932382544" lon="9.1534340391447"><ele>118.0</ele><time>2026-03-23T17:09:37Z</time></trkpt><trkpt lat="33.19492063441219" lon="9.15355687385597"><ele>118.0</ele><time>2026-03-23T17:09:38Z</time></trkpt><trkpt lat="33.19501693507401" lon="9.153679227161643"><ele>118.0</ele><time>2026-03-23T17:09:39Z</time></trkpt><trkpt lat="33.19511578262636" lon="9.153806247070316"><ele>118.0</ele><time>2026-03-23T17:09:40Z</time></trkpt><trkpt lat="33.19520719636556" lon="9.153940451427442"><ele>118.0</ele><time>2026-03-23T17:09:41Z</time></trkpt><trkpt lat="33.1952819664342" lon="9.154075204675785"><ele>118.0</ele><time>2026-03-23T17:09:42Z</time></trkpt><trkpt lat="33.195358683583905" lon="9.15422024526384"><ele>118.0</ele><time>2026-03-23T17:09:43Z</time></trkpt><trkpt lat="33.19542814410754" lon="9.154360804467917"><ele>118.0</ele><time>2026-03-23T17:09:44Z</time></trkpt><trkpt lat="33.195504090090374" lon="9.154503840164077"><ele>118.0</ele><time>2026-03-23T17:09:45Z</time></trkpt><trkpt lat="33.1955816415346" lon="9.154646295178033"><ele>118.0</ele><time>2026-03-23T17:09:46Z</time></trkpt><trkpt lat="33.19567512962667" lon="9.154792916176062"><ele>118.0</ele><time>2026-03-23T17:09:47Z</time></trkpt><trkpt lat="33.19577428534127" lon="9.154926824348568"><ele>118.0</ele><time>2026-03-23T17:09:48Z</time></trkpt><trkpt lat="33.19586531951533" lon="9.15505281789108"><ele>118.5</ele><time>2026-03-23T17:09:49Z</time></trkpt><trkpt lat="33.195945432809786" lon="9.155179361105523"><ele>119.0</ele><time>2026-03-23T17:09:50Z</time></trkpt><trkpt lat="33.19603455947128" lon="9.155311612520304"><ele>119.5</ele><time>2026-03-23T17:09:51Z</time></trkpt><trkpt lat="33.19613514332229" lon="9.155443633312702"><ele>120.0</ele><time>2026-03-23T17:09:52Z</time></trkpt><trkpt lat="33.19623885707068" lon="9.155567548618631"><ele>120.0</ele><time>2026-03-23T17:09:53Z</time></trkpt><trkpt lat="33.19633759111871" lon="9.155688186848455"><ele>120.0</ele><time>2026-03-23T17:09:54Z</time></trkpt><trkpt lat="33.19643644547445" lon="9.155811607833742"><ele>120.0</ele><time>2026-03-23T17:09:55Z</time></trkpt><trkpt lat="33.19652968166985" lon="9.155932509226103"><ele>120.0</ele><time>2026-03-23T17:09:56Z</time></trkpt><trkpt lat="33.19661512902205" lon="9.156054808095911"><ele>120.0</ele><time>2026-03-23T17:09:57Z</time></trkpt><trkpt lat="33.19669115890636" lon="9.156180829906925"><ele>120.0</ele><time>2026-03-23T17:09:58Z</time></trkpt><trkpt lat="33.196770051853555" lon="9.156312398773597"><ele>120.0</ele><time>2026-03-23T17:09:59Z</time></trkpt><trkpt lat="33.19684337889958" lon="9.156452274506243"><ele>120.0</ele><time>2026-03-23T17:10:00Z</time></trkpt><trkpt lat="33.19692432960821" lon="9.15658721010266"><ele>120.25</ele><time>2026-03-23T17:10:01Z</time></trkpt><trkpt lat="33.19700809056231" lon="9.156708168547722"><ele>120.5</ele><time>2026-03-23T17:10:02Z</time></trkpt><trkpt lat="33.19709886360051" lon="9.156827429358177"><ele>120.75</ele><time>2026-03-23T17:10:03Z</time></trkpt><trkpt lat="33.19718589630617" lon="9.1569543702465"><ele>121.0</ele><time>2026-03-23T17:10:04Z</time></trkpt><trkpt lat="33.19727228422681" lon="9.157081322398044"><ele>120.5</ele><time>2026-03-23T17:10:05Z</time></trkpt><trkpt lat="33.19735931573741" lon="9.157204467086535"><ele>120.0</ele><time>2026-03-23T17:10:06Z</time></trkpt><trkpt lat="33.19745239385962" lon="9.157326572350936"><ele>119.5</ele><time>2026-03-23T17:10:07Z</time></trkpt><trkpt lat="33.197563539221136" lon="9.157448239788597"><ele>119.0</ele><time>2026-03-23T17:10:08Z</time></trkpt><trkpt lat="33.197670098032695" lon="9.157563496348693"><ele>118.75</ele><time>2026-03-23T17:10:09Z</time></trkpt><trkpt lat="33.19776916708467" lon="9.157676519970918"><ele>118.5</ele><time>2026-03-23T17:10:10Z</time></trkpt><trkpt lat="33.19786738249158" lon="9.157797928603946"><ele>118.25</ele><time>2026-03-23T17:10:11Z</time></trkpt><trkpt lat="33.19795561378979" lon="9.157922721448022"><ele>118.0</ele><time>2026-03-23T17:10:12Z</time></trkpt><trkpt lat="33.198031924518475" lon="9.158056384604963"><ele>118.0</ele><time>2026-03-23T17:10:13Z</time></trkpt><trkpt lat="33.19810677451967" lon="9.158194175858817"><ele>118.0</ele><time>2026-03-23T17:10:14Z</time></trkpt><trkpt lat="33.19820174909482" lon="9.158334069775217"><ele>118.0</ele><time>2026-03-23T17:10:15Z</time></trkpt><trkpt lat="33.19829656773074" lon="9.158473147338235"><ele>118.0</ele><time>2026-03-23T17:10:16Z</time></trkpt><trkpt lat="33.198387133195055" lon="9.158616327490089"><ele>118.0</ele><time>2026-03-23T17:10:17Z</time></trkpt><trkpt lat="33.19846957502714" lon="9.158750356881228"><ele>118.0</ele><time>2026-03-23T17:10:18Z</time></trkpt><trkpt lat="33.19856410190504" lon="9.158879460800676"><ele>118.0</ele><time>2026-03-23T17:10:19Z</time></trkpt><trkpt lat="33.198668023369166" lon="9.158993317109955"><ele>118.0</ele><time>2026-03-23T17:10:20Z</time></trkpt><trkpt lat="33.19877389690001" lon="9.159109888814328"><ele>118.25</ele><time>2026-03-23T17:10:21Z</time></trkpt><trkpt lat="33.19887125494673" lon="9.159227788719006"><ele>118.5</ele><time>2026-03-23T17:10:22Z</time></trkpt><trkpt lat="33.198969438785525" lon="9.159346631592612"><ele>118.75</ele><time>2026-03-23T17:10:23Z</time></trkpt><trkpt lat="33.1990639257978" lon="9.159468112084852"><ele>119.0</ele><time>2026-03-23T17:10:24Z</time></trkpt><trkpt lat="33.19914449073577" lon="9.15958863500541"><ele>119.0</ele><time>2026-03-23T17:10:25Z</time></trkpt><trkpt lat="33.19922544913407" lon="9.159717505010923"><ele>119.0</ele><time>2026-03-23T17:10:26Z</time></trkpt><trkpt lat="33.19929700534933" lon="9.159835853941626"><ele>119.0</ele><time>2026-03-23T17:10:27Z</time></trkpt><trkpt lat="33.19936377286415" lon="9.15994221808575"><ele>119.0</ele><time>2026-03-23T17:10:28Z</time></trkpt><trkpt lat="33.19943866738694" lon="9.160061197610174"><ele>119.4</ele><time>2026-03-23T17:10:29Z</time></trkpt><trkpt lat="33.19949383963646" lon="9.160175368723216"><ele>119.80000000000001</ele><time>2026-03-23T17:10:30Z</time></trkpt><trkpt lat="33.19954239990813" lon="9.160298037999468"><ele>120.19999999999999</ele><time>2026-03-23T17:10:31Z</time></trkpt><trkpt lat="33.19956937976536" lon="9.160389806285126"><ele>120.6</ele><time>2026-03-23T17:10:32Z</time></trkpt><trkpt lat="33.19959758253584" lon="9.160486884492146"><ele>121.0</ele><time>2026-03-23T17:10:33Z</time></trkpt><trkpt lat="33.19961999321343" lon="9.160625855245243"><ele>121.19999999999999</ele><time>2026-03-23T17:10:35Z</time></trkpt><trkpt lat="33.19963196768762" lon="9.160759290946444"><ele>121.39999999999999</ele><time>2026-03-23T17:10:37Z</time></trkpt><trkpt lat="33.19964295485904" lon="9.16085106429463"><ele>121.6</ele><time>2026-03-23T17:10:38Z</time></trkpt><trkpt lat="33.19967514382598" lon="9.160948542224512"><ele>121.8</ele><time>2026-03-23T17:10:39Z</time></trkpt><trkpt lat="33.199732590807415" lon="9.16104383190644"><ele>122.0</ele><time>2026-03-23T17:10:40Z</time></trkpt><trkpt lat="33.19980518367053" lon="9.161131432331583"><ele>121.83333333333333</ele><time>2026-03-23T17:10:41Z</time></trkpt><trkpt lat="33.19986370404265" lon="9.161210889969306"><ele>121.66666666666666</ele><time>2026-03-23T17:10:42Z</time></trkpt><trkpt lat="33.199903312000956" lon="9.161285448760973"><ele>121.5</ele><time>2026-03-23T17:10:43Z</time></trkpt><trkpt lat="33.19993306708403" lon="9.161359448280006"><ele>121.33333333333334</ele><time>2026-03-23T17:10:44Z</time></trkpt><trkpt lat="33.199958766898305" lon="9.161457953947327"><ele>121.16666666666667</ele><time>2026-03-23T17:10:46Z</time></trkpt><trkpt lat="33.19993446088156" lon="9.16155007875151"><ele>121.0</ele><time>2026-03-23T17:10:50Z</time></trkpt><trkpt lat="33.200011872867755" lon="9.16160733545055"><ele>121.0</ele><time>2026-03-23T17:11:20Z</time></trkpt><trkpt lat="33.20004228859488" lon="9.161526599574971"><ele>120.0</ele><time>2026-03-23T17:11:22Z</time></trkpt><trkpt lat="33.19999658226915" lon="9.161437260284451"><ele>120.0</ele><time>2026-03-23T17:11:24Z</time></trkpt><trkpt lat="33.1999039875198" lon="9.161413557690793"><ele>120.0</ele><time>2026-03-23T17:11:26Z</time></trkpt><trkpt lat="33.19986585357255" lon="9.161491855435592"><ele>120.0</ele><time>2026-03-23T17:11:28Z</time></trkpt></trkseg></trk></gpx>